<?xml version="1.0" encoding="UTF-8" standalone="no" ?>
<gpx xmlns="http://www.topografix.com/GPX/1/1" xmlns:xsi="http://www.w3.org/2001/XMLSchema-instance" xsi:schemaLocation="http://www.topografix.com/GPX/1/1 http://www.topografix.com/GPX/1/1/gpx.xsd" version="1.1" creator="VisuGPX - https://www.visugpx.com">
  <metadata>
    <name>Pierref_NDAng_Babaou</name>
  </metadata>
  <trk>
    <name><![CDATA[Pierref_NDAng_Babaou]]></name>
    <extensions>
      <line xmlns="http://www.topografix.com/GPX/gpx_style/0/2">
        <color>0000FF</color>
        <width>4</width>
      </line>
    </extensions>
    <trkseg>
      <trkpt lat="43.23745" lon="6.14973">
        <ele>60.35292053223</ele>
        <time>2020-09-11T12:10:20.000Z</time>
      </trkpt>
      <trkpt lat="43.23745" lon="6.14972">
        <ele>60.3390007019</ele>
        <time>2020-09-11T12:10:20.000Z</time>
      </trkpt>
      <trkpt lat="43.23753" lon="6.14978">
        <ele>60.23123168945</ele>
        <time>2020-09-11T12:10:20.002Z</time>
      </trkpt>
      <trkpt lat="43.23753" lon="6.14978">
        <ele>60.2310295105</ele>
        <time>2020-09-11T12:10:20.004Z</time>
      </trkpt>
      <trkpt lat="43.23834" lon="6.15023">
        <ele>61.09181594849</ele>
        <time>2020-09-11T12:10:20.019Z</time>
      </trkpt>
      <trkpt lat="43.23878" lon="6.15038">
        <ele>61.06939315796</ele>
        <time>2020-09-11T12:10:20.042Z</time>
      </trkpt>
      <trkpt lat="43.23873" lon="6.15079">
        <ele>61.88391113281</ele>
        <time>2020-09-11T12:10:20.069Z</time>
      </trkpt>
      <trkpt lat="43.23873" lon="6.15079">
        <ele>61.88381195068</ele>
        <time>2020-09-11T12:10:20.096Z</time>
      </trkpt>
      <trkpt lat="43.23884" lon="6.15167">
        <ele>63.61973190308</ele>
        <time>2020-09-11T12:10:20.134Z</time>
      </trkpt>
      <trkpt lat="43.23919" lon="6.15261">
        <ele>62.11511993408</ele>
        <time>2020-09-11T12:10:20.184Z</time>
      </trkpt>
      <trkpt lat="43.24009" lon="6.15424">
        <ele>63.31360244751</ele>
        <time>2020-09-11T12:10:20.258Z</time>
      </trkpt>
      <trkpt lat="43.2406" lon="6.15495">
        <ele>64.93255615234</ele>
        <time>2020-09-11T12:10:20.344Z</time>
      </trkpt>
      <trkpt lat="43.24095" lon="6.1558">
        <ele>64.76934814453</ele>
        <time>2020-09-11T12:10:20.441Z</time>
      </trkpt>
      <trkpt lat="43.24203" lon="6.15603">
        <ele>72.64274597168</ele>
        <time>2020-09-11T12:10:20.556Z</time>
      </trkpt>
      <trkpt lat="43.24223" lon="6.15614">
        <ele>73.74977874756</ele>
        <time>2020-09-11T12:10:20.674Z</time>
      </trkpt>
      <trkpt lat="43.24342" lon="6.15797">
        <ele>78.91326141357</ele>
        <time>2020-09-11T12:10:20.821Z</time>
      </trkpt>
      <trkpt lat="43.24356" lon="6.1583">
        <ele>79.04389190674</ele>
        <time>2020-09-11T12:10:20.972Z</time>
      </trkpt>
      <trkpt lat="43.24502" lon="6.16074">
        <ele>78</ele>
        <time>2020-09-11T12:10:21.160Z</time>
      </trkpt>
      <trkpt lat="43.24502" lon="6.16074">
        <ele>78</ele>
        <time>2020-09-11T12:10:21.348Z</time>
      </trkpt>
      <trkpt lat="43.24539" lon="6.16198">
        <ele>78.6245803833</ele>
        <time>2020-09-11T12:10:21.552Z</time>
      </trkpt>
      <trkpt lat="43.24602" lon="6.16471">
        <ele>83.07176208496</ele>
        <time>2020-09-11T12:10:21.789Z</time>
      </trkpt>
      <trkpt lat="43.24648" lon="6.16561">
        <ele>83.36685943604</ele>
        <time>2020-09-11T12:10:22.039Z</time>
      </trkpt>
      <trkpt lat="43.24687" lon="6.166">
        <ele>82.53157806396</ele>
        <time>2020-09-11T12:10:22.297Z</time>
      </trkpt>
      <trkpt lat="43.24738" lon="6.1669">
        <ele>80.35087585449</ele>
        <time>2020-09-11T12:10:22.568Z</time>
      </trkpt>
      <trkpt lat="43.24738" lon="6.1669">
        <ele>80.35087585449</ele>
        <time>2020-09-11T12:10:22.839Z</time>
      </trkpt>
      <trkpt lat="43.24748" lon="6.16706">
        <ele>79.77161407471</ele>
        <time>2020-09-11T12:10:23.113Z</time>
      </trkpt>
      <trkpt lat="43.24782" lon="6.16755">
        <ele>79.26441955566</ele>
        <time>2020-09-11T12:10:23.394Z</time>
      </trkpt>
      <trkpt lat="43.24845" lon="6.16849">
        <ele>79.6763381958</ele>
        <time>2020-09-11T12:10:23.690Z</time>
      </trkpt>
      <trkpt lat="43.24869" lon="6.16905">
        <ele>79.84610748291</ele>
        <time>2020-09-11T12:10:23.994Z</time>
      </trkpt>
      <trkpt lat="43.24907" lon="6.1695">
        <ele>79.39556884766</ele>
        <time>2020-09-11T12:10:24.306Z</time>
      </trkpt>
      <trkpt lat="43.24959" lon="6.16982">
        <ele>81.15093231201</ele>
        <time>2020-09-11T12:10:24.627Z</time>
      </trkpt>
      <trkpt lat="43.25165" lon="6.17019">
        <ele>86.13583374023</ele>
        <time>2020-09-11T12:10:24.981Z</time>
      </trkpt>
      <trkpt lat="43.25264" lon="6.16984">
        <ele>86.5048828125</ele>
        <time>2020-09-11T12:10:25.352Z</time>
      </trkpt>
      <trkpt lat="43.25315" lon="6.16978">
        <ele>88.27098846436</ele>
        <time>2020-09-11T12:10:25.731Z</time>
      </trkpt>
      <trkpt lat="43.25433" lon="6.17047">
        <ele>84.47604370117</ele>
        <time>2020-09-11T12:10:26.130Z</time>
      </trkpt>
      <trkpt lat="43.25465" lon="6.17047">
        <ele>86.40691375732</ele>
        <time>2020-09-11T12:10:26.535Z</time>
      </trkpt>
      <trkpt lat="43.2554" lon="6.17115">
        <ele>87.34494781494</ele>
        <time>2020-09-11T12:10:26.954Z</time>
      </trkpt>
      <trkpt lat="43.25606" lon="6.17152">
        <ele>90.46175384521</ele>
        <time>2020-09-11T12:10:27.384Z</time>
      </trkpt>
      <trkpt lat="43.25653" lon="6.17199">
        <ele>90.46175384521</ele>
        <time>2020-09-11T12:10:27.824Z</time>
      </trkpt>
      <trkpt lat="43.25889" lon="6.17356">
        <ele>92.86722564697</ele>
        <time>2020-09-11T12:10:28.306Z</time>
      </trkpt>
      <trkpt lat="43.25933" lon="6.17401">
        <ele>91.99380493164</ele>
        <time>2020-09-11T12:10:28.797Z</time>
      </trkpt>
      <trkpt lat="43.25992" lon="6.17495">
        <ele>91.91466522217</ele>
        <time>2020-09-11T12:10:29.302Z</time>
      </trkpt>
      <trkpt lat="43.26052" lon="6.17629">
        <ele>93.03885650635</ele>
        <time>2020-09-11T12:10:29.825Z</time>
      </trkpt>
      <trkpt lat="43.26156" lon="6.1786">
        <ele>92.75543212891</ele>
        <time>2020-09-11T12:10:30.380Z</time>
      </trkpt>
      <trkpt lat="43.262" lon="6.17924">
        <ele>92.69607543945</ele>
        <time>2020-09-11T12:10:30.945Z</time>
      </trkpt>
      <trkpt lat="43.26236" lon="6.17941">
        <ele>93.82266235352</ele>
        <time>2020-09-11T12:10:31.516Z</time>
      </trkpt>
      <trkpt lat="43.2628" lon="6.17943">
        <ele>96.92826843262</ele>
        <time>2020-09-11T12:10:32.094Z</time>
      </trkpt>
      <trkpt lat="43.2631" lon="6.17963">
        <ele>97.10848236084</ele>
        <time>2020-09-11T12:10:32.678Z</time>
      </trkpt>
      <trkpt lat="43.26362" lon="6.18068">
        <ele>97.17280578613</ele>
        <time>2020-09-11T12:10:33.277Z</time>
      </trkpt>
      <trkpt lat="43.26433" lon="6.18128">
        <ele>102.27030181885</ele>
        <time>2020-09-11T12:10:33.889Z</time>
      </trkpt>
      <trkpt lat="43.26471" lon="6.18323">
        <ele>100.97360992432</ele>
        <time>2020-09-11T12:10:34.525Z</time>
      </trkpt>
      <trkpt lat="43.265" lon="6.18347">
        <ele>100.48445892334</ele>
        <time>2020-09-11T12:10:35.166Z</time>
      </trkpt>
      <trkpt lat="43.26544" lon="6.18338">
        <ele>103.91477203369</ele>
        <time>2020-09-11T12:10:35.814Z</time>
      </trkpt>
      <trkpt lat="43.2666" lon="6.18274">
        <ele>111.0415725708</ele>
        <time>2020-09-11T12:10:36.482Z</time>
      </trkpt>
      <trkpt lat="43.26729" lon="6.18291">
        <ele>109.26661682129</ele>
        <time>2020-09-11T12:10:37.161Z</time>
      </trkpt>
      <trkpt lat="43.26801" lon="6.18332">
        <ele>106.12922668457</ele>
        <time>2020-09-11T12:10:37.853Z</time>
      </trkpt>
      <trkpt lat="43.26856" lon="6.18411">
        <ele>102.32827758789</ele>
        <time>2020-09-11T12:10:38.558Z</time>
      </trkpt>
      <trkpt lat="43.26913" lon="6.18437">
        <ele>102.06793212891</ele>
        <time>2020-09-11T12:10:39.272Z</time>
      </trkpt>
      <trkpt lat="43.27136" lon="6.18686">
        <ele>105.93704986572</ele>
        <time>2020-09-11T12:10:40.032Z</time>
      </trkpt>
      <trkpt lat="43.27167" lon="6.18737">
        <ele>106.43907165527</ele>
        <time>2020-09-11T12:10:40.800Z</time>
      </trkpt>
      <trkpt lat="43.27221" lon="6.18778">
        <ele>109.36109161377</ele>
        <time>2020-09-11T12:10:41.578Z</time>
      </trkpt>
      <trkpt lat="43.27252" lon="6.1878">
        <ele>110.36775970459</ele>
        <time>2020-09-11T12:10:42.361Z</time>
      </trkpt>
      <trkpt lat="43.27331" lon="6.18737">
        <ele>113.35721588135</ele>
        <time>2020-09-11T12:10:43.158Z</time>
      </trkpt>
      <trkpt lat="43.27363" lon="6.1874">
        <ele>115.57439422607</ele>
        <time>2020-09-11T12:10:43.960Z</time>
      </trkpt>
      <trkpt lat="43.27492" lon="6.1875">
        <ele>120.8238067627</ele>
        <time>2020-09-11T12:10:44.782Z</time>
      </trkpt>
      <trkpt lat="43.27523" lon="6.18817">
        <ele>123.8883972168</ele>
        <time>2020-09-11T12:10:45.614Z</time>
      </trkpt>
      <trkpt lat="43.27533" lon="6.18896">
        <ele>123.34302520752</ele>
        <time>2020-09-11T12:10:46.455Z</time>
      </trkpt>
      <trkpt lat="43.2755" lon="6.18943">
        <ele>120.77067565918</ele>
        <time>2020-09-11T12:10:47.302Z</time>
      </trkpt>
      <trkpt lat="43.27677" lon="6.19139">
        <ele>120.01899719238</ele>
        <time>2020-09-11T12:10:48.180Z</time>
      </trkpt>
      <trkpt lat="43.27707" lon="6.19216">
        <ele>119.31385803223</ele>
        <time>2020-09-11T12:10:49.068Z</time>
      </trkpt>
      <trkpt lat="43.27739" lon="6.19261">
        <ele>118.89796447754</ele>
        <time>2020-09-11T12:10:49.963Z</time>
      </trkpt>
      <trkpt lat="43.27811" lon="6.19302">
        <ele>118.90744781494</ele>
        <time>2020-09-11T12:10:50.871Z</time>
      </trkpt>
      <trkpt lat="43.27879" lon="6.1933">
        <ele>119.54350280762</ele>
        <time>2020-09-11T12:10:51.790Z</time>
      </trkpt>
      <trkpt lat="43.27904" lon="6.19353">
        <ele>119.58212280273</ele>
        <time>2020-09-11T12:10:52.714Z</time>
      </trkpt>
      <trkpt lat="43.27942" lon="6.19463">
        <ele>118.71946716309</ele>
        <time>2020-09-11T12:10:53.652Z</time>
      </trkpt>
      <trkpt lat="43.28008" lon="6.19613">
        <ele>121.30597686768</ele>
        <time>2020-09-11T12:10:54.611Z</time>
      </trkpt>
      <trkpt lat="43.28025" lon="6.1977">
        <ele>122.06887817383</ele>
        <time>2020-09-11T12:10:55.588Z</time>
      </trkpt>
      <trkpt lat="43.2802" lon="6.19864">
        <ele>121.83678436279</ele>
        <time>2020-09-11T12:10:56.576Z</time>
      </trkpt>
      <trkpt lat="43.28039" lon="6.19939">
        <ele>123.78798675537</ele>
        <time>2020-09-11T12:10:57.574Z</time>
      </trkpt>
      <trkpt lat="43.28122" lon="6.20061">
        <ele>125.24227905273</ele>
        <time>2020-09-11T12:10:58.591Z</time>
      </trkpt>
      <trkpt lat="43.28186" lon="6.2031">
        <ele>126.64739227295</ele>
        <time>2020-09-11T12:10:59.639Z</time>
      </trkpt>
      <trkpt lat="43.28188" lon="6.20497">
        <ele>125.06872558594</ele>
        <time>2020-09-11T12:11:00.709Z</time>
      </trkpt>
      <trkpt lat="43.28221" lon="6.20583">
        <ele>128.44142150879</ele>
        <time>2020-09-11T12:11:01.790Z</time>
      </trkpt>
      <trkpt lat="43.28232" lon="6.20737">
        <ele>131.6365814209</ele>
        <time>2020-09-11T12:11:02.889Z</time>
      </trkpt>
      <trkpt lat="43.2818" lon="6.21044">
        <ele>136.94764709473</ele>
        <time>2020-09-11T12:11:04.025Z</time>
      </trkpt>
      <trkpt lat="43.28135" lon="6.21089">
        <ele>136.28419494629</ele>
        <time>2020-09-11T12:11:05.170Z</time>
      </trkpt>
      <trkpt lat="43.28122" lon="6.21121">
        <ele>137.07702636719</ele>
        <time>2020-09-11T12:11:06.319Z</time>
      </trkpt>
      <trkpt lat="43.2812" lon="6.21149">
        <ele>138.31278991699</ele>
        <time>2020-09-11T12:11:07.471Z</time>
      </trkpt>
      <trkpt lat="43.28151" lon="6.21259">
        <ele>141.16342163086</ele>
        <time>2020-09-11T12:11:08.637Z</time>
      </trkpt>
      <trkpt lat="43.28212" lon="6.21362">
        <ele>142.37358093262</ele>
        <time>2020-09-11T12:11:09.819Z</time>
      </trkpt>
      <trkpt lat="43.28289" lon="6.2137">
        <ele>147.55076599121</ele>
        <time>2020-09-11T12:11:11.013Z</time>
      </trkpt>
      <trkpt lat="43.28411" lon="6.2143">
        <ele>152.07188415527</ele>
        <time>2020-09-11T12:11:12.228Z</time>
      </trkpt>
      <trkpt lat="43.28476" lon="6.21516">
        <ele>151.32960510254</ele>
        <time>2020-09-11T12:11:13.457Z</time>
      </trkpt>
      <trkpt lat="43.28519" lon="6.21555">
        <ele>153.35260009766</ele>
        <time>2020-09-11T12:11:14.694Z</time>
      </trkpt>
      <trkpt lat="43.28602" lon="6.21604">
        <ele>159.09080505371</ele>
        <time>2020-09-11T12:11:15.946Z</time>
      </trkpt>
      <trkpt lat="43.2864" lon="6.21669">
        <ele>154.42570495605</ele>
        <time>2020-09-11T12:11:17.208Z</time>
      </trkpt>
      <trkpt lat="43.28685" lon="6.21699">
        <ele>155.40423583984</ele>
        <time>2020-09-11T12:11:18.478Z</time>
      </trkpt>
      <trkpt lat="43.28732" lon="6.21675">
        <ele>156.88874816895</ele>
        <time>2020-09-11T12:11:19.756Z</time>
      </trkpt>
      <trkpt lat="43.2875" lon="6.2169">
        <ele>154.70042419434</ele>
        <time>2020-09-11T12:11:21.037Z</time>
      </trkpt>
      <trkpt lat="43.28761" lon="6.21689">
        <ele>153.60545349121</ele>
        <time>2020-09-11T12:11:22.320Z</time>
      </trkpt>
      <trkpt lat="43.28828" lon="6.21696">
        <ele>154.38740539551</ele>
        <time>2020-09-11T12:11:23.614Z</time>
      </trkpt>
      <trkpt lat="43.28933" lon="6.21737">
        <ele>160.06376647949</ele>
        <time>2020-09-11T12:11:24.925Z</time>
      </trkpt>
      <trkpt lat="43.2898" lon="6.21755">
        <ele>160</ele>
        <time>2020-09-11T12:11:26.244Z</time>
      </trkpt>
      <trkpt lat="43.29079" lon="6.21795">
        <ele>160</ele>
        <time>2020-09-11T12:11:27.579Z</time>
      </trkpt>
      <trkpt lat="43.29202" lon="6.21896">
        <ele>172.31137084961</ele>
        <time>2020-09-11T12:11:28.937Z</time>
      </trkpt>
      <trkpt lat="43.29316" lon="6.22166">
        <ele>166.8332824707</ele>
        <time>2020-09-11T12:11:30.332Z</time>
      </trkpt>
      <trkpt lat="43.29345" lon="6.22249">
        <ele>165.65571594238</ele>
        <time>2020-09-11T12:11:31.737Z</time>
      </trkpt>
      <trkpt lat="43.29361" lon="6.2231">
        <ele>166.6031036377</ele>
        <time>2020-09-11T12:11:33.150Z</time>
      </trkpt>
      <trkpt lat="43.29363" lon="6.22457">
        <ele>167.94024658203</ele>
        <time>2020-09-11T12:11:34.580Z</time>
      </trkpt>
      <trkpt lat="43.29373" lon="6.2256">
        <ele>166.76274108887</ele>
        <time>2020-09-11T12:11:36.022Z</time>
      </trkpt>
      <trkpt lat="43.29388" lon="6.22594">
        <ele>166.40365600586</ele>
        <time>2020-09-11T12:11:37.469Z</time>
      </trkpt>
      <trkpt lat="43.29402" lon="6.22608">
        <ele>165.90121459961</ele>
        <time>2020-09-11T12:11:38.919Z</time>
      </trkpt>
      <trkpt lat="43.29438" lon="6.22637">
        <ele>164.80084228516</ele>
        <time>2020-09-11T12:11:40.376Z</time>
      </trkpt>
      <trkpt lat="43.29444" lon="6.22642">
        <ele>164.78796386719</ele>
        <time>2020-09-11T12:11:41.834Z</time>
      </trkpt>
      <trkpt lat="43.29473" lon="6.22653">
        <ele>164.48727416992</ele>
        <time>2020-09-11T12:11:43.296Z</time>
      </trkpt>
      <trkpt lat="43.29506" lon="6.22607">
        <ele>164.74090576172</ele>
        <time>2020-09-11T12:11:44.766Z</time>
      </trkpt>
      <trkpt lat="43.2955" lon="6.22594">
        <ele>165.56045532227</ele>
        <time>2020-09-11T12:11:46.243Z</time>
      </trkpt>
      <trkpt lat="43.2955" lon="6.22594">
        <ele>165.56036376953</ele>
        <time>2020-09-11T12:11:47.720Z</time>
      </trkpt>
      <trkpt lat="43.29592" lon="6.22589">
        <ele>165.05844116211</ele>
        <time>2020-09-11T12:11:49.204Z</time>
      </trkpt>
      <trkpt lat="43.29638" lon="6.22601">
        <ele>165.55708312988</ele>
        <time>2020-09-11T12:11:50.695Z</time>
      </trkpt>
      <trkpt lat="43.29638" lon="6.22601">
        <ele>165.55738830566</ele>
        <time>2020-09-11T12:11:52.186Z</time>
      </trkpt>
      <trkpt lat="43.29675" lon="6.22582">
        <ele>167.37210083008</ele>
        <time>2020-09-11T12:11:53.684Z</time>
      </trkpt>
      <trkpt lat="43.29756" lon="6.22607">
        <ele>167.82852172852</ele>
        <time>2020-09-11T12:11:55.195Z</time>
      </trkpt>
      <trkpt lat="43.29781" lon="6.22607">
        <ele>168.1245880127</ele>
        <time>2020-09-11T12:11:56.710Z</time>
      </trkpt>
      <trkpt lat="43.29797" lon="6.22607">
        <ele>168.31758117676</ele>
        <time>2020-09-11T12:11:58.228Z</time>
      </trkpt>
      <trkpt lat="43.29859" lon="6.22663">
        <ele>167.64251708984</ele>
        <time>2020-09-11T12:11:59.757Z</time>
      </trkpt>
      <trkpt lat="43.29868" lon="6.22686">
        <ele>167.26921081543</ele>
        <time>2020-09-11T12:12:01.289Z</time>
      </trkpt>
      <trkpt lat="43.29883" lon="6.22825">
        <ele>165.27557373047</ele>
        <time>2020-09-11T12:12:02.838Z</time>
      </trkpt>
      <trkpt lat="43.29886" lon="6.22834">
        <ele>165.21041870117</ele>
        <time>2020-09-11T12:12:04.388Z</time>
      </trkpt>
      <trkpt lat="43.29886" lon="6.22834">
        <ele>165.21061706543</ele>
        <time>2020-09-11T12:12:05.938Z</time>
      </trkpt>
      <trkpt lat="43.29892" lon="6.22852">
        <ele>165.06962585449</ele>
        <time>2020-09-11T12:12:07.490Z</time>
      </trkpt>
      <trkpt lat="43.29818" lon="6.22872">
        <ele>163.3062286377</ele>
        <time>2020-09-11T12:12:09.054Z</time>
      </trkpt>
      <trkpt lat="43.29818" lon="6.22872">
        <ele>163.30592346191</ele>
        <time>2020-09-11T12:12:10.618Z</time>
      </trkpt>
      <trkpt lat="43.29811" lon="6.22876">
        <ele>163.53762817383</ele>
        <time>2020-09-11T12:12:12.184Z</time>
      </trkpt>
      <trkpt lat="43.29786" lon="6.22887">
        <ele>164.28422546387</ele>
        <time>2020-09-11T12:12:13.754Z</time>
      </trkpt>
      <trkpt lat="43.29751" lon="6.229">
        <ele>164.73570251465</ele>
        <time>2020-09-11T12:12:15.330Z</time>
      </trkpt>
      <trkpt lat="43.29683" lon="6.22953">
        <ele>163.3137512207</ele>
        <time>2020-09-11T12:12:16.918Z</time>
      </trkpt>
      <trkpt lat="43.29611" lon="6.23014">
        <ele>162.75340270996</ele>
        <time>2020-09-11T12:12:18.520Z</time>
      </trkpt>
      <trkpt lat="43.29559" lon="6.23051">
        <ele>161.47351074219</ele>
        <time>2020-09-11T12:12:20.131Z</time>
      </trkpt>
      <trkpt lat="43.29551" lon="6.23069">
        <ele>160.74424743652</ele>
        <time>2020-09-11T12:12:21.745Z</time>
      </trkpt>
      <trkpt lat="43.29551" lon="6.23069">
        <ele>160.74464416504</ele>
        <time>2020-09-11T12:12:23.359Z</time>
      </trkpt>
      <trkpt lat="43.29469" lon="6.23259">
        <ele>161.47410583496</ele>
        <time>2020-09-11T12:12:24.998Z</time>
      </trkpt>
      <trkpt lat="43.29462" lon="6.23269">
        <ele>161.68286132812</ele>
        <time>2020-09-11T12:12:26.639Z</time>
      </trkpt>
      <trkpt lat="43.29454" lon="6.23282">
        <ele>162.32649230957</ele>
        <time>2020-09-11T12:12:28.282Z</time>
      </trkpt>
      <trkpt lat="43.29444" lon="6.23342">
        <ele>164</ele>
        <time>2020-09-11T12:12:29.932Z</time>
      </trkpt>
      <trkpt lat="43.29448" lon="6.23382">
        <ele>164</ele>
        <time>2020-09-11T12:12:31.587Z</time>
      </trkpt>
      <trkpt lat="43.29448" lon="6.23382">
        <ele>164</ele>
        <time>2020-09-11T12:12:33.242Z</time>
      </trkpt>
      <trkpt lat="43.29476" lon="6.23471">
        <ele>163.29539489746</ele>
        <time>2020-09-11T12:12:34.908Z</time>
      </trkpt>
      <trkpt lat="43.29505" lon="6.23635">
        <ele>165.69668579102</ele>
        <time>2020-09-11T12:12:36.594Z</time>
      </trkpt>
      <trkpt lat="43.29505" lon="6.23687">
        <ele>165.79779052734</ele>
        <time>2020-09-11T12:12:38.286Z</time>
      </trkpt>
      <trkpt lat="43.29477" lon="6.23964">
        <ele>171.03521728516</ele>
        <time>2020-09-11T12:12:40.011Z</time>
      </trkpt>
      <trkpt lat="43.2951" lon="6.24057">
        <ele>173.77955627441</ele>
        <time>2020-09-11T12:12:41.748Z</time>
      </trkpt>
      <trkpt lat="43.2952" lon="6.24108">
        <ele>174.55377197266</ele>
        <time>2020-09-11T12:12:43.491Z</time>
      </trkpt>
      <trkpt lat="43.29541" lon="6.24311">
        <ele>176.70002746582</ele>
        <time>2020-09-11T12:12:45.258Z</time>
      </trkpt>
      <trkpt lat="43.29533" lon="6.24419">
        <ele>176.08226013184</ele>
        <time>2020-09-11T12:12:47.038Z</time>
      </trkpt>
      <trkpt lat="43.2954" lon="6.24489">
        <ele>178.44338989258</ele>
        <time>2020-09-11T12:12:48.826Z</time>
      </trkpt>
      <trkpt lat="43.2954" lon="6.24516">
        <ele>178.88282775879</ele>
        <time>2020-09-11T12:12:50.617Z</time>
      </trkpt>
      <trkpt lat="43.29504" lon="6.24704">
        <ele>183.58012390137</ele>
        <time>2020-09-11T12:12:52.431Z</time>
      </trkpt>
      <trkpt lat="43.29504" lon="6.24704">
        <ele>183.5802154541</ele>
        <time>2020-09-11T12:12:54.245Z</time>
      </trkpt>
      <trkpt lat="43.29486" lon="6.24728">
        <ele>183.9803314209</ele>
        <time>2020-09-11T12:12:56.063Z</time>
      </trkpt>
      <trkpt lat="43.29437" lon="6.24772">
        <ele>184.43000793457</ele>
        <time>2020-09-11T12:12:57.890Z</time>
      </trkpt>
      <trkpt lat="43.29349" lon="6.24903">
        <ele>186.14436340332</ele>
        <time>2020-09-11T12:12:59.738Z</time>
      </trkpt>
      <trkpt lat="43.29323" lon="6.24959">
        <ele>188.86827087402</ele>
        <time>2020-09-11T12:13:01.594Z</time>
      </trkpt>
      <trkpt lat="43.29289" lon="6.25001">
        <ele>190.58493041992</ele>
        <time>2020-09-11T12:13:03.457Z</time>
      </trkpt>
      <trkpt lat="43.29165" lon="6.25107">
        <ele>195.90835571289</ele>
        <time>2020-09-11T12:13:05.343Z</time>
      </trkpt>
      <trkpt lat="43.29141" lon="6.25139">
        <ele>195.7836151123</ele>
        <time>2020-09-11T12:13:07.235Z</time>
      </trkpt>
      <trkpt lat="43.29106" lon="6.25277">
        <ele>196.91529846191</ele>
        <time>2020-09-11T12:13:09.144Z</time>
      </trkpt>
      <trkpt lat="43.29056" lon="6.25367">
        <ele>200.6492767334</ele>
        <time>2020-09-11T12:13:11.066Z</time>
      </trkpt>
      <trkpt lat="43.28989" lon="6.25446">
        <ele>207.89663696289</ele>
        <time>2020-09-11T12:13:13.002Z</time>
      </trkpt>
      <trkpt lat="43.28989" lon="6.25446">
        <ele>207.89633178711</ele>
        <time>2020-09-11T12:13:14.938Z</time>
      </trkpt>
      <trkpt lat="43.28956" lon="6.25514">
        <ele>215.36738586426</ele>
        <time>2020-09-11T12:13:16.884Z</time>
      </trkpt>
      <trkpt lat="43.28832" lon="6.25677">
        <ele>219.11386108398</ele>
        <time>2020-09-11T12:13:18.857Z</time>
      </trkpt>
      <trkpt lat="43.28824" lon="6.25725">
        <ele>224.88958740234</ele>
        <time>2020-09-11T12:13:20.836Z</time>
      </trkpt>
      <trkpt lat="43.28774" lon="6.2575">
        <ele>223.39692687988</ele>
        <time>2020-09-11T12:13:22.823Z</time>
      </trkpt>
      <trkpt lat="43.28731" lon="6.25799">
        <ele>227.71041870117</ele>
        <time>2020-09-11T12:13:24.819Z</time>
      </trkpt>
      <trkpt lat="43.28707" lon="6.25865">
        <ele>234.58395385742</ele>
        <time>2020-09-11T12:13:26.824Z</time>
      </trkpt>
      <trkpt lat="43.28707" lon="6.25865">
        <ele>234.58465576172</ele>
        <time>2020-09-11T12:13:28.829Z</time>
      </trkpt>
      <trkpt lat="43.28694" lon="6.25867">
        <ele>233.88883972168</ele>
        <time>2020-09-11T12:13:30.836Z</time>
      </trkpt>
      <trkpt lat="43.28666" lon="6.25856">
        <ele>229.94990539551</ele>
        <time>2020-09-11T12:13:32.848Z</time>
      </trkpt>
      <trkpt lat="43.28622" lon="6.25884">
        <ele>230.68450927734</ele>
        <time>2020-09-11T12:13:34.867Z</time>
      </trkpt>
      <trkpt lat="43.28587" lon="6.25928">
        <ele>235.00399780273</ele>
        <time>2020-09-11T12:13:36.894Z</time>
      </trkpt>
      <trkpt lat="43.28571" lon="6.25968">
        <ele>239.64498901367</ele>
        <time>2020-09-11T12:13:38.926Z</time>
      </trkpt>
      <trkpt lat="43.28549" lon="6.25985">
        <ele>237.27258300781</ele>
        <time>2020-09-11T12:13:40.962Z</time>
      </trkpt>
      <trkpt lat="43.28543" lon="6.25998">
        <ele>238.12217712402</ele>
        <time>2020-09-11T12:13:43.000Z</time>
      </trkpt>
      <trkpt lat="43.2854" lon="6.26066">
        <ele>244.02616882324</ele>
        <time>2020-09-11T12:13:45.046Z</time>
      </trkpt>
      <trkpt lat="43.28571" lon="6.26234">
        <ele>260.94985961914</ele>
        <time>2020-09-11T12:13:47.112Z</time>
      </trkpt>
      <trkpt lat="43.28563" lon="6.26338">
        <ele>271.82424926758</ele>
        <time>2020-09-11T12:13:49.191Z</time>
      </trkpt>
      <trkpt lat="43.28552" lon="6.26359">
        <ele>273.6194152832</ele>
        <time>2020-09-11T12:13:51.273Z</time>
      </trkpt>
      <trkpt lat="43.28531" lon="6.26377">
        <ele>271.2766418457</ele>
        <time>2020-09-11T12:13:53.359Z</time>
      </trkpt>
      <trkpt lat="43.28401" lon="6.26542">
        <ele>295.30783081055</ele>
        <time>2020-09-11T12:13:55.473Z</time>
      </trkpt>
      <trkpt lat="43.28356" lon="6.26616">
        <ele>297.71243286133</ele>
        <time>2020-09-11T12:13:57.598Z</time>
      </trkpt>
      <trkpt lat="43.28346" lon="6.26651">
        <ele>302.369140625</ele>
        <time>2020-09-11T12:13:59.728Z</time>
      </trkpt>
      <trkpt lat="43.28316" lon="6.26662">
        <ele>304.01681518555</ele>
        <time>2020-09-11T12:14:01.863Z</time>
      </trkpt>
      <trkpt lat="43.28211" lon="6.2676">
        <ele>320.64376831055</ele>
        <time>2020-09-11T12:14:04.018Z</time>
      </trkpt>
      <trkpt lat="43.28168" lon="6.2684">
        <ele>324.99298095703</ele>
        <time>2020-09-11T12:14:06.185Z</time>
      </trkpt>
      <trkpt lat="43.28136" lon="6.26875">
        <ele>332.14660644531</ele>
        <time>2020-09-11T12:14:08.358Z</time>
      </trkpt>
      <trkpt lat="43.28124" lon="6.26893">
        <ele>331.36349487305</ele>
        <time>2020-09-11T12:14:10.534Z</time>
      </trkpt>
      <trkpt lat="43.28125" lon="6.26894">
        <ele>331.38919067383</ele>
        <time>2020-09-11T12:14:12.710Z</time>
      </trkpt>
      <trkpt lat="43.28104" lon="6.26921">
        <ele>334.12045288086</ele>
        <time>2020-09-11T12:14:14.891Z</time>
      </trkpt>
      <trkpt lat="43.28095" lon="6.26925">
        <ele>333.45767211914</ele>
        <time>2020-09-11T12:14:17.073Z</time>
      </trkpt>
      <trkpt lat="43.28089" lon="6.269">
        <ele>332.96334838867</ele>
        <time>2020-09-11T12:14:19.258Z</time>
      </trkpt>
      <trkpt lat="43.2809" lon="6.26892">
        <ele>332.71157836914</ele>
        <time>2020-09-11T12:14:21.444Z</time>
      </trkpt>
      <trkpt lat="43.28093" lon="6.26862">
        <ele>331.86825561523</ele>
        <time>2020-09-11T12:14:23.634Z</time>
      </trkpt>
      <trkpt lat="43.28104" lon="6.2681">
        <ele>330.18798828125</ele>
        <time>2020-09-11T12:14:25.830Z</time>
      </trkpt>
      <trkpt lat="43.2812" lon="6.26736">
        <ele>335.17822265625</ele>
        <time>2020-09-11T12:14:28.035Z</time>
      </trkpt>
      <trkpt lat="43.28137" lon="6.26666">
        <ele>330.58972167969</ele>
        <time>2020-09-11T12:14:30.249Z</time>
      </trkpt>
      <trkpt lat="43.28142" lon="6.26652">
        <ele>330.34616088867</ele>
        <time>2020-09-11T12:14:32.464Z</time>
      </trkpt>
      <trkpt lat="43.28153" lon="6.26608">
        <ele>323.43194580078</ele>
        <time>2020-09-11T12:14:34.685Z</time>
      </trkpt>
      <trkpt lat="43.28147" lon="6.26602">
        <ele>324.36776733398</ele>
        <time>2020-09-11T12:14:36.907Z</time>
      </trkpt>
      <trkpt lat="43.28093" lon="6.26625">
        <ele>341.65100097656</ele>
        <time>2020-09-11T12:14:39.138Z</time>
      </trkpt>
      <trkpt lat="43.28081" lon="6.26631">
        <ele>341.94134521484</ele>
        <time>2020-09-11T12:14:41.371Z</time>
      </trkpt>
      <trkpt lat="43.28074" lon="6.26635">
        <ele>342.79049682617</ele>
        <time>2020-09-11T12:14:43.605Z</time>
      </trkpt>
      <trkpt lat="43.2805" lon="6.26651">
        <ele>344.75357055664</ele>
        <time>2020-09-11T12:14:45.844Z</time>
      </trkpt>
      <trkpt lat="43.28003" lon="6.26686">
        <ele>352.61990356445</ele>
        <time>2020-09-11T12:14:48.091Z</time>
      </trkpt>
      <trkpt lat="43.27958" lon="6.26726">
        <ele>359.20315551758</ele>
        <time>2020-09-11T12:14:50.347Z</time>
      </trkpt>
      <trkpt lat="43.27934" lon="6.26757">
        <ele>365.82598876953</ele>
        <time>2020-09-11T12:14:52.608Z</time>
      </trkpt>
      <trkpt lat="43.27938" lon="6.2676">
        <ele>365.75399780273</ele>
        <time>2020-09-11T12:14:54.870Z</time>
      </trkpt>
      <trkpt lat="43.2796" lon="6.26739">
        <ele>360.84396362305</ele>
        <time>2020-09-11T12:14:57.136Z</time>
      </trkpt>
      <trkpt lat="43.28011" lon="6.26721">
        <ele>362.66101074219</ele>
        <time>2020-09-11T12:14:59.411Z</time>
      </trkpt>
      <trkpt lat="43.28036" lon="6.26763">
        <ele>356.05154418945</ele>
        <time>2020-09-11T12:15:01.692Z</time>
      </trkpt>
      <trkpt lat="43.28032" lon="6.26775">
        <ele>358.36233520508</ele>
        <time>2020-09-11T12:15:03.974Z</time>
      </trkpt>
      <trkpt lat="43.28024" lon="6.26804">
        <ele>362.86880493164</ele>
        <time>2020-09-11T12:15:06.260Z</time>
      </trkpt>
      <trkpt lat="43.28008" lon="6.26835">
        <ele>367.16546630859</ele>
        <time>2020-09-11T12:15:08.550Z</time>
      </trkpt>
      <trkpt lat="43.27963" lon="6.2688">
        <ele>378.55963134766</ele>
        <time>2020-09-11T12:15:10.849Z</time>
      </trkpt>
      <trkpt lat="43.27944" lon="6.26946">
        <ele>386.93087768555</ele>
        <time>2020-09-11T12:15:13.157Z</time>
      </trkpt>
      <trkpt lat="43.2793" lon="6.27017">
        <ele>391.18994140625</ele>
        <time>2020-09-11T12:15:15.473Z</time>
      </trkpt>
      <trkpt lat="43.27908" lon="6.27074">
        <ele>400.10723876953</ele>
        <time>2020-09-11T12:15:17.797Z</time>
      </trkpt>
      <trkpt lat="43.279" lon="6.27147">
        <ele>402.98608398438</ele>
        <time>2020-09-11T12:15:20.130Z</time>
      </trkpt>
      <trkpt lat="43.27893" lon="6.27168">
        <ele>408.17642211914</ele>
        <time>2020-09-11T12:15:22.465Z</time>
      </trkpt>
      <trkpt lat="43.27891" lon="6.2718">
        <ele>410.48364257812</ele>
        <time>2020-09-11T12:15:24.802Z</time>
      </trkpt>
      <trkpt lat="43.27887" lon="6.27193">
        <ele>412.34481811523</ele>
        <time>2020-09-11T12:15:27.140Z</time>
      </trkpt>
      <trkpt lat="43.27867" lon="6.27264">
        <ele>420.20361328125</ele>
        <time>2020-09-11T12:15:29.487Z</time>
      </trkpt>
      <trkpt lat="43.2786" lon="6.27308">
        <ele>421.76095581055</ele>
        <time>2020-09-11T12:15:31.839Z</time>
      </trkpt>
      <trkpt lat="43.27859" lon="6.27318">
        <ele>423.53497314453</ele>
        <time>2020-09-11T12:15:34.193Z</time>
      </trkpt>
      <trkpt lat="43.2786" lon="6.27339">
        <ele>428.59344482422</ele>
        <time>2020-09-11T12:15:36.549Z</time>
      </trkpt>
      <trkpt lat="43.27876" lon="6.27382">
        <ele>436.31295776367</ele>
        <time>2020-09-11T12:15:38.911Z</time>
      </trkpt>
      <trkpt lat="43.27915" lon="6.2735">
        <ele>424.3232421875</ele>
        <time>2020-09-11T12:15:41.280Z</time>
      </trkpt>
      <trkpt lat="43.27928" lon="6.27341">
        <ele>419.73400878906</ele>
        <time>2020-09-11T12:15:43.651Z</time>
      </trkpt>
      <trkpt lat="43.27959" lon="6.27326">
        <ele>422.58319091797</ele>
        <time>2020-09-11T12:15:46.028Z</time>
      </trkpt>
      <trkpt lat="43.28012" lon="6.27302">
        <ele>428.2216796875</ele>
        <time>2020-09-11T12:15:48.414Z</time>
      </trkpt>
      <trkpt lat="43.28037" lon="6.27296">
        <ele>427.68322753906</ele>
        <time>2020-09-11T12:15:50.804Z</time>
      </trkpt>
      <trkpt lat="43.28051" lon="6.27297">
        <ele>428.74984741211</ele>
        <time>2020-09-11T12:15:53.196Z</time>
      </trkpt>
      <trkpt lat="43.28062" lon="6.273">
        <ele>430.35998535156</ele>
        <time>2020-09-11T12:15:55.590Z</time>
      </trkpt>
      <trkpt lat="43.28069" lon="6.27304">
        <ele>432.27606201172</ele>
        <time>2020-09-11T12:15:57.985Z</time>
      </trkpt>
      <trkpt lat="43.28071" lon="6.27307">
        <ele>433.27789306641</ele>
        <time>2020-09-11T12:16:00.380Z</time>
      </trkpt>
      <trkpt lat="43.28073" lon="6.27309">
        <ele>434.27972412109</ele>
        <time>2020-09-11T12:16:02.776Z</time>
      </trkpt>
      <trkpt lat="43.28086" lon="6.27321">
        <ele>438.6676940918</ele>
        <time>2020-09-11T12:16:05.174Z</time>
      </trkpt>
      <trkpt lat="43.28098" lon="6.27325">
        <ele>440.47595214844</ele>
        <time>2020-09-11T12:16:07.574Z</time>
      </trkpt>
      <trkpt lat="43.28143" lon="6.27365">
        <ele>449.93637084961</ele>
        <time>2020-09-11T12:16:09.983Z</time>
      </trkpt>
      <trkpt lat="43.28178" lon="6.27365">
        <ele>447.81274414062</ele>
        <time>2020-09-11T12:16:12.397Z</time>
      </trkpt>
      <trkpt lat="43.28225" lon="6.27322">
        <ele>434.99432373047</ele>
        <time>2020-09-11T12:16:14.820Z</time>
      </trkpt>
      <trkpt lat="43.28233" lon="6.27321">
        <ele>435.12869262695</ele>
        <time>2020-09-11T12:16:17.245Z</time>
      </trkpt>
      <trkpt lat="43.28238" lon="6.27327">
        <ele>436.25289916992</ele>
        <time>2020-09-11T12:16:19.671Z</time>
      </trkpt>
      <trkpt lat="43.28234" lon="6.27378">
        <ele>445.58679199219</ele>
        <time>2020-09-11T12:16:22.103Z</time>
      </trkpt>
      <trkpt lat="43.28237" lon="6.27422">
        <ele>457.49911499023</ele>
        <time>2020-09-11T12:16:24.540Z</time>
      </trkpt>
      <trkpt lat="43.28242" lon="6.27431">
        <ele>459.31921386719</ele>
        <time>2020-09-11T12:16:26.978Z</time>
      </trkpt>
      <trkpt lat="43.28269" lon="6.27443">
        <ele>459.05560302734</ele>
        <time>2020-09-11T12:16:29.421Z</time>
      </trkpt>
      <trkpt lat="43.28286" lon="6.2745">
        <ele>457.66983032227</ele>
        <time>2020-09-11T12:16:31.867Z</time>
      </trkpt>
      <trkpt lat="43.28302" lon="6.27463">
        <ele>457.74420166016</ele>
        <time>2020-09-11T12:16:34.316Z</time>
      </trkpt>
      <trkpt lat="43.28304" lon="6.27465">
        <ele>457.87017822266</ele>
        <time>2020-09-11T12:16:36.765Z</time>
      </trkpt>
      <trkpt lat="43.28306" lon="6.27467">
        <ele>457.96377563477</ele>
        <time>2020-09-11T12:16:39.214Z</time>
      </trkpt>
      <trkpt lat="43.2832" lon="6.27478">
        <ele>457.98895263672</ele>
        <time>2020-09-11T12:16:41.666Z</time>
      </trkpt>
      <trkpt lat="43.28338" lon="6.27494">
        <ele>455.55581665039</ele>
        <time>2020-09-11T12:16:44.121Z</time>
      </trkpt>
      <trkpt lat="43.28351" lon="6.27508">
        <ele>452.80078125</ele>
        <time>2020-09-11T12:16:46.579Z</time>
      </trkpt>
      <trkpt lat="43.2834" lon="6.27577">
        <ele>460.12725830078</ele>
        <time>2020-09-11T12:16:49.045Z</time>
      </trkpt>
      <trkpt lat="43.28309" lon="6.27639">
        <ele>473.16125488281</ele>
        <time>2020-09-11T12:16:51.520Z</time>
      </trkpt>
      <trkpt lat="43.28312" lon="6.27713">
        <ele>467.87353515625</ele>
        <time>2020-09-11T12:16:54.004Z</time>
      </trkpt>
      <trkpt lat="43.28312" lon="6.27716">
        <ele>467.77514648438</ele>
        <time>2020-09-11T12:16:56.488Z</time>
      </trkpt>
      <trkpt lat="43.28308" lon="6.27717">
        <ele>468.96655273438</ele>
        <time>2020-09-11T12:16:58.973Z</time>
      </trkpt>
      <trkpt lat="43.28299" lon="6.27669">
        <ele>477.52676391602</ele>
        <time>2020-09-11T12:17:01.464Z</time>
      </trkpt>
      <trkpt lat="43.28301" lon="6.27594">
        <ele>473.98733520508</ele>
        <time>2020-09-11T12:17:03.963Z</time>
      </trkpt>
      <trkpt lat="43.28296" lon="6.27552">
        <ele>474.05215454102</ele>
        <time>2020-09-11T12:17:06.467Z</time>
      </trkpt>
      <trkpt lat="43.2827" lon="6.27532">
        <ele>479.27728271484</ele>
        <time>2020-09-11T12:17:08.976Z</time>
      </trkpt>
      <trkpt lat="43.28249" lon="6.27533">
        <ele>484.39102172852</ele>
        <time>2020-09-11T12:17:11.489Z</time>
      </trkpt>
      <trkpt lat="43.28194" lon="6.27533">
        <ele>496.259765625</ele>
        <time>2020-09-11T12:17:14.010Z</time>
      </trkpt>
      <trkpt lat="43.28148" lon="6.27505">
        <ele>494.47442626953</ele>
        <time>2020-09-11T12:17:16.539Z</time>
      </trkpt>
      <trkpt lat="43.28117" lon="6.27496">
        <ele>494.96994018555</ele>
        <time>2020-09-11T12:17:19.073Z</time>
      </trkpt>
      <trkpt lat="43.28111" lon="6.27496">
        <ele>495.55490112305</ele>
        <time>2020-09-11T12:17:21.608Z</time>
      </trkpt>
      <trkpt lat="43.28096" lon="6.27497">
        <ele>498.51669311523</ele>
        <time>2020-09-11T12:17:24.146Z</time>
      </trkpt>
      <trkpt lat="43.2809" lon="6.27497">
        <ele>497.90118408203</ele>
        <time>2020-09-11T12:17:26.685Z</time>
      </trkpt>
      <trkpt lat="43.28039" lon="6.27491">
        <ele>489.92852783203</ele>
        <time>2020-09-11T12:17:29.232Z</time>
      </trkpt>
      <trkpt lat="43.28023" lon="6.27494">
        <ele>488.97479248047</ele>
        <time>2020-09-11T12:17:31.782Z</time>
      </trkpt>
      <trkpt lat="43.27992" lon="6.27529">
        <ele>489.47430419922</ele>
        <time>2020-09-11T12:17:34.338Z</time>
      </trkpt>
      <trkpt lat="43.27985" lon="6.27558">
        <ele>494.54043579102</ele>
        <time>2020-09-11T12:17:36.898Z</time>
      </trkpt>
      <trkpt lat="43.27981" lon="6.27572">
        <ele>497.15908813477</ele>
        <time>2020-09-11T12:17:39.459Z</time>
      </trkpt>
      <trkpt lat="43.27958" lon="6.27639">
        <ele>506.48406982422</ele>
        <time>2020-09-11T12:17:42.029Z</time>
      </trkpt>
      <trkpt lat="43.27927" lon="6.2767">
        <ele>505.03503417969</ele>
        <time>2020-09-11T12:17:44.605Z</time>
      </trkpt>
      <trkpt lat="43.27923" lon="6.27675">
        <ele>506.71597290039</ele>
        <time>2020-09-11T12:17:47.182Z</time>
      </trkpt>
      <trkpt lat="43.27906" lon="6.27705">
        <ele>516.83270263672</ele>
        <time>2020-09-11T12:17:49.763Z</time>
      </trkpt>
      <trkpt lat="43.27901" lon="6.27714">
        <ele>518.33905029297</ele>
        <time>2020-09-11T12:17:52.346Z</time>
      </trkpt>
      <trkpt lat="43.27859" lon="6.27764">
        <ele>526.16479492188</ele>
        <time>2020-09-11T12:17:54.938Z</time>
      </trkpt>
      <trkpt lat="43.27813" lon="6.2779">
        <ele>540.31237792969</ele>
        <time>2020-09-11T12:17:57.538Z</time>
      </trkpt>
      <trkpt lat="43.27809" lon="6.27786">
        <ele>540.49114990234</ele>
        <time>2020-09-11T12:18:00.139Z</time>
      </trkpt>
      <trkpt lat="43.27802" lon="6.2777">
        <ele>538.91705322266</ele>
        <time>2020-09-11T12:18:02.742Z</time>
      </trkpt>
      <trkpt lat="43.27783" lon="6.27707">
        <ele>529.42346191406</ele>
        <time>2020-09-11T12:18:05.353Z</time>
      </trkpt>
      <trkpt lat="43.27753" lon="6.27672">
        <ele>532.11541748047</ele>
        <time>2020-09-11T12:18:07.970Z</time>
      </trkpt>
      <trkpt lat="43.27705" lon="6.27631">
        <ele>540.01977539062</ele>
        <time>2020-09-11T12:18:10.596Z</time>
      </trkpt>
      <trkpt lat="43.27685" lon="6.27604">
        <ele>541.15478515625</ele>
        <time>2020-09-11T12:18:13.227Z</time>
      </trkpt>
      <trkpt lat="43.27679" lon="6.27595">
        <ele>541.08099365234</ele>
        <time>2020-09-11T12:18:15.859Z</time>
      </trkpt>
      <trkpt lat="43.27656" lon="6.2755">
        <ele>537.55816650391</ele>
        <time>2020-09-11T12:18:18.497Z</time>
      </trkpt>
      <trkpt lat="43.27652" lon="6.27544">
        <ele>537.560546875</ele>
        <time>2020-09-11T12:18:21.136Z</time>
      </trkpt>
      <trkpt lat="43.27638" lon="6.27516">
        <ele>537.12805175781</ele>
        <time>2020-09-11T12:18:23.779Z</time>
      </trkpt>
      <trkpt lat="43.27623" lon="6.27482">
        <ele>535.35229492188</ele>
        <time>2020-09-11T12:18:26.427Z</time>
      </trkpt>
      <trkpt lat="43.27612" lon="6.27444">
        <ele>532.87591552734</ele>
        <time>2020-09-11T12:18:29.080Z</time>
      </trkpt>
      <trkpt lat="43.27597" lon="6.27427">
        <ele>534.30133056641</ele>
        <time>2020-09-11T12:18:31.736Z</time>
      </trkpt>
      <trkpt lat="43.27593" lon="6.27429">
        <ele>533.90179443359</ele>
        <time>2020-09-11T12:18:34.392Z</time>
      </trkpt>
      <trkpt lat="43.27615" lon="6.27487">
        <ele>538.18145751953</ele>
        <time>2020-09-11T12:18:37.056Z</time>
      </trkpt>
      <trkpt lat="43.27617" lon="6.27491">
        <ele>538.54620361328</ele>
        <time>2020-09-11T12:18:39.721Z</time>
      </trkpt>
      <trkpt lat="43.2762" lon="6.27502">
        <ele>539.64282226562</ele>
        <time>2020-09-11T12:18:42.387Z</time>
      </trkpt>
      <trkpt lat="43.27627" lon="6.27525">
        <ele>540.76879882812</ele>
        <time>2020-09-11T12:18:45.056Z</time>
      </trkpt>
      <trkpt lat="43.27633" lon="6.27544">
        <ele>541.82220458984</ele>
        <time>2020-09-11T12:18:47.727Z</time>
      </trkpt>
      <trkpt lat="43.27638" lon="6.2756">
        <ele>542.61651611328</ele>
        <time>2020-09-11T12:18:50.400Z</time>
      </trkpt>
      <trkpt lat="43.27663" lon="6.27628">
        <ele>551.66320800781</ele>
        <time>2020-09-11T12:18:53.082Z</time>
      </trkpt>
      <trkpt lat="43.2768" lon="6.27673">
        <ele>556.32879638672</ele>
        <time>2020-09-11T12:18:55.770Z</time>
      </trkpt>
      <trkpt lat="43.27709" lon="6.27734">
        <ele>557.67584228516</ele>
        <time>2020-09-11T12:18:58.467Z</time>
      </trkpt>
      <trkpt lat="43.27713" lon="6.27742">
        <ele>558.12335205078</ele>
        <time>2020-09-11T12:19:01.165Z</time>
      </trkpt>
      <trkpt lat="43.27717" lon="6.2775">
        <ele>558.39453125</ele>
        <time>2020-09-11T12:19:03.864Z</time>
      </trkpt>
      <trkpt lat="43.27723" lon="6.27766">
        <ele>559.95184326172</ele>
        <time>2020-09-11T12:19:06.565Z</time>
      </trkpt>
      <trkpt lat="43.27735" lon="6.27802">
        <ele>562.95880126953</ele>
        <time>2020-09-11T12:19:09.271Z</time>
      </trkpt>
      <trkpt lat="43.27743" lon="6.27826">
        <ele>565.26531982422</ele>
        <time>2020-09-11T12:19:11.980Z</time>
      </trkpt>
      <trkpt lat="43.2775" lon="6.27848">
        <ele>568.29724121094</ele>
        <time>2020-09-11T12:19:14.692Z</time>
      </trkpt>
      <trkpt lat="43.27758" lon="6.27867">
        <ele>570.02136230469</ele>
        <time>2020-09-11T12:19:17.406Z</time>
      </trkpt>
      <trkpt lat="43.27807" lon="6.27897">
        <ele>569.62170410156</ele>
        <time>2020-09-11T12:19:20.129Z</time>
      </trkpt>
      <trkpt lat="43.2783" lon="6.27912">
        <ele>572.78558349609</ele>
        <time>2020-09-11T12:19:22.856Z</time>
      </trkpt>
      <trkpt lat="43.27881" lon="6.27887">
        <ele>566.80035400391</ele>
        <time>2020-09-11T12:19:25.592Z</time>
      </trkpt>
      <trkpt lat="43.27908" lon="6.27865">
        <ele>564.55474853516</ele>
        <time>2020-09-11T12:19:28.333Z</time>
      </trkpt>
      <trkpt lat="43.27931" lon="6.27838">
        <ele>561.97540283203</ele>
        <time>2020-09-11T12:19:31.078Z</time>
      </trkpt>
      <trkpt lat="43.27938" lon="6.27832">
        <ele>559.95373535156</ele>
        <time>2020-09-11T12:19:33.825Z</time>
      </trkpt>
      <trkpt lat="43.27986" lon="6.27795">
        <ele>559.44506835938</ele>
        <time>2020-09-11T12:19:36.580Z</time>
      </trkpt>
      <trkpt lat="43.28032" lon="6.27795">
        <ele>561.52160644531</ele>
        <time>2020-09-11T12:19:39.343Z</time>
      </trkpt>
      <trkpt lat="43.2802" lon="6.27866">
        <ele>570.15155029297</ele>
        <time>2020-09-11T12:19:42.114Z</time>
      </trkpt>
      <trkpt lat="43.28017" lon="6.27873">
        <ele>571.68371582031</ele>
        <time>2020-09-11T12:19:44.886Z</time>
      </trkpt>
      <trkpt lat="43.28015" lon="6.27881">
        <ele>573.11743164062</ele>
        <time>2020-09-11T12:19:47.659Z</time>
      </trkpt>
      <trkpt lat="43.28013" lon="6.27888">
        <ele>574.56646728516</ele>
        <time>2020-09-11T12:19:50.433Z</time>
      </trkpt>
      <trkpt lat="43.28012" lon="6.27891">
        <ele>574.48010253906</ele>
        <time>2020-09-11T12:19:53.208Z</time>
      </trkpt>
      <trkpt lat="43.28001" lon="6.27924">
        <ele>574.44427490234</ele>
        <time>2020-09-11T12:19:55.987Z</time>
      </trkpt>
      <trkpt lat="43.27982" lon="6.27996">
        <ele>580.49963378906</ele>
        <time>2020-09-11T12:19:58.775Z</time>
      </trkpt>
      <trkpt lat="43.27978" lon="6.28014">
        <ele>580.13250732422</ele>
        <time>2020-09-11T12:20:01.565Z</time>
      </trkpt>
      <trkpt lat="43.27974" lon="6.28031">
        <ele>581.29382324219</ele>
        <time>2020-09-11T12:20:04.357Z</time>
      </trkpt>
      <trkpt lat="43.27953" lon="6.28104">
        <ele>590.99377441406</ele>
        <time>2020-09-11T12:20:07.158Z</time>
      </trkpt>
      <trkpt lat="43.27951" lon="6.28111">
        <ele>591.9248046875</ele>
        <time>2020-09-11T12:20:09.960Z</time>
      </trkpt>
      <trkpt lat="43.27947" lon="6.28124">
        <ele>593.30700683594</ele>
        <time>2020-09-11T12:20:12.764Z</time>
      </trkpt>
      <trkpt lat="43.27946" lon="6.28127">
        <ele>593.68371582031</ele>
        <time>2020-09-11T12:20:15.568Z</time>
      </trkpt>
      <trkpt lat="43.2793" lon="6.28165">
        <ele>600.58813476562</ele>
        <time>2020-09-11T12:20:18.377Z</time>
      </trkpt>
      <trkpt lat="43.27916" lon="6.28211">
        <ele>606.58245849609</ele>
        <time>2020-09-11T12:20:21.192Z</time>
      </trkpt>
      <trkpt lat="43.27913" lon="6.28233">
        <ele>608.58679199219</ele>
        <time>2020-09-11T12:20:24.010Z</time>
      </trkpt>
      <trkpt lat="43.27914" lon="6.28265">
        <ele>608.76916503906</ele>
        <time>2020-09-11T12:20:26.831Z</time>
      </trkpt>
      <trkpt lat="43.27911" lon="6.28281">
        <ele>610.09973144531</ele>
        <time>2020-09-11T12:20:29.654Z</time>
      </trkpt>
      <trkpt lat="43.2791" lon="6.28296">
        <ele>610.84112548828</ele>
        <time>2020-09-11T12:20:32.479Z</time>
      </trkpt>
      <trkpt lat="43.27909" lon="6.28302">
        <ele>611.15905761719</ele>
        <time>2020-09-11T12:20:35.305Z</time>
      </trkpt>
      <trkpt lat="43.27907" lon="6.28346">
        <ele>618.78973388672</ele>
        <time>2020-09-11T12:20:38.136Z</time>
      </trkpt>
      <trkpt lat="43.27906" lon="6.2836">
        <ele>622.19836425781</ele>
        <time>2020-09-11T12:20:40.969Z</time>
      </trkpt>
      <trkpt lat="43.27904" lon="6.28388">
        <ele>626.26580810547</ele>
        <time>2020-09-11T12:20:43.805Z</time>
      </trkpt>
      <trkpt lat="43.2791" lon="6.28412">
        <ele>629.09814453125</ele>
        <time>2020-09-11T12:20:46.644Z</time>
      </trkpt>
      <trkpt lat="43.27932" lon="6.28432">
        <ele>627.10681152344</ele>
        <time>2020-09-11T12:20:49.487Z</time>
      </trkpt>
      <trkpt lat="43.27937" lon="6.28432">
        <ele>626.83087158203</ele>
        <time>2020-09-11T12:20:52.331Z</time>
      </trkpt>
      <trkpt lat="43.27943" lon="6.28432">
        <ele>626.40130615234</ele>
        <time>2020-09-11T12:20:55.176Z</time>
      </trkpt>
      <trkpt lat="43.27946" lon="6.28432">
        <ele>626.08459472656</ele>
        <time>2020-09-11T12:20:58.021Z</time>
      </trkpt>
      <trkpt lat="43.27949" lon="6.28431">
        <ele>625.80145263672</ele>
        <time>2020-09-11T12:21:00.867Z</time>
      </trkpt>
      <trkpt lat="43.27955" lon="6.28432">
        <ele>625.51348876953</ele>
        <time>2020-09-11T12:21:03.714Z</time>
      </trkpt>
      <trkpt lat="43.27965" lon="6.28434">
        <ele>625.28070068359</ele>
        <time>2020-09-11T12:21:06.562Z</time>
      </trkpt>
      <trkpt lat="43.27991" lon="6.28445">
        <ele>624.87963867188</ele>
        <time>2020-09-11T12:21:09.415Z</time>
      </trkpt>
      <trkpt lat="43.27994" lon="6.28445">
        <ele>624.47650146484</ele>
        <time>2020-09-11T12:21:12.268Z</time>
      </trkpt>
      <trkpt lat="43.28009" lon="6.28442">
        <ele>620.34924316406</ele>
        <time>2020-09-11T12:21:15.124Z</time>
      </trkpt>
      <trkpt lat="43.28012" lon="6.28441">
        <ele>619.44696044922</ele>
        <time>2020-09-11T12:21:17.980Z</time>
      </trkpt>
      <trkpt lat="43.28023" lon="6.28438">
        <ele>617.28894042969</ele>
        <time>2020-09-11T12:21:20.838Z</time>
      </trkpt>
      <trkpt lat="43.28028" lon="6.28437">
        <ele>616.66986083984</ele>
        <time>2020-09-11T12:21:23.697Z</time>
      </trkpt>
      <trkpt lat="43.28047" lon="6.28436">
        <ele>614.94812011719</ele>
        <time>2020-09-11T12:21:26.559Z</time>
      </trkpt>
      <trkpt lat="43.28101" lon="6.28446">
        <ele>614.43194580078</ele>
        <time>2020-09-11T12:21:29.429Z</time>
      </trkpt>
      <trkpt lat="43.28114" lon="6.28452">
        <ele>613.66882324219</ele>
        <time>2020-09-11T12:21:32.302Z</time>
      </trkpt>
      <trkpt lat="43.28138" lon="6.28493">
        <ele>619.35241699219</ele>
        <time>2020-09-11T12:21:35.181Z</time>
      </trkpt>
      <trkpt lat="43.28141" lon="6.28504">
        <ele>619.44598388672</ele>
        <time>2020-09-11T12:21:38.061Z</time>
      </trkpt>
      <trkpt lat="43.28142" lon="6.2858">
        <ele>631.40014648438</ele>
        <time>2020-09-11T12:21:40.950Z</time>
      </trkpt>
      <trkpt lat="43.28142" lon="6.28652">
        <ele>639.71160888672</ele>
        <time>2020-09-11T12:21:43.848Z</time>
      </trkpt>
      <trkpt lat="43.28163" lon="6.28716">
        <ele>646.85473632812</ele>
        <time>2020-09-11T12:21:46.754Z</time>
      </trkpt>
      <trkpt lat="43.28165" lon="6.28723">
        <ele>647.34661865234</ele>
        <time>2020-09-11T12:21:49.661Z</time>
      </trkpt>
      <trkpt lat="43.28195" lon="6.28785">
        <ele>656.49816894531</ele>
        <time>2020-09-11T12:21:52.576Z</time>
      </trkpt>
      <trkpt lat="43.28248" lon="6.28789">
        <ele>648.55395507812</ele>
        <time>2020-09-11T12:21:55.500Z</time>
      </trkpt>
      <trkpt lat="43.28256" lon="6.28788">
        <ele>646.32830810547</ele>
        <time>2020-09-11T12:21:58.425Z</time>
      </trkpt>
      <trkpt lat="43.28264" lon="6.28787">
        <ele>644.23919677734</ele>
        <time>2020-09-11T12:22:01.351Z</time>
      </trkpt>
      <trkpt lat="43.28276" lon="6.28786">
        <ele>642.40826416016</ele>
        <time>2020-09-11T12:22:04.279Z</time>
      </trkpt>
      <trkpt lat="43.28311" lon="6.28792">
        <ele>641.05609130859</ele>
        <time>2020-09-11T12:22:07.213Z</time>
      </trkpt>
      <trkpt lat="43.28331" lon="6.28803">
        <ele>642.97821044922</ele>
        <time>2020-09-11T12:22:10.150Z</time>
      </trkpt>
      <trkpt lat="43.28366" lon="6.28863">
        <ele>648.44006347656</ele>
        <time>2020-09-11T12:22:13.096Z</time>
      </trkpt>
      <trkpt lat="43.2837" lon="6.28883">
        <ele>651.55236816406</ele>
        <time>2020-09-11T12:22:16.045Z</time>
      </trkpt>
      <trkpt lat="43.28368" lon="6.28921">
        <ele>655.07135009766</ele>
        <time>2020-09-11T12:22:18.998Z</time>
      </trkpt>
      <trkpt lat="43.28368" lon="6.28925">
        <ele>655.18414306641</ele>
        <time>2020-09-11T12:22:21.952Z</time>
      </trkpt>
      <trkpt lat="43.28366" lon="6.28936">
        <ele>655.49133300781</ele>
        <time>2020-09-11T12:22:24.907Z</time>
      </trkpt>
      <trkpt lat="43.28354" lon="6.28991">
        <ele>661.27130126953</ele>
        <time>2020-09-11T12:22:27.869Z</time>
      </trkpt>
      <trkpt lat="43.28336" lon="6.29058">
        <ele>667.29125976562</ele>
        <time>2020-09-11T12:22:30.839Z</time>
      </trkpt>
      <trkpt lat="43.28327" lon="6.29125">
        <ele>679.66375732422</ele>
        <time>2020-09-11T12:22:33.817Z</time>
      </trkpt>
      <trkpt lat="43.28327" lon="6.29146">
        <ele>680.54833984375</ele>
        <time>2020-09-11T12:22:36.798Z</time>
      </trkpt>
      <trkpt lat="43.28343" lon="6.29196">
        <ele>684.40960693359</ele>
        <time>2020-09-11T12:22:39.785Z</time>
      </trkpt>
      <trkpt lat="43.2834" lon="6.29199">
        <ele>686.91479492188</ele>
        <time>2020-09-11T12:22:42.773Z</time>
      </trkpt>
      <trkpt lat="43.28314" lon="6.29139">
        <ele>686.86285400391</ele>
        <time>2020-09-11T12:22:45.769Z</time>
      </trkpt>
      <trkpt lat="43.28312" lon="6.29125">
        <ele>686.89764404297</ele>
        <time>2020-09-11T12:22:48.766Z</time>
      </trkpt>
      <trkpt lat="43.28312" lon="6.29109">
        <ele>685.84991455078</ele>
        <time>2020-09-11T12:22:51.765Z</time>
      </trkpt>
      <trkpt lat="43.28313" lon="6.29101">
        <ele>684.47857666016</ele>
        <time>2020-09-11T12:22:54.765Z</time>
      </trkpt>
      <trkpt lat="43.28313" lon="6.29089">
        <ele>683.04962158203</ele>
        <time>2020-09-11T12:22:57.767Z</time>
      </trkpt>
      <trkpt lat="43.28314" lon="6.29074">
        <ele>681.13348388672</ele>
        <time>2020-09-11T12:23:00.770Z</time>
      </trkpt>
      <trkpt lat="43.28315" lon="6.29017">
        <ele>678.44812011719</ele>
        <time>2020-09-11T12:23:03.780Z</time>
      </trkpt>
      <trkpt lat="43.28315" lon="6.29014">
        <ele>678.62805175781</ele>
        <time>2020-09-11T12:23:06.790Z</time>
      </trkpt>
      <trkpt lat="43.28318" lon="6.28984">
        <ele>678.14215087891</ele>
        <time>2020-09-11T12:23:09.804Z</time>
      </trkpt>
      <trkpt lat="43.2832" lon="6.28972">
        <ele>675.51989746094</ele>
        <time>2020-09-11T12:23:12.819Z</time>
      </trkpt>
      <trkpt lat="43.28321" lon="6.28969">
        <ele>674.60205078125</ele>
        <time>2020-09-11T12:23:15.835Z</time>
      </trkpt>
      <trkpt lat="43.28321" lon="6.28962">
        <ele>672.98956298828</ele>
        <time>2020-09-11T12:23:18.852Z</time>
      </trkpt>
      <trkpt lat="43.2832" lon="6.28939">
        <ele>672.11779785156</ele>
        <time>2020-09-11T12:23:21.871Z</time>
      </trkpt>
      <trkpt lat="43.28318" lon="6.28923">
        <ele>672.82568359375</ele>
        <time>2020-09-11T12:23:24.892Z</time>
      </trkpt>
      <trkpt lat="43.28315" lon="6.2891">
        <ele>673.82153320312</ele>
        <time>2020-09-11T12:23:27.915Z</time>
      </trkpt>
      <trkpt lat="43.28304" lon="6.28897">
        <ele>676.57507324219</ele>
        <time>2020-09-11T12:23:30.940Z</time>
      </trkpt>
      <trkpt lat="43.28302" lon="6.28895">
        <ele>676.59301757812</ele>
        <time>2020-09-11T12:23:33.966Z</time>
      </trkpt>
      <trkpt lat="43.28278" lon="6.28894">
        <ele>681.39703369141</ele>
        <time>2020-09-11T12:23:36.995Z</time>
      </trkpt>
      <trkpt lat="43.28222" lon="6.289">
        <ele>689.17193603516</ele>
        <time>2020-09-11T12:23:40.033Z</time>
      </trkpt>
      <trkpt lat="43.28188" lon="6.28909">
        <ele>693.55993652344</ele>
        <time>2020-09-11T12:23:43.077Z</time>
      </trkpt>
      <trkpt lat="43.28138" lon="6.28901">
        <ele>701.75708007812</ele>
        <time>2020-09-11T12:23:46.129Z</time>
      </trkpt>
      <trkpt lat="43.28123" lon="6.28886">
        <ele>702.03588867188</ele>
        <time>2020-09-11T12:23:49.184Z</time>
      </trkpt>
      <trkpt lat="43.28112" lon="6.28875">
        <ele>702.70776367188</ele>
        <time>2020-09-11T12:23:52.241Z</time>
      </trkpt>
      <trkpt lat="43.28109" lon="6.28872">
        <ele>702.81573486328</ele>
        <time>2020-09-11T12:23:55.299Z</time>
      </trkpt>
      <trkpt lat="43.28093" lon="6.28847">
        <ele>701.82415771484</ele>
        <time>2020-09-11T12:23:58.361Z</time>
      </trkpt>
      <trkpt lat="43.28068" lon="6.28811">
        <ele>700.54376220703</ele>
        <time>2020-09-11T12:24:01.428Z</time>
      </trkpt>
      <trkpt lat="43.28044" lon="6.28776">
        <ele>701.21081542969</ele>
        <time>2020-09-11T12:24:04.501Z</time>
      </trkpt>
      <trkpt lat="43.2804" lon="6.28766">
        <ele>700.82330322266</ele>
        <time>2020-09-11T12:24:07.575Z</time>
      </trkpt>
      <trkpt lat="43.2803" lon="6.28749">
        <ele>700.85327148438</ele>
        <time>2020-09-11T12:24:10.652Z</time>
      </trkpt>
      <trkpt lat="43.27981" lon="6.28718">
        <ele>698.95263671875</ele>
        <time>2020-09-11T12:24:13.738Z</time>
      </trkpt>
      <trkpt lat="43.27942" lon="6.2875">
        <ele>698.53973388672</ele>
        <time>2020-09-11T12:24:16.831Z</time>
      </trkpt>
      <trkpt lat="43.27942" lon="6.28757">
        <ele>698.18341064453</ele>
        <time>2020-09-11T12:24:19.925Z</time>
      </trkpt>
      <trkpt lat="43.27972" lon="6.28823">
        <ele>701.09521484375</ele>
        <time>2020-09-11T12:24:23.028Z</time>
      </trkpt>
      <trkpt lat="43.27979" lon="6.28834">
        <ele>702.53253173828</ele>
        <time>2020-09-11T12:24:26.133Z</time>
      </trkpt>
      <trkpt lat="43.27986" lon="6.28842">
        <ele>703.78155517578</ele>
        <time>2020-09-11T12:24:29.239Z</time>
      </trkpt>
      <trkpt lat="43.27993" lon="6.28849">
        <ele>705.23449707031</ele>
        <time>2020-09-11T12:24:32.346Z</time>
      </trkpt>
      <trkpt lat="43.27997" lon="6.28854">
        <ele>705.97119140625</ele>
        <time>2020-09-11T12:24:35.454Z</time>
      </trkpt>
      <trkpt lat="43.2801" lon="6.2887">
        <ele>708.40795898438</ele>
        <time>2020-09-11T12:24:38.565Z</time>
      </trkpt>
      <trkpt lat="43.28018" lon="6.28882">
        <ele>708.79144287109</ele>
        <time>2020-09-11T12:24:41.678Z</time>
      </trkpt>
      <trkpt lat="43.28029" lon="6.28905">
        <ele>709.68463134766</ele>
        <time>2020-09-11T12:24:44.794Z</time>
      </trkpt>
      <trkpt lat="43.28056" lon="6.28968">
        <ele>716.12573242188</ele>
        <time>2020-09-11T12:24:47.919Z</time>
      </trkpt>
      <trkpt lat="43.28061" lon="6.28977">
        <ele>717.09155273438</ele>
        <time>2020-09-11T12:24:51.045Z</time>
      </trkpt>
      <trkpt lat="43.28081" lon="6.28997">
        <ele>723.15771484375</ele>
        <time>2020-09-11T12:24:54.175Z</time>
      </trkpt>
      <trkpt lat="43.28128" lon="6.29031">
        <ele>728.72393798828</ele>
        <time>2020-09-11T12:24:57.313Z</time>
      </trkpt>
      <trkpt lat="43.28149" lon="6.29047">
        <ele>729.63098144531</ele>
        <time>2020-09-11T12:25:00.455Z</time>
      </trkpt>
      <trkpt lat="43.28192" lon="6.29092">
        <ele>729.98913574219</ele>
        <time>2020-09-11T12:25:03.606Z</time>
      </trkpt>
      <trkpt lat="43.28196" lon="6.29104">
        <ele>730.60101318359</ele>
        <time>2020-09-11T12:25:06.758Z</time>
      </trkpt>
      <trkpt lat="43.28193" lon="6.29111">
        <ele>732.56268310547</ele>
        <time>2020-09-11T12:25:09.911Z</time>
      </trkpt>
      <trkpt lat="43.28159" lon="6.29105">
        <ele>737.96960449219</ele>
        <time>2020-09-11T12:25:13.070Z</time>
      </trkpt>
      <trkpt lat="43.28125" lon="6.29092">
        <ele>738.36791992188</ele>
        <time>2020-09-11T12:25:16.235Z</time>
      </trkpt>
      <trkpt lat="43.28123" lon="6.29095">
        <ele>739.00054931641</ele>
        <time>2020-09-11T12:25:19.400Z</time>
      </trkpt>
      <trkpt lat="43.28164" lon="6.29131">
        <ele>741.70007324219</ele>
        <time>2020-09-11T12:25:22.573Z</time>
      </trkpt>
      <trkpt lat="43.28176" lon="6.29175">
        <ele>747.71417236328</ele>
        <time>2020-09-11T12:25:25.751Z</time>
      </trkpt>
      <trkpt lat="43.28178" lon="6.29188">
        <ele>749.55224609375</ele>
        <time>2020-09-11T12:25:28.931Z</time>
      </trkpt>
      <trkpt lat="43.28185" lon="6.2925">
        <ele>756.28448486328</ele>
        <time>2020-09-11T12:25:32.118Z</time>
      </trkpt>
      <trkpt lat="43.28188" lon="6.29284">
        <ele>758.81848144531</ele>
        <time>2020-09-11T12:25:35.309Z</time>
      </trkpt>
      <trkpt lat="43.28215" lon="6.29351">
        <ele>758.27288818359</ele>
        <time>2020-09-11T12:25:38.509Z</time>
      </trkpt>
      <trkpt lat="43.2823" lon="6.294">
        <ele>757.46307373047</ele>
        <time>2020-09-11T12:25:41.715Z</time>
      </trkpt>
      <trkpt lat="43.28231" lon="6.29427">
        <ele>756.53680419922</ele>
        <time>2020-09-11T12:25:44.924Z</time>
      </trkpt>
      <trkpt lat="43.28205" lon="6.2947">
        <ele>758.02825927734</ele>
        <time>2020-09-11T12:25:48.140Z</time>
      </trkpt>
      <trkpt lat="43.28199" lon="6.29456">
        <ele>760.33782958984</ele>
        <time>2020-09-11T12:25:51.358Z</time>
      </trkpt>
      <trkpt lat="43.28195" lon="6.29436">
        <ele>762.82745361328</ele>
        <time>2020-09-11T12:25:54.578Z</time>
      </trkpt>
      <trkpt lat="43.28183" lon="6.29385">
        <ele>767.63012695312</ele>
        <time>2020-09-11T12:25:57.805Z</time>
      </trkpt>
      <trkpt lat="43.28152" lon="6.29346">
        <ele>762.62762451172</ele>
        <time>2020-09-11T12:26:01.038Z</time>
      </trkpt>
      <trkpt lat="43.28151" lon="6.29331">
        <ele>761.59582519531</ele>
        <time>2020-09-11T12:26:04.273Z</time>
      </trkpt>
      <trkpt lat="43.28127" lon="6.29298">
        <ele>757.97088623047</ele>
        <time>2020-09-11T12:26:07.514Z</time>
      </trkpt>
      <trkpt lat="43.28139" lon="6.29306">
        <ele>759.32189941406</ele>
        <time>2020-09-11T12:26:10.757Z</time>
      </trkpt>
      <trkpt lat="43.28152" lon="6.29313">
        <ele>760.65844726562</ele>
        <time>2020-09-11T12:26:14.002Z</time>
      </trkpt>
      <trkpt lat="43.28153" lon="6.29316">
        <ele>760.89392089844</ele>
        <time>2020-09-11T12:26:17.247Z</time>
      </trkpt>
      <trkpt lat="43.28153" lon="6.2932">
        <ele>761.12786865234</ele>
        <time>2020-09-11T12:26:20.493Z</time>
      </trkpt>
      <trkpt lat="43.28153" lon="6.29331">
        <ele>761.90777587891</ele>
        <time>2020-09-11T12:26:23.740Z</time>
      </trkpt>
      <trkpt lat="43.28154" lon="6.29342">
        <ele>762.6396484375</ele>
        <time>2020-09-11T12:26:26.988Z</time>
      </trkpt>
      <trkpt lat="43.28156" lon="6.29346">
        <ele>763.1015625</ele>
        <time>2020-09-11T12:26:30.237Z</time>
      </trkpt>
      <trkpt lat="43.28157" lon="6.29348">
        <ele>763.38952636719</ele>
        <time>2020-09-11T12:26:33.486Z</time>
      </trkpt>
      <trkpt lat="43.28161" lon="6.29352">
        <ele>764.09741210938</ele>
        <time>2020-09-11T12:26:36.736Z</time>
      </trkpt>
      <trkpt lat="43.28177" lon="6.29374">
        <ele>767.32482910156</ele>
        <time>2020-09-11T12:26:39.990Z</time>
      </trkpt>
      <trkpt lat="43.28179" lon="6.29377">
        <ele>767.77478027344</ele>
        <time>2020-09-11T12:26:43.244Z</time>
      </trkpt>
      <trkpt lat="43.28183" lon="6.29384">
        <ele>767.5712890625</ele>
        <time>2020-09-11T12:26:46.499Z</time>
      </trkpt>
      <trkpt lat="43.28189" lon="6.29408">
        <ele>766.48443603516</ele>
        <time>2020-09-11T12:26:49.757Z</time>
      </trkpt>
      <trkpt lat="43.2819" lon="6.29428">
        <ele>764.37518310547</ele>
        <time>2020-09-11T12:26:53.017Z</time>
      </trkpt>
      <trkpt lat="43.28191" lon="6.29435">
        <ele>763.47174072266</ele>
        <time>2020-09-11T12:26:56.278Z</time>
      </trkpt>
      <trkpt lat="43.28193" lon="6.29443">
        <ele>762.54907226562</ele>
        <time>2020-09-11T12:26:59.540Z</time>
      </trkpt>
      <trkpt lat="43.28195" lon="6.29457">
        <ele>760.81536865234</ele>
        <time>2020-09-11T12:27:02.804Z</time>
      </trkpt>
      <trkpt lat="43.28197" lon="6.29463">
        <ele>759.88909912109</ele>
        <time>2020-09-11T12:27:06.069Z</time>
      </trkpt>
      <trkpt lat="43.28202" lon="6.29473">
        <ele>758.19378662109</ele>
        <time>2020-09-11T12:27:09.335Z</time>
      </trkpt>
      <trkpt lat="43.28206" lon="6.29475">
        <ele>757.31793212891</ele>
        <time>2020-09-11T12:27:12.602Z</time>
      </trkpt>
      <trkpt lat="43.28211" lon="6.29476">
        <ele>756.55725097656</ele>
        <time>2020-09-11T12:27:15.870Z</time>
      </trkpt>
      <trkpt lat="43.28216" lon="6.29475">
        <ele>755.83862304688</ele>
        <time>2020-09-11T12:27:19.138Z</time>
      </trkpt>
      <trkpt lat="43.28226" lon="6.29469">
        <ele>754.90277099609</ele>
        <time>2020-09-11T12:27:22.408Z</time>
      </trkpt>
      <trkpt lat="43.28229" lon="6.29463">
        <ele>754.99151611328</ele>
        <time>2020-09-11T12:27:25.679Z</time>
      </trkpt>
      <trkpt lat="43.28231" lon="6.29456">
        <ele>755.35748291016</ele>
        <time>2020-09-11T12:27:28.951Z</time>
      </trkpt>
      <trkpt lat="43.28233" lon="6.2944">
        <ele>755.89849853516</ele>
        <time>2020-09-11T12:27:32.225Z</time>
      </trkpt>
      <trkpt lat="43.28232" lon="6.29423">
        <ele>756.48400878906</ele>
        <time>2020-09-11T12:27:35.501Z</time>
      </trkpt>
      <trkpt lat="43.28229" lon="6.29407">
        <ele>757.48583984375</ele>
        <time>2020-09-11T12:27:38.779Z</time>
      </trkpt>
      <trkpt lat="43.28225" lon="6.29391">
        <ele>758.44445800781</ele>
        <time>2020-09-11T12:27:42.059Z</time>
      </trkpt>
      <trkpt lat="43.28195" lon="6.29326">
        <ele>761.03234863281</ele>
        <time>2020-09-11T12:27:45.348Z</time>
      </trkpt>
      <trkpt lat="43.28191" lon="6.29309">
        <ele>760.32543945312</ele>
        <time>2020-09-11T12:27:48.639Z</time>
      </trkpt>
      <trkpt lat="43.28183" lon="6.29231">
        <ele>755.09143066406</ele>
        <time>2020-09-11T12:27:51.939Z</time>
      </trkpt>
      <trkpt lat="43.2817" lon="6.29152">
        <ele>744.42547607422</ele>
        <time>2020-09-11T12:27:55.248Z</time>
      </trkpt>
      <trkpt lat="43.28166" lon="6.29134">
        <ele>742.06005859375</ele>
        <time>2020-09-11T12:27:58.560Z</time>
      </trkpt>
      <trkpt lat="43.28157" lon="6.29119">
        <ele>740.36077880859</ele>
        <time>2020-09-11T12:28:01.874Z</time>
      </trkpt>
      <trkpt lat="43.28108" lon="6.29077">
        <ele>737.25482177734</ele>
        <time>2020-09-11T12:28:05.197Z</time>
      </trkpt>
      <trkpt lat="43.28053" lon="6.29041">
        <ele>722.82373046875</ele>
        <time>2020-09-11T12:28:08.530Z</time>
      </trkpt>
      <trkpt lat="43.28046" lon="6.29038">
        <ele>720.59930419922</ele>
        <time>2020-09-11T12:28:11.864Z</time>
      </trkpt>
      <trkpt lat="43.28034" lon="6.29035">
        <ele>716.92791748047</ele>
        <time>2020-09-11T12:28:15.200Z</time>
      </trkpt>
      <trkpt lat="43.28024" lon="6.29043">
        <ele>714.55950927734</ele>
        <time>2020-09-11T12:28:18.538Z</time>
      </trkpt>
      <trkpt lat="43.2802" lon="6.29062">
        <ele>714.04119873047</ele>
        <time>2020-09-11T12:28:21.878Z</time>
      </trkpt>
      <trkpt lat="43.28012" lon="6.29136">
        <ele>718.57281494141</ele>
        <time>2020-09-11T12:28:25.227Z</time>
      </trkpt>
      <trkpt lat="43.28003" lon="6.29165">
        <ele>714.79467773438</ele>
        <time>2020-09-11T12:28:28.580Z</time>
      </trkpt>
      <trkpt lat="43.2799" lon="6.292">
        <ele>708.18621826172</ele>
        <time>2020-09-11T12:28:31.937Z</time>
      </trkpt>
      <trkpt lat="43.27989" lon="6.29221">
        <ele>706.60009765625</ele>
        <time>2020-09-11T12:28:35.297Z</time>
      </trkpt>
      <trkpt lat="43.28001" lon="6.29298">
        <ele>706.63458251953</ele>
        <time>2020-09-11T12:28:38.666Z</time>
      </trkpt>
      <trkpt lat="43.28015" lon="6.29373">
        <ele>708.82257080078</ele>
        <time>2020-09-11T12:28:42.044Z</time>
      </trkpt>
      <trkpt lat="43.28019" lon="6.29433">
        <ele>709.68957519531</ele>
        <time>2020-09-11T12:28:45.429Z</time>
      </trkpt>
      <trkpt lat="43.28015" lon="6.29477">
        <ele>709.77478027344</ele>
        <time>2020-09-11T12:28:48.819Z</time>
      </trkpt>
      <trkpt lat="43.28008" lon="6.29508">
        <ele>707.47009277344</ele>
        <time>2020-09-11T12:28:52.213Z</time>
      </trkpt>
      <trkpt lat="43.28005" lon="6.29519">
        <ele>705.94879150391</ele>
        <time>2020-09-11T12:28:55.608Z</time>
      </trkpt>
      <trkpt lat="43.27976" lon="6.29584">
        <ele>696.46618652344</ele>
        <time>2020-09-11T12:28:59.012Z</time>
      </trkpt>
      <trkpt lat="43.27963" lon="6.2961">
        <ele>691.80529785156</ele>
        <time>2020-09-11T12:29:02.420Z</time>
      </trkpt>
      <trkpt lat="43.27952" lon="6.29624">
        <ele>691.97082519531</ele>
        <time>2020-09-11T12:29:05.830Z</time>
      </trkpt>
      <trkpt lat="43.27936" lon="6.29636">
        <ele>691.71887207031</ele>
        <time>2020-09-11T12:29:09.243Z</time>
      </trkpt>
      <trkpt lat="43.27917" lon="6.29651">
        <ele>688.05120849609</ele>
        <time>2020-09-11T12:29:12.660Z</time>
      </trkpt>
      <trkpt lat="43.27909" lon="6.29666">
        <ele>683.62994384766</ele>
        <time>2020-09-11T12:29:16.079Z</time>
      </trkpt>
      <trkpt lat="43.27906" lon="6.29681">
        <ele>680.18054199219</ele>
        <time>2020-09-11T12:29:19.500Z</time>
      </trkpt>
      <trkpt lat="43.27906" lon="6.29693">
        <ele>677.88891601562</ele>
        <time>2020-09-11T12:29:22.922Z</time>
      </trkpt>
      <trkpt lat="43.27909" lon="6.297">
        <ele>677.33099365234</ele>
        <time>2020-09-11T12:29:26.345Z</time>
      </trkpt>
      <trkpt lat="43.27927" lon="6.29709">
        <ele>680.00054931641</ele>
        <time>2020-09-11T12:29:29.771Z</time>
      </trkpt>
      <trkpt lat="43.27968" lon="6.29703">
        <ele>680.07556152344</ele>
        <time>2020-09-11T12:29:33.204Z</time>
      </trkpt>
      <trkpt lat="43.28025" lon="6.29702">
        <ele>682.65222167969</ele>
        <time>2020-09-11T12:29:36.646Z</time>
      </trkpt>
      <trkpt lat="43.28056" lon="6.29712">
        <ele>682.50830078125</ele>
        <time>2020-09-11T12:29:40.093Z</time>
      </trkpt>
      <trkpt lat="43.28077" lon="6.29724">
        <ele>681.00250244141</ele>
        <time>2020-09-11T12:29:43.544Z</time>
      </trkpt>
      <trkpt lat="43.281" lon="6.29752">
        <ele>676.40057373047</ele>
        <time>2020-09-11T12:29:47.000Z</time>
      </trkpt>
      <trkpt lat="43.28132" lon="6.29812">
        <ele>669.46087646484</ele>
        <time>2020-09-11T12:29:50.464Z</time>
      </trkpt>
      <trkpt lat="43.2816" lon="6.29882">
        <ele>665.61279296875</ele>
        <time>2020-09-11T12:29:53.938Z</time>
      </trkpt>
      <trkpt lat="43.28173" lon="6.29916">
        <ele>665.51519775391</ele>
        <time>2020-09-11T12:29:57.416Z</time>
      </trkpt>
      <trkpt lat="43.28176" lon="6.29938">
        <ele>665.5751953125</ele>
        <time>2020-09-11T12:30:00.897Z</time>
      </trkpt>
      <trkpt lat="43.28181" lon="6.30014">
        <ele>665.97003173828</ele>
        <time>2020-09-11T12:30:04.387Z</time>
      </trkpt>
      <trkpt lat="43.28192" lon="6.30088">
        <ele>666.65319824219</ele>
        <time>2020-09-11T12:30:07.885Z</time>
      </trkpt>
      <trkpt lat="43.28201" lon="6.30127">
        <ele>664.92907714844</ele>
        <time>2020-09-11T12:30:11.388Z</time>
      </trkpt>
      <trkpt lat="43.28213" lon="6.30186">
        <ele>664.1357421875</ele>
        <time>2020-09-11T12:30:14.898Z</time>
      </trkpt>
      <trkpt lat="43.28226" lon="6.30259">
        <ele>661.00244140625</ele>
        <time>2020-09-11T12:30:18.417Z</time>
      </trkpt>
      <trkpt lat="43.2823" lon="6.30334">
        <ele>662.09497070312</ele>
        <time>2020-09-11T12:30:21.945Z</time>
      </trkpt>
      <trkpt lat="43.28228" lon="6.30363">
        <ele>664.0068359375</ele>
        <time>2020-09-11T12:30:25.476Z</time>
      </trkpt>
      <trkpt lat="43.28237" lon="6.30435">
        <ele>667.31164550781</ele>
        <time>2020-09-11T12:30:29.016Z</time>
      </trkpt>
      <trkpt lat="43.28241" lon="6.30438">
        <ele>667.88519287109</ele>
        <time>2020-09-11T12:30:32.557Z</time>
      </trkpt>
      <trkpt lat="43.28241" lon="6.30438">
        <ele>667.75921630859</ele>
        <time>2020-09-11T12:30:36.098Z</time>
      </trkpt>
      <trkpt lat="43.28242" lon="6.30439">
        <ele>667.96795654297</ele>
        <time>2020-09-11T12:30:39.639Z</time>
      </trkpt>
      <trkpt lat="43.28245" lon="6.30447">
        <ele>668.63507080078</ele>
        <time>2020-09-11T12:30:43.181Z</time>
      </trkpt>
      <trkpt lat="43.28247" lon="6.30452">
        <ele>669.11138916016</ele>
        <time>2020-09-11T12:30:46.724Z</time>
      </trkpt>
      <trkpt lat="43.2825" lon="6.3047">
        <ele>669.61065673828</ele>
        <time>2020-09-11T12:30:50.269Z</time>
      </trkpt>
      <trkpt lat="43.28247" lon="6.30547">
        <ele>668.5595703125</ele>
        <time>2020-09-11T12:30:53.823Z</time>
      </trkpt>
      <trkpt lat="43.28248" lon="6.30559">
        <ele>668.11413574219</ele>
        <time>2020-09-11T12:30:57.378Z</time>
      </trkpt>
      <trkpt lat="43.28251" lon="6.3057">
        <ele>669.11627197266</ele>
        <time>2020-09-11T12:31:00.935Z</time>
      </trkpt>
      <trkpt lat="43.2826" lon="6.3059">
        <ele>673.11877441406</ele>
        <time>2020-09-11T12:31:04.494Z</time>
      </trkpt>
      <trkpt lat="43.28267" lon="6.30602">
        <ele>674.75579833984</ele>
        <time>2020-09-11T12:31:08.055Z</time>
      </trkpt>
      <trkpt lat="43.28275" lon="6.30614">
        <ele>675.14697265625</ele>
        <time>2020-09-11T12:31:11.618Z</time>
      </trkpt>
      <trkpt lat="43.28289" lon="6.30634">
        <ele>675.76361083984</ele>
        <time>2020-09-11T12:31:15.184Z</time>
      </trkpt>
      <trkpt lat="43.28293" lon="6.30639">
        <ele>675.87884521484</ele>
        <time>2020-09-11T12:31:18.751Z</time>
      </trkpt>
      <trkpt lat="43.28302" lon="6.30649">
        <ele>676.39776611328</ele>
        <time>2020-09-11T12:31:22.320Z</time>
      </trkpt>
      <trkpt lat="43.28315" lon="6.30664">
        <ele>678.63897705078</ele>
        <time>2020-09-11T12:31:25.892Z</time>
      </trkpt>
      <trkpt lat="43.28325" lon="6.30678">
        <ele>680.70263671875</ele>
        <time>2020-09-11T12:31:29.466Z</time>
      </trkpt>
      <trkpt lat="43.28331" lon="6.30688">
        <ele>682.30078125</ele>
        <time>2020-09-11T12:31:33.042Z</time>
      </trkpt>
      <trkpt lat="43.28346" lon="6.30707">
        <ele>685.13470458984</ele>
        <time>2020-09-11T12:31:36.621Z</time>
      </trkpt>
      <trkpt lat="43.28356" lon="6.30723">
        <ele>685.83282470703</ele>
        <time>2020-09-11T12:31:40.202Z</time>
      </trkpt>
      <trkpt lat="43.28368" lon="6.30738">
        <ele>685.412109375</ele>
        <time>2020-09-11T12:31:43.786Z</time>
      </trkpt>
      <trkpt lat="43.28413" lon="6.30793">
        <ele>680.81683349609</ele>
        <time>2020-09-11T12:31:47.380Z</time>
      </trkpt>
      <trkpt lat="43.28434" lon="6.30825">
        <ele>677.90234375</ele>
        <time>2020-09-11T12:31:50.979Z</time>
      </trkpt>
      <trkpt lat="43.28447" lon="6.30855">
        <ele>675.29040527344</ele>
        <time>2020-09-11T12:31:54.582Z</time>
      </trkpt>
      <trkpt lat="43.28461" lon="6.30895">
        <ele>671.66339111328</ele>
        <time>2020-09-11T12:31:58.190Z</time>
      </trkpt>
      <trkpt lat="43.2847" lon="6.3091">
        <ele>669.67913818359</ele>
        <time>2020-09-11T12:32:01.800Z</time>
      </trkpt>
      <trkpt lat="43.28515" lon="6.30958">
        <ele>666.28656005859</ele>
        <time>2020-09-11T12:32:05.419Z</time>
      </trkpt>
      <trkpt lat="43.28566" lon="6.30997">
        <ele>663.20709228516</ele>
        <time>2020-09-11T12:32:09.048Z</time>
      </trkpt>
      <trkpt lat="43.28593" lon="6.3101">
        <ele>663.6162109375</ele>
        <time>2020-09-11T12:32:12.681Z</time>
      </trkpt>
      <trkpt lat="43.28603" lon="6.31021">
        <ele>663.27661132812</ele>
        <time>2020-09-11T12:32:16.316Z</time>
      </trkpt>
      <trkpt lat="43.28612" lon="6.31035">
        <ele>662.62756347656</ele>
        <time>2020-09-11T12:32:19.953Z</time>
      </trkpt>
      <trkpt lat="43.28633" lon="6.31107">
        <ele>659.02557373047</ele>
        <time>2020-09-11T12:32:23.600Z</time>
      </trkpt>
      <trkpt lat="43.28639" lon="6.31185">
        <ele>649.07159423828</ele>
        <time>2020-09-11T12:32:27.256Z</time>
      </trkpt>
      <trkpt lat="43.28633" lon="6.31262">
        <ele>638.55950927734</ele>
        <time>2020-09-11T12:32:30.921Z</time>
      </trkpt>
      <trkpt lat="43.28636" lon="6.3134">
        <ele>632.46173095703</ele>
        <time>2020-09-11T12:32:34.595Z</time>
      </trkpt>
      <trkpt lat="43.28642" lon="6.31391">
        <ele>629.33428955078</ele>
        <time>2020-09-11T12:32:38.275Z</time>
      </trkpt>
      <trkpt lat="43.28645" lon="6.31411">
        <ele>625.12957763672</ele>
        <time>2020-09-11T12:32:41.957Z</time>
      </trkpt>
      <trkpt lat="43.28627" lon="6.31409">
        <ele>622.78277587891</ele>
        <time>2020-09-11T12:32:45.642Z</time>
      </trkpt>
      <trkpt lat="43.28624" lon="6.314">
        <ele>624.90765380859</ele>
        <time>2020-09-11T12:32:49.328Z</time>
      </trkpt>
      <trkpt lat="43.28606" lon="6.31318">
        <ele>626.37872314453</ele>
        <time>2020-09-11T12:32:53.024Z</time>
      </trkpt>
      <trkpt lat="43.28587" lon="6.31238">
        <ele>621.95947265625</ele>
        <time>2020-09-11T12:32:56.730Z</time>
      </trkpt>
      <trkpt lat="43.28567" lon="6.3117">
        <ele>624.48284912109</ele>
        <time>2020-09-11T12:33:00.445Z</time>
      </trkpt>
      <trkpt lat="43.28555" lon="6.31156">
        <ele>622.77435302734</ele>
        <time>2020-09-11T12:33:04.162Z</time>
      </trkpt>
      <trkpt lat="43.28539" lon="6.31153">
        <ele>618.97698974609</ele>
        <time>2020-09-11T12:33:07.882Z</time>
      </trkpt>
      <trkpt lat="43.28479" lon="6.31159">
        <ele>603.69677734375</ele>
        <time>2020-09-11T12:33:11.611Z</time>
      </trkpt>
      <trkpt lat="43.2846" lon="6.31157">
        <ele>600.75128173828</ele>
        <time>2020-09-11T12:33:15.344Z</time>
      </trkpt>
      <trkpt lat="43.28441" lon="6.3115">
        <ele>599.14477539062</ele>
        <time>2020-09-11T12:33:19.080Z</time>
      </trkpt>
      <trkpt lat="43.28425" lon="6.31139">
        <ele>598.50628662109</ele>
        <time>2020-09-11T12:33:22.819Z</time>
      </trkpt>
      <trkpt lat="43.28414" lon="6.31122">
        <ele>599.40856933594</ele>
        <time>2020-09-11T12:33:26.560Z</time>
      </trkpt>
      <trkpt lat="43.28405" lon="6.31103">
        <ele>601.50579833984</ele>
        <time>2020-09-11T12:33:30.304Z</time>
      </trkpt>
      <trkpt lat="43.28399" lon="6.31104">
        <ele>599.95324707031</ele>
        <time>2020-09-11T12:33:34.049Z</time>
      </trkpt>
      <trkpt lat="43.28398" lon="6.31115">
        <ele>597.33288574219</ele>
        <time>2020-09-11T12:33:37.795Z</time>
      </trkpt>
      <trkpt lat="43.28441" lon="6.31174">
        <ele>591.90838623047</ele>
        <time>2020-09-11T12:33:41.551Z</time>
      </trkpt>
      <trkpt lat="43.28464" lon="6.31193">
        <ele>591.30133056641</ele>
        <time>2020-09-11T12:33:45.311Z</time>
      </trkpt>
      <trkpt lat="43.28482" lon="6.31201">
        <ele>593.15020751953</ele>
        <time>2020-09-11T12:33:49.074Z</time>
      </trkpt>
      <trkpt lat="43.28499" lon="6.31204">
        <ele>595.23223876953</ele>
        <time>2020-09-11T12:33:52.840Z</time>
      </trkpt>
      <trkpt lat="43.28521" lon="6.31207">
        <ele>600.44470214844</ele>
        <time>2020-09-11T12:33:56.609Z</time>
      </trkpt>
      <trkpt lat="43.28531" lon="6.31219">
        <ele>601.6025390625</ele>
        <time>2020-09-11T12:34:00.381Z</time>
      </trkpt>
      <trkpt lat="43.28534" lon="6.31239">
        <ele>599.68878173828</ele>
        <time>2020-09-11T12:34:04.155Z</time>
      </trkpt>
      <trkpt lat="43.28529" lon="6.31314">
        <ele>593.26873779297</ele>
        <time>2020-09-11T12:34:07.938Z</time>
      </trkpt>
      <trkpt lat="43.28522" lon="6.31388">
        <ele>596.82281494141</ele>
        <time>2020-09-11T12:34:11.730Z</time>
      </trkpt>
      <trkpt lat="43.28518" lon="6.31407">
        <ele>597.11022949219</ele>
        <time>2020-09-11T12:34:15.524Z</time>
      </trkpt>
      <trkpt lat="43.2851" lon="6.31421">
        <ele>597.37335205078</ele>
        <time>2020-09-11T12:34:19.320Z</time>
      </trkpt>
      <trkpt lat="43.28498" lon="6.3143">
        <ele>593.78118896484</ele>
        <time>2020-09-11T12:34:23.118Z</time>
      </trkpt>
      <trkpt lat="43.2848" lon="6.31442">
        <ele>588.45764160156</ele>
        <time>2020-09-11T12:34:26.919Z</time>
      </trkpt>
      <trkpt lat="43.28467" lon="6.31458">
        <ele>583.35028076172</ele>
        <time>2020-09-11T12:34:30.723Z</time>
      </trkpt>
      <trkpt lat="43.28455" lon="6.3148">
        <ele>579.0634765625</ele>
        <time>2020-09-11T12:34:34.530Z</time>
      </trkpt>
      <trkpt lat="43.28439" lon="6.31555">
        <ele>571.16363525391</ele>
        <time>2020-09-11T12:34:38.346Z</time>
      </trkpt>
      <trkpt lat="43.28434" lon="6.31636">
        <ele>567.92138671875</ele>
        <time>2020-09-11T12:34:42.172Z</time>
      </trkpt>
      <trkpt lat="43.28414" lon="6.31718">
        <ele>558.74786376953</ele>
        <time>2020-09-11T12:34:46.008Z</time>
      </trkpt>
      <trkpt lat="43.28387" lon="6.31789">
        <ele>545.28668212891</ele>
        <time>2020-09-11T12:34:49.853Z</time>
      </trkpt>
      <trkpt lat="43.28366" lon="6.31863">
        <ele>543.48785400391</ele>
        <time>2020-09-11T12:34:53.708Z</time>
      </trkpt>
      <trkpt lat="43.28357" lon="6.31884">
        <ele>547.27685546875</ele>
        <time>2020-09-11T12:34:57.565Z</time>
      </trkpt>
      <trkpt lat="43.28331" lon="6.31927">
        <ele>547.18237304688</ele>
        <time>2020-09-11T12:35:01.429Z</time>
      </trkpt>
      <trkpt lat="43.28283" lon="6.31961">
        <ele>544.70092773438</ele>
        <time>2020-09-11T12:35:05.302Z</time>
      </trkpt>
      <trkpt lat="43.2827" lon="6.31975">
        <ele>546.34588623047</ele>
        <time>2020-09-11T12:35:09.177Z</time>
      </trkpt>
      <trkpt lat="43.28253" lon="6.31997">
        <ele>540.80395507812</ele>
        <time>2020-09-11T12:35:13.056Z</time>
      </trkpt>
      <trkpt lat="43.28249" lon="6.32011">
        <ele>537.359375</ele>
        <time>2020-09-11T12:35:16.937Z</time>
      </trkpt>
      <trkpt lat="43.28254" lon="6.32026">
        <ele>537.18780517578</ele>
        <time>2020-09-11T12:35:20.820Z</time>
      </trkpt>
      <trkpt lat="43.28277" lon="6.32092">
        <ele>532.13269042969</ele>
        <time>2020-09-11T12:35:24.711Z</time>
      </trkpt>
      <trkpt lat="43.28287" lon="6.32165">
        <ele>525.36834716797</ele>
        <time>2020-09-11T12:35:28.611Z</time>
      </trkpt>
      <trkpt lat="43.28306" lon="6.32243">
        <ele>526.86871337891</ele>
        <time>2020-09-11T12:35:32.521Z</time>
      </trkpt>
      <trkpt lat="43.28314" lon="6.32276">
        <ele>528.80523681641</ele>
        <time>2020-09-11T12:35:36.435Z</time>
      </trkpt>
      <trkpt lat="43.2832" lon="6.32344">
        <ele>531.97760009766</ele>
        <time>2020-09-11T12:35:40.357Z</time>
      </trkpt>
      <trkpt lat="43.28319" lon="6.32394">
        <ele>534.32873535156</ele>
        <time>2020-09-11T12:35:44.284Z</time>
      </trkpt>
      <trkpt lat="43.2831" lon="6.32444">
        <ele>537.98522949219</ele>
        <time>2020-09-11T12:35:48.217Z</time>
      </trkpt>
      <trkpt lat="43.28296" lon="6.32517">
        <ele>533.43347167969</ele>
        <time>2020-09-11T12:35:52.159Z</time>
      </trkpt>
      <trkpt lat="43.28294" lon="6.32534">
        <ele>530.39196777344</ele>
        <time>2020-09-11T12:35:56.103Z</time>
      </trkpt>
      <trkpt lat="43.28294" lon="6.32572">
        <ele>526.14837646484</ele>
        <time>2020-09-11T12:36:00.052Z</time>
      </trkpt>
      <trkpt lat="43.28301" lon="6.32589">
        <ele>527.76086425781</ele>
        <time>2020-09-11T12:36:04.003Z</time>
      </trkpt>
      <trkpt lat="43.28323" lon="6.32656">
        <ele>531.15771484375</ele>
        <time>2020-09-11T12:36:07.963Z</time>
      </trkpt>
      <trkpt lat="43.28318" lon="6.32683">
        <ele>532.18475341797</ele>
        <time>2020-09-11T12:36:11.926Z</time>
      </trkpt>
      <trkpt lat="43.28316" lon="6.32692">
        <ele>532.48229980469</ele>
        <time>2020-09-11T12:36:15.890Z</time>
      </trkpt>
      <trkpt lat="43.28306" lon="6.32771">
        <ele>538.24755859375</ele>
        <time>2020-09-11T12:36:19.863Z</time>
      </trkpt>
      <trkpt lat="43.283" lon="6.32783">
        <ele>539.7080078125</ele>
        <time>2020-09-11T12:36:23.838Z</time>
      </trkpt>
      <trkpt lat="43.28294" lon="6.32791">
        <ele>540.54064941406</ele>
        <time>2020-09-11T12:36:27.814Z</time>
      </trkpt>
      <trkpt lat="43.28265" lon="6.32811">
        <ele>538.74816894531</ele>
        <time>2020-09-11T12:36:31.796Z</time>
      </trkpt>
      <trkpt lat="43.28224" lon="6.32819">
        <ele>527.08990478516</ele>
        <time>2020-09-11T12:36:35.784Z</time>
      </trkpt>
      <trkpt lat="43.28209" lon="6.3283">
        <ele>524.333984375</ele>
        <time>2020-09-11T12:36:39.775Z</time>
      </trkpt>
      <trkpt lat="43.28197" lon="6.32849">
        <ele>524.27166748047</ele>
        <time>2020-09-11T12:36:43.769Z</time>
      </trkpt>
      <trkpt lat="43.28177" lon="6.32905">
        <ele>529.86047363281</ele>
        <time>2020-09-11T12:36:47.770Z</time>
      </trkpt>
      <trkpt lat="43.28159" lon="6.32941">
        <ele>538.36108398438</ele>
        <time>2020-09-11T12:36:51.776Z</time>
      </trkpt>
      <trkpt lat="43.28149" lon="6.32949">
        <ele>539.63403320312</ele>
        <time>2020-09-11T12:36:55.784Z</time>
      </trkpt>
      <trkpt lat="43.28134" lon="6.32947">
        <ele>538.35992431641</ele>
        <time>2020-09-11T12:36:59.795Z</time>
      </trkpt>
      <trkpt lat="43.28105" lon="6.32934">
        <ele>533.09759521484</ele>
        <time>2020-09-11T12:37:03.811Z</time>
      </trkpt>
      <trkpt lat="43.28081" lon="6.32919">
        <ele>530.95343017578</ele>
        <time>2020-09-11T12:37:07.831Z</time>
      </trkpt>
      <trkpt lat="43.28059" lon="6.32916">
        <ele>533.97692871094</ele>
        <time>2020-09-11T12:37:11.854Z</time>
      </trkpt>
      <trkpt lat="43.28018" lon="6.32921">
        <ele>539.86181640625</ele>
        <time>2020-09-11T12:37:15.884Z</time>
      </trkpt>
      <trkpt lat="43.28006" lon="6.32911">
        <ele>542.06427001953</ele>
        <time>2020-09-11T12:37:19.916Z</time>
      </trkpt>
      <trkpt lat="43.27997" lon="6.32894">
        <ele>543.82879638672</ele>
        <time>2020-09-11T12:37:23.950Z</time>
      </trkpt>
      <trkpt lat="43.27997" lon="6.32875">
        <ele>540.82067871094</ele>
        <time>2020-09-11T12:37:27.987Z</time>
      </trkpt>
      <trkpt lat="43.2801" lon="6.3285">
        <ele>532.14013671875</ele>
        <time>2020-09-11T12:37:32.027Z</time>
      </trkpt>
      <trkpt lat="43.2803" lon="6.32777">
        <ele>516.07476806641</ele>
        <time>2020-09-11T12:37:36.076Z</time>
      </trkpt>
      <trkpt lat="43.28026" lon="6.32754">
        <ele>513.85394287109</ele>
        <time>2020-09-11T12:37:40.128Z</time>
      </trkpt>
      <trkpt lat="43.28013" lon="6.32733">
        <ele>514.29547119141</ele>
        <time>2020-09-11T12:37:44.183Z</time>
      </trkpt>
      <trkpt lat="43.27971" lon="6.32672">
        <ele>500.8583984375</ele>
        <time>2020-09-11T12:37:48.248Z</time>
      </trkpt>
      <trkpt lat="43.27963" lon="6.32667">
        <ele>500.3424987793</ele>
        <time>2020-09-11T12:37:52.315Z</time>
      </trkpt>
      <trkpt lat="43.27942" lon="6.32659">
        <ele>500.06414794922</ele>
        <time>2020-09-11T12:37:56.385Z</time>
      </trkpt>
      <trkpt lat="43.27884" lon="6.32641">
        <ele>507.73501586914</ele>
        <time>2020-09-11T12:38:00.465Z</time>
      </trkpt>
      <trkpt lat="43.27844" lon="6.326">
        <ele>505.27145385742</ele>
        <time>2020-09-11T12:38:04.553Z</time>
      </trkpt>
      <trkpt lat="43.27795" lon="6.32543">
        <ele>504.876953125</ele>
        <time>2020-09-11T12:38:08.651Z</time>
      </trkpt>
      <trkpt lat="43.2775" lon="6.32483">
        <ele>499.06704711914</ele>
        <time>2020-09-11T12:38:12.759Z</time>
      </trkpt>
      <trkpt lat="43.27737" lon="6.32463">
        <ele>495.13092041016</ele>
        <time>2020-09-11T12:38:16.870Z</time>
      </trkpt>
      <trkpt lat="43.2769" lon="6.32417">
        <ele>489.22189331055</ele>
        <time>2020-09-11T12:38:20.990Z</time>
      </trkpt>
      <trkpt lat="43.27669" lon="6.3241">
        <ele>487.83917236328</ele>
        <time>2020-09-11T12:38:25.114Z</time>
      </trkpt>
      <trkpt lat="43.27627" lon="6.32414">
        <ele>484.66567993164</ele>
        <time>2020-09-11T12:38:29.245Z</time>
      </trkpt>
      <trkpt lat="43.27597" lon="6.32428">
        <ele>483.84130859375</ele>
        <time>2020-09-11T12:38:33.381Z</time>
      </trkpt>
      <trkpt lat="43.27578" lon="6.32429">
        <ele>480.90182495117</ele>
        <time>2020-09-11T12:38:37.520Z</time>
      </trkpt>
      <trkpt lat="43.27527" lon="6.32428">
        <ele>470.47030639648</ele>
        <time>2020-09-11T12:38:41.667Z</time>
      </trkpt>
      <trkpt lat="43.27519" lon="6.32439">
        <ele>470.16915893555</ele>
        <time>2020-09-11T12:38:45.816Z</time>
      </trkpt>
      <trkpt lat="43.27525" lon="6.32457">
        <ele>474.53283691406</ele>
        <time>2020-09-11T12:38:49.967Z</time>
      </trkpt>
      <trkpt lat="43.27538" lon="6.3251">
        <ele>484.75573730469</ele>
        <time>2020-09-11T12:38:54.124Z</time>
      </trkpt>
      <trkpt lat="43.27528" lon="6.32585">
        <ele>492.39990234375</ele>
        <time>2020-09-11T12:38:58.290Z</time>
      </trkpt>
      <trkpt lat="43.27523" lon="6.326">
        <ele>494.10842895508</ele>
        <time>2020-09-11T12:39:02.458Z</time>
      </trkpt>
      <trkpt lat="43.27515" lon="6.32605">
        <ele>493.31893920898</ele>
        <time>2020-09-11T12:39:06.628Z</time>
      </trkpt>
      <trkpt lat="43.27511" lon="6.32599">
        <ele>492.44497680664</ele>
        <time>2020-09-11T12:39:10.799Z</time>
      </trkpt>
      <trkpt lat="43.27475" lon="6.32543">
        <ele>494.02963256836</ele>
        <time>2020-09-11T12:39:14.978Z</time>
      </trkpt>
      <trkpt lat="43.27441" lon="6.32482">
        <ele>492.38687133789</ele>
        <time>2020-09-11T12:39:19.166Z</time>
      </trkpt>
      <trkpt lat="43.27425" lon="6.32402">
        <ele>483.29577636719</ele>
        <time>2020-09-11T12:39:23.364Z</time>
      </trkpt>
      <trkpt lat="43.27417" lon="6.32315">
        <ele>479.73495483398</ele>
        <time>2020-09-11T12:39:27.572Z</time>
      </trkpt>
      <trkpt lat="43.27426" lon="6.32261">
        <ele>475.21633911133</ele>
        <time>2020-09-11T12:39:31.787Z</time>
      </trkpt>
      <trkpt lat="43.27436" lon="6.32238">
        <ele>472.56207275391</ele>
        <time>2020-09-11T12:39:36.005Z</time>
      </trkpt>
      <trkpt lat="43.2745" lon="6.32219">
        <ele>463.59576416016</ele>
        <time>2020-09-11T12:39:40.226Z</time>
      </trkpt>
      <trkpt lat="43.27456" lon="6.32202">
        <ele>457.30880737305</ele>
        <time>2020-09-11T12:39:44.449Z</time>
      </trkpt>
      <trkpt lat="43.27457" lon="6.32185">
        <ele>453.66860961914</ele>
        <time>2020-09-11T12:39:48.674Z</time>
      </trkpt>
      <trkpt lat="43.27451" lon="6.32169">
        <ele>453.55822753906</ele>
        <time>2020-09-11T12:39:52.901Z</time>
      </trkpt>
      <trkpt lat="43.27441" lon="6.32157">
        <ele>456.0119934082</ele>
        <time>2020-09-11T12:39:57.130Z</time>
      </trkpt>
      <trkpt lat="43.27431" lon="6.32147">
        <ele>458.69198608398</ele>
        <time>2020-09-11T12:40:01.361Z</time>
      </trkpt>
      <trkpt lat="43.2737" lon="6.32128">
        <ele>456.61456298828</ele>
        <time>2020-09-11T12:40:05.602Z</time>
      </trkpt>
      <trkpt lat="43.27341" lon="6.32123">
        <ele>457.27972412109</ele>
        <time>2020-09-11T12:40:09.848Z</time>
      </trkpt>
      <trkpt lat="43.27295" lon="6.32109">
        <ele>456.16738891602</ele>
        <time>2020-09-11T12:40:14.102Z</time>
      </trkpt>
      <trkpt lat="43.2728" lon="6.32112">
        <ele>457.77990722656</ele>
        <time>2020-09-11T12:40:18.358Z</time>
      </trkpt>
      <trkpt lat="43.27253" lon="6.32128">
        <ele>464.41598510742</ele>
        <time>2020-09-11T12:40:22.619Z</time>
      </trkpt>
      <trkpt lat="43.27238" lon="6.32124">
        <ele>463.85317993164</ele>
        <time>2020-09-11T12:40:26.882Z</time>
      </trkpt>
      <trkpt lat="43.27209" lon="6.321">
        <ele>457.81457519531</ele>
        <time>2020-09-11T12:40:31.151Z</time>
      </trkpt>
      <trkpt lat="43.27187" lon="6.32093">
        <ele>456.59680175781</ele>
        <time>2020-09-11T12:40:35.423Z</time>
      </trkpt>
      <trkpt lat="43.27166" lon="6.3209">
        <ele>456.30282592773</ele>
        <time>2020-09-11T12:40:39.699Z</time>
      </trkpt>
      <trkpt lat="43.27151" lon="6.32088">
        <ele>456.365234375</ele>
        <time>2020-09-11T12:40:43.977Z</time>
      </trkpt>
      <trkpt lat="43.27106" lon="6.32088">
        <ele>457.58764648438</ele>
        <time>2020-09-11T12:40:48.262Z</time>
      </trkpt>
      <trkpt lat="43.27092" lon="6.32081">
        <ele>455.64013671875</ele>
        <time>2020-09-11T12:40:52.550Z</time>
      </trkpt>
      <trkpt lat="43.27073" lon="6.32054">
        <ele>448.13522338867</ele>
        <time>2020-09-11T12:40:56.842Z</time>
      </trkpt>
      <trkpt lat="43.27031" lon="6.32005">
        <ele>436.66271972656</ele>
        <time>2020-09-11T12:41:01.143Z</time>
      </trkpt>
      <trkpt lat="43.27012" lon="6.31995">
        <ele>433.62884521484</ele>
        <time>2020-09-11T12:41:05.447Z</time>
      </trkpt>
      <trkpt lat="43.26995" lon="6.3199">
        <ele>427.58065795898</ele>
        <time>2020-09-11T12:41:09.754Z</time>
      </trkpt>
      <trkpt lat="43.26979" lon="6.31993">
        <ele>423.33334350586</ele>
        <time>2020-09-11T12:41:14.063Z</time>
      </trkpt>
      <trkpt lat="43.26965" lon="6.32004">
        <ele>421.55883789062</ele>
        <time>2020-09-11T12:41:18.375Z</time>
      </trkpt>
      <trkpt lat="43.26956" lon="6.32026">
        <ele>421.78729248047</ele>
        <time>2020-09-11T12:41:22.690Z</time>
      </trkpt>
      <trkpt lat="43.26937" lon="6.32105">
        <ele>425.60934448242</ele>
        <time>2020-09-11T12:41:27.015Z</time>
      </trkpt>
      <trkpt lat="43.26911" lon="6.32182">
        <ele>437.82989501953</ele>
        <time>2020-09-11T12:41:31.350Z</time>
      </trkpt>
      <trkpt lat="43.26904" lon="6.32199">
        <ele>442.15637207031</ele>
        <time>2020-09-11T12:41:35.687Z</time>
      </trkpt>
      <trkpt lat="43.26892" lon="6.32203">
        <ele>445.13046264648</ele>
        <time>2020-09-11T12:41:40.026Z</time>
      </trkpt>
      <trkpt lat="43.26882" lon="6.32193">
        <ele>445.24923706055</ele>
        <time>2020-09-11T12:41:44.367Z</time>
      </trkpt>
      <trkpt lat="43.26874" lon="6.32178">
        <ele>444.22821044922</ele>
        <time>2020-09-11T12:41:48.710Z</time>
      </trkpt>
      <trkpt lat="43.26858" lon="6.32103">
        <ele>436.97406005859</ele>
        <time>2020-09-11T12:41:53.062Z</time>
      </trkpt>
      <trkpt lat="43.26849" lon="6.32022">
        <ele>428.52066040039</ele>
        <time>2020-09-11T12:41:57.424Z</time>
      </trkpt>
      <trkpt lat="43.26844" lon="6.31951">
        <ele>418.78787231445</ele>
        <time>2020-09-11T12:42:01.794Z</time>
      </trkpt>
      <trkpt lat="43.26849" lon="6.31899">
        <ele>409.73812866211</ele>
        <time>2020-09-11T12:42:06.170Z</time>
      </trkpt>
      <trkpt lat="43.26846" lon="6.31877">
        <ele>403.61517333984</ele>
        <time>2020-09-11T12:42:10.549Z</time>
      </trkpt>
      <trkpt lat="43.26835" lon="6.31859">
        <ele>398.79730224609</ele>
        <time>2020-09-11T12:42:14.931Z</time>
      </trkpt>
      <trkpt lat="43.26822" lon="6.31843">
        <ele>395.12591552734</ele>
        <time>2020-09-11T12:42:19.315Z</time>
      </trkpt>
      <trkpt lat="43.26805" lon="6.31831">
        <ele>393.16064453125</ele>
        <time>2020-09-11T12:42:23.702Z</time>
      </trkpt>
      <trkpt lat="43.26786" lon="6.31826">
        <ele>393.53857421875</ele>
        <time>2020-09-11T12:42:28.093Z</time>
      </trkpt>
      <trkpt lat="43.26769" lon="6.31825">
        <ele>395.23989868164</ele>
        <time>2020-09-11T12:42:32.486Z</time>
      </trkpt>
      <trkpt lat="43.26752" lon="6.31836">
        <ele>398.03234863281</ele>
        <time>2020-09-11T12:42:36.882Z</time>
      </trkpt>
      <trkpt lat="43.26734" lon="6.31845">
        <ele>396.8493347168</ele>
        <time>2020-09-11T12:42:41.281Z</time>
      </trkpt>
      <trkpt lat="43.26707" lon="6.31849">
        <ele>391.63278198242</ele>
        <time>2020-09-11T12:42:45.685Z</time>
      </trkpt>
      <trkpt lat="43.26692" lon="6.31861">
        <ele>392.52182006836</ele>
        <time>2020-09-11T12:42:50.091Z</time>
      </trkpt>
      <trkpt lat="43.26651" lon="6.31913">
        <ele>406.68176269531</ele>
        <time>2020-09-11T12:42:54.506Z</time>
      </trkpt>
      <trkpt lat="43.26624" lon="6.31918">
        <ele>405.10522460938</ele>
        <time>2020-09-11T12:42:58.926Z</time>
      </trkpt>
      <trkpt lat="43.26587" lon="6.3192">
        <ele>402.94689941406</ele>
        <time>2020-09-11T12:43:03.352Z</time>
      </trkpt>
      <trkpt lat="43.26568" lon="6.31913">
        <ele>400.17535400391</ele>
        <time>2020-09-11T12:43:07.781Z</time>
      </trkpt>
      <trkpt lat="43.2651" lon="6.3189">
        <ele>391.22723388672</ele>
        <time>2020-09-11T12:43:12.220Z</time>
      </trkpt>
      <trkpt lat="43.26477" lon="6.31869">
        <ele>376.16134643555</ele>
        <time>2020-09-11T12:43:16.664Z</time>
      </trkpt>
      <trkpt lat="43.26463" lon="6.31875">
        <ele>372.39999389648</ele>
        <time>2020-09-11T12:43:21.111Z</time>
      </trkpt>
      <trkpt lat="43.26431" lon="6.31936">
        <ele>372.6467590332</ele>
        <time>2020-09-11T12:43:25.566Z</time>
      </trkpt>
      <trkpt lat="43.26403" lon="6.3201">
        <ele>380.32437133789</ele>
        <time>2020-09-11T12:43:30.031Z</time>
      </trkpt>
      <trkpt lat="43.26385" lon="6.32044">
        <ele>383.72891235352</ele>
        <time>2020-09-11T12:43:34.501Z</time>
      </trkpt>
      <trkpt lat="43.26346" lon="6.32102">
        <ele>389.64242553711</ele>
        <time>2020-09-11T12:43:38.980Z</time>
      </trkpt>
      <trkpt lat="43.26338" lon="6.32099">
        <ele>391.47451782227</ele>
        <time>2020-09-11T12:43:43.461Z</time>
      </trkpt>
      <trkpt lat="43.26333" lon="6.32088">
        <ele>390.69104003906</ele>
        <time>2020-09-11T12:43:47.943Z</time>
      </trkpt>
      <trkpt lat="43.2633" lon="6.3207">
        <ele>387.50677490234</ele>
        <time>2020-09-11T12:43:52.427Z</time>
      </trkpt>
      <trkpt lat="43.26323" lon="6.3201">
        <ele>373.38562011719</ele>
        <time>2020-09-11T12:43:56.918Z</time>
      </trkpt>
      <trkpt lat="43.2631" lon="6.31964">
        <ele>361.93585205078</ele>
        <time>2020-09-11T12:44:01.415Z</time>
      </trkpt>
      <trkpt lat="43.26294" lon="6.31953">
        <ele>359.93460083008</ele>
        <time>2020-09-11T12:44:05.915Z</time>
      </trkpt>
      <trkpt lat="43.26277" lon="6.31953">
        <ele>362.50695800781</ele>
        <time>2020-09-11T12:44:10.418Z</time>
      </trkpt>
      <trkpt lat="43.26238" lon="6.31953">
        <ele>370.36080932617</ele>
        <time>2020-09-11T12:44:14.927Z</time>
      </trkpt>
      <trkpt lat="43.26218" lon="6.31943">
        <ele>369.15814208984</ele>
        <time>2020-09-11T12:44:19.439Z</time>
      </trkpt>
      <trkpt lat="43.2617" lon="6.31904">
        <ele>359.13116455078</ele>
        <time>2020-09-11T12:44:23.960Z</time>
      </trkpt>
      <trkpt lat="43.26122" lon="6.31863">
        <ele>345.85955810547</ele>
        <time>2020-09-11T12:44:28.490Z</time>
      </trkpt>
      <trkpt lat="43.26111" lon="6.31853">
        <ele>343.07482910156</ele>
        <time>2020-09-11T12:44:33.023Z</time>
      </trkpt>
      <trkpt lat="43.26097" lon="6.31859">
        <ele>342.11138916016</ele>
        <time>2020-09-11T12:44:37.558Z</time>
      </trkpt>
      <trkpt lat="43.26084" lon="6.31874">
        <ele>339.11651611328</ele>
        <time>2020-09-11T12:44:42.096Z</time>
      </trkpt>
      <trkpt lat="43.26055" lon="6.31946">
        <ele>337.84060668945</ele>
        <time>2020-09-11T12:44:46.643Z</time>
      </trkpt>
      <trkpt lat="43.26022" lon="6.32018">
        <ele>336.96224975586</ele>
        <time>2020-09-11T12:44:51.200Z</time>
      </trkpt>
      <trkpt lat="43.26002" lon="6.32091">
        <ele>343.68206787109</ele>
        <time>2020-09-11T12:44:55.766Z</time>
      </trkpt>
      <trkpt lat="43.25995" lon="6.32107">
        <ele>345.13021850586</ele>
        <time>2020-09-11T12:45:00.334Z</time>
      </trkpt>
      <trkpt lat="43.25979" lon="6.32111">
        <ele>341.80798339844</ele>
        <time>2020-09-11T12:45:04.905Z</time>
      </trkpt>
      <trkpt lat="43.25924" lon="6.32109">
        <ele>327.97232055664</ele>
        <time>2020-09-11T12:45:09.485Z</time>
      </trkpt>
      <trkpt lat="43.2591" lon="6.32121">
        <ele>327.65316772461</ele>
        <time>2020-09-11T12:45:14.067Z</time>
      </trkpt>
      <trkpt lat="43.25871" lon="6.3218">
        <ele>323.84881591797</ele>
        <time>2020-09-11T12:45:18.659Z</time>
      </trkpt>
      <trkpt lat="43.25837" lon="6.3224">
        <ele>317.49108886719</ele>
        <time>2020-09-11T12:45:23.260Z</time>
      </trkpt>
      <trkpt lat="43.25834" lon="6.3225">
        <ele>315.87734985352</ele>
        <time>2020-09-11T12:45:27.862Z</time>
      </trkpt>
      <trkpt lat="43.25832" lon="6.32272">
        <ele>313.76089477539</ele>
        <time>2020-09-11T12:45:32.466Z</time>
      </trkpt>
      <trkpt lat="43.25839" lon="6.32307">
        <ele>313.47534179688</ele>
        <time>2020-09-11T12:45:37.075Z</time>
      </trkpt>
      <trkpt lat="43.25849" lon="6.32329">
        <ele>316.23391723633</ele>
        <time>2020-09-11T12:45:41.687Z</time>
      </trkpt>
      <trkpt lat="43.25858" lon="6.3235">
        <ele>318.69589233398</ele>
        <time>2020-09-11T12:45:46.302Z</time>
      </trkpt>
      <trkpt lat="43.25858" lon="6.32375">
        <ele>319.56094360352</ele>
        <time>2020-09-11T12:45:50.919Z</time>
      </trkpt>
      <trkpt lat="43.2585" lon="6.32408">
        <ele>318.92486572266</ele>
        <time>2020-09-11T12:45:55.541Z</time>
      </trkpt>
      <trkpt lat="43.25842" lon="6.32416">
        <ele>317.89764404297</ele>
        <time>2020-09-11T12:46:00.164Z</time>
      </trkpt>
      <trkpt lat="43.25825" lon="6.32415">
        <ele>315.39007568359</ele>
        <time>2020-09-11T12:46:04.790Z</time>
      </trkpt>
      <trkpt lat="43.25766" lon="6.32395">
        <ele>306.28594970703</ele>
        <time>2020-09-11T12:46:09.426Z</time>
      </trkpt>
      <trkpt lat="43.25747" lon="6.32398">
        <ele>300.57592773438</ele>
        <time>2020-09-11T12:46:14.065Z</time>
      </trkpt>
      <trkpt lat="43.25732" lon="6.32412">
        <ele>294.46173095703</ele>
        <time>2020-09-11T12:46:18.707Z</time>
      </trkpt>
      <trkpt lat="43.2572" lon="6.32432">
        <ele>289.52456665039</ele>
        <time>2020-09-11T12:46:23.351Z</time>
      </trkpt>
      <trkpt lat="43.25713" lon="6.32455">
        <ele>287.13772583008</ele>
        <time>2020-09-11T12:46:27.998Z</time>
      </trkpt>
      <trkpt lat="43.2572" lon="6.32478">
        <ele>289.23736572266</ele>
        <time>2020-09-11T12:46:32.648Z</time>
      </trkpt>
      <trkpt lat="43.25732" lon="6.32498">
        <ele>291.2106628418</ele>
        <time>2020-09-11T12:46:37.301Z</time>
      </trkpt>
      <trkpt lat="43.25781" lon="6.32552">
        <ele>299.96978759766</ele>
        <time>2020-09-11T12:46:41.964Z</time>
      </trkpt>
      <trkpt lat="43.25802" lon="6.32585">
        <ele>309.1350402832</ele>
        <time>2020-09-11T12:46:46.633Z</time>
      </trkpt>
      <trkpt lat="43.25803" lon="6.32601">
        <ele>312.77282714844</ele>
        <time>2020-09-11T12:46:51.303Z</time>
      </trkpt>
      <trkpt lat="43.25788" lon="6.32611">
        <ele>312.92095947266</ele>
        <time>2020-09-11T12:46:55.976Z</time>
      </trkpt>
      <trkpt lat="43.25732" lon="6.32622">
        <ele>306.57916259766</ele>
        <time>2020-09-11T12:47:00.658Z</time>
      </trkpt>
      <trkpt lat="43.25723" lon="6.32627">
        <ele>306.44119262695</ele>
        <time>2020-09-11T12:47:05.342Z</time>
      </trkpt>
      <trkpt lat="43.25685" lon="6.32649">
        <ele>305.53515625</ele>
        <time>2020-09-11T12:47:10.032Z</time>
      </trkpt>
      <trkpt lat="43.2563" lon="6.32663">
        <ele>305.47732543945</ele>
        <time>2020-09-11T12:47:14.731Z</time>
      </trkpt>
      <trkpt lat="43.25616" lon="6.32652">
        <ele>300.96368408203</ele>
        <time>2020-09-11T12:47:19.433Z</time>
      </trkpt>
      <trkpt lat="43.2559" lon="6.32634">
        <ele>292.81134033203</ele>
        <time>2020-09-11T12:47:24.140Z</time>
      </trkpt>
      <trkpt lat="43.2557" lon="6.32631">
        <ele>287.29611206055</ele>
        <time>2020-09-11T12:47:28.850Z</time>
      </trkpt>
      <trkpt lat="43.25553" lon="6.32634">
        <ele>283.76870727539</ele>
        <time>2020-09-11T12:47:33.563Z</time>
      </trkpt>
      <trkpt lat="43.25535" lon="6.32643">
        <ele>281.70263671875</ele>
        <time>2020-09-11T12:47:38.278Z</time>
      </trkpt>
      <trkpt lat="43.2549" lon="6.3268">
        <ele>280.51907348633</ele>
        <time>2020-09-11T12:47:43.002Z</time>
      </trkpt>
      <trkpt lat="43.25474" lon="6.32702">
        <ele>283.20581054688</ele>
        <time>2020-09-11T12:47:47.730Z</time>
      </trkpt>
      <trkpt lat="43.25448" lon="6.32745">
        <ele>287.51342773438</ele>
        <time>2020-09-11T12:47:52.464Z</time>
      </trkpt>
      <trkpt lat="43.25427" lon="6.32745">
        <ele>283.12399291992</ele>
        <time>2020-09-11T12:47:57.201Z</time>
      </trkpt>
      <trkpt lat="43.254" lon="6.32746">
        <ele>276.4494934082</ele>
        <time>2020-09-11T12:48:01.943Z</time>
      </trkpt>
      <trkpt lat="43.25372" lon="6.32754">
        <ele>271.10800170898</ele>
        <time>2020-09-11T12:48:06.689Z</time>
      </trkpt>
      <trkpt lat="43.25322" lon="6.32793">
        <ele>268.67568969727</ele>
        <time>2020-09-11T12:48:11.445Z</time>
      </trkpt>
      <trkpt lat="43.25281" lon="6.32842">
        <ele>257.04553222656</ele>
        <time>2020-09-11T12:48:16.209Z</time>
      </trkpt>
      <trkpt lat="43.25251" lon="6.32889">
        <ele>253.8311920166</ele>
        <time>2020-09-11T12:48:20.980Z</time>
      </trkpt>
      <trkpt lat="43.25247" lon="6.32907">
        <ele>251.31230163574</ele>
        <time>2020-09-11T12:48:25.754Z</time>
      </trkpt>
      <trkpt lat="43.25253" lon="6.32928">
        <ele>250.93437194824</ele>
        <time>2020-09-11T12:48:30.530Z</time>
      </trkpt>
      <trkpt lat="43.25266" lon="6.32946">
        <ele>252.09803771973</ele>
        <time>2020-09-11T12:48:35.309Z</time>
      </trkpt>
      <trkpt lat="43.2531" lon="6.32988">
        <ele>253.11123657227</ele>
        <time>2020-09-11T12:48:40.097Z</time>
      </trkpt>
      <trkpt lat="43.25328" lon="6.32993">
        <ele>255.02252197266</ele>
        <time>2020-09-11T12:48:44.888Z</time>
      </trkpt>
      <trkpt lat="43.25346" lon="6.32996">
        <ele>257.10211181641</ele>
        <time>2020-09-11T12:48:49.682Z</time>
      </trkpt>
      <trkpt lat="43.25365" lon="6.32993">
        <ele>261.54110717773</ele>
        <time>2020-09-11T12:48:54.479Z</time>
      </trkpt>
      <trkpt lat="43.25387" lon="6.32992">
        <ele>265.69000244141</ele>
        <time>2020-09-11T12:48:59.279Z</time>
      </trkpt>
      <trkpt lat="43.25394" lon="6.33004">
        <ele>267.94802856445</ele>
        <time>2020-09-11T12:49:04.081Z</time>
      </trkpt>
      <trkpt lat="43.254" lon="6.3303">
        <ele>271.00991821289</ele>
        <time>2020-09-11T12:49:08.886Z</time>
      </trkpt>
      <trkpt lat="43.25397" lon="6.33044">
        <ele>270.53747558594</ele>
        <time>2020-09-11T12:49:13.693Z</time>
      </trkpt>
      <trkpt lat="43.25391" lon="6.3306">
        <ele>268.79537963867</ele>
        <time>2020-09-11T12:49:18.502Z</time>
      </trkpt>
      <trkpt lat="43.25368" lon="6.33114">
        <ele>265.68762207031</ele>
        <time>2020-09-11T12:49:23.318Z</time>
      </trkpt>
      <trkpt lat="43.25366" lon="6.33138">
        <ele>268.62713623047</ele>
        <time>2020-09-11T12:49:28.137Z</time>
      </trkpt>
      <trkpt lat="43.25361" lon="6.33167">
        <ele>269.69241333008</ele>
        <time>2020-09-11T12:49:32.960Z</time>
      </trkpt>
      <trkpt lat="43.25353" lon="6.33182">
        <ele>272.84066772461</ele>
        <time>2020-09-11T12:49:37.785Z</time>
      </trkpt>
      <trkpt lat="43.25352" lon="6.33156">
        <ele>268.810546875</ele>
        <time>2020-09-11T12:49:42.613Z</time>
      </trkpt>
      <trkpt lat="43.25349" lon="6.33113">
        <ele>263.83392333984</ele>
        <time>2020-09-11T12:49:47.446Z</time>
      </trkpt>
      <trkpt lat="43.25307" lon="6.33055">
        <ele>257.53652954102</ele>
        <time>2020-09-11T12:49:52.289Z</time>
      </trkpt>
      <trkpt lat="43.25284" lon="6.33048">
        <ele>257.55932617188</ele>
        <time>2020-09-11T12:49:57.135Z</time>
      </trkpt>
      <trkpt lat="43.2522" lon="6.33035">
        <ele>252.92561340332</ele>
        <time>2020-09-11T12:50:01.992Z</time>
      </trkpt>
      <trkpt lat="43.25202" lon="6.33034">
        <ele>252.4720916748</ele>
        <time>2020-09-11T12:50:06.852Z</time>
      </trkpt>
      <trkpt lat="43.25174" lon="6.33033">
        <ele>251.30213928223</ele>
        <time>2020-09-11T12:50:11.716Z</time>
      </trkpt>
      <trkpt lat="43.25132" lon="6.33041">
        <ele>244.75025939941</ele>
        <time>2020-09-11T12:50:16.587Z</time>
      </trkpt>
      <trkpt lat="43.25114" lon="6.33051">
        <ele>239.82028198242</ele>
        <time>2020-09-11T12:50:21.461Z</time>
      </trkpt>
      <trkpt lat="43.2508" lon="6.33088">
        <ele>239.68377685547</ele>
        <time>2020-09-11T12:50:26.342Z</time>
      </trkpt>
      <trkpt lat="43.25047" lon="6.33152">
        <ele>236.26719665527</ele>
        <time>2020-09-11T12:50:31.232Z</time>
      </trkpt>
      <trkpt lat="43.25013" lon="6.33222">
        <ele>232.34951782227</ele>
        <time>2020-09-11T12:50:36.132Z</time>
      </trkpt>
      <trkpt lat="43.24996" lon="6.33257">
        <ele>239.47738647461</ele>
        <time>2020-09-11T12:50:41.037Z</time>
      </trkpt>
      <trkpt lat="43.24947" lon="6.33285">
        <ele>245.71798706055</ele>
        <time>2020-09-11T12:50:45.950Z</time>
      </trkpt>
      <trkpt lat="43.24909" lon="6.3328">
        <ele>247.71105957031</ele>
        <time>2020-09-11T12:50:50.870Z</time>
      </trkpt>
      <trkpt lat="43.24896" lon="6.33261">
        <ele>244.85073852539</ele>
        <time>2020-09-11T12:50:55.793Z</time>
      </trkpt>
      <trkpt lat="43.24857" lon="6.33208">
        <ele>237.73873901367</ele>
        <time>2020-09-11T12:51:00.724Z</time>
      </trkpt>
      <trkpt lat="43.24822" lon="6.33177">
        <ele>231.57456970215</ele>
        <time>2020-09-11T12:51:05.662Z</time>
      </trkpt>
      <trkpt lat="43.24803" lon="6.33168">
        <ele>229.0765838623</ele>
        <time>2020-09-11T12:51:10.603Z</time>
      </trkpt>
      <trkpt lat="43.24763" lon="6.33168">
        <ele>229.19313049316</ele>
        <time>2020-09-11T12:51:15.551Z</time>
      </trkpt>
      <trkpt lat="43.24732" lon="6.33179">
        <ele>230.91250610352</ele>
        <time>2020-09-11T12:51:20.504Z</time>
      </trkpt>
      <trkpt lat="43.24679" lon="6.33214">
        <ele>222.24731445312</ele>
        <time>2020-09-11T12:51:25.466Z</time>
      </trkpt>
      <trkpt lat="43.24632" lon="6.33261">
        <ele>227.33963012695</ele>
        <time>2020-09-11T12:51:30.437Z</time>
      </trkpt>
      <trkpt lat="43.24596" lon="6.33322">
        <ele>216.7880859375</ele>
        <time>2020-09-11T12:51:35.418Z</time>
      </trkpt>
      <trkpt lat="43.24562" lon="6.33382">
        <ele>223.37959289551</ele>
        <time>2020-09-11T12:51:40.408Z</time>
      </trkpt>
      <trkpt lat="43.24526" lon="6.33452">
        <ele>220.81820678711</ele>
        <time>2020-09-11T12:51:45.407Z</time>
      </trkpt>
      <trkpt lat="43.24495" lon="6.33499">
        <ele>221.10543823242</ele>
        <time>2020-09-11T12:51:50.414Z</time>
      </trkpt>
      <trkpt lat="43.24483" lon="6.33523">
        <ele>226.34136962891</ele>
        <time>2020-09-11T12:51:55.424Z</time>
      </trkpt>
      <trkpt lat="43.24479" lon="6.33532">
        <ele>228.02516174316</ele>
        <time>2020-09-11T12:52:00.435Z</time>
      </trkpt>
      <trkpt lat="43.24472" lon="6.33553">
        <ele>225.21882629395</ele>
        <time>2020-09-11T12:52:05.449Z</time>
      </trkpt>
      <trkpt lat="43.24459" lon="6.33634">
        <ele>221.08819580078</ele>
        <time>2020-09-11T12:52:10.473Z</time>
      </trkpt>
      <trkpt lat="43.24449" lon="6.33709">
        <ele>213.66213989258</ele>
        <time>2020-09-11T12:52:15.506Z</time>
      </trkpt>
      <trkpt lat="43.2444" lon="6.3378">
        <ele>208.05776977539</ele>
        <time>2020-09-11T12:52:20.547Z</time>
      </trkpt>
      <trkpt lat="43.24432" lon="6.33807">
        <ele>205.74334716797</ele>
        <time>2020-09-11T12:52:25.592Z</time>
      </trkpt>
      <trkpt lat="43.244" lon="6.33868">
        <ele>214.70043945312</ele>
        <time>2020-09-11T12:52:30.645Z</time>
      </trkpt>
      <trkpt lat="43.24378" lon="6.33912">
        <ele>209.64080810547</ele>
        <time>2020-09-11T12:52:35.705Z</time>
      </trkpt>
      <trkpt lat="43.24344" lon="6.33977">
        <ele>206.00198364258</ele>
        <time>2020-09-11T12:52:40.774Z</time>
      </trkpt>
      <trkpt lat="43.24301" lon="6.34026">
        <ele>212.85836791992</ele>
        <time>2020-09-11T12:52:45.852Z</time>
      </trkpt>
      <trkpt lat="43.24293" lon="6.3403">
        <ele>210.88229370117</ele>
        <time>2020-09-11T12:52:50.931Z</time>
      </trkpt>
      <trkpt lat="43.24279" lon="6.34035">
        <ele>207.13412475586</ele>
        <time>2020-09-11T12:52:56.013Z</time>
      </trkpt>
      <trkpt lat="43.24262" lon="6.34033">
        <ele>202.14622497559</ele>
        <time>2020-09-11T12:53:01.097Z</time>
      </trkpt>
      <trkpt lat="43.24247" lon="6.34028">
        <ele>203.1672668457</ele>
        <time>2020-09-11T12:53:06.184Z</time>
      </trkpt>
      <trkpt lat="43.24199" lon="6.33986">
        <ele>204.30467224121</ele>
        <time>2020-09-11T12:53:11.280Z</time>
      </trkpt>
      <trkpt lat="43.24191" lon="6.33978">
        <ele>204.42384338379</ele>
        <time>2020-09-11T12:53:16.378Z</time>
      </trkpt>
      <trkpt lat="43.24181" lon="6.33963">
        <ele>203.6739654541</ele>
        <time>2020-09-11T12:53:21.478Z</time>
      </trkpt>
      <trkpt lat="43.24142" lon="6.33905">
        <ele>205.44390869141</ele>
        <time>2020-09-11T12:53:26.587Z</time>
      </trkpt>
      <trkpt lat="43.2412" lon="6.33873">
        <ele>207.38650512695</ele>
        <time>2020-09-11T12:53:31.701Z</time>
      </trkpt>
      <trkpt lat="43.24115" lon="6.33861">
        <ele>207.57606506348</ele>
        <time>2020-09-11T12:53:36.817Z</time>
      </trkpt>
      <trkpt lat="43.24107" lon="6.33788">
        <ele>208.33337402344</ele>
        <time>2020-09-11T12:53:41.942Z</time>
      </trkpt>
      <trkpt lat="43.24129" lon="6.33718">
        <ele>208.12777709961</ele>
        <time>2020-09-11T12:53:47.075Z</time>
      </trkpt>
      <trkpt lat="43.24139" lon="6.33643">
        <ele>208.00077819824</ele>
        <time>2020-09-11T12:53:52.217Z</time>
      </trkpt>
      <trkpt lat="43.24138" lon="6.3363">
        <ele>208.24433898926</ele>
        <time>2020-09-11T12:53:57.361Z</time>
      </trkpt>
      <trkpt lat="43.24136" lon="6.33617">
        <ele>208.72425842285</ele>
        <time>2020-09-11T12:54:02.506Z</time>
      </trkpt>
      <trkpt lat="43.24134" lon="6.33604">
        <ele>209.35415649414</ele>
        <time>2020-09-11T12:54:07.653Z</time>
      </trkpt>
      <trkpt lat="43.24131" lon="6.33523">
        <ele>202.56251525879</ele>
        <time>2020-09-11T12:54:12.809Z</time>
      </trkpt>
      <trkpt lat="43.24122" lon="6.33448">
        <ele>199.49864196777</ele>
        <time>2020-09-11T12:54:17.974Z</time>
      </trkpt>
      <trkpt lat="43.24115" lon="6.3337">
        <ele>199.94984436035</ele>
        <time>2020-09-11T12:54:23.149Z</time>
      </trkpt>
      <trkpt lat="43.24125" lon="6.33291">
        <ele>201.18933105469</ele>
        <time>2020-09-11T12:54:28.333Z</time>
      </trkpt>
      <trkpt lat="43.2413" lon="6.33227">
        <ele>201.56335449219</ele>
        <time>2020-09-11T12:54:33.524Z</time>
      </trkpt>
      <trkpt lat="43.24132" lon="6.33191">
        <ele>205.41592407227</ele>
        <time>2020-09-11T12:54:38.720Z</time>
      </trkpt>
      <trkpt lat="43.24137" lon="6.33153">
        <ele>205.87487792969</ele>
        <time>2020-09-11T12:54:43.920Z</time>
      </trkpt>
      <trkpt lat="43.24151" lon="6.33083">
        <ele>212.34228515625</ele>
        <time>2020-09-11T12:54:49.129Z</time>
      </trkpt>
      <trkpt lat="43.24163" lon="6.33063">
        <ele>209.29284667969</ele>
        <time>2020-09-11T12:54:54.341Z</time>
      </trkpt>
      <trkpt lat="43.24195" lon="6.33031">
        <ele>202.03932189941</ele>
        <time>2020-09-11T12:54:59.559Z</time>
      </trkpt>
      <trkpt lat="43.24219" lon="6.3301">
        <ele>198.70603942871</ele>
        <time>2020-09-11T12:55:04.782Z</time>
      </trkpt>
      <trkpt lat="43.24228" lon="6.32994">
        <ele>196.21885681152</ele>
        <time>2020-09-11T12:55:10.007Z</time>
      </trkpt>
      <trkpt lat="43.24233" lon="6.32976">
        <ele>193.85499572754</ele>
        <time>2020-09-11T12:55:15.234Z</time>
      </trkpt>
      <trkpt lat="43.24235" lon="6.32948">
        <ele>189.48767089844</ele>
        <time>2020-09-11T12:55:20.465Z</time>
      </trkpt>
      <trkpt lat="43.24228" lon="6.32929">
        <ele>189.71083068848</ele>
        <time>2020-09-11T12:55:25.698Z</time>
      </trkpt>
      <trkpt lat="43.24208" lon="6.32905">
        <ele>191.46014404297</ele>
        <time>2020-09-11T12:55:30.935Z</time>
      </trkpt>
      <trkpt lat="43.2419" lon="6.32895">
        <ele>193.17468261719</ele>
        <time>2020-09-11T12:55:36.175Z</time>
      </trkpt>
      <trkpt lat="43.2416" lon="6.32874">
        <ele>196.24041748047</ele>
        <time>2020-09-11T12:55:41.421Z</time>
      </trkpt>
      <trkpt lat="43.24134" lon="6.32842">
        <ele>197.7689666748</ele>
        <time>2020-09-11T12:55:46.672Z</time>
      </trkpt>
      <trkpt lat="43.24129" lon="6.32831">
        <ele>197.36222839355</ele>
        <time>2020-09-11T12:55:51.925Z</time>
      </trkpt>
      <trkpt lat="43.24127" lon="6.32809">
        <ele>195.22917175293</ele>
        <time>2020-09-11T12:55:57.181Z</time>
      </trkpt>
      <trkpt lat="43.24131" lon="6.32786">
        <ele>194.39410400391</ele>
        <time>2020-09-11T12:56:02.439Z</time>
      </trkpt>
      <trkpt lat="43.24148" lon="6.32707">
        <ele>193.21485900879</ele>
        <time>2020-09-11T12:56:07.707Z</time>
      </trkpt>
      <trkpt lat="43.24155" lon="6.3269">
        <ele>194.35882568359</ele>
        <time>2020-09-11T12:56:12.977Z</time>
      </trkpt>
      <trkpt lat="43.24184" lon="6.32642">
        <ele>196.41380310059</ele>
        <time>2020-09-11T12:56:18.254Z</time>
      </trkpt>
      <trkpt lat="43.242" lon="6.32618">
        <ele>199.44448852539</ele>
        <time>2020-09-11T12:56:23.535Z</time>
      </trkpt>
      <trkpt lat="43.24218" lon="6.32599">
        <ele>200.80024719238</ele>
        <time>2020-09-11T12:56:28.820Z</time>
      </trkpt>
      <trkpt lat="43.24234" lon="6.32579">
        <ele>199.73121643066</ele>
        <time>2020-09-11T12:56:34.108Z</time>
      </trkpt>
      <trkpt lat="43.2424" lon="6.32566">
        <ele>200.16555786133</ele>
        <time>2020-09-11T12:56:39.398Z</time>
      </trkpt>
      <trkpt lat="43.24262" lon="6.32512">
        <ele>195.83459472656</ele>
        <time>2020-09-11T12:56:44.695Z</time>
      </trkpt>
      <trkpt lat="43.24289" lon="6.3245">
        <ele>190.67115783691</ele>
        <time>2020-09-11T12:56:50.001Z</time>
      </trkpt>
      <trkpt lat="43.24299" lon="6.32372">
        <ele>187.33644104004</ele>
        <time>2020-09-11T12:56:55.316Z</time>
      </trkpt>
      <trkpt lat="43.2431" lon="6.32294">
        <ele>183.16784667969</ele>
        <time>2020-09-11T12:57:00.640Z</time>
      </trkpt>
      <trkpt lat="43.2431" lon="6.32262">
        <ele>182.78373718262</ele>
        <time>2020-09-11T12:57:05.968Z</time>
      </trkpt>
      <trkpt lat="43.24304" lon="6.32232">
        <ele>183.52281188965</ele>
        <time>2020-09-11T12:57:11.300Z</time>
      </trkpt>
      <trkpt lat="43.24267" lon="6.32163">
        <ele>180.38150024414</ele>
        <time>2020-09-11T12:57:16.642Z</time>
      </trkpt>
      <trkpt lat="43.24232" lon="6.32122">
        <ele>178.24655151367</ele>
        <time>2020-09-11T12:57:21.991Z</time>
      </trkpt>
      <trkpt lat="43.24213" lon="6.32112">
        <ele>178.46371459961</ele>
        <time>2020-09-11T12:57:27.343Z</time>
      </trkpt>
      <trkpt lat="43.24156" lon="6.32101">
        <ele>180.19609069824</ele>
        <time>2020-09-11T12:57:32.705Z</time>
      </trkpt>
      <trkpt lat="43.24103" lon="6.32116">
        <ele>179.56326293945</ele>
        <time>2020-09-11T12:57:38.075Z</time>
      </trkpt>
      <trkpt lat="43.24051" lon="6.3215">
        <ele>175.81671142578</ele>
        <time>2020-09-11T12:57:43.454Z</time>
      </trkpt>
      <trkpt lat="43.24007" lon="6.32155">
        <ele>170.88706970215</ele>
        <time>2020-09-11T12:57:48.841Z</time>
      </trkpt>
      <trkpt lat="43.23949" lon="6.32146">
        <ele>167.7237701416</ele>
        <time>2020-09-11T12:57:54.237Z</time>
      </trkpt>
      <trkpt lat="43.23943" lon="6.32147">
        <ele>167.49284362793</ele>
        <time>2020-09-11T12:57:59.634Z</time>
      </trkpt>
      <trkpt lat="43.23889" lon="6.32164">
        <ele>171.08644104004</ele>
        <time>2020-09-11T12:58:05.040Z</time>
      </trkpt>
      <trkpt lat="43.2387" lon="6.32166">
        <ele>172.35704040527</ele>
        <time>2020-09-11T12:58:10.449Z</time>
      </trkpt>
      <trkpt lat="43.23859" lon="6.32167">
        <ele>173.42933654785</ele>
        <time>2020-09-11T12:58:15.860Z</time>
      </trkpt>
      <trkpt lat="43.23848" lon="6.32167">
        <ele>174.55955505371</ele>
        <time>2020-09-11T12:58:21.272Z</time>
      </trkpt>
      <trkpt lat="43.23839" lon="6.3216">
        <ele>175.0612487793</ele>
        <time>2020-09-11T12:58:26.686Z</time>
      </trkpt>
      <trkpt lat="43.23833" lon="6.32147">
        <ele>174.2453918457</ele>
        <time>2020-09-11T12:58:32.102Z</time>
      </trkpt>
      <trkpt lat="43.2383" lon="6.32131">
        <ele>173.48291015625</ele>
        <time>2020-09-11T12:58:37.520Z</time>
      </trkpt>
      <trkpt lat="43.23832" lon="6.32114">
        <ele>172.19912719727</ele>
        <time>2020-09-11T12:58:42.940Z</time>
      </trkpt>
      <trkpt lat="43.23835" lon="6.32077">
        <ele>169.46357727051</ele>
        <time>2020-09-11T12:58:48.364Z</time>
      </trkpt>
      <trkpt lat="43.23826" lon="6.32004">
        <ele>168.40110778809</ele>
        <time>2020-09-11T12:58:53.797Z</time>
      </trkpt>
      <trkpt lat="43.23802" lon="6.31937">
        <ele>167.56063842773</ele>
        <time>2020-09-11T12:58:59.239Z</time>
      </trkpt>
      <trkpt lat="43.23795" lon="6.3192">
        <ele>167.47842407227</ele>
        <time>2020-09-11T12:59:04.683Z</time>
      </trkpt>
      <trkpt lat="43.23793" lon="6.3191">
        <ele>167.431640625</ele>
        <time>2020-09-11T12:59:10.128Z</time>
      </trkpt>
      <trkpt lat="43.23789" lon="6.31892">
        <ele>167.23722839355</ele>
        <time>2020-09-11T12:59:15.575Z</time>
      </trkpt>
      <trkpt lat="43.23787" lon="6.31882">
        <ele>167.04046630859</ele>
        <time>2020-09-11T12:59:21.023Z</time>
      </trkpt>
      <trkpt lat="43.23773" lon="6.31805">
        <ele>165.75082397461</ele>
        <time>2020-09-11T12:59:26.481Z</time>
      </trkpt>
      <trkpt lat="43.23756" lon="6.31725">
        <ele>166.11572265625</ele>
        <time>2020-09-11T12:59:31.948Z</time>
      </trkpt>
      <trkpt lat="43.23742" lon="6.31653">
        <ele>165.54675292969</ele>
        <time>2020-09-11T12:59:37.424Z</time>
      </trkpt>
      <trkpt lat="43.23729" lon="6.31579">
        <ele>164.16145324707</ele>
        <time>2020-09-11T12:59:42.909Z</time>
      </trkpt>
      <trkpt lat="43.23713" lon="6.31497">
        <ele>164.78562927246</ele>
        <time>2020-09-11T12:59:48.404Z</time>
      </trkpt>
      <trkpt lat="43.23698" lon="6.31415">
        <ele>165.91596984863</ele>
        <time>2020-09-11T12:59:53.909Z</time>
      </trkpt>
      <trkpt lat="43.23693" lon="6.31332">
        <ele>163.76638793945</ele>
        <time>2020-09-11T12:59:59.423Z</time>
      </trkpt>
      <trkpt lat="43.23696" lon="6.31296">
        <ele>164.45004272461</ele>
        <time>2020-09-11T13:00:04.942Z</time>
      </trkpt>
      <trkpt lat="43.23704" lon="6.31274">
        <ele>165.65704345703</ele>
        <time>2020-09-11T13:00:10.464Z</time>
      </trkpt>
      <trkpt lat="43.23717" lon="6.31254">
        <ele>165.8078918457</ele>
        <time>2020-09-11T13:00:15.989Z</time>
      </trkpt>
      <trkpt lat="43.23739" lon="6.31228">
        <ele>164.51663208008</ele>
        <time>2020-09-11T13:00:21.518Z</time>
      </trkpt>
      <trkpt lat="43.23782" lon="6.31181">
        <ele>163.38414001465</ele>
        <time>2020-09-11T13:00:27.056Z</time>
      </trkpt>
      <trkpt lat="43.23826" lon="6.31135">
        <ele>160.20356750488</ele>
        <time>2020-09-11T13:00:32.603Z</time>
      </trkpt>
      <trkpt lat="43.23861" lon="6.3109">
        <ele>159.25245666504</ele>
        <time>2020-09-11T13:00:38.158Z</time>
      </trkpt>
      <trkpt lat="43.23873" lon="6.31051">
        <ele>159.1788482666</ele>
        <time>2020-09-11T13:00:43.718Z</time>
      </trkpt>
      <trkpt lat="43.2387" lon="6.31031">
        <ele>158.8968963623</ele>
        <time>2020-09-11T13:00:49.280Z</time>
      </trkpt>
      <trkpt lat="43.23865" lon="6.31011">
        <ele>158.60653686523</ele>
        <time>2020-09-11T13:00:54.845Z</time>
      </trkpt>
      <trkpt lat="43.23855" lon="6.30983">
        <ele>158.14102172852</ele>
        <time>2020-09-11T13:01:00.413Z</time>
      </trkpt>
      <trkpt lat="43.23843" lon="6.30967">
        <ele>157.39886474609</ele>
        <time>2020-09-11T13:01:05.984Z</time>
      </trkpt>
      <trkpt lat="43.23813" lon="6.30929">
        <ele>156.89495849609</ele>
        <time>2020-09-11T13:01:11.562Z</time>
      </trkpt>
      <trkpt lat="43.23769" lon="6.30883">
        <ele>157.27059936523</ele>
        <time>2020-09-11T13:01:17.148Z</time>
      </trkpt>
      <trkpt lat="43.2375" lon="6.30866">
        <ele>157.40061950684</ele>
        <time>2020-09-11T13:01:22.738Z</time>
      </trkpt>
      <trkpt lat="43.23714" lon="6.3081">
        <ele>156.43144226074</ele>
        <time>2020-09-11T13:01:28.337Z</time>
      </trkpt>
      <trkpt lat="43.23705" lon="6.30797">
        <ele>155.89033508301</ele>
        <time>2020-09-11T13:01:33.938Z</time>
      </trkpt>
      <trkpt lat="43.237" lon="6.30781">
        <ele>155.20404052734</ele>
        <time>2020-09-11T13:01:39.541Z</time>
      </trkpt>
      <trkpt lat="43.23696" lon="6.3077">
        <ele>154.70852661133</ele>
        <time>2020-09-11T13:01:45.145Z</time>
      </trkpt>
      <trkpt lat="43.23701" lon="6.3076">
        <ele>154.15301513672</ele>
        <time>2020-09-11T13:01:50.751Z</time>
      </trkpt>
      <trkpt lat="43.23707" lon="6.30748">
        <ele>154.12022399902</ele>
        <time>2020-09-11T13:01:56.358Z</time>
      </trkpt>
      <trkpt lat="43.23705" lon="6.30735">
        <ele>154.17181396484</ele>
        <time>2020-09-11T13:02:01.967Z</time>
      </trkpt>
      <trkpt lat="43.23693" lon="6.30695">
        <ele>155.80435180664</ele>
        <time>2020-09-11T13:02:07.581Z</time>
      </trkpt>
      <trkpt lat="43.23674" lon="6.30625">
        <ele>158.33958435059</ele>
        <time>2020-09-11T13:02:13.204Z</time>
      </trkpt>
      <trkpt lat="43.23674" lon="6.30618">
        <ele>158.65032958984</ele>
        <time>2020-09-11T13:02:18.828Z</time>
      </trkpt>
      <trkpt lat="43.23676" lon="6.30602">
        <ele>159.34262084961</ele>
        <time>2020-09-11T13:02:24.453Z</time>
      </trkpt>
      <trkpt lat="43.23691" lon="6.3053">
        <ele>161.66297912598</ele>
        <time>2020-09-11T13:02:30.087Z</time>
      </trkpt>
      <trkpt lat="43.23711" lon="6.30458">
        <ele>161.08355712891</ele>
        <time>2020-09-11T13:02:35.730Z</time>
      </trkpt>
      <trkpt lat="43.23738" lon="6.30391">
        <ele>159.04594421387</ele>
        <time>2020-09-11T13:02:41.382Z</time>
      </trkpt>
      <trkpt lat="43.23766" lon="6.3032">
        <ele>153.38859558105</ele>
        <time>2020-09-11T13:02:47.044Z</time>
      </trkpt>
      <trkpt lat="43.23794" lon="6.30252">
        <ele>154.24653625488</ele>
        <time>2020-09-11T13:02:52.715Z</time>
      </trkpt>
      <trkpt lat="43.23803" lon="6.3023">
        <ele>153.43667602539</ele>
        <time>2020-09-11T13:02:58.389Z</time>
      </trkpt>
      <trkpt lat="43.23831" lon="6.30166">
        <ele>155.08699035645</ele>
        <time>2020-09-11T13:03:04.071Z</time>
      </trkpt>
      <trkpt lat="43.23861" lon="6.30096">
        <ele>155.16522216797</ele>
        <time>2020-09-11T13:03:09.763Z</time>
      </trkpt>
      <trkpt lat="43.23865" lon="6.30086">
        <ele>155.33438110352</ele>
        <time>2020-09-11T13:03:15.456Z</time>
      </trkpt>
      <trkpt lat="43.23872" lon="6.30065">
        <ele>153.75776672363</ele>
        <time>2020-09-11T13:03:21.152Z</time>
      </trkpt>
      <trkpt lat="43.23879" lon="6.30043">
        <ele>154.39973449707</ele>
        <time>2020-09-11T13:03:26.851Z</time>
      </trkpt>
      <trkpt lat="43.23904" lon="6.29966">
        <ele>152.08538818359</ele>
        <time>2020-09-11T13:03:32.560Z</time>
      </trkpt>
      <trkpt lat="43.23922" lon="6.29885">
        <ele>150.67367553711</ele>
        <time>2020-09-11T13:03:38.278Z</time>
      </trkpt>
      <trkpt lat="43.23929" lon="6.29824">
        <ele>148.38444519043</ele>
        <time>2020-09-11T13:03:44.004Z</time>
      </trkpt>
      <trkpt lat="43.23925" lon="6.29776">
        <ele>147.83766174316</ele>
        <time>2020-09-11T13:03:49.735Z</time>
      </trkpt>
      <trkpt lat="43.23913" lon="6.297">
        <ele>147.05154418945</ele>
        <time>2020-09-11T13:03:55.476Z</time>
      </trkpt>
      <trkpt lat="43.23888" lon="6.2963">
        <ele>145.72129821777</ele>
        <time>2020-09-11T13:04:01.226Z</time>
      </trkpt>
      <trkpt lat="43.23868" lon="6.29583">
        <ele>145.125</ele>
        <time>2020-09-11T13:04:06.982Z</time>
      </trkpt>
      <trkpt lat="43.23844" lon="6.29524">
        <ele>145.36317443848</ele>
        <time>2020-09-11T13:04:12.746Z</time>
      </trkpt>
      <trkpt lat="43.23815" lon="6.29454">
        <ele>145.64190673828</ele>
        <time>2020-09-11T13:04:18.519Z</time>
      </trkpt>
      <trkpt lat="43.23804" lon="6.29408">
        <ele>145.3636932373</ele>
        <time>2020-09-11T13:04:24.298Z</time>
      </trkpt>
      <trkpt lat="43.23803" lon="6.29326">
        <ele>143.75645446777</ele>
        <time>2020-09-11T13:04:30.087Z</time>
      </trkpt>
      <trkpt lat="43.23803" lon="6.29311">
        <ele>143.45263671875</ele>
        <time>2020-09-11T13:04:35.877Z</time>
      </trkpt>
      <trkpt lat="43.23803" lon="6.29295">
        <ele>143.45263671875</ele>
        <time>2020-09-11T13:04:41.669Z</time>
      </trkpt>
      <trkpt lat="43.23804" lon="6.29279">
        <ele>143.47064208984</ele>
        <time>2020-09-11T13:04:47.463Z</time>
      </trkpt>
      <trkpt lat="43.23804" lon="6.29232">
        <ele>143.04258728027</ele>
        <time>2020-09-11T13:04:53.262Z</time>
      </trkpt>
      <trkpt lat="43.23804" lon="6.29156">
        <ele>142.10914611816</ele>
        <time>2020-09-11T13:04:59.070Z</time>
      </trkpt>
      <trkpt lat="43.23802" lon="6.29112">
        <ele>141.46604919434</ele>
        <time>2020-09-11T13:05:04.884Z</time>
      </trkpt>
      <trkpt lat="43.23798" lon="6.29083">
        <ele>141.14668273926</ele>
        <time>2020-09-11T13:05:10.701Z</time>
      </trkpt>
      <trkpt lat="43.23782" lon="6.29">
        <ele>140.96072387695</ele>
        <time>2020-09-11T13:05:16.528Z</time>
      </trkpt>
      <trkpt lat="43.2376" lon="6.2892">
        <ele>142.02491760254</ele>
        <time>2020-09-11T13:05:22.365Z</time>
      </trkpt>
      <trkpt lat="43.2373" lon="6.28858">
        <ele>141.51252746582</ele>
        <time>2020-09-11T13:05:28.211Z</time>
      </trkpt>
      <trkpt lat="43.23692" lon="6.28802">
        <ele>140.19769287109</ele>
        <time>2020-09-11T13:05:34.066Z</time>
      </trkpt>
      <trkpt lat="43.23647" lon="6.28741">
        <ele>139.63497924805</ele>
        <time>2020-09-11T13:05:39.931Z</time>
      </trkpt>
      <trkpt lat="43.23608" lon="6.28678">
        <ele>137.72459411621</ele>
        <time>2020-09-11T13:05:45.806Z</time>
      </trkpt>
      <trkpt lat="43.23596" lon="6.28673">
        <ele>136.99855041504</ele>
        <time>2020-09-11T13:05:51.683Z</time>
      </trkpt>
      <trkpt lat="43.23547" lon="6.28707">
        <ele>137.65065002441</ele>
        <time>2020-09-11T13:05:57.568Z</time>
      </trkpt>
      <trkpt lat="43.23516" lon="6.2873">
        <ele>139.8491973877</ele>
        <time>2020-09-11T13:06:03.459Z</time>
      </trkpt>
      <trkpt lat="43.23505" lon="6.28734">
        <ele>140.78588867188</ele>
        <time>2020-09-11T13:06:09.352Z</time>
      </trkpt>
      <trkpt lat="43.23494" lon="6.28735">
        <ele>141.61975097656</ele>
        <time>2020-09-11T13:06:15.246Z</time>
      </trkpt>
      <trkpt lat="43.23479" lon="6.28729">
        <ele>142.3973236084</ele>
        <time>2020-09-11T13:06:21.143Z</time>
      </trkpt>
      <trkpt lat="43.23465" lon="6.28718">
        <ele>142.79566955566</ele>
        <time>2020-09-11T13:06:27.043Z</time>
      </trkpt>
      <trkpt lat="43.23447" lon="6.28694">
        <ele>142.97323608398</ele>
        <time>2020-09-11T13:06:32.947Z</time>
      </trkpt>
      <trkpt lat="43.23434" lon="6.28672">
        <ele>142.83166503906</ele>
        <time>2020-09-11T13:06:38.854Z</time>
      </trkpt>
      <trkpt lat="43.23414" lon="6.28647">
        <ele>143.25550842285</ele>
        <time>2020-09-11T13:06:44.765Z</time>
      </trkpt>
      <trkpt lat="43.23374" lon="6.28598">
        <ele>146.01725769043</ele>
        <time>2020-09-11T13:06:50.685Z</time>
      </trkpt>
      <trkpt lat="43.2334" lon="6.28539">
        <ele>146.61433410645</ele>
        <time>2020-09-11T13:06:56.614Z</time>
      </trkpt>
      <trkpt lat="43.2331" lon="6.28489">
        <ele>144.00357055664</ele>
        <time>2020-09-11T13:07:02.550Z</time>
      </trkpt>
      <trkpt lat="43.23299" lon="6.28485">
        <ele>143.88598632812</ele>
        <time>2020-09-11T13:07:08.488Z</time>
      </trkpt>
      <trkpt lat="43.23288" lon="6.28489">
        <ele>144.26513671875</ele>
        <time>2020-09-11T13:07:14.428Z</time>
      </trkpt>
      <trkpt lat="43.23239" lon="6.28523">
        <ele>148.35047912598</ele>
        <time>2020-09-11T13:07:20.377Z</time>
      </trkpt>
      <trkpt lat="43.23193" lon="6.28575">
        <ele>144.99592590332</ele>
        <time>2020-09-11T13:07:26.335Z</time>
      </trkpt>
      <trkpt lat="43.23159" lon="6.28641">
        <ele>151.91400146484</ele>
        <time>2020-09-11T13:07:32.303Z</time>
      </trkpt>
      <trkpt lat="43.23125" lon="6.28699">
        <ele>155.7085723877</ele>
        <time>2020-09-11T13:07:38.279Z</time>
      </trkpt>
      <trkpt lat="43.23101" lon="6.28735">
        <ele>153.26666259766</ele>
        <time>2020-09-11T13:07:44.261Z</time>
      </trkpt>
      <trkpt lat="43.23091" lon="6.28747">
        <ele>154.06846618652</ele>
        <time>2020-09-11T13:07:50.245Z</time>
      </trkpt>
      <trkpt lat="43.2304" lon="6.28781">
        <ele>155.36680603027</ele>
        <time>2020-09-11T13:07:56.238Z</time>
      </trkpt>
      <trkpt lat="43.2302" lon="6.28786">
        <ele>152.14653015137</ele>
        <time>2020-09-11T13:08:02.234Z</time>
      </trkpt>
      <trkpt lat="43.23008" lon="6.28786">
        <ele>151.61392211914</ele>
        <time>2020-09-11T13:08:08.232Z</time>
      </trkpt>
      <trkpt lat="43.22998" lon="6.28776">
        <ele>153.19766235352</ele>
        <time>2020-09-11T13:08:14.232Z</time>
      </trkpt>
      <trkpt lat="43.22981" lon="6.2875">
        <ele>155.29971313477</ele>
        <time>2020-09-11T13:08:20.236Z</time>
      </trkpt>
      <trkpt lat="43.22972" lon="6.28743">
        <ele>156.90144348145</ele>
        <time>2020-09-11T13:08:26.242Z</time>
      </trkpt>
      <trkpt lat="43.22962" lon="6.28745">
        <ele>158.97229003906</ele>
        <time>2020-09-11T13:08:32.250Z</time>
      </trkpt>
      <trkpt lat="43.22954" lon="6.28751">
        <ele>160.93637084961</ele>
        <time>2020-09-11T13:08:38.259Z</time>
      </trkpt>
      <trkpt lat="43.22947" lon="6.2876">
        <ele>160.17532348633</ele>
        <time>2020-09-11T13:08:44.270Z</time>
      </trkpt>
      <trkpt lat="43.22929" lon="6.28783">
        <ele>156.15240478516</ele>
        <time>2020-09-11T13:08:50.284Z</time>
      </trkpt>
      <trkpt lat="43.22881" lon="6.28804">
        <ele>161.93695068359</ele>
        <time>2020-09-11T13:08:56.307Z</time>
      </trkpt>
      <trkpt lat="43.22877" lon="6.28807">
        <ele>162.51885986328</ele>
        <time>2020-09-11T13:09:02.330Z</time>
      </trkpt>
      <trkpt lat="43.22875" lon="6.2881">
        <ele>162.93759155273</ele>
        <time>2020-09-11T13:09:08.354Z</time>
      </trkpt>
      <trkpt lat="43.22861" lon="6.28826">
        <ele>165.91200256348</ele>
        <time>2020-09-11T13:09:14.381Z</time>
      </trkpt>
      <trkpt lat="43.22855" lon="6.28838">
        <ele>166.45379638672</ele>
        <time>2020-09-11T13:09:20.409Z</time>
      </trkpt>
      <trkpt lat="43.22847" lon="6.28857">
        <ele>166.71295166016</ele>
        <time>2020-09-11T13:09:26.440Z</time>
      </trkpt>
      <trkpt lat="43.22838" lon="6.28885">
        <ele>169.01553344727</ele>
        <time>2020-09-11T13:09:32.475Z</time>
      </trkpt>
      <trkpt lat="43.22816" lon="6.2895">
        <ele>175.71273803711</ele>
        <time>2020-09-11T13:09:38.518Z</time>
      </trkpt>
      <trkpt lat="43.22811" lon="6.28968">
        <ele>176.68826293945</ele>
        <time>2020-09-11T13:09:44.563Z</time>
      </trkpt>
      <trkpt lat="43.22806" lon="6.28992">
        <ele>177.67448425293</ele>
        <time>2020-09-11T13:09:50.611Z</time>
      </trkpt>
      <trkpt lat="43.22803" lon="6.29026">
        <ele>177.6697845459</ele>
        <time>2020-09-11T13:09:56.663Z</time>
      </trkpt>
      <trkpt lat="43.22786" lon="6.29099">
        <ele>177.66262817383</ele>
        <time>2020-09-11T13:10:02.724Z</time>
      </trkpt>
      <trkpt lat="43.22775" lon="6.29124">
        <ele>174.92468261719</ele>
        <time>2020-09-11T13:10:08.788Z</time>
      </trkpt>
      <trkpt lat="43.22757" lon="6.29149">
        <ele>174.33436584473</ele>
        <time>2020-09-11T13:10:14.857Z</time>
      </trkpt>
      <trkpt lat="43.22716" lon="6.29201">
        <ele>177.8136138916</ele>
        <time>2020-09-11T13:10:20.935Z</time>
      </trkpt>
      <trkpt lat="43.22694" lon="6.29216">
        <ele>178.37031555176</ele>
        <time>2020-09-11T13:10:27.016Z</time>
      </trkpt>
      <trkpt lat="43.22639" lon="6.29225">
        <ele>186.65658569336</ele>
        <time>2020-09-11T13:10:33.106Z</time>
      </trkpt>
      <trkpt lat="43.22603" lon="6.29281">
        <ele>188.72732543945</ele>
        <time>2020-09-11T13:10:39.205Z</time>
      </trkpt>
      <trkpt lat="43.22587" lon="6.29288">
        <ele>191.78813171387</ele>
        <time>2020-09-11T13:10:45.307Z</time>
      </trkpt>
      <trkpt lat="43.22585" lon="6.2929">
        <ele>192.28964233398</ele>
        <time>2020-09-11T13:10:51.409Z</time>
      </trkpt>
      <trkpt lat="43.22582" lon="6.29291">
        <ele>192.81275939941</ele>
        <time>2020-09-11T13:10:57.512Z</time>
      </trkpt>
      <trkpt lat="43.2258" lon="6.29293">
        <ele>193.23509216309</ele>
        <time>2020-09-11T13:11:03.615Z</time>
      </trkpt>
      <trkpt lat="43.22577" lon="6.29296">
        <ele>193.66360473633</ele>
        <time>2020-09-11T13:11:09.719Z</time>
      </trkpt>
      <trkpt lat="43.22573" lon="6.29302">
        <ele>194.47587585449</ele>
        <time>2020-09-11T13:11:15.824Z</time>
      </trkpt>
      <trkpt lat="43.22565" lon="6.29334">
        <ele>197.84672546387</ele>
        <time>2020-09-11T13:11:21.933Z</time>
      </trkpt>
      <trkpt lat="43.2257" lon="6.29344">
        <ele>197.71354675293</ele>
        <time>2020-09-11T13:11:28.043Z</time>
      </trkpt>
      <trkpt lat="43.22572" lon="6.29347">
        <ele>197.55517578125</ele>
        <time>2020-09-11T13:11:34.153Z</time>
      </trkpt>
      <trkpt lat="43.22574" lon="6.29351">
        <ele>197.45439147949</ele>
        <time>2020-09-11T13:11:40.264Z</time>
      </trkpt>
      <trkpt lat="43.22576" lon="6.29354">
        <ele>197.3824005127</ele>
        <time>2020-09-11T13:11:46.375Z</time>
      </trkpt>
      <trkpt lat="43.22584" lon="6.29372">
        <ele>197.27082824707</ele>
        <time>2020-09-11T13:11:52.489Z</time>
      </trkpt>
      <trkpt lat="43.22598" lon="6.29426">
        <ele>195.73030090332</ele>
        <time>2020-09-11T13:11:58.610Z</time>
      </trkpt>
      <trkpt lat="43.22583" lon="6.29475">
        <ele>199.32789611816</ele>
        <time>2020-09-11T13:12:04.737Z</time>
      </trkpt>
      <trkpt lat="43.22571" lon="6.29504">
        <ele>201.06163024902</ele>
        <time>2020-09-11T13:12:10.868Z</time>
      </trkpt>
      <trkpt lat="43.22564" lon="6.29546">
        <ele>200.52380371094</ele>
        <time>2020-09-11T13:12:17.004Z</time>
      </trkpt>
      <trkpt lat="43.2254" lon="6.29566">
        <ele>206.40130615234</ele>
        <time>2020-09-11T13:12:23.144Z</time>
      </trkpt>
      <trkpt lat="43.22545" lon="6.29643">
        <ele>206.42216491699</ele>
        <time>2020-09-11T13:12:29.293Z</time>
      </trkpt>
      <trkpt lat="43.22526" lon="6.29708">
        <ele>201.95732116699</ele>
        <time>2020-09-11T13:12:35.450Z</time>
      </trkpt>
      <trkpt lat="43.22503" lon="6.2971">
        <ele>202.64350891113</ele>
        <time>2020-09-11T13:12:41.611Z</time>
      </trkpt>
      <trkpt lat="43.22494" lon="6.29711">
        <ele>202.86666870117</ele>
        <time>2020-09-11T13:12:47.774Z</time>
      </trkpt>
      <trkpt lat="43.22438" lon="6.29701">
        <ele>204.82838439941</ele>
        <time>2020-09-11T13:12:53.946Z</time>
      </trkpt>
      <trkpt lat="43.22406" lon="6.29674">
        <ele>207.52717590332</ele>
        <time>2020-09-11T13:13:00.124Z</time>
      </trkpt>
      <trkpt lat="43.22393" lon="6.2966">
        <ele>208.54580688477</ele>
        <time>2020-09-11T13:13:06.304Z</time>
      </trkpt>
      <trkpt lat="43.22385" lon="6.29653">
        <ele>208.95973205566</ele>
        <time>2020-09-11T13:13:12.486Z</time>
      </trkpt>
      <trkpt lat="43.22382" lon="6.2965">
        <ele>209.12170410156</ele>
        <time>2020-09-11T13:13:18.668Z</time>
      </trkpt>
      <trkpt lat="43.2237" lon="6.29636">
        <ele>210.41268920898</ele>
        <time>2020-09-11T13:13:24.853Z</time>
      </trkpt>
      <trkpt lat="43.22351" lon="6.29607">
        <ele>213.80572509766</ele>
        <time>2020-09-11T13:13:31.042Z</time>
      </trkpt>
      <trkpt lat="43.22336" lon="6.29588">
        <ele>217.20095825195</ele>
        <time>2020-09-11T13:13:37.235Z</time>
      </trkpt>
      <trkpt lat="43.22326" lon="6.29573">
        <ele>220.6863861084</ele>
        <time>2020-09-11T13:13:43.430Z</time>
      </trkpt>
      <trkpt lat="43.2228" lon="6.29536">
        <ele>228.53639221191</ele>
        <time>2020-09-11T13:13:49.634Z</time>
      </trkpt>
      <trkpt lat="43.22271" lon="6.29532">
        <ele>229.53343200684</ele>
        <time>2020-09-11T13:13:55.839Z</time>
      </trkpt>
      <trkpt lat="43.22244" lon="6.29523">
        <ele>234.87040710449</ele>
        <time>2020-09-11T13:14:02.049Z</time>
      </trkpt>
      <trkpt lat="43.22228" lon="6.29531">
        <ele>236.7740020752</ele>
        <time>2020-09-11T13:14:08.261Z</time>
      </trkpt>
      <trkpt lat="43.2222" lon="6.2958">
        <ele>228.92224121094</ele>
        <time>2020-09-11T13:14:14.479Z</time>
      </trkpt>
      <trkpt lat="43.22206" lon="6.2961">
        <ele>224.89012145996</ele>
        <time>2020-09-11T13:14:20.701Z</time>
      </trkpt>
      <trkpt lat="43.22179" lon="6.29619">
        <ele>224.61657714844</ele>
        <time>2020-09-11T13:14:26.928Z</time>
      </trkpt>
      <trkpt lat="43.22154" lon="6.29613">
        <ele>227.19329833984</ele>
        <time>2020-09-11T13:14:33.159Z</time>
      </trkpt>
      <trkpt lat="43.22147" lon="6.29611">
        <ele>228.16754150391</ele>
        <time>2020-09-11T13:14:39.391Z</time>
      </trkpt>
      <trkpt lat="43.221" lon="6.2957">
        <ele>240.13302612305</ele>
        <time>2020-09-11T13:14:45.632Z</time>
      </trkpt>
      <trkpt lat="43.2207" lon="6.29597">
        <ele>235.55493164062</ele>
        <time>2020-09-11T13:14:51.879Z</time>
      </trkpt>
      <trkpt lat="43.22052" lon="6.29609">
        <ele>233.87129211426</ele>
        <time>2020-09-11T13:14:58.129Z</time>
      </trkpt>
      <trkpt lat="43.22012" lon="6.29593">
        <ele>240.71325683594</ele>
        <time>2020-09-11T13:15:04.386Z</time>
      </trkpt>
      <trkpt lat="43.21962" lon="6.29565">
        <ele>244.57301330566</ele>
        <time>2020-09-11T13:15:10.651Z</time>
      </trkpt>
      <trkpt lat="43.21948" lon="6.29558">
        <ele>245.2647857666</ele>
        <time>2020-09-11T13:15:16.918Z</time>
      </trkpt>
      <trkpt lat="43.21925" lon="6.29497">
        <ele>253.72984313965</ele>
        <time>2020-09-11T13:15:23.193Z</time>
      </trkpt>
      <trkpt lat="43.219" lon="6.29506">
        <ele>254.04537963867</ele>
        <time>2020-09-11T13:15:29.473Z</time>
      </trkpt>
      <trkpt lat="43.21887" lon="6.29517">
        <ele>253.22471618652</ele>
        <time>2020-09-11T13:15:35.755Z</time>
      </trkpt>
      <trkpt lat="43.21833" lon="6.29514">
        <ele>260.33535766602</ele>
        <time>2020-09-11T13:15:42.046Z</time>
      </trkpt>
      <trkpt lat="43.21807" lon="6.29525">
        <ele>264.93060302734</ele>
        <time>2020-09-11T13:15:48.341Z</time>
      </trkpt>
      <trkpt lat="43.21796" lon="6.29542">
        <ele>264.97021484375</ele>
        <time>2020-09-11T13:15:54.639Z</time>
      </trkpt>
      <trkpt lat="43.2179" lon="6.29564">
        <ele>263.75061035156</ele>
        <time>2020-09-11T13:16:00.939Z</time>
      </trkpt>
      <trkpt lat="43.2176" lon="6.2957">
        <ele>269.87658691406</ele>
        <time>2020-09-11T13:16:07.244Z</time>
      </trkpt>
      <trkpt lat="43.21737" lon="6.29559">
        <ele>273.05603027344</ele>
        <time>2020-09-11T13:16:13.553Z</time>
      </trkpt>
      <trkpt lat="43.21716" lon="6.29567">
        <ele>275.38607788086</ele>
        <time>2020-09-11T13:16:19.866Z</time>
      </trkpt>
      <trkpt lat="43.21713" lon="6.29578">
        <ele>276.86901855469</ele>
        <time>2020-09-11T13:16:26.180Z</time>
      </trkpt>
      <trkpt lat="43.21722" lon="6.29607">
        <ele>278.49212646484</ele>
        <time>2020-09-11T13:16:32.498Z</time>
      </trkpt>
      <trkpt lat="43.21725" lon="6.29615">
        <ele>279.14001464844</ele>
        <time>2020-09-11T13:16:38.817Z</time>
      </trkpt>
      <trkpt lat="43.21732" lon="6.29625">
        <ele>279.65472412109</ele>
        <time>2020-09-11T13:16:45.137Z</time>
      </trkpt>
      <trkpt lat="43.2176" lon="6.29655">
        <ele>279.2197265625</ele>
        <time>2020-09-11T13:16:51.463Z</time>
      </trkpt>
      <trkpt lat="43.2178" lon="6.29685">
        <ele>280.11514282227</ele>
        <time>2020-09-11T13:16:57.794Z</time>
      </trkpt>
      <trkpt lat="43.21808" lon="6.29748">
        <ele>284.84356689453</ele>
        <time>2020-09-11T13:17:04.133Z</time>
      </trkpt>
      <trkpt lat="43.21852" lon="6.29792">
        <ele>279.62466430664</ele>
        <time>2020-09-11T13:17:10.481Z</time>
      </trkpt>
      <trkpt lat="43.21847" lon="6.29829">
        <ele>284.80291748047</ele>
        <time>2020-09-11T13:17:16.833Z</time>
      </trkpt>
      <trkpt lat="43.21843" lon="6.29839">
        <ele>286.69229125977</ele>
        <time>2020-09-11T13:17:23.187Z</time>
      </trkpt>
      <trkpt lat="43.21839" lon="6.29869">
        <ele>288.93469238281</ele>
        <time>2020-09-11T13:17:29.544Z</time>
      </trkpt>
      <trkpt lat="43.2184" lon="6.29878">
        <ele>288.7727355957</ele>
        <time>2020-09-11T13:17:35.903Z</time>
      </trkpt>
      <trkpt lat="43.21843" lon="6.29896">
        <ele>288.60693359375</ele>
        <time>2020-09-11T13:17:42.264Z</time>
      </trkpt>
      <trkpt lat="43.21835" lon="6.29972">
        <ele>285.62423706055</ele>
        <time>2020-09-11T13:17:48.634Z</time>
      </trkpt>
      <trkpt lat="43.21832" lon="6.29985">
        <ele>282.62692260742</ele>
        <time>2020-09-11T13:17:55.005Z</time>
      </trkpt>
      <trkpt lat="43.21828" lon="6.29996">
        <ele>279.99456787109</ele>
        <time>2020-09-11T13:18:01.378Z</time>
      </trkpt>
      <trkpt lat="43.21824" lon="6.30007">
        <ele>277.62493896484</ele>
        <time>2020-09-11T13:18:07.752Z</time>
      </trkpt>
      <trkpt lat="43.21808" lon="6.30017">
        <ele>275.79644775391</ele>
        <time>2020-09-11T13:18:14.129Z</time>
      </trkpt>
      <trkpt lat="43.21797" lon="6.30018">
        <ele>275.97937011719</ele>
        <time>2020-09-11T13:18:20.508Z</time>
      </trkpt>
      <trkpt lat="43.21788" lon="6.30016">
        <ele>276.10894775391</ele>
        <time>2020-09-11T13:18:26.888Z</time>
      </trkpt>
      <trkpt lat="43.21785" lon="6.30015">
        <ele>276.30090332031</ele>
        <time>2020-09-11T13:18:33.269Z</time>
      </trkpt>
      <trkpt lat="43.21782" lon="6.30014">
        <ele>276.48086547852</ele>
        <time>2020-09-11T13:18:39.650Z</time>
      </trkpt>
      <trkpt lat="43.21747" lon="6.30002">
        <ele>278.95007324219</ele>
        <time>2020-09-11T13:18:46.037Z</time>
      </trkpt>
      <trkpt lat="43.21728" lon="6.29996">
        <ele>280.07907104492</ele>
        <time>2020-09-11T13:18:52.427Z</time>
      </trkpt>
      <trkpt lat="43.21704" lon="6.29989">
        <ele>281.34124755859</ele>
        <time>2020-09-11T13:18:58.821Z</time>
      </trkpt>
      <trkpt lat="43.21654" lon="6.29964">
        <ele>279.09320068359</ele>
        <time>2020-09-11T13:19:05.224Z</time>
      </trkpt>
      <trkpt lat="43.21633" lon="6.29895">
        <ele>287.91302490234</ele>
        <time>2020-09-11T13:19:11.635Z</time>
      </trkpt>
      <trkpt lat="43.21611" lon="6.29823">
        <ele>294.93731689453</ele>
        <time>2020-09-11T13:19:18.055Z</time>
      </trkpt>
      <trkpt lat="43.21572" lon="6.29777">
        <ele>302.95602416992</ele>
        <time>2020-09-11T13:19:24.484Z</time>
      </trkpt>
      <trkpt lat="43.21549" lon="6.29772">
        <ele>305.65814208984</ele>
        <time>2020-09-11T13:19:30.916Z</time>
      </trkpt>
      <trkpt lat="43.21495" lon="6.29769">
        <ele>305.8684387207</ele>
        <time>2020-09-11T13:19:37.357Z</time>
      </trkpt>
      <trkpt lat="43.21478" lon="6.29772">
        <ele>305.39810180664</ele>
        <time>2020-09-11T13:19:43.801Z</time>
      </trkpt>
      <trkpt lat="43.21456" lon="6.29783">
        <ele>304.16842651367</ele>
        <time>2020-09-11T13:19:50.249Z</time>
      </trkpt>
      <trkpt lat="43.21401" lon="6.29778">
        <ele>305.54141235352</ele>
        <time>2020-09-11T13:19:56.705Z</time>
      </trkpt>
      <trkpt lat="43.21353" lon="6.29763">
        <ele>306.51132202148</ele>
        <time>2020-09-11T13:20:03.169Z</time>
      </trkpt>
      <trkpt lat="43.21348" lon="6.29701">
        <ele>317.83840942383</ele>
        <time>2020-09-11T13:20:09.640Z</time>
      </trkpt>
      <trkpt lat="43.21331" lon="6.29631">
        <ele>324.09848022461</ele>
        <time>2020-09-11T13:20:16.120Z</time>
      </trkpt>
      <trkpt lat="43.21311" lon="6.29569">
        <ele>324.61560058594</ele>
        <time>2020-09-11T13:20:22.608Z</time>
      </trkpt>
      <trkpt lat="43.21309" lon="6.29496">
        <ele>328.14172363281</ele>
        <time>2020-09-11T13:20:29.105Z</time>
      </trkpt>
      <trkpt lat="43.21334" lon="6.29434">
        <ele>333.58862304688</ele>
        <time>2020-09-11T13:20:35.610Z</time>
      </trkpt>
      <trkpt lat="43.21321" lon="6.29378">
        <ele>337.36489868164</ele>
        <time>2020-09-11T13:20:42.122Z</time>
      </trkpt>
      <trkpt lat="43.21298" lon="6.29382">
        <ele>336.74459838867</ele>
        <time>2020-09-11T13:20:48.638Z</time>
      </trkpt>
      <trkpt lat="43.21253" lon="6.29386">
        <ele>335.93118286133</ele>
        <time>2020-09-11T13:20:55.161Z</time>
      </trkpt>
      <trkpt lat="43.21235" lon="6.29392">
        <ele>334.47988891602</ele>
        <time>2020-09-11T13:21:01.687Z</time>
      </trkpt>
      <trkpt lat="43.21202" lon="6.29396">
        <ele>333.38806152344</ele>
        <time>2020-09-11T13:21:08.218Z</time>
      </trkpt>
      <trkpt lat="43.21175" lon="6.29373">
        <ele>337.40393066406</ele>
        <time>2020-09-11T13:21:14.754Z</time>
      </trkpt>
      <trkpt lat="43.21136" lon="6.29338">
        <ele>346.10848999023</ele>
        <time>2020-09-11T13:21:21.298Z</time>
      </trkpt>
      <trkpt lat="43.21091" lon="6.29373">
        <ele>343.1240234375</ele>
        <time>2020-09-11T13:21:27.850Z</time>
      </trkpt>
      <trkpt lat="43.21048" lon="6.29419">
        <ele>344.31768798828</ele>
        <time>2020-09-11T13:21:34.411Z</time>
      </trkpt>
      <trkpt lat="43.21009" lon="6.29421">
        <ele>347.97967529297</ele>
        <time>2020-09-11T13:21:40.978Z</time>
      </trkpt>
      <trkpt lat="43.20994" lon="6.29423">
        <ele>347.67370605469</ele>
        <time>2020-09-11T13:21:47.547Z</time>
      </trkpt>
      <trkpt lat="43.2098" lon="6.29417">
        <ele>348.91790771484</ele>
        <time>2020-09-11T13:21:54.119Z</time>
      </trkpt>
      <trkpt lat="43.20928" lon="6.29395">
        <ele>353.23822021484</ele>
        <time>2020-09-11T13:22:00.699Z</time>
      </trkpt>
      <trkpt lat="43.20917" lon="6.29397">
        <ele>353.84143066406</ele>
        <time>2020-09-11T13:22:07.281Z</time>
      </trkpt>
      <trkpt lat="43.20899" lon="6.2941">
        <ele>352.47604370117</ele>
        <time>2020-09-11T13:22:13.866Z</time>
      </trkpt>
      <trkpt lat="43.20849" lon="6.29418">
        <ele>355.71862792969</ele>
        <time>2020-09-11T13:22:20.459Z</time>
      </trkpt>
      <trkpt lat="43.20844" lon="6.29418">
        <ele>356.34808349609</ele>
        <time>2020-09-11T13:22:27.053Z</time>
      </trkpt>
      <trkpt lat="43.20799" lon="6.29442">
        <ele>360.89300537109</ele>
        <time>2020-09-11T13:22:33.655Z</time>
      </trkpt>
      <trkpt lat="43.20801" lon="6.29471">
        <ele>359.01651000977</ele>
        <time>2020-09-11T13:22:40.260Z</time>
      </trkpt>
      <trkpt lat="43.20802" lon="6.29508">
        <ele>355.37954711914</ele>
        <time>2020-09-11T13:22:46.870Z</time>
      </trkpt>
      <trkpt lat="43.20765" lon="6.29535">
        <ele>358.126953125</ele>
        <time>2020-09-11T13:22:53.486Z</time>
      </trkpt>
      <trkpt lat="43.20761" lon="6.29536">
        <ele>358.69393920898</ele>
        <time>2020-09-11T13:23:00.103Z</time>
      </trkpt>
      <trkpt lat="43.20754" lon="6.29535">
        <ele>359.35864257812</ele>
        <time>2020-09-11T13:23:06.721Z</time>
      </trkpt>
      <trkpt lat="43.2072" lon="6.29519">
        <ele>364.44097900391</ele>
        <time>2020-09-11T13:23:13.345Z</time>
      </trkpt>
      <trkpt lat="43.20717" lon="6.29516">
        <ele>365.12487792969</ele>
        <time>2020-09-11T13:23:19.969Z</time>
      </trkpt>
      <trkpt lat="43.20714" lon="6.29514">
        <ele>365.78234863281</ele>
        <time>2020-09-11T13:23:26.594Z</time>
      </trkpt>
      <trkpt lat="43.20703" lon="6.29505">
        <ele>367.99322509766</ele>
        <time>2020-09-11T13:23:33.221Z</time>
      </trkpt>
      <trkpt lat="43.20667" lon="6.29482">
        <ele>375.45449829102</ele>
        <time>2020-09-11T13:23:39.854Z</time>
      </trkpt>
      <trkpt lat="43.20659" lon="6.29478">
        <ele>376.68542480469</ele>
        <time>2020-09-11T13:23:46.489Z</time>
      </trkpt>
      <trkpt lat="43.20625" lon="6.29514">
        <ele>377.24551391602</ele>
        <time>2020-09-11T13:23:53.131Z</time>
      </trkpt>
      <trkpt lat="43.20613" lon="6.2954">
        <ele>379.94747924805</ele>
        <time>2020-09-11T13:23:59.776Z</time>
      </trkpt>
      <trkpt lat="43.20609" lon="6.29543">
        <ele>380.72494506836</ele>
        <time>2020-09-11T13:24:06.422Z</time>
      </trkpt>
      <trkpt lat="43.20586" lon="6.2957">
        <ele>387.51214599609</ele>
        <time>2020-09-11T13:24:13.073Z</time>
      </trkpt>
      <trkpt lat="43.20584" lon="6.29581">
        <ele>389.47381591797</ele>
        <time>2020-09-11T13:24:19.725Z</time>
      </trkpt>
      <trkpt lat="43.2059" lon="6.29597">
        <ele>389.72576904297</ele>
        <time>2020-09-11T13:24:26.379Z</time>
      </trkpt>
      <trkpt lat="43.20604" lon="6.29626">
        <ele>389.27267456055</ele>
        <time>2020-09-11T13:24:33.037Z</time>
      </trkpt>
      <trkpt lat="43.20612" lon="6.29652">
        <ele>390.93637084961</ele>
        <time>2020-09-11T13:24:39.699Z</time>
      </trkpt>
      <trkpt lat="43.20642" lon="6.29678">
        <ele>389.90692138672</ele>
        <time>2020-09-11T13:24:46.366Z</time>
      </trkpt>
      <trkpt lat="43.20679" lon="6.29734">
        <ele>394.31695556641</ele>
        <time>2020-09-11T13:24:53.042Z</time>
      </trkpt>
      <trkpt lat="43.20717" lon="6.29762">
        <ele>384.92684936523</ele>
        <time>2020-09-11T13:24:59.725Z</time>
      </trkpt>
      <trkpt lat="43.20729" lon="6.29775">
        <ele>382.23089599609</ele>
        <time>2020-09-11T13:25:06.411Z</time>
      </trkpt>
      <trkpt lat="43.20734" lon="6.29809">
        <ele>384.90454101562</ele>
        <time>2020-09-11T13:25:13.100Z</time>
      </trkpt>
      <trkpt lat="43.20717" lon="6.2988">
        <ele>382.91787719727</ele>
        <time>2020-09-11T13:25:19.798Z</time>
      </trkpt>
      <trkpt lat="43.2068" lon="6.29919">
        <ele>384.26586914062</ele>
        <time>2020-09-11T13:25:26.504Z</time>
      </trkpt>
      <trkpt lat="43.20627" lon="6.29935">
        <ele>382.97549438477</ele>
        <time>2020-09-11T13:25:33.218Z</time>
      </trkpt>
      <trkpt lat="43.20579" lon="6.29902">
        <ele>397.73980712891</ele>
        <time>2020-09-11T13:25:39.941Z</time>
      </trkpt>
      <trkpt lat="43.20549" lon="6.29916">
        <ele>398.4176940918</ele>
        <time>2020-09-11T13:25:46.669Z</time>
      </trkpt>
      <trkpt lat="43.20534" lon="6.29931">
        <ele>398.34045410156</ele>
        <time>2020-09-11T13:25:53.400Z</time>
      </trkpt>
      <trkpt lat="43.20512" lon="6.29935">
        <ele>404.68621826172</ele>
        <time>2020-09-11T13:26:00.135Z</time>
      </trkpt>
      <trkpt lat="43.20491" lon="6.29941">
        <ele>410.87118530273</ele>
        <time>2020-09-11T13:26:06.873Z</time>
      </trkpt>
      <trkpt lat="43.20479" lon="6.29956">
        <ele>414.04190063477</ele>
        <time>2020-09-11T13:26:13.614Z</time>
      </trkpt>
      <trkpt lat="43.20476" lon="6.2997">
        <ele>415.15771484375</ele>
        <time>2020-09-11T13:26:20.356Z</time>
      </trkpt>
      <trkpt lat="43.20477" lon="6.29983">
        <ele>415.24389648438</ele>
        <time>2020-09-11T13:26:27.100Z</time>
      </trkpt>
      <trkpt lat="43.205" lon="6.30052">
        <ele>411.81246948242</ele>
        <time>2020-09-11T13:26:33.853Z</time>
      </trkpt>
      <trkpt lat="43.20507" lon="6.30065">
        <ele>410.17178344727</ele>
        <time>2020-09-11T13:26:40.608Z</time>
      </trkpt>
      <trkpt lat="43.20506" lon="6.30093">
        <ele>412.71176147461</ele>
        <time>2020-09-11T13:26:47.366Z</time>
      </trkpt>
      <trkpt lat="43.20514" lon="6.30149">
        <ele>413.42501831055</ele>
        <time>2020-09-11T13:26:54.131Z</time>
      </trkpt>
      <trkpt lat="43.20532" lon="6.30179">
        <ele>407.07330322266</ele>
        <time>2020-09-11T13:27:00.900Z</time>
      </trkpt>
      <trkpt lat="43.20533" lon="6.30184">
        <ele>406.79373168945</ele>
        <time>2020-09-11T13:27:07.670Z</time>
      </trkpt>
      <trkpt lat="43.20533" lon="6.3019">
        <ele>406.65936279297</ele>
        <time>2020-09-11T13:27:14.441Z</time>
      </trkpt>
      <trkpt lat="43.20533" lon="6.30195">
        <ele>406.61737060547</ele>
        <time>2020-09-11T13:27:21.212Z</time>
      </trkpt>
      <trkpt lat="43.20528" lon="6.30216">
        <ele>407.46563720703</ele>
        <time>2020-09-11T13:27:27.986Z</time>
      </trkpt>
      <trkpt lat="43.20512" lon="6.30253">
        <ele>409.73916625977</ele>
        <time>2020-09-11T13:27:34.765Z</time>
      </trkpt>
      <trkpt lat="43.20489" lon="6.30288">
        <ele>412.96765136719</ele>
        <time>2020-09-11T13:27:41.549Z</time>
      </trkpt>
      <trkpt lat="43.20484" lon="6.30297">
        <ele>412.69396972656</ele>
        <time>2020-09-11T13:27:48.335Z</time>
      </trkpt>
      <trkpt lat="43.20451" lon="6.30357">
        <ele>415.98587036133</ele>
        <time>2020-09-11T13:27:55.129Z</time>
      </trkpt>
      <trkpt lat="43.20442" lon="6.30376">
        <ele>413.99060058594</ele>
        <time>2020-09-11T13:28:01.926Z</time>
      </trkpt>
      <trkpt lat="43.20436" lon="6.3039">
        <ele>412.52325439453</ele>
        <time>2020-09-11T13:28:08.725Z</time>
      </trkpt>
      <trkpt lat="43.2043" lon="6.30403">
        <ele>412.59567260742</ele>
        <time>2020-09-11T13:28:15.526Z</time>
      </trkpt>
      <trkpt lat="43.20427" lon="6.30405">
        <ele>412.38793945312</ele>
        <time>2020-09-11T13:28:22.327Z</time>
      </trkpt>
      <trkpt lat="43.20427" lon="6.30405">
        <ele>412.43835449219</ele>
        <time>2020-09-11T13:28:29.128Z</time>
      </trkpt>
      <trkpt lat="43.2043" lon="6.30404">
        <ele>412.63647460938</ele>
        <time>2020-09-11T13:28:35.930Z</time>
      </trkpt>
      <trkpt lat="43.20429" lon="6.30395">
        <ele>412.20651245117</ele>
        <time>2020-09-11T13:28:42.733Z</time>
      </trkpt>
      <trkpt lat="43.20429" lon="6.30394">
        <ele>412.31088256836</ele>
        <time>2020-09-11T13:28:49.536Z</time>
      </trkpt>
      <trkpt lat="43.2043" lon="6.30393">
        <ele>412.43206787109</ele>
        <time>2020-09-11T13:28:56.339Z</time>
      </trkpt>
      <trkpt lat="43.20427" lon="6.30394">
        <ele>411.99478149414</ele>
        <time>2020-09-11T13:29:03.142Z</time>
      </trkpt>
      <trkpt lat="43.20424" lon="6.30404">
        <ele>411.42092895508</ele>
        <time>2020-09-11T13:29:09.947Z</time>
      </trkpt>
      <trkpt lat="43.20424" lon="6.30405">
        <ele>411.35852050781</ele>
        <time>2020-09-11T13:29:16.752Z</time>
      </trkpt>
      <trkpt lat="43.20423" lon="6.30405">
        <ele>411.30572509766</ele>
        <time>2020-09-11T13:29:23.557Z</time>
      </trkpt>
      <trkpt lat="43.20423" lon="6.30405">
        <ele>411.3225402832</ele>
        <time>2020-09-11T13:29:30.362Z</time>
      </trkpt>
      <trkpt lat="43.20423" lon="6.30405">
        <ele>411.38250732422</ele>
        <time>2020-09-11T13:29:37.167Z</time>
      </trkpt>
      <trkpt lat="43.20423" lon="6.30406">
        <ele>411.38970947266</ele>
        <time>2020-09-11T13:29:43.972Z</time>
      </trkpt>
      <trkpt lat="43.20423" lon="6.30406">
        <ele>411.3369140625</ele>
        <time>2020-09-11T13:29:50.777Z</time>
      </trkpt>
      <trkpt lat="43.20424" lon="6.30407">
        <ele>411.51809692383</ele>
        <time>2020-09-11T13:29:57.582Z</time>
      </trkpt>
      <trkpt lat="43.20423" lon="6.30408">
        <ele>411.53848266602</ele>
        <time>2020-09-11T13:30:04.387Z</time>
      </trkpt>
      <trkpt lat="43.20423" lon="6.30407">
        <ele>411.38250732422</ele>
        <time>2020-09-11T13:30:11.192Z</time>
      </trkpt>
      <trkpt lat="43.20422" lon="6.30409">
        <ele>411.37771606445</ele>
        <time>2020-09-11T13:30:17.998Z</time>
      </trkpt>
      <trkpt lat="43.20422" lon="6.30409">
        <ele>411.46292114258</ele>
        <time>2020-09-11T13:30:24.804Z</time>
      </trkpt>
      <trkpt lat="43.20423" lon="6.3041">
        <ele>411.52288818359</ele>
        <time>2020-09-11T13:30:31.610Z</time>
      </trkpt>
      <trkpt lat="43.20422" lon="6.3041">
        <ele>411.44372558594</ele>
        <time>2020-09-11T13:30:38.416Z</time>
      </trkpt>
      <trkpt lat="43.20422" lon="6.3041">
        <ele>411.47009277344</ele>
        <time>2020-09-11T13:30:45.222Z</time>
      </trkpt>
      <trkpt lat="43.20422" lon="6.3041">
        <ele>411.44372558594</ele>
        <time>2020-09-11T13:30:52.028Z</time>
      </trkpt>
      <trkpt lat="43.20422" lon="6.3041">
        <ele>411.47009277344</ele>
        <time>2020-09-11T13:30:58.834Z</time>
      </trkpt>
      <trkpt lat="43.20422" lon="6.3041">
        <ele>411.45211791992</ele>
        <time>2020-09-11T13:31:05.640Z</time>
      </trkpt>
      <trkpt lat="43.20422" lon="6.3041">
        <ele>411.478515625</ele>
        <time>2020-09-11T13:31:12.446Z</time>
      </trkpt>
      <trkpt lat="43.20422" lon="6.3041">
        <ele>411.45211791992</ele>
        <time>2020-09-11T13:31:19.252Z</time>
      </trkpt>
      <trkpt lat="43.20423" lon="6.30411">
        <ele>411.87805175781</ele>
        <time>2020-09-11T13:31:26.058Z</time>
      </trkpt>
      <trkpt lat="43.20423" lon="6.30411">
        <ele>411.90322875977</ele>
        <time>2020-09-11T13:31:32.864Z</time>
      </trkpt>
      <trkpt lat="43.20424" lon="6.30412">
        <ele>411.96322631836</ele>
        <time>2020-09-11T13:31:39.670Z</time>
      </trkpt>
      <trkpt lat="43.20424" lon="6.30412">
        <ele>412.11080932617</ele>
        <time>2020-09-11T13:31:46.476Z</time>
      </trkpt>
      <trkpt lat="43.20424" lon="6.30412">
        <ele>412.15518188477</ele>
        <time>2020-09-11T13:31:53.282Z</time>
      </trkpt>
      <trkpt lat="43.20425" lon="6.30412">
        <ele>412.22839355469</ele>
        <time>2020-09-11T13:32:00.088Z</time>
      </trkpt>
      <trkpt lat="43.20425" lon="6.30413">
        <ele>412.52954101562</ele>
        <time>2020-09-11T13:32:06.895Z</time>
      </trkpt>
      <trkpt lat="43.20424" lon="6.30413">
        <ele>412.24157714844</ele>
        <time>2020-09-11T13:32:13.702Z</time>
      </trkpt>
      <trkpt lat="43.20425" lon="6.30413">
        <ele>412.32077026367</ele>
        <time>2020-09-11T13:32:20.509Z</time>
      </trkpt>
      <trkpt lat="43.20425" lon="6.30412">
        <ele>412.3303527832</ele>
        <time>2020-09-11T13:32:27.316Z</time>
      </trkpt>
      <trkpt lat="43.20425" lon="6.30413">
        <ele>412.33877563477</ele>
        <time>2020-09-11T13:32:34.123Z</time>
      </trkpt>
      <trkpt lat="43.20425" lon="6.30413">
        <ele>412.31237792969</ele>
        <time>2020-09-11T13:32:40.930Z</time>
      </trkpt>
      <trkpt lat="43.20425" lon="6.30414">
        <ele>412.56311035156</ele>
        <time>2020-09-11T13:32:47.737Z</time>
      </trkpt>
      <trkpt lat="43.20425" lon="6.30414">
        <ele>412.57992553711</ele>
        <time>2020-09-11T13:32:54.544Z</time>
      </trkpt>
      <trkpt lat="43.20421" lon="6.30425">
        <ele>412.37835693359</ele>
        <time>2020-09-11T13:33:01.352Z</time>
      </trkpt>
      <trkpt lat="43.2042" lon="6.30428">
        <ele>412.33996582031</ele>
        <time>2020-09-11T13:33:08.161Z</time>
      </trkpt>
      <trkpt lat="43.20416" lon="6.30438">
        <ele>412.10479736328</ele>
        <time>2020-09-11T13:33:14.971Z</time>
      </trkpt>
      <trkpt lat="43.20413" lon="6.30447">
        <ele>412.00042724609</ele>
        <time>2020-09-11T13:33:21.782Z</time>
      </trkpt>
      <trkpt lat="43.20407" lon="6.3046">
        <ele>411.72421264648</ele>
        <time>2020-09-11T13:33:28.595Z</time>
      </trkpt>
      <trkpt lat="43.20402" lon="6.30468">
        <ele>411.51425170898</ele>
        <time>2020-09-11T13:33:35.409Z</time>
      </trkpt>
      <trkpt lat="43.20392" lon="6.30481">
        <ele>410.79315185547</ele>
        <time>2020-09-11T13:33:42.226Z</time>
      </trkpt>
      <trkpt lat="43.20389" lon="6.30486">
        <ele>411.23348999023</ele>
        <time>2020-09-11T13:33:49.043Z</time>
      </trkpt>
      <trkpt lat="43.20384" lon="6.30497">
        <ele>412.2917175293</ele>
        <time>2020-09-11T13:33:55.862Z</time>
      </trkpt>
      <trkpt lat="43.2038" lon="6.30508">
        <ele>413.45550537109</ele>
        <time>2020-09-11T13:34:02.682Z</time>
      </trkpt>
      <trkpt lat="43.20376" lon="6.30519">
        <ele>415.62854003906</ele>
        <time>2020-09-11T13:34:09.504Z</time>
      </trkpt>
      <trkpt lat="43.2037" lon="6.3053">
        <ele>418.46246337891</ele>
        <time>2020-09-11T13:34:16.327Z</time>
      </trkpt>
      <trkpt lat="43.20366" lon="6.30534">
        <ele>419.39831542969</ele>
        <time>2020-09-11T13:34:23.151Z</time>
      </trkpt>
      <trkpt lat="43.20357" lon="6.30542">
        <ele>420.6916809082</ele>
        <time>2020-09-11T13:34:29.977Z</time>
      </trkpt>
      <trkpt lat="43.20337" lon="6.30554">
        <ele>421.35833740234</ele>
        <time>2020-09-11T13:34:36.806Z</time>
      </trkpt>
      <trkpt lat="43.20322" lon="6.30563">
        <ele>418.62927246094</ele>
        <time>2020-09-11T13:34:43.638Z</time>
      </trkpt>
      <trkpt lat="43.20317" lon="6.30565">
        <ele>417.22351074219</ele>
        <time>2020-09-11T13:34:50.471Z</time>
      </trkpt>
      <trkpt lat="43.20299" lon="6.30567">
        <ele>412.09436035156</ele>
        <time>2020-09-11T13:34:57.307Z</time>
      </trkpt>
      <trkpt lat="43.20281" lon="6.30567">
        <ele>406.3821105957</ele>
        <time>2020-09-11T13:35:04.146Z</time>
      </trkpt>
      <trkpt lat="43.20275" lon="6.30567">
        <ele>404.67959594727</ele>
        <time>2020-09-11T13:35:10.985Z</time>
      </trkpt>
      <trkpt lat="43.20264" lon="6.30568">
        <ele>401.11630249023</ele>
        <time>2020-09-11T13:35:17.826Z</time>
      </trkpt>
      <trkpt lat="43.20254" lon="6.30575">
        <ele>396.50503540039</ele>
        <time>2020-09-11T13:35:24.669Z</time>
      </trkpt>
      <trkpt lat="43.20248" lon="6.30591">
        <ele>393.11920166016</ele>
        <time>2020-09-11T13:35:31.514Z</time>
      </trkpt>
      <trkpt lat="43.2025" lon="6.30609">
        <ele>393.54870605469</ele>
        <time>2020-09-11T13:35:38.361Z</time>
      </trkpt>
      <trkpt lat="43.20266" lon="6.30658">
        <ele>398.54483032227</ele>
        <time>2020-09-11T13:35:45.215Z</time>
      </trkpt>
      <trkpt lat="43.2027" lon="6.30665">
        <ele>399.78784179688</ele>
        <time>2020-09-11T13:35:52.070Z</time>
      </trkpt>
      <trkpt lat="43.20282" lon="6.30706">
        <ele>402.76812744141</ele>
        <time>2020-09-11T13:35:58.930Z</time>
      </trkpt>
      <trkpt lat="43.20283" lon="6.30725">
        <ele>401.03201293945</ele>
        <time>2020-09-11T13:36:05.792Z</time>
      </trkpt>
      <trkpt lat="43.20281" lon="6.30781">
        <ele>396.78341674805</ele>
        <time>2020-09-11T13:36:12.661Z</time>
      </trkpt>
      <trkpt lat="43.20281" lon="6.3079">
        <ele>396.45468139648</ele>
        <time>2020-09-11T13:36:19.531Z</time>
      </trkpt>
      <trkpt lat="43.20281" lon="6.30799">
        <ele>396.24829101562</ele>
        <time>2020-09-11T13:36:26.402Z</time>
      </trkpt>
      <trkpt lat="43.20282" lon="6.30809">
        <ele>396.03713989258</ele>
        <time>2020-09-11T13:36:33.274Z</time>
      </trkpt>
      <trkpt lat="43.20282" lon="6.30818">
        <ele>395.6633605957</ele>
        <time>2020-09-11T13:36:40.147Z</time>
      </trkpt>
      <trkpt lat="43.20283" lon="6.30827">
        <ele>395.20983886719</ele>
        <time>2020-09-11T13:36:47.021Z</time>
      </trkpt>
      <trkpt lat="43.20286" lon="6.30845">
        <ele>394.92239379883</ele>
        <time>2020-09-11T13:36:53.897Z</time>
      </trkpt>
      <trkpt lat="43.20291" lon="6.30862">
        <ele>396.38134765625</ele>
        <time>2020-09-11T13:37:00.775Z</time>
      </trkpt>
      <trkpt lat="43.20304" lon="6.30894">
        <ele>400.4606628418</ele>
        <time>2020-09-11T13:37:07.658Z</time>
      </trkpt>
      <trkpt lat="43.20306" lon="6.30902">
        <ele>401.78973388672</ele>
        <time>2020-09-11T13:37:14.542Z</time>
      </trkpt>
      <trkpt lat="43.20309" lon="6.30912">
        <ele>403.16708374023</ele>
        <time>2020-09-11T13:37:21.427Z</time>
      </trkpt>
      <trkpt lat="43.2031" lon="6.30921">
        <ele>404.14373779297</ele>
        <time>2020-09-11T13:37:28.313Z</time>
      </trkpt>
      <trkpt lat="43.20312" lon="6.30947">
        <ele>405.66265869141</ele>
        <time>2020-09-11T13:37:35.202Z</time>
      </trkpt>
      <trkpt lat="43.20312" lon="6.30955">
        <ele>405.59307861328</ele>
        <time>2020-09-11T13:37:42.092Z</time>
      </trkpt>
      <trkpt lat="43.20309" lon="6.30973">
        <ele>404.1953125</ele>
        <time>2020-09-11T13:37:48.984Z</time>
      </trkpt>
      <trkpt lat="43.20307" lon="6.30983">
        <ele>403.57397460938</ele>
        <time>2020-09-11T13:37:55.877Z</time>
      </trkpt>
      <trkpt lat="43.20296" lon="6.31019">
        <ele>403.85586547852</ele>
        <time>2020-09-11T13:38:02.775Z</time>
      </trkpt>
      <trkpt lat="43.20287" lon="6.31036">
        <ele>402.92959594727</ele>
        <time>2020-09-11T13:38:09.675Z</time>
      </trkpt>
      <trkpt lat="43.20282" lon="6.31043">
        <ele>402.33212280273</ele>
        <time>2020-09-11T13:38:16.576Z</time>
      </trkpt>
      <trkpt lat="43.20265" lon="6.31075">
        <ele>401.25744628906</ele>
        <time>2020-09-11T13:38:23.482Z</time>
      </trkpt>
      <trkpt lat="43.20258" lon="6.31094">
        <ele>403.78805541992</ele>
        <time>2020-09-11T13:38:30.391Z</time>
      </trkpt>
      <trkpt lat="43.20252" lon="6.31113">
        <ele>407.17150878906</ele>
        <time>2020-09-11T13:38:37.302Z</time>
      </trkpt>
      <trkpt lat="43.20247" lon="6.31121">
        <ele>408.41690063477</ele>
        <time>2020-09-11T13:38:44.214Z</time>
      </trkpt>
      <trkpt lat="43.20236" lon="6.31137">
        <ele>411.25180053711</ele>
        <time>2020-09-11T13:38:51.129Z</time>
      </trkpt>
      <trkpt lat="43.20219" lon="6.31159">
        <ele>416.0168762207</ele>
        <time>2020-09-11T13:38:58.047Z</time>
      </trkpt>
      <trkpt lat="43.20204" lon="6.31164">
        <ele>415.82369995117</ele>
        <time>2020-09-11T13:39:04.968Z</time>
      </trkpt>
      <trkpt lat="43.20188" lon="6.3116">
        <ele>412.71203613281</ele>
        <time>2020-09-11T13:39:11.892Z</time>
      </trkpt>
      <trkpt lat="43.20162" lon="6.31156">
        <ele>411.16186523438</ele>
        <time>2020-09-11T13:39:18.820Z</time>
      </trkpt>
      <trkpt lat="43.20145" lon="6.31156">
        <ele>411.81695556641</ele>
        <time>2020-09-11T13:39:25.751Z</time>
      </trkpt>
      <trkpt lat="43.20128" lon="6.3115">
        <ele>409.93807983398</ele>
        <time>2020-09-11T13:39:32.684Z</time>
      </trkpt>
      <trkpt lat="43.20111" lon="6.3114">
        <ele>406.49517822266</ele>
        <time>2020-09-11T13:39:39.620Z</time>
      </trkpt>
      <trkpt lat="43.20094" lon="6.31135">
        <ele>405.21453857422</ele>
        <time>2020-09-11T13:39:46.559Z</time>
      </trkpt>
      <trkpt lat="43.20033" lon="6.31129">
        <ele>400.15591430664</ele>
        <time>2020-09-11T13:39:53.508Z</time>
      </trkpt>
      <trkpt lat="43.19977" lon="6.3112">
        <ele>393.43780517578</ele>
        <time>2020-09-11T13:40:00.466Z</time>
      </trkpt>
      <trkpt lat="43.19944" lon="6.31121">
        <ele>388.10589599609</ele>
        <time>2020-09-11T13:40:07.429Z</time>
      </trkpt>
      <trkpt lat="43.19928" lon="6.31127">
        <ele>386.57412719727</ele>
        <time>2020-09-11T13:40:14.395Z</time>
      </trkpt>
      <trkpt lat="43.19914" lon="6.31138">
        <ele>384.17779541016</ele>
        <time>2020-09-11T13:40:21.363Z</time>
      </trkpt>
      <trkpt lat="43.19887" lon="6.31166">
        <ele>376.1286315918</ele>
        <time>2020-09-11T13:40:28.337Z</time>
      </trkpt>
      <trkpt lat="43.19878" lon="6.31186">
        <ele>374.11535644531</ele>
        <time>2020-09-11T13:40:35.313Z</time>
      </trkpt>
      <trkpt lat="43.1988" lon="6.31209">
        <ele>376.06503295898</ele>
        <time>2020-09-11T13:40:42.292Z</time>
      </trkpt>
      <trkpt lat="43.19893" lon="6.31256">
        <ele>381.59375</ele>
        <time>2020-09-11T13:40:49.277Z</time>
      </trkpt>
      <trkpt lat="43.19907" lon="6.31331">
        <ele>388.56698608398</ele>
        <time>2020-09-11T13:40:56.271Z</time>
      </trkpt>
      <trkpt lat="43.19906" lon="6.31356">
        <ele>389.90835571289</ele>
        <time>2020-09-11T13:41:03.268Z</time>
      </trkpt>
      <trkpt lat="43.19902" lon="6.3138">
        <ele>392.419921875</ele>
        <time>2020-09-11T13:41:10.268Z</time>
      </trkpt>
      <trkpt lat="43.19882" lon="6.3146">
        <ele>407.04907226562</ele>
        <time>2020-09-11T13:41:17.278Z</time>
      </trkpt>
      <trkpt lat="43.19873" lon="6.31488">
        <ele>412.64376831055</ele>
        <time>2020-09-11T13:41:24.291Z</time>
      </trkpt>
      <trkpt lat="43.19861" lon="6.31493">
        <ele>413.68997192383</ele>
        <time>2020-09-11T13:41:31.306Z</time>
      </trkpt>
      <trkpt lat="43.19851" lon="6.31481">
        <ele>411.96466064453</ele>
        <time>2020-09-11T13:41:38.324Z</time>
      </trkpt>
      <trkpt lat="43.19842" lon="6.31451">
        <ele>406.83090209961</ele>
        <time>2020-09-11T13:41:45.345Z</time>
      </trkpt>
      <trkpt lat="43.19815" lon="6.31383">
        <ele>400.81173706055</ele>
        <time>2020-09-11T13:41:52.375Z</time>
      </trkpt>
      <trkpt lat="43.19787" lon="6.3133">
        <ele>396.12356567383</ele>
        <time>2020-09-11T13:41:59.413Z</time>
      </trkpt>
      <trkpt lat="43.19783" lon="6.31324">
        <ele>395.56686401367</ele>
        <time>2020-09-11T13:42:06.452Z</time>
      </trkpt>
      <trkpt lat="43.19776" lon="6.31311">
        <ele>394.60211181641</ele>
        <time>2020-09-11T13:42:13.493Z</time>
      </trkpt>
      <trkpt lat="43.19759" lon="6.31284">
        <ele>392.90475463867</ele>
        <time>2020-09-11T13:42:20.538Z</time>
      </trkpt>
      <trkpt lat="43.19743" lon="6.31256">
        <ele>384.52172851562</ele>
        <time>2020-09-11T13:42:27.587Z</time>
      </trkpt>
      <trkpt lat="43.19716" lon="6.3121">
        <ele>373.01239013672</ele>
        <time>2020-09-11T13:42:34.643Z</time>
      </trkpt>
      <trkpt lat="43.19706" lon="6.31203">
        <ele>370.99673461914</ele>
        <time>2020-09-11T13:42:41.701Z</time>
      </trkpt>
      <trkpt lat="43.19696" lon="6.31212">
        <ele>370.93673706055</ele>
        <time>2020-09-11T13:42:48.761Z</time>
      </trkpt>
      <trkpt lat="43.19691" lon="6.3123">
        <ele>372.48446655273</ele>
        <time>2020-09-11T13:42:55.823Z</time>
      </trkpt>
      <trkpt lat="43.19689" lon="6.31249">
        <ele>376.34234619141</ele>
        <time>2020-09-11T13:43:02.887Z</time>
      </trkpt>
      <trkpt lat="43.19688" lon="6.31297">
        <ele>385.33123779297</ele>
        <time>2020-09-11T13:43:09.957Z</time>
      </trkpt>
      <trkpt lat="43.19684" lon="6.31316">
        <ele>388.35278320312</ele>
        <time>2020-09-11T13:43:17.029Z</time>
      </trkpt>
      <trkpt lat="43.19676" lon="6.31332">
        <ele>390.50909423828</ele>
        <time>2020-09-11T13:43:24.103Z</time>
      </trkpt>
      <trkpt lat="43.19665" lon="6.31344">
        <ele>387.97991943359</ele>
        <time>2020-09-11T13:43:31.180Z</time>
      </trkpt>
      <trkpt lat="43.1963" lon="6.31356">
        <ele>375.2092590332</ele>
        <time>2020-09-11T13:43:38.263Z</time>
      </trkpt>
      <trkpt lat="43.19621" lon="6.3137">
        <ele>374.36700439453</ele>
        <time>2020-09-11T13:43:45.348Z</time>
      </trkpt>
      <trkpt lat="43.19602" lon="6.31449">
        <ele>388.17483520508</ele>
        <time>2020-09-11T13:43:52.442Z</time>
      </trkpt>
      <trkpt lat="43.1959" lon="6.31474">
        <ele>392.11175537109</ele>
        <time>2020-09-11T13:43:59.540Z</time>
      </trkpt>
      <trkpt lat="43.19554" lon="6.3151">
        <ele>399.03176879883</ele>
        <time>2020-09-11T13:44:06.645Z</time>
      </trkpt>
      <trkpt lat="43.19524" lon="6.31539">
        <ele>403.16842651367</ele>
        <time>2020-09-11T13:44:13.756Z</time>
      </trkpt>
      <trkpt lat="43.19513" lon="6.31552">
        <ele>405.31604003906</ele>
        <time>2020-09-11T13:44:20.869Z</time>
      </trkpt>
      <trkpt lat="43.195" lon="6.3155">
        <ele>406.31848144531</ele>
        <time>2020-09-11T13:44:27.984Z</time>
      </trkpt>
      <trkpt lat="43.1949" lon="6.31534">
        <ele>402.53430175781</ele>
        <time>2020-09-11T13:44:35.102Z</time>
      </trkpt>
      <trkpt lat="43.1948" lon="6.31519">
        <ele>399.02728271484</ele>
        <time>2020-09-11T13:44:42.222Z</time>
      </trkpt>
      <trkpt lat="43.19429" lon="6.31488">
        <ele>397.27206420898</ele>
        <time>2020-09-11T13:44:49.351Z</time>
      </trkpt>
      <trkpt lat="43.19383" lon="6.31474">
        <ele>391.33633422852</ele>
        <time>2020-09-11T13:44:56.488Z</time>
      </trkpt>
      <trkpt lat="43.19362" lon="6.31474">
        <ele>390.48327636719</ele>
        <time>2020-09-11T13:45:03.628Z</time>
      </trkpt>
      <trkpt lat="43.19314" lon="6.31486">
        <ele>388.05981445312</ele>
        <time>2020-09-11T13:45:10.776Z</time>
      </trkpt>
      <trkpt lat="43.19295" lon="6.31492">
        <ele>386.89361572266</ele>
        <time>2020-09-11T13:45:17.927Z</time>
      </trkpt>
      <trkpt lat="43.19284" lon="6.31504">
        <ele>388.70532226562</ele>
        <time>2020-09-11T13:45:25.080Z</time>
      </trkpt>
      <trkpt lat="43.1928" lon="6.3152">
        <ele>392.96939086914</ele>
        <time>2020-09-11T13:45:32.235Z</time>
      </trkpt>
      <trkpt lat="43.1928" lon="6.3153">
        <ele>395.85131835938</ele>
        <time>2020-09-11T13:45:39.391Z</time>
      </trkpt>
      <trkpt lat="43.19278" lon="6.31538">
        <ele>398.08773803711</ele>
        <time>2020-09-11T13:45:46.548Z</time>
      </trkpt>
      <trkpt lat="43.19267" lon="6.31546">
        <ele>398.68765258789</ele>
        <time>2020-09-11T13:45:53.707Z</time>
      </trkpt>
      <trkpt lat="43.19241" lon="6.31546">
        <ele>390.73147583008</ele>
        <time>2020-09-11T13:46:00.870Z</time>
      </trkpt>
      <trkpt lat="43.19229" lon="6.3155">
        <ele>386.69296264648</ele>
        <time>2020-09-11T13:46:08.035Z</time>
      </trkpt>
      <trkpt lat="43.19219" lon="6.3156">
        <ele>384.24176025391</ele>
        <time>2020-09-11T13:46:15.202Z</time>
      </trkpt>
      <trkpt lat="43.19212" lon="6.31574">
        <ele>384.33981323242</ele>
        <time>2020-09-11T13:46:22.371Z</time>
      </trkpt>
      <trkpt lat="43.19209" lon="6.31581">
        <ele>384.74774169922</ele>
        <time>2020-09-11T13:46:29.541Z</time>
      </trkpt>
      <trkpt lat="43.19205" lon="6.31589">
        <ele>385.15927124023</ele>
        <time>2020-09-11T13:46:36.713Z</time>
      </trkpt>
      <trkpt lat="43.19202" lon="6.31596">
        <ele>385.22750854492</ele>
        <time>2020-09-11T13:46:43.886Z</time>
      </trkpt>
      <trkpt lat="43.19195" lon="6.31612">
        <ele>385.04513549805</ele>
        <time>2020-09-11T13:46:51.061Z</time>
      </trkpt>
      <trkpt lat="43.19177" lon="6.31658">
        <ele>386.23373413086</ele>
        <time>2020-09-11T13:46:58.242Z</time>
      </trkpt>
      <trkpt lat="43.19168" lon="6.31702">
        <ele>393.30294799805</ele>
        <time>2020-09-11T13:47:05.428Z</time>
      </trkpt>
      <trkpt lat="43.19151" lon="6.31743">
        <ele>399.2844543457</ele>
        <time>2020-09-11T13:47:12.620Z</time>
      </trkpt>
      <trkpt lat="43.19127" lon="6.31789">
        <ele>407.39019775391</ele>
        <time>2020-09-11T13:47:19.818Z</time>
      </trkpt>
      <trkpt lat="43.19114" lon="6.31796">
        <ele>408.30563354492</ele>
        <time>2020-09-11T13:47:27.018Z</time>
      </trkpt>
      <trkpt lat="43.191" lon="6.31794">
        <ele>405.37692260742</ele>
        <time>2020-09-11T13:47:34.221Z</time>
      </trkpt>
      <trkpt lat="43.19051" lon="6.31789">
        <ele>410.40316772461</ele>
        <time>2020-09-11T13:47:41.432Z</time>
      </trkpt>
      <trkpt lat="43.19018" lon="6.31773">
        <ele>409.87167358398</ele>
        <time>2020-09-11T13:47:48.648Z</time>
      </trkpt>
      <trkpt lat="43.19007" lon="6.3176">
        <ele>406.06039428711</ele>
        <time>2020-09-11T13:47:55.867Z</time>
      </trkpt>
      <trkpt lat="43.18987" lon="6.31733">
        <ele>395.10861206055</ele>
        <time>2020-09-11T13:48:03.090Z</time>
      </trkpt>
      <trkpt lat="43.18975" lon="6.31724">
        <ele>392.22463989258</ele>
        <time>2020-09-11T13:48:10.315Z</time>
      </trkpt>
      <trkpt lat="43.18937" lon="6.31705">
        <ele>386.42239379883</ele>
        <time>2020-09-11T13:48:17.547Z</time>
      </trkpt>
      <trkpt lat="43.18925" lon="6.31709">
        <ele>384.59387207031</ele>
        <time>2020-09-11T13:48:24.781Z</time>
      </trkpt>
      <trkpt lat="43.18916" lon="6.31724">
        <ele>381.7077331543</ele>
        <time>2020-09-11T13:48:32.017Z</time>
      </trkpt>
      <trkpt lat="43.18911" lon="6.31742">
        <ele>380.01968383789</ele>
        <time>2020-09-11T13:48:39.255Z</time>
      </trkpt>
      <trkpt lat="43.18891" lon="6.31802">
        <ele>375.91439819336</ele>
        <time>2020-09-11T13:48:46.501Z</time>
      </trkpt>
      <trkpt lat="43.18889" lon="6.31811">
        <ele>375.85922241211</ele>
        <time>2020-09-11T13:48:53.748Z</time>
      </trkpt>
      <trkpt lat="43.18888" lon="6.31829">
        <ele>376.87316894531</ele>
        <time>2020-09-11T13:49:00.997Z</time>
      </trkpt>
      <trkpt lat="43.18888" lon="6.31898">
        <ele>383.47290039062</ele>
        <time>2020-09-11T13:49:08.254Z</time>
      </trkpt>
      <trkpt lat="43.18882" lon="6.31941">
        <ele>380.61529541016</ele>
        <time>2020-09-11T13:49:15.516Z</time>
      </trkpt>
      <trkpt lat="43.18878" lon="6.32023">
        <ele>379.05599975586</ele>
        <time>2020-09-11T13:49:22.788Z</time>
      </trkpt>
      <trkpt lat="43.18862" lon="6.32094">
        <ele>370.94256591797</ele>
        <time>2020-09-11T13:49:30.069Z</time>
      </trkpt>
      <trkpt lat="43.18854" lon="6.32131">
        <ele>369.06127929688</ele>
        <time>2020-09-11T13:49:37.354Z</time>
      </trkpt>
      <trkpt lat="43.18851" lon="6.32144">
        <ele>368.60534667969</ele>
        <time>2020-09-11T13:49:44.641Z</time>
      </trkpt>
      <trkpt lat="43.18848" lon="6.3217">
        <ele>366.89639282227</ele>
        <time>2020-09-11T13:49:51.931Z</time>
      </trkpt>
      <trkpt lat="43.18849" lon="6.32195">
        <ele>366.89758300781</ele>
        <time>2020-09-11T13:49:59.224Z</time>
      </trkpt>
      <trkpt lat="43.18851" lon="6.32206">
        <ele>367.42788696289</ele>
        <time>2020-09-11T13:50:06.518Z</time>
      </trkpt>
      <trkpt lat="43.18858" lon="6.32223">
        <ele>369.51196289062</ele>
        <time>2020-09-11T13:50:13.814Z</time>
      </trkpt>
      <trkpt lat="43.1889" lon="6.32208">
        <ele>380.30773925781</ele>
        <time>2020-09-11T13:50:21.116Z</time>
      </trkpt>
      <trkpt lat="43.189" lon="6.32213">
        <ele>383.77877807617</ele>
        <time>2020-09-11T13:50:28.419Z</time>
      </trkpt>
      <trkpt lat="43.18901" lon="6.32231">
        <ele>383.83511352539</ele>
        <time>2020-09-11T13:50:35.725Z</time>
      </trkpt>
      <trkpt lat="43.18897" lon="6.32242">
        <ele>384.15307617188</ele>
        <time>2020-09-11T13:50:43.032Z</time>
      </trkpt>
      <trkpt lat="43.18879" lon="6.32301">
        <ele>381.85375976562</ele>
        <time>2020-09-11T13:50:50.346Z</time>
      </trkpt>
      <trkpt lat="43.18846" lon="6.32377">
        <ele>379.6741027832</ele>
        <time>2020-09-11T13:50:57.671Z</time>
      </trkpt>
      <trkpt lat="43.18813" lon="6.32438">
        <ele>382.71389770508</ele>
        <time>2020-09-11T13:51:05.005Z</time>
      </trkpt>
      <trkpt lat="43.18798" lon="6.32461">
        <ele>381.63180541992</ele>
        <time>2020-09-11T13:51:12.342Z</time>
      </trkpt>
      <trkpt lat="43.18772" lon="6.32491">
        <ele>379.00305175781</ele>
        <time>2020-09-11T13:51:19.685Z</time>
      </trkpt>
      <trkpt lat="43.18764" lon="6.325">
        <ele>378.18179321289</ele>
        <time>2020-09-11T13:51:27.029Z</time>
      </trkpt>
      <trkpt lat="43.18757" lon="6.32511">
        <ele>378.34558105469</ele>
        <time>2020-09-11T13:51:34.375Z</time>
      </trkpt>
      <trkpt lat="43.18724" lon="6.3258">
        <ele>382.18518066406</ele>
        <time>2020-09-11T13:51:41.731Z</time>
      </trkpt>
      <trkpt lat="43.18721" lon="6.32607">
        <ele>382.30242919922</ele>
        <time>2020-09-11T13:51:49.090Z</time>
      </trkpt>
      <trkpt lat="43.18722" lon="6.32634">
        <ele>383.09548950195</ele>
        <time>2020-09-11T13:51:56.452Z</time>
      </trkpt>
      <trkpt lat="43.18738" lon="6.32716">
        <ele>381.07666015625</ele>
        <time>2020-09-11T13:52:03.824Z</time>
      </trkpt>
      <trkpt lat="43.18752" lon="6.32768">
        <ele>378.47998046875</ele>
        <time>2020-09-11T13:52:11.202Z</time>
      </trkpt>
      <trkpt lat="43.18762" lon="6.32806">
        <ele>376.69036865234</ele>
        <time>2020-09-11T13:52:18.585Z</time>
      </trkpt>
      <trkpt lat="43.18777" lon="6.32871">
        <ele>372.87637329102</ele>
        <time>2020-09-11T13:52:25.976Z</time>
      </trkpt>
      <trkpt lat="43.18788" lon="6.32938">
        <ele>369.31741333008</ele>
        <time>2020-09-11T13:52:33.375Z</time>
      </trkpt>
      <trkpt lat="43.18789" lon="6.32951">
        <ele>368.71270751953</ele>
        <time>2020-09-11T13:52:40.776Z</time>
      </trkpt>
      <trkpt lat="43.18789" lon="6.32965">
        <ele>368.36477661133</ele>
        <time>2020-09-11T13:52:48.178Z</time>
      </trkpt>
      <trkpt lat="43.18776" lon="6.33041">
        <ele>362.31747436523</ele>
        <time>2020-09-11T13:52:55.590Z</time>
      </trkpt>
      <trkpt lat="43.18772" lon="6.33052">
        <ele>361.24124145508</ele>
        <time>2020-09-11T13:53:03.003Z</time>
      </trkpt>
      <trkpt lat="43.18759" lon="6.33066">
        <ele>361.42840576172</ele>
        <time>2020-09-11T13:53:10.419Z</time>
      </trkpt>
      <trkpt lat="43.18737" lon="6.33078">
        <ele>364.63906860352</ele>
        <time>2020-09-11T13:53:17.838Z</time>
      </trkpt>
      <trkpt lat="43.1873" lon="6.33098">
        <ele>364.66064453125</ele>
        <time>2020-09-11T13:53:25.260Z</time>
      </trkpt>
      <trkpt lat="43.1873" lon="6.33122">
        <ele>362.66522216797</ele>
        <time>2020-09-11T13:53:32.685Z</time>
      </trkpt>
      <trkpt lat="43.18728" lon="6.33159">
        <ele>359.47442626953</ele>
        <time>2020-09-11T13:53:40.114Z</time>
      </trkpt>
      <trkpt lat="43.18712" lon="6.33216">
        <ele>358.12915039062</ele>
        <time>2020-09-11T13:53:47.550Z</time>
      </trkpt>
      <trkpt lat="43.18713" lon="6.3324">
        <ele>356.53201293945</ele>
        <time>2020-09-11T13:53:54.989Z</time>
      </trkpt>
      <trkpt lat="43.18723" lon="6.33274">
        <ele>353.51812744141</ele>
        <time>2020-09-11T13:54:02.432Z</time>
      </trkpt>
      <trkpt lat="43.18724" lon="6.33298">
        <ele>350.35140991211</ele>
        <time>2020-09-11T13:54:09.878Z</time>
      </trkpt>
      <trkpt lat="43.18715" lon="6.33318">
        <ele>347.99655151367</ele>
        <time>2020-09-11T13:54:17.327Z</time>
      </trkpt>
      <trkpt lat="43.18698" lon="6.33324">
        <ele>347.93536376953</ele>
        <time>2020-09-11T13:54:24.779Z</time>
      </trkpt>
      <trkpt lat="43.18681" lon="6.33314">
        <ele>350.79086303711</ele>
        <time>2020-09-11T13:54:32.234Z</time>
      </trkpt>
      <trkpt lat="43.18663" lon="6.33304">
        <ele>351.48529052734</ele>
        <time>2020-09-11T13:54:39.692Z</time>
      </trkpt>
      <trkpt lat="43.18644" lon="6.3331">
        <ele>350.24349975586</ele>
        <time>2020-09-11T13:54:47.153Z</time>
      </trkpt>
      <trkpt lat="43.18625" lon="6.33321">
        <ele>347.92333984375</ele>
        <time>2020-09-11T13:54:54.617Z</time>
      </trkpt>
      <trkpt lat="43.18596" lon="6.33334">
        <ele>347.39669799805</ele>
        <time>2020-09-11T13:55:02.086Z</time>
      </trkpt>
      <trkpt lat="43.18583" lon="6.33355">
        <ele>345.29510498047</ele>
        <time>2020-09-11T13:55:09.558Z</time>
      </trkpt>
      <trkpt lat="43.18577" lon="6.33382">
        <ele>343.45364379883</ele>
        <time>2020-09-11T13:55:17.034Z</time>
      </trkpt>
      <trkpt lat="43.1858" lon="6.33409">
        <ele>342.49945068359</ele>
        <time>2020-09-11T13:55:24.513Z</time>
      </trkpt>
      <trkpt lat="43.18591" lon="6.33431">
        <ele>345.13900756836</ele>
        <time>2020-09-11T13:55:31.995Z</time>
      </trkpt>
      <trkpt lat="43.1862" lon="6.33465">
        <ele>342.63299560547</ele>
        <time>2020-09-11T13:55:39.483Z</time>
      </trkpt>
      <trkpt lat="43.18631" lon="6.33487">
        <ele>341.34561157227</ele>
        <time>2020-09-11T13:55:46.974Z</time>
      </trkpt>
      <trkpt lat="43.18637" lon="6.33512">
        <ele>341.23522949219</ele>
        <time>2020-09-11T13:55:54.468Z</time>
      </trkpt>
      <trkpt lat="43.18634" lon="6.33538">
        <ele>341.37619018555</ele>
        <time>2020-09-11T13:56:01.965Z</time>
      </trkpt>
      <trkpt lat="43.18633" lon="6.33562">
        <ele>340.85186767578</ele>
        <time>2020-09-11T13:56:09.465Z</time>
      </trkpt>
      <trkpt lat="43.18643" lon="6.33581">
        <ele>339.51647949219</ele>
        <time>2020-09-11T13:56:16.968Z</time>
      </trkpt>
      <trkpt lat="43.1865" lon="6.33587">
        <ele>338.81219482422</ele>
        <time>2020-09-11T13:56:24.472Z</time>
      </trkpt>
      <trkpt lat="43.18664" lon="6.33601">
        <ele>337.34963989258</ele>
        <time>2020-09-11T13:56:31.979Z</time>
      </trkpt>
      <trkpt lat="43.18668" lon="6.33625">
        <ele>336.43179321289</ele>
        <time>2020-09-11T13:56:39.489Z</time>
      </trkpt>
      <trkpt lat="43.18661" lon="6.33705">
        <ele>326.03469848633</ele>
        <time>2020-09-11T13:56:47.008Z</time>
      </trkpt>
      <trkpt lat="43.18637" lon="6.33785">
        <ele>323.40795898438</ele>
        <time>2020-09-11T13:56:54.537Z</time>
      </trkpt>
      <trkpt lat="43.1862" lon="6.3387">
        <ele>326.05026245117</ele>
        <time>2020-09-11T13:57:02.077Z</time>
      </trkpt>
      <trkpt lat="43.18612" lon="6.33947">
        <ele>323.5592956543</ele>
        <time>2020-09-11T13:57:09.626Z</time>
      </trkpt>
      <trkpt lat="43.18606" lon="6.33977">
        <ele>321.87478637695</ele>
        <time>2020-09-11T13:57:17.178Z</time>
      </trkpt>
      <trkpt lat="43.18583" lon="6.34032">
        <ele>312.45880126953</ele>
        <time>2020-09-11T13:57:24.738Z</time>
      </trkpt>
      <trkpt lat="43.18567" lon="6.34051">
        <ele>305.85134887695</ele>
        <time>2020-09-11T13:57:32.301Z</time>
      </trkpt>
      <trkpt lat="43.18551" lon="6.34063">
        <ele>300.65139770508</ele>
        <time>2020-09-11T13:57:39.867Z</time>
      </trkpt>
      <trkpt lat="43.18533" lon="6.34061">
        <ele>298.59255981445</ele>
        <time>2020-09-11T13:57:47.436Z</time>
      </trkpt>
      <trkpt lat="43.18515" lon="6.34049">
        <ele>299.47680664062</ele>
        <time>2020-09-11T13:57:55.008Z</time>
      </trkpt>
      <trkpt lat="43.18497" lon="6.34029">
        <ele>296.99841308594</ele>
        <time>2020-09-11T13:58:02.584Z</time>
      </trkpt>
      <trkpt lat="43.18463" lon="6.33955">
        <ele>297.14376831055</ele>
        <time>2020-09-11T13:58:10.170Z</time>
      </trkpt>
      <trkpt lat="43.18458" lon="6.33938">
        <ele>297.59729003906</ele>
        <time>2020-09-11T13:58:17.758Z</time>
      </trkpt>
      <trkpt lat="43.18447" lon="6.33886">
        <ele>300.47607421875</ele>
        <time>2020-09-11T13:58:25.353Z</time>
      </trkpt>
      <trkpt lat="43.18419" lon="6.33809">
        <ele>293.52325439453</ele>
        <time>2020-09-11T13:58:32.958Z</time>
      </trkpt>
      <trkpt lat="43.18415" lon="6.33797">
        <ele>291.31091308594</ele>
        <time>2020-09-11T13:58:40.564Z</time>
      </trkpt>
      <trkpt lat="43.18415" lon="6.33773">
        <ele>290.12313842773</ele>
        <time>2020-09-11T13:58:48.173Z</time>
      </trkpt>
      <trkpt lat="43.18441" lon="6.33732">
        <ele>297.86444091797</ele>
        <time>2020-09-11T13:58:55.788Z</time>
      </trkpt>
      <trkpt lat="43.18457" lon="6.33721">
        <ele>301.03622436523</ele>
        <time>2020-09-11T13:59:03.406Z</time>
      </trkpt>
      <trkpt lat="43.1847" lon="6.33709">
        <ele>303.00869750977</ele>
        <time>2020-09-11T13:59:11.027Z</time>
      </trkpt>
      <trkpt lat="43.18472" lon="6.33685">
        <ele>300.45678710938</ele>
        <time>2020-09-11T13:59:18.651Z</time>
      </trkpt>
      <trkpt lat="43.18458" lon="6.33619">
        <ele>292.37716674805</ele>
        <time>2020-09-11T13:59:26.283Z</time>
      </trkpt>
      <trkpt lat="43.18443" lon="6.33579">
        <ele>285.79144287109</ele>
        <time>2020-09-11T13:59:33.920Z</time>
      </trkpt>
      <trkpt lat="43.18433" lon="6.33496">
        <ele>284.57577514648</ele>
        <time>2020-09-11T13:59:41.567Z</time>
      </trkpt>
      <trkpt lat="43.18422" lon="6.33468">
        <ele>282.95169067383</ele>
        <time>2020-09-11T13:59:49.217Z</time>
      </trkpt>
      <trkpt lat="43.18398" lon="6.33433">
        <ele>280.18017578125</ele>
        <time>2020-09-11T13:59:56.873Z</time>
      </trkpt>
      <trkpt lat="43.18378" lon="6.33392">
        <ele>279.85275268555</ele>
        <time>2020-09-11T14:00:04.535Z</time>
      </trkpt>
      <trkpt lat="43.1836" lon="6.33376">
        <ele>276.97564697266</ele>
        <time>2020-09-11T14:00:12.200Z</time>
      </trkpt>
      <trkpt lat="43.18342" lon="6.33363">
        <ele>274.24725341797</ele>
        <time>2020-09-11T14:00:19.869Z</time>
      </trkpt>
      <trkpt lat="43.18329" lon="6.3334">
        <ele>276.66604614258</ele>
        <time>2020-09-11T14:00:27.541Z</time>
      </trkpt>
      <trkpt lat="43.18316" lon="6.33316">
        <ele>279.42080688477</ele>
        <time>2020-09-11T14:00:35.216Z</time>
      </trkpt>
      <trkpt lat="43.18298" lon="6.33303">
        <ele>279.59609985352</ele>
        <time>2020-09-11T14:00:42.895Z</time>
      </trkpt>
      <trkpt lat="43.18279" lon="6.33305">
        <ele>276.36386108398</ele>
        <time>2020-09-11T14:00:50.577Z</time>
      </trkpt>
      <trkpt lat="43.18243" lon="6.33328">
        <ele>263.15542602539</ele>
        <time>2020-09-11T14:00:58.265Z</time>
      </trkpt>
      <trkpt lat="43.18223" lon="6.33324">
        <ele>258.33224487305</ele>
        <time>2020-09-11T14:01:05.956Z</time>
      </trkpt>
      <trkpt lat="43.18197" lon="6.33299">
        <ele>254.65669250488</ele>
        <time>2020-09-11T14:01:13.652Z</time>
      </trkpt>
      <trkpt lat="43.18169" lon="6.33276">
        <ele>247.99694824219</ele>
        <time>2020-09-11T14:01:21.354Z</time>
      </trkpt>
      <trkpt lat="43.18161" lon="6.33252">
        <ele>247.56262207031</ele>
        <time>2020-09-11T14:01:29.059Z</time>
      </trkpt>
      <trkpt lat="43.18163" lon="6.33225">
        <ele>252.09115600586</ele>
        <time>2020-09-11T14:01:36.767Z</time>
      </trkpt>
      <trkpt lat="43.18165" lon="6.3317">
        <ele>256.69079589844</ele>
        <time>2020-09-11T14:01:44.481Z</time>
      </trkpt>
      <trkpt lat="43.18153" lon="6.33094">
        <ele>258.8928527832</ele>
        <time>2020-09-11T14:01:52.205Z</time>
      </trkpt>
      <trkpt lat="43.18128" lon="6.33014">
        <ele>257.78378295898</ele>
        <time>2020-09-11T14:01:59.939Z</time>
      </trkpt>
      <trkpt lat="43.18109" lon="6.32946">
        <ele>256.1389465332</ele>
        <time>2020-09-11T14:02:07.681Z</time>
      </trkpt>
      <trkpt lat="43.18097" lon="6.32866">
        <ele>257.6689453125</ele>
        <time>2020-09-11T14:02:15.433Z</time>
      </trkpt>
      <trkpt lat="43.18094" lon="6.32856">
        <ele>257.88870239258</ele>
        <time>2020-09-11T14:02:23.186Z</time>
      </trkpt>
      <trkpt lat="43.18081" lon="6.32845">
        <ele>257.97747802734</ele>
        <time>2020-09-11T14:02:30.942Z</time>
      </trkpt>
      <trkpt lat="43.18063" lon="6.32862">
        <ele>254.23890686035</ele>
        <time>2020-09-11T14:02:38.701Z</time>
      </trkpt>
      <trkpt lat="43.18053" lon="6.32889">
        <ele>247.6686706543</ele>
        <time>2020-09-11T14:02:46.464Z</time>
      </trkpt>
      <trkpt lat="43.18033" lon="6.3297">
        <ele>237.99813842773</ele>
        <time>2020-09-11T14:02:54.237Z</time>
      </trkpt>
      <trkpt lat="43.18009" lon="6.33031">
        <ele>234.5779876709</ele>
        <time>2020-09-11T14:03:02.018Z</time>
      </trkpt>
      <trkpt lat="43.18007" lon="6.33056">
        <ele>235.11549377441</ele>
        <time>2020-09-11T14:03:09.802Z</time>
      </trkpt>
      <trkpt lat="43.17997" lon="6.3308">
        <ele>230.06405639648</ele>
        <time>2020-09-11T14:03:17.589Z</time>
      </trkpt>
      <trkpt lat="43.17976" lon="6.3308">
        <ele>221.99299621582</ele>
        <time>2020-09-11T14:03:25.379Z</time>
      </trkpt>
      <trkpt lat="43.17977" lon="6.33056">
        <ele>223.7705078125</ele>
        <time>2020-09-11T14:03:33.172Z</time>
      </trkpt>
      <trkpt lat="43.17989" lon="6.33028">
        <ele>227.60954284668</ele>
        <time>2020-09-11T14:03:40.969Z</time>
      </trkpt>
      <trkpt lat="43.18006" lon="6.32985">
        <ele>231.40571594238</ele>
        <time>2020-09-11T14:03:48.772Z</time>
      </trkpt>
      <trkpt lat="43.18004" lon="6.32953">
        <ele>232.48585510254</ele>
        <time>2020-09-11T14:03:56.578Z</time>
      </trkpt>
      <trkpt lat="43.17988" lon="6.32931">
        <ele>228.90086364746</ele>
        <time>2020-09-11T14:04:04.388Z</time>
      </trkpt>
      <trkpt lat="43.17948" lon="6.32894">
        <ele>218.94633483887</ele>
        <time>2020-09-11T14:04:12.206Z</time>
      </trkpt>
      <trkpt lat="43.17935" lon="6.32867">
        <ele>218.53961181641</ele>
        <time>2020-09-11T14:04:20.027Z</time>
      </trkpt>
      <trkpt lat="43.17915" lon="6.32802">
        <ele>222.99633789062</ele>
        <time>2020-09-11T14:04:27.857Z</time>
      </trkpt>
      <trkpt lat="43.17899" lon="6.32776">
        <ele>222.80541992188</ele>
        <time>2020-09-11T14:04:35.691Z</time>
      </trkpt>
      <trkpt lat="43.17868" lon="6.32745">
        <ele>220.58819580078</ele>
        <time>2020-09-11T14:04:43.531Z</time>
      </trkpt>
      <trkpt lat="43.17845" lon="6.32738">
        <ele>217.28408813477</ele>
        <time>2020-09-11T14:04:51.375Z</time>
      </trkpt>
      <trkpt lat="43.17823" lon="6.32742">
        <ele>222.56962585449</ele>
        <time>2020-09-11T14:04:59.222Z</time>
      </trkpt>
      <trkpt lat="43.17806" lon="6.32759">
        <ele>225.22598266602</ele>
        <time>2020-09-11T14:05:07.073Z</time>
      </trkpt>
      <trkpt lat="43.17797" lon="6.3279">
        <ele>223.92012023926</ele>
        <time>2020-09-11T14:05:14.928Z</time>
      </trkpt>
      <trkpt lat="43.17792" lon="6.3282">
        <ele>221.42840576172</ele>
        <time>2020-09-11T14:05:22.786Z</time>
      </trkpt>
      <trkpt lat="43.1778" lon="6.32842">
        <ele>221.02558898926</ele>
        <time>2020-09-11T14:05:30.647Z</time>
      </trkpt>
      <trkpt lat="43.17757" lon="6.32866">
        <ele>222.21447753906</ele>
        <time>2020-09-11T14:05:38.513Z</time>
      </trkpt>
      <trkpt lat="43.17748" lon="6.3289">
        <ele>221.21974182129</ele>
        <time>2020-09-11T14:05:46.382Z</time>
      </trkpt>
      <trkpt lat="43.17734" lon="6.32922">
        <ele>222.95288085938</ele>
        <time>2020-09-11T14:05:54.256Z</time>
      </trkpt>
      <trkpt lat="43.17711" lon="6.32936">
        <ele>230.0676574707</ele>
        <time>2020-09-11T14:06:02.133Z</time>
      </trkpt>
      <trkpt lat="43.17703" lon="6.32952">
        <ele>232.65081787109</ele>
        <time>2020-09-11T14:06:10.013Z</time>
      </trkpt>
      <trkpt lat="43.17717" lon="6.32987">
        <ele>224.8729095459</ele>
        <time>2020-09-11T14:06:17.898Z</time>
      </trkpt>
      <trkpt lat="43.17729" lon="6.33023">
        <ele>219.88053894043</ele>
        <time>2020-09-11T14:06:25.787Z</time>
      </trkpt>
      <trkpt lat="43.17732" lon="6.3305">
        <ele>218.16961669922</ele>
        <time>2020-09-11T14:06:33.679Z</time>
      </trkpt>
      <trkpt lat="43.1773" lon="6.33131">
        <ele>218.83996582031</ele>
        <time>2020-09-11T14:06:41.581Z</time>
      </trkpt>
      <trkpt lat="43.17736" lon="6.33167">
        <ele>214.24606323242</ele>
        <time>2020-09-11T14:06:49.487Z</time>
      </trkpt>
      <trkpt lat="43.17737" lon="6.33205">
        <ele>210.83984375</ele>
        <time>2020-09-11T14:06:57.398Z</time>
      </trkpt>
      <trkpt lat="43.1773" lon="6.33228">
        <ele>209.64329528809</ele>
        <time>2020-09-11T14:07:05.311Z</time>
      </trkpt>
      <trkpt lat="43.17718" lon="6.33244">
        <ele>211.33149719238</ele>
        <time>2020-09-11T14:07:13.227Z</time>
      </trkpt>
      <trkpt lat="43.17702" lon="6.33274">
        <ele>212.34951782227</ele>
        <time>2020-09-11T14:07:21.147Z</time>
      </trkpt>
      <trkpt lat="43.17698" lon="6.33298">
        <ele>209.95352172852</ele>
        <time>2020-09-11T14:07:29.070Z</time>
      </trkpt>
      <trkpt lat="43.17693" lon="6.33347">
        <ele>203.74835205078</ele>
        <time>2020-09-11T14:07:36.999Z</time>
      </trkpt>
      <trkpt lat="43.17687" lon="6.33369">
        <ele>199.97738647461</ele>
        <time>2020-09-11T14:07:44.931Z</time>
      </trkpt>
      <trkpt lat="43.17669" lon="6.33379">
        <ele>197.48654174805</ele>
        <time>2020-09-11T14:07:52.866Z</time>
      </trkpt>
      <trkpt lat="43.17639" lon="6.33385">
        <ele>193.04046630859</ele>
        <time>2020-09-11T14:08:00.806Z</time>
      </trkpt>
      <trkpt lat="43.17614" lon="6.33373">
        <ele>192.50415039062</ele>
        <time>2020-09-11T14:08:08.750Z</time>
      </trkpt>
      <trkpt lat="43.17604" lon="6.33349">
        <ele>195.61763000488</ele>
        <time>2020-09-11T14:08:16.697Z</time>
      </trkpt>
      <trkpt lat="43.17594" lon="6.33327">
        <ele>198.56117248535</ele>
        <time>2020-09-11T14:08:24.647Z</time>
      </trkpt>
      <trkpt lat="43.17577" lon="6.33295">
        <ele>203.04452514648</ele>
        <time>2020-09-11T14:08:32.602Z</time>
      </trkpt>
      <trkpt lat="43.17573" lon="6.33269">
        <ele>206.77351379395</ele>
        <time>2020-09-11T14:08:40.560Z</time>
      </trkpt>
      <trkpt lat="43.17569" lon="6.33231">
        <ele>212.0142364502</ele>
        <time>2020-09-11T14:08:48.523Z</time>
      </trkpt>
      <trkpt lat="43.17557" lon="6.33217">
        <ele>214.94737243652</ele>
        <time>2020-09-11T14:08:56.488Z</time>
      </trkpt>
      <trkpt lat="43.17534" lon="6.33228">
        <ele>211.3395690918</ele>
        <time>2020-09-11T14:09:04.457Z</time>
      </trkpt>
      <trkpt lat="43.17519" lon="6.33243">
        <ele>207.88043212891</ele>
        <time>2020-09-11T14:09:12.429Z</time>
      </trkpt>
      <trkpt lat="43.17483" lon="6.33257">
        <ele>200.70559692383</ele>
        <time>2020-09-11T14:09:20.407Z</time>
      </trkpt>
      <trkpt lat="43.17465" lon="6.33257">
        <ele>198.9370880127</ele>
        <time>2020-09-11T14:09:28.388Z</time>
      </trkpt>
      <trkpt lat="43.1742" lon="6.3324">
        <ele>198.60292053223</ele>
        <time>2020-09-11T14:09:36.376Z</time>
      </trkpt>
      <trkpt lat="43.17388" lon="6.33215">
        <ele>198.10247802734</ele>
        <time>2020-09-11T14:09:44.370Z</time>
      </trkpt>
      <trkpt lat="43.17378" lon="6.33196">
        <ele>199.27708435059</ele>
        <time>2020-09-11T14:09:52.367Z</time>
      </trkpt>
      <trkpt lat="43.17366" lon="6.33153">
        <ele>204.52368164062</ele>
        <time>2020-09-11T14:10:00.369Z</time>
      </trkpt>
      <trkpt lat="43.17354" lon="6.33143">
        <ele>204.16973876953</ele>
        <time>2020-09-11T14:10:08.373Z</time>
      </trkpt>
      <trkpt lat="43.17339" lon="6.33145">
        <ele>201.12098693848</ele>
        <time>2020-09-11T14:10:16.380Z</time>
      </trkpt>
      <trkpt lat="43.17322" lon="6.33149">
        <ele>199.4107208252</ele>
        <time>2020-09-11T14:10:24.390Z</time>
      </trkpt>
      <trkpt lat="43.17307" lon="6.33141">
        <ele>199.93678283691</ele>
        <time>2020-09-11T14:10:32.402Z</time>
      </trkpt>
      <trkpt lat="43.17296" lon="6.33126">
        <ele>202.12760925293</ele>
        <time>2020-09-11T14:10:40.417Z</time>
      </trkpt>
      <trkpt lat="43.17274" lon="6.33081">
        <ele>209.47639465332</ele>
        <time>2020-09-11T14:10:48.438Z</time>
      </trkpt>
      <trkpt lat="43.17261" lon="6.33084">
        <ele>208.1681060791</ele>
        <time>2020-09-11T14:10:56.461Z</time>
      </trkpt>
      <trkpt lat="43.17249" lon="6.33104">
        <ele>205.13020324707</ele>
        <time>2020-09-11T14:11:04.487Z</time>
      </trkpt>
      <trkpt lat="43.17233" lon="6.33137">
        <ele>199.87002563477</ele>
        <time>2020-09-11T14:11:12.518Z</time>
      </trkpt>
      <trkpt lat="43.1722" lon="6.33148">
        <ele>198.41117858887</ele>
        <time>2020-09-11T14:11:20.551Z</time>
      </trkpt>
      <trkpt lat="43.17161" lon="6.33154">
        <ele>199.62309265137</ele>
        <time>2020-09-11T14:11:28.594Z</time>
      </trkpt>
      <trkpt lat="43.17139" lon="6.33147">
        <ele>199.13861083984</ele>
        <time>2020-09-11T14:11:36.640Z</time>
      </trkpt>
      <trkpt lat="43.17126" lon="6.33144">
        <ele>198.51951599121</ele>
        <time>2020-09-11T14:11:44.688Z</time>
      </trkpt>
      <trkpt lat="43.17124" lon="6.3315">
        <ele>198.22651672363</ele>
        <time>2020-09-11T14:11:52.737Z</time>
      </trkpt>
      <trkpt lat="43.17124" lon="6.33158">
        <ele>197.50904846191</ele>
        <time>2020-09-11T14:12:00.787Z</time>
      </trkpt>
      <trkpt lat="43.17137" lon="6.33178">
        <ele>196.45321655273</ele>
        <time>2020-09-11T14:12:08.840Z</time>
      </trkpt>
      <trkpt lat="43.16981" lon="6.33264">
        <ele>196.27149963379</ele>
        <time>2020-09-11T14:12:16.920Z</time>
      </trkpt>
      <trkpt lat="43.16966" lon="6.33268">
        <ele>194.48620605469</ele>
        <time>2020-09-11T14:12:25.003Z</time>
      </trkpt>
      <trkpt lat="43.16961" lon="6.33269">
        <ele>195.03265380859</ele>
        <time>2020-09-11T14:12:33.087Z</time>
      </trkpt>
      <trkpt lat="43.16955" lon="6.3327">
        <ele>195.69375610352</ele>
        <time>2020-09-11T14:12:41.171Z</time>
      </trkpt>
      <trkpt lat="43.16929" lon="6.33279">
        <ele>200.04182434082</ele>
        <time>2020-09-11T14:12:49.260Z</time>
      </trkpt>
      <trkpt lat="43.1692" lon="6.33287">
        <ele>201.56799316406</ele>
        <time>2020-09-11T14:12:57.351Z</time>
      </trkpt>
      <trkpt lat="43.16902" lon="6.33311">
        <ele>206.40872192383</ele>
        <time>2020-09-11T14:13:05.446Z</time>
      </trkpt>
      <trkpt lat="43.16898" lon="6.33317">
        <ele>207.2921295166</ele>
        <time>2020-09-11T14:13:13.541Z</time>
      </trkpt>
      <trkpt lat="43.16893" lon="6.33322">
        <ele>207.96401977539</ele>
        <time>2020-09-11T14:13:21.637Z</time>
      </trkpt>
      <trkpt lat="43.16889" lon="6.33327">
        <ele>208.58792114258</ele>
        <time>2020-09-11T14:13:29.734Z</time>
      </trkpt>
      <trkpt lat="43.16884" lon="6.33332">
        <ele>209.16862487793</ele>
        <time>2020-09-11T14:13:37.832Z</time>
      </trkpt>
      <trkpt lat="43.16867" lon="6.33352">
        <ele>212.72283935547</ele>
        <time>2020-09-11T14:13:45.934Z</time>
      </trkpt>
      <trkpt lat="43.16859" lon="6.33362">
        <ele>215.53517150879</ele>
        <time>2020-09-11T14:13:54.038Z</time>
      </trkpt>
      <trkpt lat="43.16855" lon="6.33368">
        <ele>217.08291625977</ele>
        <time>2020-09-11T14:14:02.143Z</time>
      </trkpt>
      <trkpt lat="43.16846" lon="6.33377">
        <ele>219.58209228516</ele>
        <time>2020-09-11T14:14:10.249Z</time>
      </trkpt>
      <trkpt lat="43.16835" lon="6.33381">
        <ele>222.75338745117</ele>
        <time>2020-09-11T14:14:18.357Z</time>
      </trkpt>
      <trkpt lat="43.16825" lon="6.3338">
        <ele>224.51605224609</ele>
        <time>2020-09-11T14:14:26.467Z</time>
      </trkpt>
      <trkpt lat="43.1682" lon="6.33378">
        <ele>224.95516967773</ele>
        <time>2020-09-11T14:14:34.578Z</time>
      </trkpt>
      <trkpt lat="43.1681" lon="6.33371">
        <ele>224.59762573242</ele>
        <time>2020-09-11T14:14:42.690Z</time>
      </trkpt>
      <trkpt lat="43.16806" lon="6.33366">
        <ele>223.95333862305</ele>
        <time>2020-09-11T14:14:50.803Z</time>
      </trkpt>
      <trkpt lat="43.16798" lon="6.33354">
        <ele>221.78289794922</ele>
        <time>2020-09-11T14:14:58.918Z</time>
      </trkpt>
      <trkpt lat="43.16786" lon="6.33328">
        <ele>216.08009338379</ele>
        <time>2020-09-11T14:15:07.037Z</time>
      </trkpt>
      <trkpt lat="43.16778" lon="6.33317">
        <ele>214.53594970703</ele>
        <time>2020-09-11T14:15:15.158Z</time>
      </trkpt>
      <trkpt lat="43.16768" lon="6.33312">
        <ele>215.05807495117</ele>
        <time>2020-09-11T14:15:23.280Z</time>
      </trkpt>
      <trkpt lat="43.16746" lon="6.33305">
        <ele>219.64196777344</ele>
        <time>2020-09-11T14:15:31.406Z</time>
      </trkpt>
      <trkpt lat="43.16725" lon="6.33293">
        <ele>223.0950012207</ele>
        <time>2020-09-11T14:15:39.536Z</time>
      </trkpt>
      <trkpt lat="43.16718" lon="6.33281">
        <ele>222.93182373047</ele>
        <time>2020-09-11T14:15:47.667Z</time>
      </trkpt>
      <trkpt lat="43.16717" lon="6.33266">
        <ele>220.0791015625</ele>
        <time>2020-09-11T14:15:55.800Z</time>
      </trkpt>
      <trkpt lat="43.1672" lon="6.33228">
        <ele>208.07022094727</ele>
        <time>2020-09-11T14:16:03.938Z</time>
      </trkpt>
      <trkpt lat="43.16718" lon="6.33212">
        <ele>205.39706420898</ele>
        <time>2020-09-11T14:16:12.077Z</time>
      </trkpt>
      <trkpt lat="43.16713" lon="6.33198">
        <ele>204.10368347168</ele>
        <time>2020-09-11T14:16:20.218Z</time>
      </trkpt>
      <trkpt lat="43.16703" lon="6.33186">
        <ele>205.0227355957</ele>
        <time>2020-09-11T14:16:28.361Z</time>
      </trkpt>
      <trkpt lat="43.16698" lon="6.33182">
        <ele>206.29931640625</ele>
        <time>2020-09-11T14:16:36.505Z</time>
      </trkpt>
      <trkpt lat="43.16686" lon="6.33176">
        <ele>209.52197265625</ele>
        <time>2020-09-11T14:16:44.651Z</time>
      </trkpt>
      <trkpt lat="43.16673" lon="6.33177">
        <ele>213.4340057373</ele>
        <time>2020-09-11T14:16:52.799Z</time>
      </trkpt>
      <trkpt lat="43.1666" lon="6.33179">
        <ele>215.33688354492</ele>
        <time>2020-09-11T14:17:00.950Z</time>
      </trkpt>
      <trkpt lat="43.16647" lon="6.33176">
        <ele>216.23432922363</ele>
        <time>2020-09-11T14:17:09.103Z</time>
      </trkpt>
      <trkpt lat="43.16596" lon="6.33139">
        <ele>214.30680847168</ele>
        <time>2020-09-11T14:17:17.265Z</time>
      </trkpt>
      <trkpt lat="43.16578" lon="6.33128">
        <ele>209.93762207031</ele>
        <time>2020-09-11T14:17:25.430Z</time>
      </trkpt>
      <trkpt lat="43.16566" lon="6.33125">
        <ele>207.50630187988</ele>
        <time>2020-09-11T14:17:33.597Z</time>
      </trkpt>
      <trkpt lat="43.16555" lon="6.33127">
        <ele>205.92736816406</ele>
        <time>2020-09-11T14:17:41.766Z</time>
      </trkpt>
      <trkpt lat="43.16543" lon="6.33136">
        <ele>205.52423095703</ele>
        <time>2020-09-11T14:17:49.937Z</time>
      </trkpt>
      <trkpt lat="43.16504" lon="6.33196">
        <ele>209.59159851074</ele>
        <time>2020-09-11T14:17:58.117Z</time>
      </trkpt>
      <trkpt lat="43.16493" lon="6.33217">
        <ele>209.78707885742</ele>
        <time>2020-09-11T14:18:06.300Z</time>
      </trkpt>
      <trkpt lat="43.16485" lon="6.33242">
        <ele>213.52508544922</ele>
        <time>2020-09-11T14:18:14.487Z</time>
      </trkpt>
      <trkpt lat="43.16478" lon="6.33277">
        <ele>218.88578796387</ele>
        <time>2020-09-11T14:18:22.678Z</time>
      </trkpt>
      <trkpt lat="43.1647" lon="6.33291">
        <ele>221.65396118164</ele>
        <time>2020-09-11T14:18:30.871Z</time>
      </trkpt>
      <trkpt lat="43.16458" lon="6.333">
        <ele>222.4686126709</ele>
        <time>2020-09-11T14:18:39.066Z</time>
      </trkpt>
      <trkpt lat="43.16408" lon="6.3332">
        <ele>218.65966796875</ele>
        <time>2020-09-11T14:18:47.270Z</time>
      </trkpt>
      <trkpt lat="43.1638" lon="6.33341">
        <ele>218.66687011719</ele>
        <time>2020-09-11T14:18:55.479Z</time>
      </trkpt>
      <trkpt lat="43.16355" lon="6.33373">
        <ele>221.2018737793</ele>
        <time>2020-09-11T14:19:03.693Z</time>
      </trkpt>
      <trkpt lat="43.16349" lon="6.33377">
        <ele>220.8239440918</ele>
        <time>2020-09-11T14:19:11.908Z</time>
      </trkpt>
      <trkpt lat="43.16342" lon="6.33379">
        <ele>219.92408752441</ele>
        <time>2020-09-11T14:19:20.124Z</time>
      </trkpt>
      <trkpt lat="43.16315" lon="6.33383">
        <ele>213.86701965332</ele>
        <time>2020-09-11T14:19:28.345Z</time>
      </trkpt>
      <trkpt lat="43.16304" lon="6.33391">
        <ele>212.49565124512</ele>
        <time>2020-09-11T14:19:36.568Z</time>
      </trkpt>
      <trkpt lat="43.16295" lon="6.33405">
        <ele>212.66256713867</ele>
        <time>2020-09-11T14:19:44.793Z</time>
      </trkpt>
      <trkpt lat="43.1628" lon="6.33447">
        <ele>215.67677307129</ele>
        <time>2020-09-11T14:19:53.023Z</time>
      </trkpt>
      <trkpt lat="43.16274" lon="6.33472">
        <ele>218.71826171875</ele>
        <time>2020-09-11T14:20:01.256Z</time>
      </trkpt>
      <trkpt lat="43.16274" lon="6.3349">
        <ele>221.03509521484</ele>
        <time>2020-09-11T14:20:09.491Z</time>
      </trkpt>
      <trkpt lat="43.16273" lon="6.33507">
        <ele>222.19372558594</ele>
        <time>2020-09-11T14:20:17.728Z</time>
      </trkpt>
      <trkpt lat="43.16266" lon="6.3352">
        <ele>221.07312011719</ele>
        <time>2020-09-11T14:20:25.967Z</time>
      </trkpt>
      <trkpt lat="43.16252" lon="6.3352">
        <ele>217.55528259277</ele>
        <time>2020-09-11T14:20:34.209Z</time>
      </trkpt>
      <trkpt lat="43.1623" lon="6.33514">
        <ele>211.8514251709</ele>
        <time>2020-09-11T14:20:42.454Z</time>
      </trkpt>
      <trkpt lat="43.16216" lon="6.33518">
        <ele>208.97430419922</ele>
        <time>2020-09-11T14:20:50.701Z</time>
      </trkpt>
      <trkpt lat="43.16206" lon="6.33531">
        <ele>204.50743103027</ele>
        <time>2020-09-11T14:20:58.951Z</time>
      </trkpt>
      <trkpt lat="43.16204" lon="6.33549">
        <ele>202.6957244873</ele>
        <time>2020-09-11T14:21:07.203Z</time>
      </trkpt>
      <trkpt lat="43.1621" lon="6.33566">
        <ele>203.86553955078</ele>
        <time>2020-09-11T14:21:15.457Z</time>
      </trkpt>
      <trkpt lat="43.16229" lon="6.33606">
        <ele>208.50755310059</ele>
        <time>2020-09-11T14:21:23.717Z</time>
      </trkpt>
      <trkpt lat="43.1625" lon="6.33677">
        <ele>210.6378326416</ele>
        <time>2020-09-11T14:21:31.985Z</time>
      </trkpt>
      <trkpt lat="43.16273" lon="6.33743">
        <ele>213.81806945801</ele>
        <time>2020-09-11T14:21:40.262Z</time>
      </trkpt>
      <trkpt lat="43.16299" lon="6.3381">
        <ele>220.35577392578</ele>
        <time>2020-09-11T14:21:48.548Z</time>
      </trkpt>
      <trkpt lat="43.16299" lon="6.3384">
        <ele>218.52474975586</ele>
        <time>2020-09-11T14:21:56.838Z</time>
      </trkpt>
      <trkpt lat="43.16292" lon="6.33879">
        <ele>213.61877441406</ele>
        <time>2020-09-11T14:22:05.132Z</time>
      </trkpt>
      <trkpt lat="43.16292" lon="6.33898">
        <ele>212.52423095703</ele>
        <time>2020-09-11T14:22:13.428Z</time>
      </trkpt>
      <trkpt lat="43.16294" lon="6.33907">
        <ele>212.26387023926</ele>
        <time>2020-09-11T14:22:21.726Z</time>
      </trkpt>
      <trkpt lat="43.16305" lon="6.3393">
        <ele>214.39471435547</ele>
        <time>2020-09-11T14:22:30.027Z</time>
      </trkpt>
      <trkpt lat="43.16317" lon="6.33941">
        <ele>217.99652099609</ele>
        <time>2020-09-11T14:22:38.330Z</time>
      </trkpt>
      <trkpt lat="43.16333" lon="6.3396">
        <ele>222.4225769043</ele>
        <time>2020-09-11T14:22:46.636Z</time>
      </trkpt>
      <trkpt lat="43.16333" lon="6.33979">
        <ele>220.36950683594</ele>
        <time>2020-09-11T14:22:54.945Z</time>
      </trkpt>
      <trkpt lat="43.16325" lon="6.34017">
        <ele>215.52629089355</ele>
        <time>2020-09-11T14:23:03.258Z</time>
      </trkpt>
      <trkpt lat="43.16327" lon="6.34058">
        <ele>214.09718322754</ele>
        <time>2020-09-11T14:23:11.576Z</time>
      </trkpt>
      <trkpt lat="43.16338" lon="6.34116">
        <ele>213.1293182373</ele>
        <time>2020-09-11T14:23:19.901Z</time>
      </trkpt>
      <trkpt lat="43.16359" lon="6.34188">
        <ele>220.15802001953</ele>
        <time>2020-09-11T14:23:28.235Z</time>
      </trkpt>
      <trkpt lat="43.16362" lon="6.34198">
        <ele>221.47061157227</ele>
        <time>2020-09-11T14:23:36.570Z</time>
      </trkpt>
      <trkpt lat="43.16362" lon="6.34218">
        <ele>221.54379272461</ele>
        <time>2020-09-11T14:23:44.908Z</time>
      </trkpt>
      <trkpt lat="43.16351" lon="6.34264">
        <ele>218.20193481445</ele>
        <time>2020-09-11T14:23:53.252Z</time>
      </trkpt>
      <trkpt lat="43.1635" lon="6.34283">
        <ele>220.14921569824</ele>
        <time>2020-09-11T14:24:01.598Z</time>
      </trkpt>
      <trkpt lat="43.16357" lon="6.34344">
        <ele>229.27778625488</ele>
        <time>2020-09-11T14:24:09.951Z</time>
      </trkpt>
      <trkpt lat="43.16368" lon="6.34411">
        <ele>242.19961547852</ele>
        <time>2020-09-11T14:24:18.312Z</time>
      </trkpt>
      <trkpt lat="43.16356" lon="6.34436">
        <ele>246.88580322266</ele>
        <time>2020-09-11T14:24:26.676Z</time>
      </trkpt>
      <trkpt lat="43.16342" lon="6.34437">
        <ele>246.78633117676</ele>
        <time>2020-09-11T14:24:35.043Z</time>
      </trkpt>
      <trkpt lat="43.16305" lon="6.34397">
        <ele>238.20703125</ele>
        <time>2020-09-11T14:24:43.417Z</time>
      </trkpt>
      <trkpt lat="43.16261" lon="6.3437">
        <ele>234.99952697754</ele>
        <time>2020-09-11T14:24:51.799Z</time>
      </trkpt>
      <trkpt lat="43.16209" lon="6.34345">
        <ele>236.01336669922</ele>
        <time>2020-09-11T14:25:00.190Z</time>
      </trkpt>
      <trkpt lat="43.16156" lon="6.34314">
        <ele>231.22024536133</ele>
        <time>2020-09-11T14:25:08.590Z</time>
      </trkpt>
      <trkpt lat="43.16129" lon="6.34302">
        <ele>229.33055114746</ele>
        <time>2020-09-11T14:25:16.995Z</time>
      </trkpt>
      <trkpt lat="43.16115" lon="6.34304">
        <ele>229.0498046875</ele>
        <time>2020-09-11T14:25:25.402Z</time>
      </trkpt>
      <trkpt lat="43.16104" lon="6.34314">
        <ele>229.32334899902</ele>
        <time>2020-09-11T14:25:33.811Z</time>
      </trkpt>
      <trkpt lat="43.16085" lon="6.3433">
        <ele>226.28485107422</ele>
        <time>2020-09-11T14:25:42.223Z</time>
      </trkpt>
      <trkpt lat="43.1607" lon="6.34334">
        <ele>225.31181335449</ele>
        <time>2020-09-11T14:25:50.638Z</time>
      </trkpt>
      <trkpt lat="43.16009" lon="6.34338">
        <ele>220.9736328125</ele>
        <time>2020-09-11T14:25:59.063Z</time>
      </trkpt>
      <trkpt lat="43.15983" lon="6.34354">
        <ele>218.17930603027</ele>
        <time>2020-09-11T14:26:07.492Z</time>
      </trkpt>
      <trkpt lat="43.15957" lon="6.34374">
        <ele>213.30195617676</ele>
        <time>2020-09-11T14:26:15.926Z</time>
      </trkpt>
      <trkpt lat="43.15925" lon="6.34373">
        <ele>214.40217590332</ele>
        <time>2020-09-11T14:26:24.365Z</time>
      </trkpt>
      <trkpt lat="43.15904" lon="6.34369">
        <ele>219.23977661133</ele>
        <time>2020-09-11T14:26:32.808Z</time>
      </trkpt>
      <trkpt lat="43.1585" lon="6.34394">
        <ele>213.96716308594</ele>
        <time>2020-09-11T14:26:41.260Z</time>
      </trkpt>
      <trkpt lat="43.15793" lon="6.34422">
        <ele>210.07887268066</ele>
        <time>2020-09-11T14:26:49.721Z</time>
      </trkpt>
      <trkpt lat="43.15732" lon="6.34445">
        <ele>210.95886230469</ele>
        <time>2020-09-11T14:26:58.193Z</time>
      </trkpt>
      <trkpt lat="43.15721" lon="6.34454">
        <ele>209.84950256348</ele>
        <time>2020-09-11T14:27:06.667Z</time>
      </trkpt>
      <trkpt lat="43.1571" lon="6.34463">
        <ele>208.4097442627</ele>
        <time>2020-09-11T14:27:15.143Z</time>
      </trkpt>
      <trkpt lat="43.15655" lon="6.34508">
        <ele>203.35008239746</ele>
        <time>2020-09-11T14:27:23.629Z</time>
      </trkpt>
      <trkpt lat="43.15645" lon="6.34518">
        <ele>202.01231384277</ele>
        <time>2020-09-11T14:27:32.117Z</time>
      </trkpt>
      <trkpt lat="43.1563" lon="6.34535">
        <ele>199.66909790039</ele>
        <time>2020-09-11T14:27:40.608Z</time>
      </trkpt>
      <trkpt lat="43.15626" lon="6.34542">
        <ele>198.65286254883</ele>
        <time>2020-09-11T14:27:49.100Z</time>
      </trkpt>
      <trkpt lat="43.15594" lon="6.34593">
        <ele>192.30741882324</ele>
        <time>2020-09-11T14:27:57.600Z</time>
      </trkpt>
      <trkpt lat="43.15568" lon="6.34629">
        <ele>181.56921386719</ele>
        <time>2020-09-11T14:28:06.106Z</time>
      </trkpt>
      <trkpt lat="43.1556" lon="6.34654">
        <ele>176.76550292969</ele>
        <time>2020-09-11T14:28:14.615Z</time>
      </trkpt>
      <trkpt lat="43.15561" lon="6.34681">
        <ele>176.39836120605</ele>
        <time>2020-09-11T14:28:23.127Z</time>
      </trkpt>
      <trkpt lat="43.15558" lon="6.34703">
        <ele>175.8413848877</ele>
        <time>2020-09-11T14:28:31.642Z</time>
      </trkpt>
      <trkpt lat="43.15547" lon="6.3471">
        <ele>174.74836730957</ele>
        <time>2020-09-11T14:28:40.159Z</time>
      </trkpt>
      <trkpt lat="43.15541" lon="6.34686">
        <ele>172.77709960938</ele>
        <time>2020-09-11T14:28:48.679Z</time>
      </trkpt>
      <trkpt lat="43.15539" lon="6.34638">
        <ele>174.05485534668</ele>
        <time>2020-09-11T14:28:57.204Z</time>
      </trkpt>
      <trkpt lat="43.15529" lon="6.34615">
        <ele>175.78857421875</ele>
        <time>2020-09-11T14:29:05.733Z</time>
      </trkpt>
      <trkpt lat="43.15513" lon="6.34596">
        <ele>175.35424804688</ele>
        <time>2020-09-11T14:29:14.265Z</time>
      </trkpt>
      <trkpt lat="43.15492" lon="6.34584">
        <ele>172.00364685059</ele>
        <time>2020-09-11T14:29:22.801Z</time>
      </trkpt>
      <trkpt lat="43.15458" lon="6.3457">
        <ele>165.78147888184</ele>
        <time>2020-09-11T14:29:31.342Z</time>
      </trkpt>
      <trkpt lat="43.15405" lon="6.34533">
        <ele>166.16287231445</ele>
        <time>2020-09-11T14:29:39.893Z</time>
      </trkpt>
      <trkpt lat="43.15394" lon="6.3453">
        <ele>165.88401794434</ele>
        <time>2020-09-11T14:29:48.446Z</time>
      </trkpt>
      <trkpt lat="43.1537" lon="6.34525">
        <ele>165.75204467773</ele>
        <time>2020-09-11T14:29:57.002Z</time>
      </trkpt>
      <trkpt lat="43.15312" lon="6.34527">
        <ele>160.90725708008</ele>
        <time>2020-09-11T14:30:05.568Z</time>
      </trkpt>
      <trkpt lat="43.15301" lon="6.34529">
        <ele>160.00775146484</ele>
        <time>2020-09-11T14:30:14.136Z</time>
      </trkpt>
      <trkpt lat="43.15279" lon="6.3454">
        <ele>157.00224304199</ele>
        <time>2020-09-11T14:30:22.707Z</time>
      </trkpt>
      <trkpt lat="43.15226" lon="6.34566">
        <ele>144.20152282715</ele>
        <time>2020-09-11T14:30:31.287Z</time>
      </trkpt>
      <trkpt lat="43.15216" lon="6.34568">
        <ele>141.93989562988</ele>
        <time>2020-09-11T14:30:39.869Z</time>
      </trkpt>
      <trkpt lat="43.15188" lon="6.34557">
        <ele>139.08868408203</ele>
        <time>2020-09-11T14:30:48.456Z</time>
      </trkpt>
      <trkpt lat="43.15155" lon="6.34519">
        <ele>141.40740966797</ele>
        <time>2020-09-11T14:30:57.049Z</time>
      </trkpt>
      <trkpt lat="43.15149" lon="6.34492">
        <ele>145.51672363281</ele>
        <time>2020-09-11T14:31:05.646Z</time>
      </trkpt>
      <trkpt lat="43.15143" lon="6.34451">
        <ele>147.9102935791</ele>
        <time>2020-09-11T14:31:14.248Z</time>
      </trkpt>
      <trkpt lat="43.15143" lon="6.34427">
        <ele>148.32865905762</ele>
        <time>2020-09-11T14:31:22.852Z</time>
      </trkpt>
      <trkpt lat="43.15157" lon="6.34404">
        <ele>149.96398925781</ele>
        <time>2020-09-11T14:31:31.460Z</time>
      </trkpt>
      <trkpt lat="43.15184" lon="6.34368">
        <ele>151.03712463379</ele>
        <time>2020-09-11T14:31:40.074Z</time>
      </trkpt>
      <trkpt lat="43.15191" lon="6.34354">
        <ele>151.44145202637</ele>
        <time>2020-09-11T14:31:48.690Z</time>
      </trkpt>
      <trkpt lat="43.15189" lon="6.34347">
        <ele>150.16246032715</ele>
        <time>2020-09-11T14:31:57.307Z</time>
      </trkpt>
      <trkpt lat="43.15186" lon="6.34342">
        <ele>148.8918762207</ele>
        <time>2020-09-11T14:32:05.925Z</time>
      </trkpt>
      <trkpt lat="43.1517" lon="6.34352">
        <ele>146.30169677734</ele>
        <time>2020-09-11T14:32:14.545Z</time>
      </trkpt>
      <trkpt lat="43.15156" lon="6.34378">
        <ele>146.39079284668</ele>
        <time>2020-09-11T14:32:23.169Z</time>
      </trkpt>
      <trkpt lat="43.15146" lon="6.34386">
        <ele>146.80592346191</ele>
        <time>2020-09-11T14:32:31.795Z</time>
      </trkpt>
      <trkpt lat="43.15133" lon="6.34387">
        <ele>145.88447570801</ele>
        <time>2020-09-11T14:32:40.423Z</time>
      </trkpt>
      <trkpt lat="43.15099" lon="6.34392">
        <ele>143.4596862793</ele>
        <time>2020-09-11T14:32:49.056Z</time>
      </trkpt>
      <trkpt lat="43.15053" lon="6.34398">
        <ele>138.0862121582</ele>
        <time>2020-09-11T14:32:57.697Z</time>
      </trkpt>
      <trkpt lat="43.15039" lon="6.34391">
        <ele>135.45867919922</ele>
        <time>2020-09-11T14:33:06.340Z</time>
      </trkpt>
      <trkpt lat="43.15019" lon="6.34375">
        <ele>131.24618530273</ele>
        <time>2020-09-11T14:33:14.987Z</time>
      </trkpt>
      <trkpt lat="43.15004" lon="6.34375">
        <ele>128.56871032715</ele>
        <time>2020-09-11T14:33:23.636Z</time>
      </trkpt>
      <trkpt lat="43.14991" lon="6.34389">
        <ele>124.93146514893</ele>
        <time>2020-09-11T14:33:32.288Z</time>
      </trkpt>
      <trkpt lat="43.14985" lon="6.34408">
        <ele>122.45101928711</ele>
        <time>2020-09-11T14:33:40.942Z</time>
      </trkpt>
      <trkpt lat="43.14975" lon="6.34485">
        <ele>119.89675140381</ele>
        <time>2020-09-11T14:33:49.606Z</time>
      </trkpt>
      <trkpt lat="43.14963" lon="6.34568">
        <ele>119.54074859619</ele>
        <time>2020-09-11T14:33:58.279Z</time>
      </trkpt>
      <trkpt lat="43.1495" lon="6.34647">
        <ele>123.19474029541</ele>
        <time>2020-09-11T14:34:06.962Z</time>
      </trkpt>
      <trkpt lat="43.14942" lon="6.3468">
        <ele>117.79416656494</ele>
        <time>2020-09-11T14:34:15.649Z</time>
      </trkpt>
      <trkpt lat="43.14931" lon="6.34688">
        <ele>115.49055480957</ele>
        <time>2020-09-11T14:34:24.338Z</time>
      </trkpt>
      <trkpt lat="43.14919" lon="6.34676">
        <ele>114.33345031738</ele>
        <time>2020-09-11T14:34:33.029Z</time>
      </trkpt>
      <trkpt lat="43.14918" lon="6.34665">
        <ele>114.9669418335</ele>
        <time>2020-09-11T14:34:41.722Z</time>
      </trkpt>
      <trkpt lat="43.14921" lon="6.34653">
        <ele>116.3443145752</ele>
        <time>2020-09-11T14:34:50.416Z</time>
      </trkpt>
      <trkpt lat="43.14926" lon="6.34642">
        <ele>116.81742858887</ele>
        <time>2020-09-11T14:34:59.112Z</time>
      </trkpt>
      <trkpt lat="43.14931" lon="6.34632">
        <ele>116.56944274902</ele>
        <time>2020-09-11T14:35:07.809Z</time>
      </trkpt>
      <trkpt lat="43.14941" lon="6.3461">
        <ele>115.65039825439</ele>
        <time>2020-09-11T14:35:16.509Z</time>
      </trkpt>
      <trkpt lat="43.14946" lon="6.34599">
        <ele>115.18607330322</ele>
        <time>2020-09-11T14:35:25.211Z</time>
      </trkpt>
      <trkpt lat="43.1495" lon="6.34588">
        <ele>114.48538970947</ele>
        <time>2020-09-11T14:35:33.914Z</time>
      </trkpt>
      <trkpt lat="43.14952" lon="6.34576">
        <ele>115.41943359375</ele>
        <time>2020-09-11T14:35:42.619Z</time>
      </trkpt>
      <trkpt lat="43.14955" lon="6.34551">
        <ele>115.69077301025</ele>
        <time>2020-09-11T14:35:51.327Z</time>
      </trkpt>
      <trkpt lat="43.14955" lon="6.34526">
        <ele>114.42738342285</ele>
        <time>2020-09-11T14:36:00.037Z</time>
      </trkpt>
      <trkpt lat="43.14955" lon="6.34514">
        <ele>113.70750427246</ele>
        <time>2020-09-11T14:36:08.749Z</time>
      </trkpt>
      <trkpt lat="43.14956" lon="6.34432">
        <ele>111.81250762939</ele>
        <time>2020-09-11T14:36:17.470Z</time>
      </trkpt>
      <trkpt lat="43.14955" lon="6.34397">
        <ele>110.50866699219</ele>
        <time>2020-09-11T14:36:26.196Z</time>
      </trkpt>
      <trkpt lat="43.1495" lon="6.34375">
        <ele>109.85597991943</ele>
        <time>2020-09-11T14:36:34.924Z</time>
      </trkpt>
      <trkpt lat="43.14934" lon="6.34318">
        <ele>106.87032318115</ele>
        <time>2020-09-11T14:36:43.659Z</time>
      </trkpt>
      <trkpt lat="43.14935" lon="6.34293">
        <ele>107.34127044678</ele>
        <time>2020-09-11T14:36:52.397Z</time>
      </trkpt>
      <trkpt lat="43.14937" lon="6.34256">
        <ele>108.70904541016</ele>
        <time>2020-09-11T14:37:01.140Z</time>
      </trkpt>
      <trkpt lat="43.14928" lon="6.34235">
        <ele>106.9909286499</ele>
        <time>2020-09-11T14:37:09.886Z</time>
      </trkpt>
      <trkpt lat="43.14912" lon="6.34228">
        <ele>101.9098739624</ele>
        <time>2020-09-11T14:37:18.634Z</time>
      </trkpt>
      <trkpt lat="43.14898" lon="6.34239">
        <ele>96.64514160156</ele>
        <time>2020-09-11T14:37:27.385Z</time>
      </trkpt>
      <trkpt lat="43.14896" lon="6.3426">
        <ele>95.27136993408</ele>
        <time>2020-09-11T14:37:36.138Z</time>
      </trkpt>
      <trkpt lat="43.149" lon="6.34284">
        <ele>95.97565460205</ele>
        <time>2020-09-11T14:37:44.894Z</time>
      </trkpt>
      <trkpt lat="43.14922" lon="6.3436">
        <ele>100.40540313721</ele>
        <time>2020-09-11T14:37:53.660Z</time>
      </trkpt>
      <trkpt lat="43.14922" lon="6.34387">
        <ele>98.74967956543</ele>
        <time>2020-09-11T14:38:02.429Z</time>
      </trkpt>
      <trkpt lat="43.1492" lon="6.34471">
        <ele>98.26486206055</ele>
        <time>2020-09-11T14:38:11.208Z</time>
      </trkpt>
      <trkpt lat="43.14917" lon="6.34557">
        <ele>102.23403167725</ele>
        <time>2020-09-11T14:38:19.997Z</time>
      </trkpt>
      <trkpt lat="43.14905" lon="6.34606">
        <ele>106.17280578613</ele>
        <time>2020-09-11T14:38:28.792Z</time>
      </trkpt>
      <trkpt lat="43.14892" lon="6.3461">
        <ele>103.14211273193</ele>
        <time>2020-09-11T14:38:37.589Z</time>
      </trkpt>
      <trkpt lat="43.14884" lon="6.34598">
        <ele>99.42993164062</ele>
        <time>2020-09-11T14:38:46.388Z</time>
      </trkpt>
      <trkpt lat="43.14901" lon="6.34527">
        <ele>94.95032501221</ele>
        <time>2020-09-11T14:38:55.196Z</time>
      </trkpt>
      <trkpt lat="43.14904" lon="6.34501">
        <ele>94.29163360596</ele>
        <time>2020-09-11T14:39:04.007Z</time>
      </trkpt>
      <trkpt lat="43.14902" lon="6.34473">
        <ele>92.2195892334</ele>
        <time>2020-09-11T14:39:12.821Z</time>
      </trkpt>
      <trkpt lat="43.14889" lon="6.34391">
        <ele>86.99752044678</ele>
        <time>2020-09-11T14:39:21.645Z</time>
      </trkpt>
      <trkpt lat="43.14885" lon="6.34377">
        <ele>86.20445251465</ele>
        <time>2020-09-11T14:39:30.471Z</time>
      </trkpt>
      <trkpt lat="43.14872" lon="6.34355">
        <ele>82.68183898926</ele>
        <time>2020-09-11T14:39:39.300Z</time>
      </trkpt>
      <trkpt lat="43.14859" lon="6.34332">
        <ele>79.11843109131</ele>
        <time>2020-09-11T14:39:48.132Z</time>
      </trkpt>
      <trkpt lat="43.1485" lon="6.34306">
        <ele>77.29791259766</ele>
        <time>2020-09-11T14:39:56.968Z</time>
      </trkpt>
      <trkpt lat="43.14848" lon="6.34277">
        <ele>77.61106109619</ele>
        <time>2020-09-11T14:40:05.807Z</time>
      </trkpt>
      <trkpt lat="43.14848" lon="6.34219">
        <ele>80.31227874756</ele>
        <time>2020-09-11T14:40:14.653Z</time>
      </trkpt>
      <trkpt lat="43.1484" lon="6.34192">
        <ele>79.71439361572</ele>
        <time>2020-09-11T14:40:23.502Z</time>
      </trkpt>
      <trkpt lat="43.14826" lon="6.3417">
        <ele>77.93148803711</ele>
        <time>2020-09-11T14:40:32.355Z</time>
      </trkpt>
      <trkpt lat="43.1478" lon="6.34127">
        <ele>71.81186676025</ele>
        <time>2020-09-11T14:40:41.217Z</time>
      </trkpt>
      <trkpt lat="43.14761" lon="6.34112">
        <ele>69.52978515625</ele>
        <time>2020-09-11T14:40:50.082Z</time>
      </trkpt>
      <trkpt lat="43.14729" lon="6.34096">
        <ele>66.68266296387</ele>
        <time>2020-09-11T14:40:58.953Z</time>
      </trkpt>
      <trkpt lat="43.14687" lon="6.34071">
        <ele>63.46120071411</ele>
        <time>2020-09-11T14:41:07.831Z</time>
      </trkpt>
      <trkpt lat="43.14671" lon="6.34048">
        <ele>63.10549163818</ele>
        <time>2020-09-11T14:41:16.713Z</time>
      </trkpt>
      <trkpt lat="43.14649" lon="6.34013">
        <ele>62.17204666138</ele>
        <time>2020-09-11T14:41:25.600Z</time>
      </trkpt>
      <trkpt lat="43.14617" lon="6.33982">
        <ele>59.52888870239</ele>
        <time>2020-09-11T14:41:34.493Z</time>
      </trkpt>
      <trkpt lat="43.14572" lon="6.33938">
        <ele>57.22970199585</ele>
        <time>2020-09-11T14:41:43.395Z</time>
      </trkpt>
      <trkpt lat="43.14548" lon="6.33922">
        <ele>55.94112014771</ele>
        <time>2020-09-11T14:41:52.302Z</time>
      </trkpt>
      <trkpt lat="43.14494" lon="6.339">
        <ele>51.83963775635</ele>
        <time>2020-09-11T14:42:01.218Z</time>
      </trkpt>
      <trkpt lat="43.14486" lon="6.33895">
        <ele>51.18291091919</ele>
        <time>2020-09-11T14:42:10.135Z</time>
      </trkpt>
      <trkpt lat="43.14476" lon="6.33878">
        <ele>50.71978759766</ele>
        <time>2020-09-11T14:42:19.055Z</time>
      </trkpt>
      <trkpt lat="43.1446" lon="6.33832">
        <ele>50.55317687988</ele>
        <time>2020-09-11T14:42:27.980Z</time>
      </trkpt>
      <trkpt lat="43.1445" lon="6.33821">
        <ele>49.79730224609</ele>
        <time>2020-09-11T14:42:36.908Z</time>
      </trkpt>
      <trkpt lat="43.14437" lon="6.33825">
        <ele>48.67772674561</ele>
        <time>2020-09-11T14:42:45.838Z</time>
      </trkpt>
      <trkpt lat="43.14423" lon="6.33829">
        <ele>46.99482727051</ele>
        <time>2020-09-11T14:42:54.770Z</time>
      </trkpt>
      <trkpt lat="43.14389" lon="6.33831">
        <ele>44.86758422852</ele>
        <time>2020-09-11T14:43:03.708Z</time>
      </trkpt>
      <trkpt lat="43.14326" lon="6.33831">
        <ele>41.29748153687</ele>
        <time>2020-09-11T14:43:12.656Z</time>
      </trkpt>
      <trkpt lat="43.14269" lon="6.33836">
        <ele>37.38237380981</ele>
        <time>2020-09-11T14:43:21.613Z</time>
      </trkpt>
      <trkpt lat="43.14252" lon="6.33834">
        <ele>36.60010528564</ele>
        <time>2020-09-11T14:43:30.572Z</time>
      </trkpt>
      <trkpt lat="43.1424" lon="6.33818">
        <ele>36.00500488281</ele>
        <time>2020-09-11T14:43:39.534Z</time>
      </trkpt>
      <trkpt lat="43.14238" lon="6.33795">
        <ele>35.20752716064</ele>
        <time>2020-09-11T14:43:48.499Z</time>
      </trkpt>
      <trkpt lat="43.14241" lon="6.33782">
        <ele>34.76652145386</ele>
        <time>2020-09-11T14:43:57.465Z</time>
      </trkpt>
      <trkpt lat="43.14246" lon="6.3377">
        <ele>34.37898635864</ele>
        <time>2020-09-11T14:44:06.433Z</time>
      </trkpt>
      <trkpt lat="43.14272" lon="6.33727">
        <ele>33.55974578857</ele>
        <time>2020-09-11T14:44:15.407Z</time>
      </trkpt>
      <trkpt lat="43.1428" lon="6.33712">
        <ele>33.73611831665</ele>
        <time>2020-09-11T14:44:24.384Z</time>
      </trkpt>
      <trkpt lat="43.14298" lon="6.33706">
        <ele>34.66596221924</ele>
        <time>2020-09-11T14:44:33.364Z</time>
      </trkpt>
      <trkpt lat="43.14305" lon="6.33589">
        <ele>32.42446136475</ele>
        <time>2020-09-11T14:44:42.357Z</time>
      </trkpt>
      <trkpt lat="43.14305" lon="6.33582">
        <ele>32.18210220337</ele>
        <time>2020-09-11T14:44:51.351Z</time>
      </trkpt>
      <trkpt lat="43.14303" lon="6.33575">
        <ele>31.89295005798</ele>
        <time>2020-09-11T14:45:00.346Z</time>
      </trkpt>
      <trkpt lat="43.14299" lon="6.33536">
        <ele>31.46273231506</ele>
        <time>2020-09-11T14:45:09.346Z</time>
      </trkpt>
      <trkpt lat="43.14294" lon="6.33514">
        <ele>31.41276550293</ele>
        <time>2020-09-11T14:45:18.348Z</time>
      </trkpt>
      <trkpt lat="43.14293" lon="6.33506">
        <ele>31.53274726868</ele>
        <time>2020-09-11T14:45:27.351Z</time>
      </trkpt>
      <trkpt lat="43.14283" lon="6.33476">
        <ele>31.90948295593</ele>
        <time>2020-09-11T14:45:36.358Z</time>
      </trkpt>
      <trkpt lat="43.14272" lon="6.33448">
        <ele>32.189037323</ele>
        <time>2020-09-11T14:45:45.369Z</time>
      </trkpt>
      <trkpt lat="43.14269" lon="6.3344">
        <ele>32.2610244751</ele>
        <time>2020-09-11T14:45:54.381Z</time>
      </trkpt>
      <trkpt lat="43.14267" lon="6.33433">
        <ele>32.34981155396</ele>
        <time>2020-09-11T14:46:03.394Z</time>
      </trkpt>
      <trkpt lat="43.14259" lon="6.33412">
        <ele>32.51580047607</ele>
        <time>2020-09-11T14:46:12.410Z</time>
      </trkpt>
      <trkpt lat="43.14247" lon="6.33383">
        <ele>32.36303710938</ele>
        <time>2020-09-11T14:46:21.429Z</time>
      </trkpt>
      <trkpt lat="43.14243" lon="6.33368">
        <ele>32.42062759399</ele>
        <time>2020-09-11T14:46:30.450Z</time>
      </trkpt>
      <trkpt lat="43.14235" lon="6.33339">
        <ele>32.54300689697</ele>
        <time>2020-09-11T14:46:39.475Z</time>
      </trkpt>
      <trkpt lat="43.14232" lon="6.33324">
        <ele>32.67978286743</ele>
        <time>2020-09-11T14:46:48.502Z</time>
      </trkpt>
      <trkpt lat="43.1423" lon="6.33308">
        <ele>32.78042602539</ele>
        <time>2020-09-11T14:46:57.531Z</time>
      </trkpt>
      <trkpt lat="43.14229" lon="6.33293">
        <ele>32.73723220825</ele>
        <time>2020-09-11T14:47:06.562Z</time>
      </trkpt>
      <trkpt lat="43.14231" lon="6.33271">
        <ele>33.13732528687</ele>
        <time>2020-09-11T14:47:15.595Z</time>
      </trkpt>
      <trkpt lat="43.14233" lon="6.33249">
        <ele>33.87160491943</ele>
        <time>2020-09-11T14:47:24.631Z</time>
      </trkpt>
      <trkpt lat="43.14234" lon="6.33242">
        <ele>34.17155456543</ele>
        <time>2020-09-11T14:47:33.668Z</time>
      </trkpt>
      <trkpt lat="43.14243" lon="6.3321">
        <ele>35.24811553955</ele>
        <time>2020-09-11T14:47:42.709Z</time>
      </trkpt>
      <trkpt lat="43.1425" lon="6.33192">
        <ele>36.80305480957</ele>
        <time>2020-09-11T14:47:51.752Z</time>
      </trkpt>
      <trkpt lat="43.14258" lon="6.33176">
        <ele>38.53436660767</ele>
        <time>2020-09-11T14:48:00.797Z</time>
      </trkpt>
      <trkpt lat="43.14276" lon="6.33151">
        <ele>42.38720703125</ele>
        <time>2020-09-11T14:48:09.846Z</time>
      </trkpt>
      <trkpt lat="43.14279" lon="6.33146">
        <ele>43.09694290161</ele>
        <time>2020-09-11T14:48:18.896Z</time>
      </trkpt>
      <trkpt lat="43.14295" lon="6.33129">
        <ele>45.37896347046</ele>
        <time>2020-09-11T14:48:27.949Z</time>
      </trkpt>
      <trkpt lat="43.14323" lon="6.33111">
        <ele>48.70410919189</ele>
        <time>2020-09-11T14:48:37.007Z</time>
      </trkpt>
      <trkpt lat="43.14353" lon="6.33097">
        <ele>50.71257781982</ele>
        <time>2020-09-11T14:48:46.070Z</time>
      </trkpt>
      <trkpt lat="43.14406" lon="6.33064">
        <ele>48.52785110474</ele>
        <time>2020-09-11T14:48:55.143Z</time>
      </trkpt>
      <trkpt lat="43.14415" lon="6.33056">
        <ele>47.93257141113</ele>
        <time>2020-09-11T14:49:04.217Z</time>
      </trkpt>
      <trkpt lat="43.14419" lon="6.33052">
        <ele>47.82637405396</ele>
        <time>2020-09-11T14:49:13.292Z</time>
      </trkpt>
      <trkpt lat="43.14451" lon="6.33001">
        <ele>48.52596282959</ele>
        <time>2020-09-11T14:49:22.375Z</time>
      </trkpt>
      <trkpt lat="43.14469" lon="6.32927">
        <ele>48.33861923218</ele>
        <time>2020-09-11T14:49:31.467Z</time>
      </trkpt>
      <trkpt lat="43.14478" lon="6.32886">
        <ele>48.94368362427</ele>
        <time>2020-09-11T14:49:40.564Z</time>
      </trkpt>
      <trkpt lat="43.14485" lon="6.32849">
        <ele>48.33554458618</ele>
        <time>2020-09-11T14:49:49.666Z</time>
      </trkpt>
      <trkpt lat="43.14497" lon="6.3278">
        <ele>45.97821044922</ele>
        <time>2020-09-11T14:49:58.776Z</time>
      </trkpt>
      <trkpt lat="43.14513" lon="6.32733">
        <ele>44.4839553833</ele>
        <time>2020-09-11T14:50:07.892Z</time>
      </trkpt>
      <trkpt lat="43.14547" lon="6.32666">
        <ele>46.11719894409</ele>
        <time>2020-09-11T14:50:17.018Z</time>
      </trkpt>
      <trkpt lat="43.14577" lon="6.32606">
        <ele>43.02634429932</ele>
        <time>2020-09-11T14:50:26.152Z</time>
      </trkpt>
      <trkpt lat="43.14612" lon="6.32539">
        <ele>38.53225326538</ele>
        <time>2020-09-11T14:50:35.296Z</time>
      </trkpt>
      <trkpt lat="43.14637" lon="6.32468">
        <ele>37.25221252441</ele>
        <time>2020-09-11T14:50:44.449Z</time>
      </trkpt>
      <trkpt lat="43.1465" lon="6.32403">
        <ele>36.15919494629</ele>
        <time>2020-09-11T14:50:53.610Z</time>
      </trkpt>
      <trkpt lat="43.14662" lon="6.3233">
        <ele>36.86014175415</ele>
        <time>2020-09-11T14:51:02.780Z</time>
      </trkpt>
      <trkpt lat="43.14675" lon="6.32258">
        <ele>39.11458587646</ele>
        <time>2020-09-11T14:51:11.958Z</time>
      </trkpt>
      <trkpt lat="43.14692" lon="6.32178">
        <ele>40.74938201904</ele>
        <time>2020-09-11T14:51:21.146Z</time>
      </trkpt>
      <trkpt lat="43.14693" lon="6.32168">
        <ele>40.75537872314</ele>
        <time>2020-09-11T14:51:30.335Z</time>
      </trkpt>
      <trkpt lat="43.14695" lon="6.32157">
        <ele>41.1873588562</ele>
        <time>2020-09-11T14:51:39.526Z</time>
      </trkpt>
      <trkpt lat="43.14697" lon="6.32146">
        <ele>41.74924468994</ele>
        <time>2020-09-11T14:51:48.718Z</time>
      </trkpt>
      <trkpt lat="43.14703" lon="6.32078">
        <ele>40.07877731323</ele>
        <time>2020-09-11T14:51:57.918Z</time>
      </trkpt>
      <trkpt lat="43.14703" lon="6.32046">
        <ele>38.67018127441</ele>
        <time>2020-09-11T14:52:07.122Z</time>
      </trkpt>
      <trkpt lat="43.14694" lon="6.31968">
        <ele>33.78857421875</ele>
        <time>2020-09-11T14:52:16.335Z</time>
      </trkpt>
      <trkpt lat="43.14687" lon="6.31888">
        <ele>33.52295684814</ele>
        <time>2020-09-11T14:52:25.557Z</time>
      </trkpt>
      <trkpt lat="43.14693" lon="6.3181">
        <ele>38.63315963745</ele>
        <time>2020-09-11T14:52:34.788Z</time>
      </trkpt>
      <trkpt lat="43.14719" lon="6.3174">
        <ele>45.41491699219</ele>
        <time>2020-09-11T14:52:44.029Z</time>
      </trkpt>
      <trkpt lat="43.14737" lon="6.31708">
        <ele>46.53035736084</ele>
        <time>2020-09-11T14:52:53.274Z</time>
      </trkpt>
      <trkpt lat="43.14744" lon="6.31695">
        <ele>46.86767578125</ele>
        <time>2020-09-11T14:53:02.521Z</time>
      </trkpt>
      <trkpt lat="43.14747" lon="6.31689">
        <ele>47.05364227295</ele>
        <time>2020-09-11T14:53:11.769Z</time>
      </trkpt>
      <trkpt lat="43.14787" lon="6.3163">
        <ele>49.83944702148</ele>
        <time>2020-09-11T14:53:21.027Z</time>
      </trkpt>
      <trkpt lat="43.14804" lon="6.3161">
        <ele>50.91206741333</ele>
        <time>2020-09-11T14:53:30.288Z</time>
      </trkpt>
      <trkpt lat="43.14828" lon="6.31589">
        <ele>51.18924331665</ele>
        <time>2020-09-11T14:53:39.554Z</time>
      </trkpt>
      <trkpt lat="43.14872" lon="6.31545">
        <ele>51.74320983887</ele>
        <time>2020-09-11T14:53:48.829Z</time>
      </trkpt>
      <trkpt lat="43.14916" lon="6.3151">
        <ele>50.13302993774</ele>
        <time>2020-09-11T14:53:58.112Z</time>
      </trkpt>
      <trkpt lat="43.14926" lon="6.31502">
        <ele>49.66270828247</ele>
        <time>2020-09-11T14:54:07.396Z</time>
      </trkpt>
      <trkpt lat="43.14942" lon="6.3149">
        <ele>50.03281784058</ele>
        <time>2020-09-11T14:54:16.683Z</time>
      </trkpt>
      <trkpt lat="43.14952" lon="6.31481">
        <ele>49.86484527588</ele>
        <time>2020-09-11T14:54:25.972Z</time>
      </trkpt>
      <trkpt lat="43.14995" lon="6.31439">
        <ele>51.71752929688</ele>
        <time>2020-09-11T14:54:35.270Z</time>
      </trkpt>
      <trkpt lat="43.15008" lon="6.31413">
        <ele>53.32166290283</ele>
        <time>2020-09-11T14:54:44.571Z</time>
      </trkpt>
      <trkpt lat="43.15019" lon="6.31383">
        <ele>55.10232543945</ele>
        <time>2020-09-11T14:54:53.876Z</time>
      </trkpt>
      <trkpt lat="43.15031" lon="6.3131">
        <ele>58.30060577393</ele>
        <time>2020-09-11T14:55:03.190Z</time>
      </trkpt>
      <trkpt lat="43.15031" lon="6.31302">
        <ele>58.49737167358</ele>
        <time>2020-09-11T14:55:12.505Z</time>
      </trkpt>
      <trkpt lat="43.15021" lon="6.31222">
        <ele>62.23735427856</ele>
        <time>2020-09-11T14:55:21.830Z</time>
      </trkpt>
      <trkpt lat="43.15021" lon="6.31214">
        <ele>62.46291732788</ele>
        <time>2020-09-11T14:55:31.155Z</time>
      </trkpt>
      <trkpt lat="43.15016" lon="6.31165">
        <ele>63.79949569702</ele>
        <time>2020-09-11T14:55:40.486Z</time>
      </trkpt>
      <trkpt lat="43.15017" lon="6.31132">
        <ele>64.62947845459</ele>
        <time>2020-09-11T14:55:49.821Z</time>
      </trkpt>
      <trkpt lat="43.1502" lon="6.31108">
        <ele>65.43334197998</ele>
        <time>2020-09-11T14:55:59.159Z</time>
      </trkpt>
      <trkpt lat="43.15028" lon="6.31033">
        <ele>67.46354675293</ele>
        <time>2020-09-11T14:56:08.506Z</time>
      </trkpt>
      <trkpt lat="43.15029" lon="6.31017">
        <ele>67.85947418213</ele>
        <time>2020-09-11T14:56:17.855Z</time>
      </trkpt>
      <trkpt lat="43.15038" lon="6.30937">
        <ele>70.46794128418</ele>
        <time>2020-09-11T14:56:27.213Z</time>
      </trkpt>
      <trkpt lat="43.15048" lon="6.30869">
        <ele>71.44631958008</ele>
        <time>2020-09-11T14:56:36.579Z</time>
      </trkpt>
      <trkpt lat="43.15044" lon="6.3081">
        <ele>74.27875518799</ele>
        <time>2020-09-11T14:56:45.952Z</time>
      </trkpt>
      <trkpt lat="43.15039" lon="6.30789">
        <ele>74.91584777832</ele>
        <time>2020-09-11T14:56:55.328Z</time>
      </trkpt>
      <trkpt lat="43.1503" lon="6.30749">
        <ele>76.22869873047</ele>
        <time>2020-09-11T14:57:04.709Z</time>
      </trkpt>
      <trkpt lat="43.15015" lon="6.307">
        <ele>77.91019439697</ele>
        <time>2020-09-11T14:57:14.096Z</time>
      </trkpt>
      <trkpt lat="43.14989" lon="6.3063">
        <ele>81.11973571777</ele>
        <time>2020-09-11T14:57:23.492Z</time>
      </trkpt>
      <trkpt lat="43.1495" lon="6.30572">
        <ele>86.88474273682</ele>
        <time>2020-09-11T14:57:32.897Z</time>
      </trkpt>
      <trkpt lat="43.14942" lon="6.30563">
        <ele>87.95880889893</ele>
        <time>2020-09-11T14:57:42.304Z</time>
      </trkpt>
      <trkpt lat="43.14927" lon="6.30541">
        <ele>88.26644897461</ele>
        <time>2020-09-11T14:57:51.715Z</time>
      </trkpt>
      <trkpt lat="43.14892" lon="6.30481">
        <ele>90.27851867676</ele>
        <time>2020-09-11T14:58:01.135Z</time>
      </trkpt>
      <trkpt lat="43.14869" lon="6.30405">
        <ele>86.39089202881</ele>
        <time>2020-09-11T14:58:10.564Z</time>
      </trkpt>
      <trkpt lat="43.14855" lon="6.30324">
        <ele>81.04702758789</ele>
        <time>2020-09-11T14:58:20.003Z</time>
      </trkpt>
      <trkpt lat="43.14856" lon="6.30245">
        <ele>77.44155883789</ele>
        <time>2020-09-11T14:58:29.451Z</time>
      </trkpt>
      <trkpt lat="43.14861" lon="6.30164">
        <ele>74.43632507324</ele>
        <time>2020-09-11T14:58:38.909Z</time>
      </trkpt>
      <trkpt lat="43.1487" lon="6.30082">
        <ele>71.26873779297</ele>
        <time>2020-09-11T14:58:48.376Z</time>
      </trkpt>
      <trkpt lat="43.14872" lon="6.30059">
        <ele>70.81847381592</ele>
        <time>2020-09-11T14:58:57.846Z</time>
      </trkpt>
      <trkpt lat="43.14878" lon="6.30036">
        <ele>70.07699584961</ele>
        <time>2020-09-11T14:59:07.319Z</time>
      </trkpt>
      <trkpt lat="43.1488" lon="6.30025">
        <ele>69.74584960938</ele>
        <time>2020-09-11T14:59:16.793Z</time>
      </trkpt>
      <trkpt lat="43.1489" lon="6.2999">
        <ele>69.18978881836</ele>
        <time>2020-09-11T14:59:26.272Z</time>
      </trkpt>
      <trkpt lat="43.1491" lon="6.29916">
        <ele>67.84725952148</ele>
        <time>2020-09-11T14:59:35.760Z</time>
      </trkpt>
      <trkpt lat="43.14934" lon="6.29839">
        <ele>67.8207244873</ele>
        <time>2020-09-11T14:59:45.258Z</time>
      </trkpt>
      <trkpt lat="43.14955" lon="6.29767">
        <ele>67.28639984131</ele>
        <time>2020-09-11T14:59:54.765Z</time>
      </trkpt>
      <trkpt lat="43.14962" lon="6.29743">
        <ele>66.68212127686</ele>
        <time>2020-09-11T15:00:04.275Z</time>
      </trkpt>
      <trkpt lat="43.14975" lon="6.29696">
        <ele>64.77473449707</ele>
        <time>2020-09-11T15:00:13.791Z</time>
      </trkpt>
      <trkpt lat="43.14987" lon="6.29621">
        <ele>62.653175354</ele>
        <time>2020-09-11T15:00:23.316Z</time>
      </trkpt>
      <trkpt lat="43.14986" lon="6.29589">
        <ele>61.8037147522</ele>
        <time>2020-09-11T15:00:32.844Z</time>
      </trkpt>
      <trkpt lat="43.14977" lon="6.29511">
        <ele>63.26530456543</ele>
        <time>2020-09-11T15:00:42.382Z</time>
      </trkpt>
      <trkpt lat="43.14974" lon="6.29483">
        <ele>64.11716461182</ele>
        <time>2020-09-11T15:00:51.923Z</time>
      </trkpt>
      <trkpt lat="43.1497" lon="6.29457">
        <ele>64.87423706055</ele>
        <time>2020-09-11T15:01:01.467Z</time>
      </trkpt>
      <trkpt lat="43.14964" lon="6.29406">
        <ele>67.37375640869</ele>
        <time>2020-09-11T15:01:11.017Z</time>
      </trkpt>
      <trkpt lat="43.14959" lon="6.29373">
        <ele>67.92528533936</ele>
        <time>2020-09-11T15:01:20.571Z</time>
      </trkpt>
      <trkpt lat="43.14949" lon="6.29295">
        <ele>68.90860748291</ele>
        <time>2020-09-11T15:01:30.134Z</time>
      </trkpt>
      <trkpt lat="43.14946" lon="6.2928">
        <ele>69.21096038818</ele>
        <time>2020-09-11T15:01:39.699Z</time>
      </trkpt>
      <trkpt lat="43.14947" lon="6.29203">
        <ele>70.41484069824</ele>
        <time>2020-09-11T15:01:49.273Z</time>
      </trkpt>
      <trkpt lat="43.14964" lon="6.29156">
        <ele>70.79476928711</ele>
        <time>2020-09-11T15:01:58.853Z</time>
      </trkpt>
      <trkpt lat="43.14981" lon="6.29106">
        <ele>72.20114135742</ele>
        <time>2020-09-11T15:02:08.440Z</time>
      </trkpt>
      <trkpt lat="43.14987" lon="6.29069">
        <ele>71.67443084717</ele>
        <time>2020-09-11T15:02:18.031Z</time>
      </trkpt>
      <trkpt lat="43.15001" lon="6.2901">
        <ele>74.52027130127</ele>
        <time>2020-09-11T15:02:27.630Z</time>
      </trkpt>
      <trkpt lat="43.15009" lon="6.28968">
        <ele>75.74668121338</ele>
        <time>2020-09-11T15:02:37.234Z</time>
      </trkpt>
      <trkpt lat="43.15025" lon="6.28896">
        <ele>79.23105621338</ele>
        <time>2020-09-11T15:02:46.846Z</time>
      </trkpt>
      <trkpt lat="43.15029" lon="6.2888">
        <ele>80.22088623047</ele>
        <time>2020-09-11T15:02:56.460Z</time>
      </trkpt>
      <trkpt lat="43.1503" lon="6.28871">
        <ele>80.73680114746</ele>
        <time>2020-09-11T15:03:06.075Z</time>
      </trkpt>
      <trkpt lat="43.15032" lon="6.28863">
        <ele>81.24791717529</ele>
        <time>2020-09-11T15:03:15.691Z</time>
      </trkpt>
      <trkpt lat="43.15038" lon="6.28831">
        <ele>83.15322113037</ele>
        <time>2020-09-11T15:03:25.311Z</time>
      </trkpt>
      <trkpt lat="43.15053" lon="6.28752">
        <ele>88.87409973145</ele>
        <time>2020-09-11T15:03:34.941Z</time>
      </trkpt>
      <trkpt lat="43.15061" lon="6.28675">
        <ele>94.50267028809</ele>
        <time>2020-09-11T15:03:44.580Z</time>
      </trkpt>
      <trkpt lat="43.15061" lon="6.28666">
        <ele>94.70303344727</ele>
        <time>2020-09-11T15:03:54.220Z</time>
      </trkpt>
      <trkpt lat="43.1506" lon="6.28602">
        <ele>93.87696838379</ele>
        <time>2020-09-11T15:04:03.868Z</time>
      </trkpt>
      <trkpt lat="43.1505" lon="6.28519">
        <ele>90.67144775391</ele>
        <time>2020-09-11T15:04:13.525Z</time>
      </trkpt>
      <trkpt lat="43.15036" lon="6.28442">
        <ele>87.17316436768</ele>
        <time>2020-09-11T15:04:23.192Z</time>
      </trkpt>
      <trkpt lat="43.15016" lon="6.28363">
        <ele>84.13012695312</ele>
        <time>2020-09-11T15:04:32.868Z</time>
      </trkpt>
      <trkpt lat="43.14998" lon="6.28289">
        <ele>82.05912017822</ele>
        <time>2020-09-11T15:04:42.554Z</time>
      </trkpt>
      <trkpt lat="43.14979" lon="6.2821">
        <ele>79.93096923828</ele>
        <time>2020-09-11T15:04:52.249Z</time>
      </trkpt>
      <trkpt lat="43.14972" lon="6.28184">
        <ele>79</ele>
        <time>2020-09-11T15:05:01.948Z</time>
      </trkpt>
      <trkpt lat="43.14954" lon="6.28111">
        <ele>76.88366699219</ele>
        <time>2020-09-11T15:05:11.656Z</time>
      </trkpt>
      <trkpt lat="43.1495" lon="6.28097">
        <ele>76.055809021</ele>
        <time>2020-09-11T15:05:21.365Z</time>
      </trkpt>
      <trkpt lat="43.14932" lon="6.28023">
        <ele>73.29795837402</ele>
        <time>2020-09-11T15:05:31.083Z</time>
      </trkpt>
      <trkpt lat="43.14912" lon="6.27944">
        <ele>70.71560668945</ele>
        <time>2020-09-11T15:05:40.811Z</time>
      </trkpt>
      <trkpt lat="43.14892" lon="6.27863">
        <ele>67.38571929932</ele>
        <time>2020-09-11T15:05:50.549Z</time>
      </trkpt>
      <trkpt lat="43.14879" lon="6.27781">
        <ele>65.45453643799</ele>
        <time>2020-09-11T15:06:00.297Z</time>
      </trkpt>
      <trkpt lat="43.14869" lon="6.27702">
        <ele>63.64069747925</ele>
        <time>2020-09-11T15:06:10.054Z</time>
      </trkpt>
      <trkpt lat="43.14867" lon="6.27686">
        <ele>63.23036575317</ele>
        <time>2020-09-11T15:06:19.813Z</time>
      </trkpt>
      <trkpt lat="43.14854" lon="6.27609">
        <ele>61.30809402466</ele>
        <time>2020-09-11T15:06:29.582Z</time>
      </trkpt>
      <trkpt lat="43.14846" lon="6.27518">
        <ele>60.35336685181</ele>
        <time>2020-09-11T15:06:39.361Z</time>
      </trkpt>
      <trkpt lat="43.14844" lon="6.27429">
        <ele>59.44214630127</ele>
        <time>2020-09-11T15:06:49.151Z</time>
      </trkpt>
      <trkpt lat="43.14843" lon="6.27415">
        <ele>59.38575744629</ele>
        <time>2020-09-11T15:06:58.942Z</time>
      </trkpt>
      <trkpt lat="43.14834" lon="6.27315">
        <ele>61.56423187256</ele>
        <time>2020-09-11T15:07:08.745Z</time>
      </trkpt>
      <trkpt lat="43.14823" lon="6.27228">
        <ele>60.64594268799</ele>
        <time>2020-09-11T15:07:18.559Z</time>
      </trkpt>
      <trkpt lat="43.14814" lon="6.27142">
        <ele>56.19231414795</ele>
        <time>2020-09-11T15:07:28.383Z</time>
      </trkpt>
      <trkpt lat="43.14808" lon="6.27053">
        <ele>52.49592208862</ele>
        <time>2020-09-11T15:07:38.217Z</time>
      </trkpt>
      <trkpt lat="43.14803" lon="6.26964">
        <ele>50.16192245483</ele>
        <time>2020-09-11T15:07:48.062Z</time>
      </trkpt>
      <trkpt lat="43.14798" lon="6.26884">
        <ele>50.05025100708</ele>
        <time>2020-09-11T15:07:57.916Z</time>
      </trkpt>
      <trkpt lat="43.14791" lon="6.26803">
        <ele>49.90775299072</ele>
        <time>2020-09-11T15:08:07.780Z</time>
      </trkpt>
      <trkpt lat="43.14785" lon="6.26725">
        <ele>47.94510650635</ele>
        <time>2020-09-11T15:08:17.653Z</time>
      </trkpt>
      <trkpt lat="43.14779" lon="6.26664">
        <ele>47.20064544678</ele>
        <time>2020-09-11T15:08:27.533Z</time>
      </trkpt>
      <trkpt lat="43.14772" lon="6.26587">
        <ele>46.47285079956</ele>
        <time>2020-09-11T15:08:37.422Z</time>
      </trkpt>
      <trkpt lat="43.14765" lon="6.2651">
        <ele>45.48966598511</ele>
        <time>2020-09-11T15:08:47.320Z</time>
      </trkpt>
      <trkpt lat="43.1476" lon="6.26467">
        <ele>45.05494308472</ele>
        <time>2020-09-11T15:08:57.223Z</time>
      </trkpt>
      <trkpt lat="43.14755" lon="6.26439">
        <ele>45.36688995361</ele>
        <time>2020-09-11T15:09:07.130Z</time>
      </trkpt>
      <trkpt lat="43.14746" lon="6.2637">
        <ele>46.99496459961</ele>
        <time>2020-09-11T15:09:17.045Z</time>
      </trkpt>
      <trkpt lat="43.14733" lon="6.26286">
        <ele>49.29711914062</ele>
        <time>2020-09-11T15:09:26.970Z</time>
      </trkpt>
      <trkpt lat="43.1472" lon="6.26215">
        <ele>48.41555404663</ele>
        <time>2020-09-11T15:09:36.904Z</time>
      </trkpt>
      <trkpt lat="43.14707" lon="6.26138">
        <ele>45.4388999939</ele>
        <time>2020-09-11T15:09:46.847Z</time>
      </trkpt>
      <trkpt lat="43.14694" lon="6.26064">
        <ele>43.71598815918</ele>
        <time>2020-09-11T15:09:56.799Z</time>
      </trkpt>
      <trkpt lat="43.14681" lon="6.25991">
        <ele>42.86409759521</ele>
        <time>2020-09-11T15:10:06.760Z</time>
      </trkpt>
      <trkpt lat="43.1467" lon="6.25917">
        <ele>38.40953063965</ele>
        <time>2020-09-11T15:10:16.729Z</time>
      </trkpt>
      <trkpt lat="43.14659" lon="6.25842">
        <ele>34.29943084717</ele>
        <time>2020-09-11T15:10:26.707Z</time>
      </trkpt>
      <trkpt lat="43.14645" lon="6.25767">
        <ele>32.60530090332</ele>
        <time>2020-09-11T15:10:36.694Z</time>
      </trkpt>
      <trkpt lat="43.1463" lon="6.25682">
        <ele>31.56497001648</ele>
        <time>2020-09-11T15:10:46.692Z</time>
      </trkpt>
      <trkpt lat="43.14621" lon="6.25625">
        <ele>30.04454994202</ele>
        <time>2020-09-11T15:10:56.696Z</time>
      </trkpt>
      <trkpt lat="43.14612" lon="6.25541">
        <ele>27.04753303528</ele>
        <time>2020-09-11T15:11:06.710Z</time>
      </trkpt>
      <trkpt lat="43.14605" lon="6.25459">
        <ele>26.75936508179</ele>
        <time>2020-09-11T15:11:16.734Z</time>
      </trkpt>
      <trkpt lat="43.146" lon="6.25371">
        <ele>27.33629417419</ele>
        <time>2020-09-11T15:11:26.768Z</time>
      </trkpt>
      <trkpt lat="43.14593" lon="6.25289">
        <ele>25.1075668335</ele>
        <time>2020-09-11T15:11:36.812Z</time>
      </trkpt>
      <trkpt lat="43.14578" lon="6.2521">
        <ele>22.62274932861</ele>
        <time>2020-09-11T15:11:46.866Z</time>
      </trkpt>
      <trkpt lat="43.14553" lon="6.25135">
        <ele>22.02044868469</ele>
        <time>2020-09-11T15:11:56.929Z</time>
      </trkpt>
      <trkpt lat="43.14536" lon="6.25087">
        <ele>21.61679649353</ele>
        <time>2020-09-11T15:12:06.998Z</time>
      </trkpt>
      <trkpt lat="43.14502" lon="6.25018">
        <ele>22.06616210938</ele>
        <time>2020-09-11T15:12:17.077Z</time>
      </trkpt>
      <trkpt lat="43.14461" lon="6.24963">
        <ele>23.58611297607</ele>
        <time>2020-09-11T15:12:27.166Z</time>
      </trkpt>
      <trkpt lat="43.14451" lon="6.24953">
        <ele>23.94965171814</ele>
        <time>2020-09-11T15:12:37.257Z</time>
      </trkpt>
      <trkpt lat="43.14439" lon="6.24948">
        <ele>24.11162567139</ele>
        <time>2020-09-11T15:12:47.349Z</time>
      </trkpt>
      <trkpt lat="43.14427" lon="6.24957">
        <ele>23.75038909912</ele>
        <time>2020-09-11T15:12:57.444Z</time>
      </trkpt>
      <trkpt lat="43.14414" lon="6.24977">
        <ele>22.15961456299</ele>
        <time>2020-09-11T15:13:07.542Z</time>
      </trkpt>
      <trkpt lat="43.14407" lon="6.24992">
        <ele>21.09338378906</ele>
        <time>2020-09-11T15:13:17.642Z</time>
      </trkpt>
      <trkpt lat="43.144" lon="6.24988">
        <ele>20.6578578949</ele>
        <time>2020-09-11T15:13:27.743Z</time>
      </trkpt>
      <trkpt lat="43.14392" lon="6.24977">
        <ele>20.61307144165</ele>
        <time>2020-09-11T15:13:37.846Z</time>
      </trkpt>
      <trkpt lat="43.14378" lon="6.24902">
        <ele>23.40124702454</ele>
        <time>2020-09-11T15:13:47.958Z</time>
      </trkpt>
      <trkpt lat="43.14354" lon="6.24846">
        <ele>25.48977279663</ele>
        <time>2020-09-11T15:13:58.078Z</time>
      </trkpt>
      <trkpt lat="43.1435" lon="6.24839">
        <ele>25.6913394928</ele>
        <time>2020-09-11T15:14:08.199Z</time>
      </trkpt>
      <trkpt lat="43.14322" lon="6.24801">
        <ele>26.40666389465</ele>
        <time>2020-09-11T15:14:18.326Z</time>
      </trkpt>
      <trkpt lat="43.14285" lon="6.2475">
        <ele>27.04090690613</ele>
        <time>2020-09-11T15:14:28.461Z</time>
      </trkpt>
      <trkpt lat="43.14273" lon="6.24728">
        <ele>27.20028686523</ele>
        <time>2020-09-11T15:14:38.600Z</time>
      </trkpt>
      <trkpt lat="43.14268" lon="6.2472">
        <ele>27.41265106201</ele>
        <time>2020-09-11T15:14:48.740Z</time>
      </trkpt>
      <trkpt lat="43.1426" lon="6.24705">
        <ele>27.83218955994</ele>
        <time>2020-09-11T15:14:58.882Z</time>
      </trkpt>
      <trkpt lat="43.14256" lon="6.24697">
        <ele>28.02655792236</ele>
        <time>2020-09-11T15:15:09.025Z</time>
      </trkpt>
      <trkpt lat="43.14252" lon="6.24689">
        <ele>28.24732208252</ele>
        <time>2020-09-11T15:15:19.169Z</time>
      </trkpt>
      <trkpt lat="43.1423" lon="6.24622">
        <ele>29.26254272461</ele>
        <time>2020-09-11T15:15:29.322Z</time>
      </trkpt>
      <trkpt lat="43.14227" lon="6.24612">
        <ele>29.18335533142</ele>
        <time>2020-09-11T15:15:39.476Z</time>
      </trkpt>
      <trkpt lat="43.1422" lon="6.24591">
        <ele>28.86106300354</ele>
        <time>2020-09-11T15:15:49.633Z</time>
      </trkpt>
      <trkpt lat="43.14207" lon="6.24542">
        <ele>28.10158920288</ele>
        <time>2020-09-11T15:15:59.796Z</time>
      </trkpt>
      <trkpt lat="43.14204" lon="6.24533">
        <ele>27.9612121582</ele>
        <time>2020-09-11T15:16:09.960Z</time>
      </trkpt>
      <trkpt lat="43.14201" lon="6.24524">
        <ele>27.81603622437</ele>
        <time>2020-09-11T15:16:20.125Z</time>
      </trkpt>
      <trkpt lat="43.14192" lon="6.24493">
        <ele>27.31896018982</ele>
        <time>2020-09-11T15:16:30.294Z</time>
      </trkpt>
      <trkpt lat="43.1417" lon="6.24418">
        <ele>27.09340858459</ele>
        <time>2020-09-11T15:16:40.473Z</time>
      </trkpt>
      <trkpt lat="43.1415" lon="6.24346">
        <ele>25.73992538452</ele>
        <time>2020-09-11T15:16:50.661Z</time>
      </trkpt>
      <trkpt lat="43.14136" lon="6.24302">
        <ele>25.00691795349</ele>
        <time>2020-09-11T15:17:00.854Z</time>
      </trkpt>
      <trkpt lat="43.14126" lon="6.24269">
        <ele>24.76695823669</ele>
        <time>2020-09-11T15:17:11.051Z</time>
      </trkpt>
      <trkpt lat="43.14116" lon="6.24235">
        <ele>24.33838272095</ele>
        <time>2020-09-11T15:17:21.253Z</time>
      </trkpt>
      <trkpt lat="43.14095" lon="6.24156">
        <ele>23.127784729</ele>
        <time>2020-09-11T15:17:31.465Z</time>
      </trkpt>
      <trkpt lat="43.14074" lon="6.24087">
        <ele>24.17685508728</ele>
        <time>2020-09-11T15:17:41.685Z</time>
      </trkpt>
      <trkpt lat="43.14061" lon="6.24043">
        <ele>25.50417327881</ele>
        <time>2020-09-11T15:17:51.911Z</time>
      </trkpt>
      <trkpt lat="43.1405" lon="6.24002">
        <ele>26.8401260376</ele>
        <time>2020-09-11T15:18:02.142Z</time>
      </trkpt>
      <trkpt lat="43.14034" lon="6.23963">
        <ele>28.45906257629</ele>
        <time>2020-09-11T15:18:12.378Z</time>
      </trkpt>
      <trkpt lat="43.14028" lon="6.23959">
        <ele>28.8777923584</ele>
        <time>2020-09-11T15:18:22.615Z</time>
      </trkpt>
      <trkpt lat="43.1399" lon="6.23929">
        <ele>29.7977142334</ele>
        <time>2020-09-11T15:18:32.859Z</time>
      </trkpt>
      <trkpt lat="43.13945" lon="6.23885">
        <ele>28.61052894592</ele>
        <time>2020-09-11T15:18:43.112Z</time>
      </trkpt>
      <trkpt lat="43.13932" lon="6.23869">
        <ele>27.57390213013</ele>
        <time>2020-09-11T15:18:53.368Z</time>
      </trkpt>
      <trkpt lat="43.1392" lon="6.23868">
        <ele>26.83137893677</ele>
        <time>2020-09-11T15:19:03.626Z</time>
      </trkpt>
      <trkpt lat="43.1392" lon="6.23858">
        <ele>26.54102706909</ele>
        <time>2020-09-11T15:19:13.885Z</time>
      </trkpt>
      <trkpt lat="43.13928" lon="6.23845">
        <ele>26.83002662659</ele>
        <time>2020-09-11T15:19:24.146Z</time>
      </trkpt>
      <trkpt lat="43.13921" lon="6.23818">
        <ele>25.69636726379</ele>
        <time>2020-09-11T15:19:34.410Z</time>
      </trkpt>
      <trkpt lat="43.13907" lon="6.238">
        <ele>24.86718559265</ele>
        <time>2020-09-11T15:19:44.678Z</time>
      </trkpt>
      <trkpt lat="43.13882" lon="6.23731">
        <ele>22.95811843872</ele>
        <time>2020-09-11T15:19:54.955Z</time>
      </trkpt>
      <trkpt lat="43.13861" lon="6.23669">
        <ele>23.11680221558</ele>
        <time>2020-09-11T15:20:05.240Z</time>
      </trkpt>
      <trkpt lat="43.13836" lon="6.23598">
        <ele>23.57384109497</ele>
        <time>2020-09-11T15:20:15.534Z</time>
      </trkpt>
      <trkpt lat="43.13814" lon="6.2353">
        <ele>23.63410377502</ele>
        <time>2020-09-11T15:20:25.837Z</time>
      </trkpt>
      <trkpt lat="43.13793" lon="6.23469">
        <ele>23.26896095276</ele>
        <time>2020-09-11T15:20:36.147Z</time>
      </trkpt>
      <trkpt lat="43.13792" lon="6.23469">
        <ele>23.25816345215</ele>
        <time>2020-09-11T15:20:46.457Z</time>
      </trkpt>
      <trkpt lat="43.13792" lon="6.23465">
        <ele>23.20777130127</ele>
        <time>2020-09-11T15:20:56.768Z</time>
      </trkpt>
      <trkpt lat="43.1379" lon="6.23447">
        <ele>22.96181297302</ele>
        <time>2020-09-11T15:21:07.081Z</time>
      </trkpt>
      <trkpt lat="43.13796" lon="6.2344">
        <ele>22.95461273193</ele>
        <time>2020-09-11T15:21:17.395Z</time>
      </trkpt>
      <trkpt lat="43.13843" lon="6.23396">
        <ele>24.96877098083</ele>
        <time>2020-09-11T15:21:27.719Z</time>
      </trkpt>
      <trkpt lat="43.13859" lon="6.2338">
        <ele>24.79400444031</ele>
        <time>2020-09-11T15:21:38.046Z</time>
      </trkpt>
      <trkpt lat="43.13867" lon="6.23373">
        <ele>24.73881340027</ele>
        <time>2020-09-11T15:21:48.374Z</time>
      </trkpt>
      <trkpt lat="43.13905" lon="6.23346">
        <ele>24.86770439148</ele>
        <time>2020-09-11T15:21:58.709Z</time>
      </trkpt>
      <trkpt lat="43.13909" lon="6.23343">
        <ele>24.93129348755</ele>
        <time>2020-09-11T15:22:09.045Z</time>
      </trkpt>
      <trkpt lat="43.13919" lon="6.23336">
        <ele>25.0752696991</ele>
        <time>2020-09-11T15:22:19.383Z</time>
      </trkpt>
      <trkpt lat="43.13931" lon="6.23324">
        <ele>25.18737411499</ele>
        <time>2020-09-11T15:22:29.723Z</time>
      </trkpt>
      <trkpt lat="43.1394" lon="6.23315">
        <ele>25.3108997345</ele>
        <time>2020-09-11T15:22:40.065Z</time>
      </trkpt>
      <trkpt lat="43.1395" lon="6.23307">
        <ele>25.34428405762</ele>
        <time>2020-09-11T15:22:50.409Z</time>
      </trkpt>
      <trkpt lat="43.13955" lon="6.23303">
        <ele>25.32868766785</ele>
        <time>2020-09-11T15:23:00.754Z</time>
      </trkpt>
      <trkpt lat="43.13959" lon="6.233">
        <ele>25.31428909302</ele>
        <time>2020-09-11T15:23:11.099Z</time>
      </trkpt>
      <trkpt lat="43.13967" lon="6.23293">
        <ele>25.25429916382</ele>
        <time>2020-09-11T15:23:21.446Z</time>
      </trkpt>
      <trkpt lat="43.14015" lon="6.23247">
        <ele>26.32426071167</ele>
        <time>2020-09-11T15:23:31.802Z</time>
      </trkpt>
      <trkpt lat="43.1402" lon="6.23243">
        <ele>26.39505004883</ele>
        <time>2020-09-11T15:23:42.159Z</time>
      </trkpt>
      <trkpt lat="43.14025" lon="6.23239">
        <ele>26.40823554993</ele>
        <time>2020-09-11T15:23:52.517Z</time>
      </trkpt>
      <trkpt lat="43.1403" lon="6.23235">
        <ele>26.37224006653</ele>
        <time>2020-09-11T15:24:02.876Z</time>
      </trkpt>
      <trkpt lat="43.14035" lon="6.23231">
        <ele>26.33264732361</ele>
        <time>2020-09-11T15:24:13.236Z</time>
      </trkpt>
      <trkpt lat="43.14044" lon="6.23221">
        <ele>26.01849365234</ele>
        <time>2020-09-11T15:24:23.598Z</time>
      </trkpt>
      <trkpt lat="43.1405" lon="6.23206">
        <ele>25.37060165405</ele>
        <time>2020-09-11T15:24:33.962Z</time>
      </trkpt>
      <trkpt lat="43.14071" lon="6.23164">
        <ele>23.61529350281</ele>
        <time>2020-09-11T15:24:44.332Z</time>
      </trkpt>
      <trkpt lat="43.14087" lon="6.23157">
        <ele>23.45092010498</ele>
        <time>2020-09-11T15:24:54.705Z</time>
      </trkpt>
      <trkpt lat="43.14106" lon="6.23158">
        <ele>23.6073513031</ele>
        <time>2020-09-11T15:25:05.080Z</time>
      </trkpt>
      <trkpt lat="43.14141" lon="6.23166">
        <ele>23.32164001465</ele>
        <time>2020-09-11T15:25:15.461Z</time>
      </trkpt>
      <trkpt lat="43.14156" lon="6.23161">
        <ele>22.58496284485</ele>
        <time>2020-09-11T15:25:25.845Z</time>
      </trkpt>
      <trkpt lat="43.14207" lon="6.23132">
        <ele>21</ele>
        <time>2020-09-11T15:25:36.238Z</time>
      </trkpt>
      <trkpt lat="43.14259" lon="6.23089">
        <ele>21</ele>
        <time>2020-09-11T15:25:46.640Z</time>
      </trkpt>
      <trkpt lat="43.14289" lon="6.23061">
        <ele>21.35832023621</ele>
        <time>2020-09-11T15:25:57.048Z</time>
      </trkpt>
      <trkpt lat="43.14331" lon="6.23026">
        <ele>22</ele>
        <time>2020-09-11T15:26:07.464Z</time>
      </trkpt>
      <trkpt lat="43.14341" lon="6.23027">
        <ele>22</ele>
        <time>2020-09-11T15:26:17.881Z</time>
      </trkpt>
      <trkpt lat="43.1435" lon="6.23023">
        <ele>22.15166091919</ele>
        <time>2020-09-11T15:26:28.300Z</time>
      </trkpt>
      <trkpt lat="43.14359" lon="6.23012">
        <ele>22.36762428284</ele>
        <time>2020-09-11T15:26:38.721Z</time>
      </trkpt>
      <trkpt lat="43.14385" lon="6.22995">
        <ele>22.68592453003</ele>
        <time>2020-09-11T15:26:49.146Z</time>
      </trkpt>
      <trkpt lat="43.1444" lon="6.2297">
        <ele>22.54619026184</ele>
        <time>2020-09-11T15:26:59.581Z</time>
      </trkpt>
      <trkpt lat="43.14467" lon="6.22958">
        <ele>21.76272010803</ele>
        <time>2020-09-11T15:27:10.020Z</time>
      </trkpt>
      <trkpt lat="43.14522" lon="6.22934">
        <ele>23.07326316833</ele>
        <time>2020-09-11T15:27:20.469Z</time>
      </trkpt>
      <trkpt lat="43.14578" lon="6.22912">
        <ele>24.81947898865</ele>
        <time>2020-09-11T15:27:30.927Z</time>
      </trkpt>
      <trkpt lat="43.14636" lon="6.2289">
        <ele>25.42443466187</ele>
        <time>2020-09-11T15:27:41.394Z</time>
      </trkpt>
      <trkpt lat="43.14695" lon="6.22868">
        <ele>26.09429931641</ele>
        <time>2020-09-11T15:27:51.871Z</time>
      </trkpt>
      <trkpt lat="43.14733" lon="6.22858">
        <ele>26.76394271851</ele>
        <time>2020-09-11T15:28:02.355Z</time>
      </trkpt>
      <trkpt lat="43.14792" lon="6.22845">
        <ele>26.78812789917</ele>
        <time>2020-09-11T15:28:12.848Z</time>
      </trkpt>
      <trkpt lat="43.14829" lon="6.22842">
        <ele>27.64574432373</ele>
        <time>2020-09-11T15:28:23.347Z</time>
      </trkpt>
      <trkpt lat="43.14852" lon="6.22838">
        <ele>28.19045448303</ele>
        <time>2020-09-11T15:28:33.850Z</time>
      </trkpt>
      <trkpt lat="43.14874" lon="6.22833">
        <ele>28.71116638184</ele>
        <time>2020-09-11T15:28:44.356Z</time>
      </trkpt>
      <trkpt lat="43.14931" lon="6.22812">
        <ele>29.96797943115</ele>
        <time>2020-09-11T15:28:54.872Z</time>
      </trkpt>
      <trkpt lat="43.14983" lon="6.22792">
        <ele>29.09240531921</ele>
        <time>2020-09-11T15:29:05.396Z</time>
      </trkpt>
      <trkpt lat="43.15042" lon="6.2277">
        <ele>29.7520942688</ele>
        <time>2020-09-11T15:29:15.930Z</time>
      </trkpt>
      <trkpt lat="43.15098" lon="6.22755">
        <ele>30.52992248535</ele>
        <time>2020-09-11T15:29:26.473Z</time>
      </trkpt>
      <trkpt lat="43.15158" lon="6.22746">
        <ele>32.33668136597</ele>
        <time>2020-09-11T15:29:37.026Z</time>
      </trkpt>
      <trkpt lat="43.1521" lon="6.22735">
        <ele>33.93586349487</ele>
        <time>2020-09-11T15:29:47.587Z</time>
      </trkpt>
      <trkpt lat="43.15234" lon="6.22727">
        <ele>34.65125656128</ele>
        <time>2020-09-11T15:29:58.152Z</time>
      </trkpt>
      <trkpt lat="43.15296" lon="6.22689">
        <ele>34.57792663574</ele>
        <time>2020-09-11T15:30:08.728Z</time>
      </trkpt>
      <trkpt lat="43.1535" lon="6.22651">
        <ele>35.19557952881</ele>
        <time>2020-09-11T15:30:19.314Z</time>
      </trkpt>
      <trkpt lat="43.15371" lon="6.22637">
        <ele>34.35405349731</ele>
        <time>2020-09-11T15:30:29.904Z</time>
      </trkpt>
      <trkpt lat="43.15392" lon="6.22622">
        <ele>33.56818389893</ele>
        <time>2020-09-11T15:30:40.497Z</time>
      </trkpt>
      <trkpt lat="43.1544" lon="6.22585">
        <ele>34.45015335083</ele>
        <time>2020-09-11T15:30:51.099Z</time>
      </trkpt>
      <trkpt lat="43.15491" lon="6.22549">
        <ele>33.08310699463</ele>
        <time>2020-09-11T15:31:01.710Z</time>
      </trkpt>
      <trkpt lat="43.15536" lon="6.22507">
        <ele>32.29559707642</ele>
        <time>2020-09-11T15:31:12.330Z</time>
      </trkpt>
      <trkpt lat="43.15562" lon="6.22481">
        <ele>34.02544784546</ele>
        <time>2020-09-11T15:31:22.955Z</time>
      </trkpt>
      <trkpt lat="43.15617" lon="6.22446">
        <ele>36.27129745483</ele>
        <time>2020-09-11T15:31:33.590Z</time>
      </trkpt>
      <trkpt lat="43.15673" lon="6.22418">
        <ele>38.28052139282</ele>
        <time>2020-09-11T15:31:44.234Z</time>
      </trkpt>
      <trkpt lat="43.15722" lon="6.22372">
        <ele>38.71301269531</ele>
        <time>2020-09-11T15:31:54.888Z</time>
      </trkpt>
      <trkpt lat="43.15761" lon="6.22308">
        <ele>38.09215164185</ele>
        <time>2020-09-11T15:32:05.552Z</time>
      </trkpt>
      <trkpt lat="43.15771" lon="6.2229">
        <ele>38.51720428467</ele>
        <time>2020-09-11T15:32:16.218Z</time>
      </trkpt>
      <trkpt lat="43.15809" lon="6.22225">
        <ele>39.51805114746</ele>
        <time>2020-09-11T15:32:26.894Z</time>
      </trkpt>
      <trkpt lat="43.15826" lon="6.22195">
        <ele>41.47191619873</ele>
        <time>2020-09-11T15:32:37.575Z</time>
      </trkpt>
      <trkpt lat="43.15833" lon="6.2218">
        <ele>40.48208236694</ele>
        <time>2020-09-11T15:32:48.258Z</time>
      </trkpt>
      <trkpt lat="43.15837" lon="6.22172">
        <ele>39.94097137451</ele>
        <time>2020-09-11T15:32:58.942Z</time>
      </trkpt>
      <trkpt lat="43.15845" lon="6.22156">
        <ele>39.0369644165</ele>
        <time>2020-09-11T15:33:09.628Z</time>
      </trkpt>
      <trkpt lat="43.15878" lon="6.22095">
        <ele>43.21245956421</ele>
        <time>2020-09-11T15:33:20.323Z</time>
      </trkpt>
      <trkpt lat="43.15914" lon="6.22036">
        <ele>44.42380142212</ele>
        <time>2020-09-11T15:33:31.027Z</time>
      </trkpt>
      <trkpt lat="43.15956" lon="6.21988">
        <ele>44.10697937012</ele>
        <time>2020-09-11T15:33:41.740Z</time>
      </trkpt>
      <trkpt lat="43.16004" lon="6.21937">
        <ele>45.75632858276</ele>
        <time>2020-09-11T15:33:52.462Z</time>
      </trkpt>
      <trkpt lat="43.16011" lon="6.21931">
        <ele>45.16482925415</ele>
        <time>2020-09-11T15:34:03.186Z</time>
      </trkpt>
      <trkpt lat="43.16026" lon="6.21921">
        <ele>45.39137649536</ele>
        <time>2020-09-11T15:34:13.912Z</time>
      </trkpt>
      <trkpt lat="43.1608" lon="6.21903">
        <ele>42.87601089478</ele>
        <time>2020-09-11T15:34:24.647Z</time>
      </trkpt>
      <trkpt lat="43.16133" lon="6.21881">
        <ele>42.17080688477</ele>
        <time>2020-09-11T15:34:35.391Z</time>
      </trkpt>
      <trkpt lat="43.16186" lon="6.21852">
        <ele>42.83242797852</ele>
        <time>2020-09-11T15:34:46.144Z</time>
      </trkpt>
      <trkpt lat="43.16229" lon="6.21828">
        <ele>44.65132141113</ele>
        <time>2020-09-11T15:34:56.905Z</time>
      </trkpt>
      <trkpt lat="43.16246" lon="6.21819">
        <ele>45.38320159912</ele>
        <time>2020-09-11T15:35:07.669Z</time>
      </trkpt>
      <trkpt lat="43.16252" lon="6.21816">
        <ele>45.62316131592</ele>
        <time>2020-09-11T15:35:18.434Z</time>
      </trkpt>
      <trkpt lat="43.16309" lon="6.21791">
        <ele>45.92254257202</ele>
        <time>2020-09-11T15:35:29.208Z</time>
      </trkpt>
      <trkpt lat="43.16335" lon="6.2178">
        <ele>46.68475341797</ele>
        <time>2020-09-11T15:35:39.987Z</time>
      </trkpt>
      <trkpt lat="43.16384" lon="6.21759">
        <ele>47.3692741394</ele>
        <time>2020-09-11T15:35:50.774Z</time>
      </trkpt>
      <trkpt lat="43.16418" lon="6.21744">
        <ele>46.0758895874</ele>
        <time>2020-09-11T15:36:01.567Z</time>
      </trkpt>
      <trkpt lat="43.16475" lon="6.21723">
        <ele>46.48224258423</ele>
        <time>2020-09-11T15:36:12.369Z</time>
      </trkpt>
      <trkpt lat="43.16529" lon="6.21701">
        <ele>47.41949081421</ele>
        <time>2020-09-11T15:36:23.180Z</time>
      </trkpt>
      <trkpt lat="43.16563" lon="6.21685">
        <ele>48.52001571655</ele>
        <time>2020-09-11T15:36:33.997Z</time>
      </trkpt>
      <trkpt lat="43.16569" lon="6.21682">
        <ele>48.56081008911</ele>
        <time>2020-09-11T15:36:44.815Z</time>
      </trkpt>
      <trkpt lat="43.16606" lon="6.21665">
        <ele>48.91049575806</ele>
        <time>2020-09-11T15:36:55.639Z</time>
      </trkpt>
      <trkpt lat="43.16626" lon="6.21656">
        <ele>49</ele>
        <time>2020-09-11T15:37:06.466Z</time>
      </trkpt>
      <trkpt lat="43.16677" lon="6.21633">
        <ele>49.594871521</ele>
        <time>2020-09-11T15:37:17.302Z</time>
      </trkpt>
      <trkpt lat="43.16696" lon="6.21626">
        <ele>50.35787200928</ele>
        <time>2020-09-11T15:37:28.141Z</time>
      </trkpt>
      <trkpt lat="43.16702" lon="6.21624">
        <ele>50.62422943115</ele>
        <time>2020-09-11T15:37:38.981Z</time>
      </trkpt>
      <trkpt lat="43.16708" lon="6.21621">
        <ele>50.90738296509</ele>
        <time>2020-09-11T15:37:49.822Z</time>
      </trkpt>
      <trkpt lat="43.16714" lon="6.21618">
        <ele>51.20013046265</ele>
        <time>2020-09-11T15:38:00.664Z</time>
      </trkpt>
      <trkpt lat="43.16733" lon="6.2161">
        <ele>51.91226577759</ele>
        <time>2020-09-11T15:38:11.509Z</time>
      </trkpt>
      <trkpt lat="43.1677" lon="6.21598">
        <ele>52.68792724609</ele>
        <time>2020-09-11T15:38:22.360Z</time>
      </trkpt>
      <trkpt lat="43.16792" lon="6.21593">
        <ele>52.87149810791</ele>
        <time>2020-09-11T15:38:33.215Z</time>
      </trkpt>
      <trkpt lat="43.1685" lon="6.21599">
        <ele>54.33986282349</ele>
        <time>2020-09-11T15:38:44.079Z</time>
      </trkpt>
      <trkpt lat="43.16905" lon="6.21601">
        <ele>54.4232635498</ele>
        <time>2020-09-11T15:38:54.952Z</time>
      </trkpt>
      <trkpt lat="43.16958" lon="6.21599">
        <ele>55.25472259521</ele>
        <time>2020-09-11T15:39:05.834Z</time>
      </trkpt>
      <trkpt lat="43.16996" lon="6.21591">
        <ele>58.29400253296</ele>
        <time>2020-09-11T15:39:16.722Z</time>
      </trkpt>
      <trkpt lat="43.17021" lon="6.21586">
        <ele>59.89159011841</ele>
        <time>2020-09-11T15:39:27.614Z</time>
      </trkpt>
      <trkpt lat="43.1707" lon="6.21577">
        <ele>57.85385131836</ele>
        <time>2020-09-11T15:39:38.514Z</time>
      </trkpt>
      <trkpt lat="43.17087" lon="6.21574">
        <ele>56.80042648315</ele>
        <time>2020-09-11T15:39:49.416Z</time>
      </trkpt>
      <trkpt lat="43.17098" lon="6.21572">
        <ele>56.55949401855</ele>
        <time>2020-09-11T15:40:00.320Z</time>
      </trkpt>
      <trkpt lat="43.17109" lon="6.21569">
        <ele>57.00548171997</ele>
        <time>2020-09-11T15:40:11.226Z</time>
      </trkpt>
      <trkpt lat="43.17127" lon="6.21565">
        <ele>57.31863021851</ele>
        <time>2020-09-11T15:40:22.135Z</time>
      </trkpt>
      <trkpt lat="43.17139" lon="6.21562">
        <ele>57.55303955078</ele>
        <time>2020-09-11T15:40:33.046Z</time>
      </trkpt>
      <trkpt lat="43.17195" lon="6.21546">
        <ele>58.40027999878</ele>
        <time>2020-09-11T15:40:43.966Z</time>
      </trkpt>
      <trkpt lat="43.17208" lon="6.21543">
        <ele>58.58504867554</ele>
        <time>2020-09-11T15:40:54.888Z</time>
      </trkpt>
      <trkpt lat="43.17221" lon="6.21546">
        <ele>58.70742797852</ele>
        <time>2020-09-11T15:41:05.812Z</time>
      </trkpt>
      <trkpt lat="43.17228" lon="6.2155">
        <ele>58.73742294312</ele>
        <time>2020-09-11T15:41:16.737Z</time>
      </trkpt>
      <trkpt lat="43.17268" lon="6.21576">
        <ele>58.38879013062</ele>
        <time>2020-09-11T15:41:27.670Z</time>
      </trkpt>
      <trkpt lat="43.17275" lon="6.21579">
        <ele>58.34439849854</ele>
        <time>2020-09-11T15:41:38.604Z</time>
      </trkpt>
      <trkpt lat="43.17295" lon="6.21584">
        <ele>58.06928634644</ele>
        <time>2020-09-11T15:41:49.541Z</time>
      </trkpt>
      <trkpt lat="43.17317" lon="6.21587">
        <ele>57.73694229126</ele>
        <time>2020-09-11T15:42:00.481Z</time>
      </trkpt>
      <trkpt lat="43.17359" lon="6.21595">
        <ele>57.38468551636</ele>
        <time>2020-09-11T15:42:11.428Z</time>
      </trkpt>
      <trkpt lat="43.17405" lon="6.21598">
        <ele>57.5686416626</ele>
        <time>2020-09-11T15:42:22.383Z</time>
      </trkpt>
      <trkpt lat="43.17428" lon="6.21596">
        <ele>57.59143829346</ele>
        <time>2020-09-11T15:42:33.341Z</time>
      </trkpt>
      <trkpt lat="43.17485" lon="6.21584">
        <ele>57.19904327393</ele>
        <time>2020-09-11T15:42:44.309Z</time>
      </trkpt>
      <trkpt lat="43.17544" lon="6.21571">
        <ele>58.29003143311</ele>
        <time>2020-09-11T15:42:55.286Z</time>
      </trkpt>
      <trkpt lat="43.17602" lon="6.21556">
        <ele>59.34922027588</ele>
        <time>2020-09-11T15:43:06.273Z</time>
      </trkpt>
      <trkpt lat="43.17655" lon="6.21518">
        <ele>60.92986297607</ele>
        <time>2020-09-11T15:43:17.269Z</time>
      </trkpt>
      <trkpt lat="43.17706" lon="6.21476">
        <ele>61.74132919312</ele>
        <time>2020-09-11T15:43:28.275Z</time>
      </trkpt>
      <trkpt lat="43.17758" lon="6.21433">
        <ele>63.58755493164</ele>
        <time>2020-09-11T15:43:39.290Z</time>
      </trkpt>
      <trkpt lat="43.17802" lon="6.21387">
        <ele>66.51864624023</ele>
        <time>2020-09-11T15:43:50.314Z</time>
      </trkpt>
      <trkpt lat="43.17848" lon="6.21332">
        <ele>67.23026275635</ele>
        <time>2020-09-11T15:44:01.348Z</time>
      </trkpt>
      <trkpt lat="43.17868" lon="6.21322">
        <ele>67.94844055176</ele>
        <time>2020-09-11T15:44:12.385Z</time>
      </trkpt>
      <trkpt lat="43.17896" lon="6.21322">
        <ele>67.2357635498</ele>
        <time>2020-09-11T15:44:23.427Z</time>
      </trkpt>
      <trkpt lat="43.1795" lon="6.21347">
        <ele>66.90714263916</ele>
        <time>2020-09-11T15:44:34.478Z</time>
      </trkpt>
      <trkpt lat="43.18003" lon="6.21385">
        <ele>66.89373016357</ele>
        <time>2020-09-11T15:44:45.539Z</time>
      </trkpt>
      <trkpt lat="43.18047" lon="6.21431">
        <ele>66.14456176758</ele>
        <time>2020-09-11T15:44:56.609Z</time>
      </trkpt>
      <trkpt lat="43.18086" lon="6.21469">
        <ele>65.24591064453</ele>
        <time>2020-09-11T15:45:07.686Z</time>
      </trkpt>
      <trkpt lat="43.18141" lon="6.21483">
        <ele>66.78392791748</ele>
        <time>2020-09-11T15:45:18.772Z</time>
      </trkpt>
      <trkpt lat="43.18199" lon="6.21488">
        <ele>67.88362121582</ele>
        <time>2020-09-11T15:45:29.867Z</time>
      </trkpt>
      <trkpt lat="43.18257" lon="6.21485">
        <ele>67.9220199585</ele>
        <time>2020-09-11T15:45:40.972Z</time>
      </trkpt>
      <trkpt lat="43.18316" lon="6.2148">
        <ele>68.61671447754</ele>
        <time>2020-09-11T15:45:52.086Z</time>
      </trkpt>
      <trkpt lat="43.18331" lon="6.2148">
        <ele>68.80867767334</ele>
        <time>2020-09-11T15:46:03.202Z</time>
      </trkpt>
      <trkpt lat="43.18381" lon="6.21473">
        <ele>69.61552429199</ele>
        <time>2020-09-11T15:46:14.327Z</time>
      </trkpt>
      <trkpt lat="43.18437" lon="6.21458">
        <ele>71.34211730957</ele>
        <time>2020-09-11T15:46:25.461Z</time>
      </trkpt>
      <trkpt lat="43.18495" lon="6.21438">
        <ele>73.27885437012</ele>
        <time>2020-09-11T15:46:36.604Z</time>
      </trkpt>
      <trkpt lat="43.18508" lon="6.2143">
        <ele>73.54760742188</ele>
        <time>2020-09-11T15:46:47.750Z</time>
      </trkpt>
      <trkpt lat="43.1852" lon="6.21419">
        <ele>74.68927764893</ele>
        <time>2020-09-11T15:46:58.898Z</time>
      </trkpt>
      <trkpt lat="43.18554" lon="6.21359">
        <ele>80.44956970215</ele>
        <time>2020-09-11T15:47:10.055Z</time>
      </trkpt>
      <trkpt lat="43.18563" lon="6.21341">
        <ele>80.00228881836</ele>
        <time>2020-09-11T15:47:21.214Z</time>
      </trkpt>
      <trkpt lat="43.18582" lon="6.21308">
        <ele>78.14202880859</ele>
        <time>2020-09-11T15:47:32.378Z</time>
      </trkpt>
      <trkpt lat="43.18615" lon="6.21242">
        <ele>84.03393554688</ele>
        <time>2020-09-11T15:47:43.552Z</time>
      </trkpt>
      <trkpt lat="43.18624" lon="6.21226">
        <ele>82.82556915283</ele>
        <time>2020-09-11T15:47:54.728Z</time>
      </trkpt>
      <trkpt lat="43.18651" lon="6.21193">
        <ele>81.50439453125</ele>
        <time>2020-09-11T15:48:05.910Z</time>
      </trkpt>
      <trkpt lat="43.18695" lon="6.21155">
        <ele>77.83020019531</ele>
        <time>2020-09-11T15:48:17.100Z</time>
      </trkpt>
      <trkpt lat="43.18744" lon="6.2111">
        <ele>77.05173492432</ele>
        <time>2020-09-11T15:48:28.300Z</time>
      </trkpt>
      <trkpt lat="43.18799" lon="6.21084">
        <ele>79.21260070801</ele>
        <time>2020-09-11T15:48:39.509Z</time>
      </trkpt>
      <trkpt lat="43.18813" lon="6.21078">
        <ele>79.18380737305</ele>
        <time>2020-09-11T15:48:50.720Z</time>
      </trkpt>
      <trkpt lat="43.18821" lon="6.21074">
        <ele>79.16820526123</ele>
        <time>2020-09-11T15:49:01.932Z</time>
      </trkpt>
      <trkpt lat="43.18877" lon="6.21051">
        <ele>80.52378082275</ele>
        <time>2020-09-11T15:49:13.154Z</time>
      </trkpt>
      <trkpt lat="43.18891" lon="6.21045">
        <ele>81.26885986328</ele>
        <time>2020-09-11T15:49:24.378Z</time>
      </trkpt>
      <trkpt lat="43.18938" lon="6.21025">
        <ele>81.9683303833</ele>
        <time>2020-09-11T15:49:35.610Z</time>
      </trkpt>
      <trkpt lat="43.18993" lon="6.21">
        <ele>83.11654663086</ele>
        <time>2020-09-11T15:49:46.851Z</time>
      </trkpt>
      <trkpt lat="43.19048" lon="6.20976">
        <ele>81.45310211182</ele>
        <time>2020-09-11T15:49:58.102Z</time>
      </trkpt>
      <trkpt lat="43.19102" lon="6.20947">
        <ele>84.14550018311</ele>
        <time>2020-09-11T15:50:09.362Z</time>
      </trkpt>
      <trkpt lat="43.19157" lon="6.20915">
        <ele>85.43188476562</ele>
        <time>2020-09-11T15:50:20.631Z</time>
      </trkpt>
      <trkpt lat="43.19164" lon="6.20913">
        <ele>85.13073730469</ele>
        <time>2020-09-11T15:50:31.902Z</time>
      </trkpt>
      <trkpt lat="43.19222" lon="6.20913">
        <ele>85.85209655762</ele>
        <time>2020-09-11T15:50:43.182Z</time>
      </trkpt>
      <trkpt lat="43.19278" lon="6.20915">
        <ele>85.82245635986</ele>
        <time>2020-09-11T15:50:54.471Z</time>
      </trkpt>
      <trkpt lat="43.19314" lon="6.20915">
        <ele>85.69065856934</ele>
        <time>2020-09-11T15:51:05.766Z</time>
      </trkpt>
      <trkpt lat="43.19368" lon="6.20924">
        <ele>84.72576904297</ele>
        <time>2020-09-11T15:51:17.069Z</time>
      </trkpt>
      <trkpt lat="43.19423" lon="6.20951">
        <ele>85.47455596924</ele>
        <time>2020-09-11T15:51:28.382Z</time>
      </trkpt>
      <trkpt lat="43.19479" lon="6.20981">
        <ele>86.20162200928</ele>
        <time>2020-09-11T15:51:39.704Z</time>
      </trkpt>
      <trkpt lat="43.19494" lon="6.20989">
        <ele>87.90173339844</ele>
        <time>2020-09-11T15:51:51.029Z</time>
      </trkpt>
      <trkpt lat="43.19545" lon="6.21012">
        <ele>92.78861236572</ele>
        <time>2020-09-11T15:52:02.362Z</time>
      </trkpt>
      <trkpt lat="43.19553" lon="6.21013">
        <ele>93.37696838379</ele>
        <time>2020-09-11T15:52:13.697Z</time>
      </trkpt>
      <trkpt lat="43.19607" lon="6.21019">
        <ele>95.74462890625</ele>
        <time>2020-09-11T15:52:25.040Z</time>
      </trkpt>
      <trkpt lat="43.19665" lon="6.21024">
        <ele>95.83503723145</ele>
        <time>2020-09-11T15:52:36.393Z</time>
      </trkpt>
      <trkpt lat="43.19717" lon="6.21047">
        <ele>95.19455718994</ele>
        <time>2020-09-11T15:52:47.754Z</time>
      </trkpt>
      <trkpt lat="43.19769" lon="6.21073">
        <ele>94.05617523193</ele>
        <time>2020-09-11T15:52:59.124Z</time>
      </trkpt>
      <trkpt lat="43.19825" lon="6.21104">
        <ele>95.25399780273</ele>
        <time>2020-09-11T15:53:10.504Z</time>
      </trkpt>
      <trkpt lat="43.19865" lon="6.21133">
        <ele>95.89331817627</ele>
        <time>2020-09-11T15:53:21.891Z</time>
      </trkpt>
      <trkpt lat="43.19878" lon="6.21143">
        <ele>95.82852935791</ele>
        <time>2020-09-11T15:53:33.281Z</time>
      </trkpt>
      <trkpt lat="43.1991" lon="6.21171">
        <ele>94.42664337158</ele>
        <time>2020-09-11T15:53:44.677Z</time>
      </trkpt>
      <trkpt lat="43.19956" lon="6.21225">
        <ele>93.95370483398</ele>
        <time>2020-09-11T15:53:56.082Z</time>
      </trkpt>
      <trkpt lat="43.1997" lon="6.21248">
        <ele>94.22966003418</ele>
        <time>2020-09-11T15:54:07.491Z</time>
      </trkpt>
      <trkpt lat="43.20007" lon="6.21305">
        <ele>94.92074584961</ele>
        <time>2020-09-11T15:54:18.909Z</time>
      </trkpt>
      <trkpt lat="43.20019" lon="6.21314">
        <ele>95.27021026611</ele>
        <time>2020-09-11T15:54:30.329Z</time>
      </trkpt>
      <trkpt lat="43.20076" lon="6.21318">
        <ele>97.38306427002</ele>
        <time>2020-09-11T15:54:41.758Z</time>
      </trkpt>
      <trkpt lat="43.20092" lon="6.21321">
        <ele>97.99256134033</ele>
        <time>2020-09-11T15:54:53.190Z</time>
      </trkpt>
      <trkpt lat="43.20097" lon="6.21322">
        <ele>98.42922973633</ele>
        <time>2020-09-11T15:55:04.623Z</time>
      </trkpt>
      <trkpt lat="43.20123" lon="6.21328">
        <ele>101.14990997314</ele>
        <time>2020-09-11T15:55:16.060Z</time>
      </trkpt>
      <trkpt lat="43.20138" lon="6.2133">
        <ele>102.38090515137</ele>
        <time>2020-09-11T15:55:27.499Z</time>
      </trkpt>
      <trkpt lat="43.20163" lon="6.21329">
        <ele>104.08702087402</ele>
        <time>2020-09-11T15:55:38.942Z</time>
      </trkpt>
      <trkpt lat="43.20183" lon="6.21327">
        <ele>105.43337249756</ele>
        <time>2020-09-11T15:55:50.388Z</time>
      </trkpt>
      <trkpt lat="43.20232" lon="6.21325">
        <ele>107.03147888184</ele>
        <time>2020-09-11T15:56:01.842Z</time>
      </trkpt>
      <trkpt lat="43.2029" lon="6.21316">
        <ele>108.32601928711</ele>
        <time>2020-09-11T15:56:13.306Z</time>
      </trkpt>
      <trkpt lat="43.20348" lon="6.21307">
        <ele>111.02541351318</ele>
        <time>2020-09-11T15:56:24.779Z</time>
      </trkpt>
      <trkpt lat="43.20407" lon="6.21299">
        <ele>115.54866027832</ele>
        <time>2020-09-11T15:56:36.261Z</time>
      </trkpt>
      <trkpt lat="43.20442" lon="6.21271">
        <ele>115.26778411865</ele>
        <time>2020-09-11T15:56:47.750Z</time>
      </trkpt>
      <trkpt lat="43.20489" lon="6.2123">
        <ele>114.98987579346</ele>
        <time>2020-09-11T15:56:59.248Z</time>
      </trkpt>
      <trkpt lat="43.20499" lon="6.2122">
        <ele>116.63376617432</ele>
        <time>2020-09-11T15:57:10.748Z</time>
      </trkpt>
      <trkpt lat="43.20534" lon="6.21186">
        <ele>119.0318069458</ele>
        <time>2020-09-11T15:57:22.255Z</time>
      </trkpt>
      <trkpt lat="43.20577" lon="6.21128">
        <ele>120.22966766357</ele>
        <time>2020-09-11T15:57:33.771Z</time>
      </trkpt>
      <trkpt lat="43.20624" lon="6.21084">
        <ele>123.91012573242</ele>
        <time>2020-09-11T15:57:45.296Z</time>
      </trkpt>
      <trkpt lat="43.20657" lon="6.21051">
        <ele>126.71420288086</ele>
        <time>2020-09-11T15:57:56.828Z</time>
      </trkpt>
      <trkpt lat="43.20694" lon="6.21023">
        <ele>125.87377166748</ele>
        <time>2020-09-11T15:58:08.367Z</time>
      </trkpt>
      <trkpt lat="43.2075" lon="6.21002">
        <ele>126.21409606934</ele>
        <time>2020-09-11T15:58:19.915Z</time>
      </trkpt>
      <trkpt lat="43.20771" lon="6.20999">
        <ele>125.47351837158</ele>
        <time>2020-09-11T15:58:31.466Z</time>
      </trkpt>
      <trkpt lat="43.2078" lon="6.21001">
        <ele>125.07878112793</ele>
        <time>2020-09-11T15:58:43.019Z</time>
      </trkpt>
      <trkpt lat="43.20806" lon="6.21015">
        <ele>127.33933258057</ele>
        <time>2020-09-11T15:58:54.576Z</time>
      </trkpt>
      <trkpt lat="43.20829" lon="6.21029">
        <ele>130.09288024902</ele>
        <time>2020-09-11T15:59:06.137Z</time>
      </trkpt>
      <trkpt lat="43.20832" lon="6.21033">
        <ele>130.68437194824</ele>
        <time>2020-09-11T15:59:17.699Z</time>
      </trkpt>
      <trkpt lat="43.20839" lon="6.2104">
        <ele>131.92617797852</ele>
        <time>2020-09-11T15:59:29.262Z</time>
      </trkpt>
      <trkpt lat="43.20849" lon="6.21053">
        <ele>133.6471862793</ele>
        <time>2020-09-11T15:59:40.828Z</time>
      </trkpt>
      <trkpt lat="43.20874" lon="6.21121">
        <ele>137.25761413574</ele>
        <time>2020-09-11T15:59:52.402Z</time>
      </trkpt>
      <trkpt lat="43.20891" lon="6.21196">
        <ele>138.69944763184</ele>
        <time>2020-09-11T16:00:03.986Z</time>
      </trkpt>
      <trkpt lat="43.20909" lon="6.21234">
        <ele>136.46653747559</ele>
        <time>2020-09-11T16:00:15.575Z</time>
      </trkpt>
      <trkpt lat="43.20924" lon="6.21309">
        <ele>134.38258361816</ele>
        <time>2020-09-11T16:00:27.173Z</time>
      </trkpt>
      <trkpt lat="43.20927" lon="6.21321">
        <ele>133.99610900879</ele>
        <time>2020-09-11T16:00:38.773Z</time>
      </trkpt>
      <trkpt lat="43.20932" lon="6.21332">
        <ele>134.23239135742</ele>
        <time>2020-09-11T16:00:50.374Z</time>
      </trkpt>
      <trkpt lat="43.20935" lon="6.21337">
        <ele>134.42796325684</ele>
        <time>2020-09-11T16:01:01.976Z</time>
      </trkpt>
      <trkpt lat="43.20957" lon="6.21383">
        <ele>136.36683654785</ele>
        <time>2020-09-11T16:01:13.584Z</time>
      </trkpt>
      <trkpt lat="43.20987" lon="6.21407">
        <ele>136.59112548828</ele>
        <time>2020-09-11T16:01:25.198Z</time>
      </trkpt>
      <trkpt lat="43.21" lon="6.21413">
        <ele>136.39436340332</ele>
        <time>2020-09-11T16:01:36.814Z</time>
      </trkpt>
      <trkpt lat="43.2101" lon="6.21415">
        <ele>136.05001831055</ele>
        <time>2020-09-11T16:01:48.432Z</time>
      </trkpt>
      <trkpt lat="43.21017" lon="6.21416">
        <ele>136.31597900391</ele>
        <time>2020-09-11T16:02:00.051Z</time>
      </trkpt>
      <trkpt lat="43.2106" lon="6.21415">
        <ele>138.27540588379</ele>
        <time>2020-09-11T16:02:11.677Z</time>
      </trkpt>
      <trkpt lat="43.21068" lon="6.21412">
        <ele>138.19142150879</ele>
        <time>2020-09-11T16:02:23.304Z</time>
      </trkpt>
      <trkpt lat="43.21072" lon="6.21409">
        <ele>138.01866149902</ele>
        <time>2020-09-11T16:02:34.932Z</time>
      </trkpt>
      <trkpt lat="43.21076" lon="6.21407">
        <ele>137.81588745117</ele>
        <time>2020-09-11T16:02:46.560Z</time>
      </trkpt>
      <trkpt lat="43.21085" lon="6.21402">
        <ele>137.56872558594</ele>
        <time>2020-09-11T16:02:58.190Z</time>
      </trkpt>
      <trkpt lat="43.21096" lon="6.21405">
        <ele>138.31539916992</ele>
        <time>2020-09-11T16:03:09.822Z</time>
      </trkpt>
      <trkpt lat="43.21115" lon="6.21421">
        <ele>139.46961975098</ele>
        <time>2020-09-11T16:03:21.457Z</time>
      </trkpt>
      <trkpt lat="43.21134" lon="6.21444">
        <ele>141.53567504883</ele>
        <time>2020-09-11T16:03:33.096Z</time>
      </trkpt>
      <trkpt lat="43.21141" lon="6.21454">
        <ele>142.51710510254</ele>
        <time>2020-09-11T16:03:44.737Z</time>
      </trkpt>
      <trkpt lat="43.21151" lon="6.21478">
        <ele>145.2826385498</ele>
        <time>2020-09-11T16:03:56.381Z</time>
      </trkpt>
      <trkpt lat="43.21175" lon="6.21549">
        <ele>147.57308959961</ele>
        <time>2020-09-11T16:04:08.034Z</time>
      </trkpt>
      <trkpt lat="43.21179" lon="6.2156">
        <ele>147.93086242676</ele>
        <time>2020-09-11T16:04:19.689Z</time>
      </trkpt>
      <trkpt lat="43.21193" lon="6.21597">
        <ele>151.45059204102</ele>
        <time>2020-09-11T16:04:31.349Z</time>
      </trkpt>
      <trkpt lat="43.21198" lon="6.21606">
        <ele>152.19207763672</ele>
        <time>2020-09-11T16:04:43.010Z</time>
      </trkpt>
      <trkpt lat="43.21204" lon="6.21613">
        <ele>152.62760925293</ele>
        <time>2020-09-11T16:04:54.672Z</time>
      </trkpt>
      <trkpt lat="43.21219" lon="6.21627">
        <ele>152.99114990234</ele>
        <time>2020-09-11T16:05:06.337Z</time>
      </trkpt>
      <trkpt lat="43.2126" lon="6.21676">
        <ele>153.04588317871</ele>
        <time>2020-09-11T16:05:18.011Z</time>
      </trkpt>
      <trkpt lat="43.21264" lon="6.21681">
        <ele>153.63764953613</ele>
        <time>2020-09-11T16:05:29.686Z</time>
      </trkpt>
      <trkpt lat="43.2127" lon="6.21694">
        <ele>155.71090698242</ele>
        <time>2020-09-11T16:05:41.362Z</time>
      </trkpt>
      <trkpt lat="43.21271" lon="6.2174">
        <ele>158.13583374023</ele>
        <time>2020-09-11T16:05:53.044Z</time>
      </trkpt>
      <trkpt lat="43.2127" lon="6.21756">
        <ele>157.82388305664</ele>
        <time>2020-09-11T16:06:04.728Z</time>
      </trkpt>
      <trkpt lat="43.21269" lon="6.21762">
        <ele>157.70390319824</ele>
        <time>2020-09-11T16:06:16.412Z</time>
      </trkpt>
      <trkpt lat="43.21257" lon="6.21838">
        <ele>158.55125427246</ele>
        <time>2020-09-11T16:06:28.105Z</time>
      </trkpt>
      <trkpt lat="43.21259" lon="6.21913">
        <ele>163.21044921875</ele>
        <time>2020-09-11T16:06:39.807Z</time>
      </trkpt>
      <trkpt lat="43.21294" lon="6.21957">
        <ele>166.82421875</ele>
        <time>2020-09-11T16:06:51.517Z</time>
      </trkpt>
      <trkpt lat="43.21303" lon="6.21964">
        <ele>167.28494262695</ele>
        <time>2020-09-11T16:07:03.229Z</time>
      </trkpt>
      <trkpt lat="43.21336" lon="6.22025">
        <ele>175.21881103516</ele>
        <time>2020-09-11T16:07:14.949Z</time>
      </trkpt>
      <trkpt lat="43.21362" lon="6.22063">
        <ele>179.1081237793</ele>
        <time>2020-09-11T16:07:26.676Z</time>
      </trkpt>
      <trkpt lat="43.21406" lon="6.22087">
        <ele>179.97796630859</ele>
        <time>2020-09-11T16:07:38.410Z</time>
      </trkpt>
      <trkpt lat="43.21436" lon="6.22102">
        <ele>180.51579284668</ele>
        <time>2020-09-11T16:07:50.149Z</time>
      </trkpt>
      <trkpt lat="43.21477" lon="6.22122">
        <ele>182.63583374023</ele>
        <time>2020-09-11T16:08:01.895Z</time>
      </trkpt>
      <trkpt lat="43.21507" lon="6.22172">
        <ele>190.17420959473</ele>
        <time>2020-09-11T16:08:13.649Z</time>
      </trkpt>
      <trkpt lat="43.2151" lon="6.22181">
        <ele>191.32601928711</ele>
        <time>2020-09-11T16:08:25.404Z</time>
      </trkpt>
      <trkpt lat="43.21514" lon="6.222">
        <ele>194.13191223145</ele>
        <time>2020-09-11T16:08:37.161Z</time>
      </trkpt>
      <trkpt lat="43.21516" lon="6.22209">
        <ele>195.67245483398</ele>
        <time>2020-09-11T16:08:48.919Z</time>
      </trkpt>
      <trkpt lat="43.21521" lon="6.22237">
        <ele>200.53884887695</ele>
        <time>2020-09-11T16:09:00.681Z</time>
      </trkpt>
      <trkpt lat="43.21532" lon="6.2225">
        <ele>203.79934692383</ele>
        <time>2020-09-11T16:09:12.445Z</time>
      </trkpt>
      <trkpt lat="43.21541" lon="6.22241">
        <ele>203.9942779541</ele>
        <time>2020-09-11T16:09:24.211Z</time>
      </trkpt>
      <trkpt lat="43.21543" lon="6.22235">
        <ele>203.34637451172</ele>
        <time>2020-09-11T16:09:35.977Z</time>
      </trkpt>
      <trkpt lat="43.21554" lon="6.22163">
        <ele>193.64106750488</ele>
        <time>2020-09-11T16:09:47.752Z</time>
      </trkpt>
      <trkpt lat="43.21597" lon="6.22114">
        <ele>190.12843322754</ele>
        <time>2020-09-11T16:09:59.536Z</time>
      </trkpt>
      <trkpt lat="43.21608" lon="6.22095">
        <ele>189.9892578125</ele>
        <time>2020-09-11T16:10:11.323Z</time>
      </trkpt>
      <trkpt lat="43.21622" lon="6.22079">
        <ele>190.24826049805</ele>
        <time>2020-09-11T16:10:23.113Z</time>
      </trkpt>
      <trkpt lat="43.21644" lon="6.22049">
        <ele>190.85398864746</ele>
        <time>2020-09-11T16:10:34.908Z</time>
      </trkpt>
      <trkpt lat="43.21651" lon="6.22038">
        <ele>192.44491577148</ele>
        <time>2020-09-11T16:10:46.705Z</time>
      </trkpt>
      <trkpt lat="43.21698" lon="6.22">
        <ele>195.28219604492</ele>
        <time>2020-09-11T16:10:58.510Z</time>
      </trkpt>
      <trkpt lat="43.21746" lon="6.21953">
        <ele>187.52493286133</ele>
        <time>2020-09-11T16:11:10.325Z</time>
      </trkpt>
      <trkpt lat="43.21751" lon="6.21946">
        <ele>187.57891845703</ele>
        <time>2020-09-11T16:11:22.141Z</time>
      </trkpt>
      <trkpt lat="43.21766" lon="6.21919">
        <ele>187.2568359375</ele>
        <time>2020-09-11T16:11:33.961Z</time>
      </trkpt>
      <trkpt lat="43.21773" lon="6.21897">
        <ele>186.91738891602</ele>
        <time>2020-09-11T16:11:45.784Z</time>
      </trkpt>
      <trkpt lat="43.21777" lon="6.21875">
        <ele>186.82369995117</ele>
        <time>2020-09-11T16:11:57.609Z</time>
      </trkpt>
      <trkpt lat="43.21778" lon="6.21864">
        <ele>186.84169006348</ele>
        <time>2020-09-11T16:12:09.436Z</time>
      </trkpt>
      <trkpt lat="43.2178" lon="6.21855">
        <ele>186.73251342773</ele>
        <time>2020-09-11T16:12:21.264Z</time>
      </trkpt>
      <trkpt lat="43.21788" lon="6.2184">
        <ele>185.72227478027</ele>
        <time>2020-09-11T16:12:33.094Z</time>
      </trkpt>
      <trkpt lat="43.21795" lon="6.21839">
        <ele>185.4461517334</ele>
        <time>2020-09-11T16:12:44.925Z</time>
      </trkpt>
      <trkpt lat="43.21846" lon="6.21889">
        <ele>175.0588684082</ele>
        <time>2020-09-11T16:12:56.766Z</time>
      </trkpt>
      <trkpt lat="43.21868" lon="6.21887">
        <ele>173.58671569824</ele>
        <time>2020-09-11T16:13:08.611Z</time>
      </trkpt>
      <trkpt lat="43.21887" lon="6.21876">
        <ele>174.01385498047</ele>
        <time>2020-09-11T16:13:20.459Z</time>
      </trkpt>
      <trkpt lat="43.21902" lon="6.21859">
        <ele>175.79795837402</ele>
        <time>2020-09-11T16:13:32.310Z</time>
      </trkpt>
      <trkpt lat="43.21915" lon="6.21845">
        <ele>177.31449890137</ele>
        <time>2020-09-11T16:13:44.164Z</time>
      </trkpt>
      <trkpt lat="43.21928" lon="6.2185">
        <ele>175.19085693359</ele>
        <time>2020-09-11T16:13:56.020Z</time>
      </trkpt>
      <trkpt lat="43.21938" lon="6.21871">
        <ele>171.88484191895</ele>
        <time>2020-09-11T16:14:07.879Z</time>
      </trkpt>
      <trkpt lat="43.21952" lon="6.2191">
        <ele>165.41311645508</ele>
        <time>2020-09-11T16:14:19.743Z</time>
      </trkpt>
      <trkpt lat="43.21957" lon="6.21922">
        <ele>163.6014251709</ele>
        <time>2020-09-11T16:14:31.609Z</time>
      </trkpt>
      <trkpt lat="43.21988" lon="6.21958">
        <ele>158.89970397949</ele>
        <time>2020-09-11T16:14:43.481Z</time>
      </trkpt>
      <trkpt lat="43.22029" lon="6.2198">
        <ele>154.63580322266</ele>
        <time>2020-09-11T16:14:55.360Z</time>
      </trkpt>
      <trkpt lat="43.22053" lon="6.21984">
        <ele>152.49775695801</ele>
        <time>2020-09-11T16:15:07.243Z</time>
      </trkpt>
      <trkpt lat="43.22074" lon="6.21979">
        <ele>151.5583190918</ele>
        <time>2020-09-11T16:15:19.129Z</time>
      </trkpt>
      <trkpt lat="43.22088" lon="6.21957">
        <ele>153.03411865234</ele>
        <time>2020-09-11T16:15:31.019Z</time>
      </trkpt>
      <trkpt lat="43.22094" lon="6.21929">
        <ele>154.44508361816</ele>
        <time>2020-09-11T16:15:42.912Z</time>
      </trkpt>
      <trkpt lat="43.221" lon="6.21886">
        <ele>156.66519165039</ele>
        <time>2020-09-11T16:15:54.810Z</time>
      </trkpt>
      <trkpt lat="43.22107" lon="6.21895">
        <ele>155.46179199219</ele>
        <time>2020-09-11T16:16:06.710Z</time>
      </trkpt>
      <trkpt lat="43.22116" lon="6.21938">
        <ele>150.60795593262</ele>
        <time>2020-09-11T16:16:18.615Z</time>
      </trkpt>
      <trkpt lat="43.22116" lon="6.21954">
        <ele>149.40335083008</ele>
        <time>2020-09-11T16:16:30.522Z</time>
      </trkpt>
      <trkpt lat="43.22106" lon="6.21994">
        <ele>148.54595947266</ele>
        <time>2020-09-11T16:16:42.434Z</time>
      </trkpt>
      <trkpt lat="43.22068" lon="6.22037">
        <ele>145.8597869873</ele>
        <time>2020-09-11T16:16:54.354Z</time>
      </trkpt>
      <trkpt lat="43.2206" lon="6.22049">
        <ele>146.63725280762</ele>
        <time>2020-09-11T16:17:06.276Z</time>
      </trkpt>
      <trkpt lat="43.22062" lon="6.22061">
        <ele>145.91017150879</ele>
        <time>2020-09-11T16:17:18.199Z</time>
      </trkpt>
      <trkpt lat="43.22074" lon="6.22065">
        <ele>144.11546325684</ele>
        <time>2020-09-11T16:17:30.124Z</time>
      </trkpt>
      <trkpt lat="43.22101" lon="6.22057">
        <ele>141.72389221191</ele>
        <time>2020-09-11T16:17:42.054Z</time>
      </trkpt>
      <trkpt lat="43.22139" lon="6.22041">
        <ele>144.31427001953</ele>
        <time>2020-09-11T16:17:53.990Z</time>
      </trkpt>
      <trkpt lat="43.22193" lon="6.22026">
        <ele>140.27632141113</ele>
        <time>2020-09-11T16:18:05.935Z</time>
      </trkpt>
      <trkpt lat="43.22227" lon="6.22028">
        <ele>137.90071105957</ele>
        <time>2020-09-11T16:18:17.885Z</time>
      </trkpt>
      <trkpt lat="43.22281" lon="6.22047">
        <ele>136.08171081543</ele>
        <time>2020-09-11T16:18:29.844Z</time>
      </trkpt>
      <trkpt lat="43.22314" lon="6.22057">
        <ele>134.50277709961</ele>
        <time>2020-09-11T16:18:41.809Z</time>
      </trkpt>
      <trkpt lat="43.22374" lon="6.2207">
        <ele>132.84223937988</ele>
        <time>2020-09-11T16:18:53.783Z</time>
      </trkpt>
      <trkpt lat="43.22384" lon="6.22074">
        <ele>132.82424926758</ele>
        <time>2020-09-11T16:19:05.759Z</time>
      </trkpt>
      <trkpt lat="43.22438" lon="6.22117">
        <ele>132.56224060059</ele>
        <time>2020-09-11T16:19:17.745Z</time>
      </trkpt>
      <trkpt lat="43.22479" lon="6.2216">
        <ele>130.48471069336</ele>
        <time>2020-09-11T16:19:29.739Z</time>
      </trkpt>
      <trkpt lat="43.22499" lon="6.2217">
        <ele>129.32929992676</ele>
        <time>2020-09-11T16:19:41.737Z</time>
      </trkpt>
      <trkpt lat="43.2255" lon="6.22176">
        <ele>127.79407501221</ele>
        <time>2020-09-11T16:19:53.743Z</time>
      </trkpt>
      <trkpt lat="43.2256" lon="6.22175">
        <ele>127.16897583008</ele>
        <time>2020-09-11T16:20:05.750Z</time>
      </trkpt>
      <trkpt lat="43.2258" lon="6.22161">
        <ele>125.09452056885</ele>
        <time>2020-09-11T16:20:17.761Z</time>
      </trkpt>
      <trkpt lat="43.22617" lon="6.22107">
        <ele>128.63040161133</ele>
        <time>2020-09-11T16:20:29.781Z</time>
      </trkpt>
      <trkpt lat="43.22626" lon="6.22081">
        <ele>129.71424865723</ele>
        <time>2020-09-11T16:20:41.804Z</time>
      </trkpt>
      <trkpt lat="43.22639" lon="6.22045">
        <ele>129.10743713379</ele>
        <time>2020-09-11T16:20:53.832Z</time>
      </trkpt>
      <trkpt lat="43.22682" lon="6.21996">
        <ele>121.98668670654</ele>
        <time>2020-09-11T16:21:05.869Z</time>
      </trkpt>
      <trkpt lat="43.22731" lon="6.21953">
        <ele>124.98783874512</ele>
        <time>2020-09-11T16:21:17.915Z</time>
      </trkpt>
      <trkpt lat="43.22753" lon="6.21925">
        <ele>121.47467041016</ele>
        <time>2020-09-11T16:21:29.966Z</time>
      </trkpt>
      <trkpt lat="43.22788" lon="6.21854">
        <ele>122.62303161621</ele>
        <time>2020-09-11T16:21:42.027Z</time>
      </trkpt>
      <trkpt lat="43.22826" lon="6.21788">
        <ele>120.20515441895</ele>
        <time>2020-09-11T16:21:54.097Z</time>
      </trkpt>
      <trkpt lat="43.22833" lon="6.21778">
        <ele>118.52063751221</ele>
        <time>2020-09-11T16:22:06.169Z</time>
      </trkpt>
      <trkpt lat="43.22854" lon="6.21746">
        <ele>116.62507629395</ele>
        <time>2020-09-11T16:22:18.246Z</time>
      </trkpt>
      <trkpt lat="43.2287" lon="6.21709">
        <ele>115.78556060791</ele>
        <time>2020-09-11T16:22:30.328Z</time>
      </trkpt>
      <trkpt lat="43.22895" lon="6.2163">
        <ele>115.92191314697</ele>
        <time>2020-09-11T16:22:42.420Z</time>
      </trkpt>
      <trkpt lat="43.22919" lon="6.21561">
        <ele>113.62348175049</ele>
        <time>2020-09-11T16:22:54.521Z</time>
      </trkpt>
      <trkpt lat="43.22933" lon="6.21519">
        <ele>110.87478637695</ele>
        <time>2020-09-11T16:23:06.628Z</time>
      </trkpt>
      <trkpt lat="43.22969" lon="6.21464">
        <ele>110.81385040283</ele>
        <time>2020-09-11T16:23:18.743Z</time>
      </trkpt>
      <trkpt lat="43.22997" lon="6.2142">
        <ele>109.51934051514</ele>
        <time>2020-09-11T16:23:30.865Z</time>
      </trkpt>
      <trkpt lat="43.23031" lon="6.21358">
        <ele>109.2487411499</ele>
        <time>2020-09-11T16:23:42.996Z</time>
      </trkpt>
      <trkpt lat="43.23075" lon="6.21312">
        <ele>105.78653717041</ele>
        <time>2020-09-11T16:23:55.136Z</time>
      </trkpt>
      <trkpt lat="43.23085" lon="6.21306">
        <ele>105.7467956543</ele>
        <time>2020-09-11T16:24:07.278Z</time>
      </trkpt>
      <trkpt lat="43.23137" lon="6.21284">
        <ele>107.1524887085</ele>
        <time>2020-09-11T16:24:19.428Z</time>
      </trkpt>
      <trkpt lat="43.23197" lon="6.21262">
        <ele>103.83934783936</ele>
        <time>2020-09-11T16:24:31.588Z</time>
      </trkpt>
      <trkpt lat="43.23255" lon="6.21241">
        <ele>100.5698928833</ele>
        <time>2020-09-11T16:24:43.758Z</time>
      </trkpt>
      <trkpt lat="43.23311" lon="6.21221">
        <ele>100.06394195557</ele>
        <time>2020-09-11T16:24:55.937Z</time>
      </trkpt>
      <trkpt lat="43.23367" lon="6.212">
        <ele>98.57261657715</ele>
        <time>2020-09-11T16:25:08.126Z</time>
      </trkpt>
      <trkpt lat="43.23382" lon="6.21197">
        <ele>97.77115631104</ele>
        <time>2020-09-11T16:25:20.317Z</time>
      </trkpt>
      <trkpt lat="43.2341" lon="6.21197">
        <ele>96.10507202148</ele>
        <time>2020-09-11T16:25:32.513Z</time>
      </trkpt>
      <trkpt lat="43.23436" lon="6.21204">
        <ele>94.52438354492</ele>
        <time>2020-09-11T16:25:44.713Z</time>
      </trkpt>
      <trkpt lat="43.2344" lon="6.21188">
        <ele>92.97424316406</ele>
        <time>2020-09-11T16:25:56.915Z</time>
      </trkpt>
      <trkpt lat="43.23438" lon="6.21168">
        <ele>91.7960357666</ele>
        <time>2020-09-11T16:26:09.119Z</time>
      </trkpt>
      <trkpt lat="43.2343" lon="6.21095">
        <ele>90.97577667236</ele>
        <time>2020-09-11T16:26:21.332Z</time>
      </trkpt>
      <trkpt lat="43.23414" lon="6.21015">
        <ele>92.99642944336</ele>
        <time>2020-09-11T16:26:33.554Z</time>
      </trkpt>
      <trkpt lat="43.23412" lon="6.21006">
        <ele>93.22079467773</ele>
        <time>2020-09-11T16:26:45.778Z</time>
      </trkpt>
      <trkpt lat="43.23399" lon="6.20932">
        <ele>96.19834899902</ele>
        <time>2020-09-11T16:26:58.010Z</time>
      </trkpt>
      <trkpt lat="43.23387" lon="6.20858">
        <ele>96.8384552002</ele>
        <time>2020-09-11T16:27:10.251Z</time>
      </trkpt>
      <trkpt lat="43.23372" lon="6.20784">
        <ele>96.47090148926</ele>
        <time>2020-09-11T16:27:22.501Z</time>
      </trkpt>
      <trkpt lat="43.23369" lon="6.20766">
        <ele>96.58128356934</ele>
        <time>2020-09-11T16:27:34.753Z</time>
      </trkpt>
      <trkpt lat="43.23362" lon="6.2072">
        <ele>96.54259490967</ele>
        <time>2020-09-11T16:27:47.011Z</time>
      </trkpt>
      <trkpt lat="43.23358" lon="6.20645">
        <ele>96.34760284424</ele>
        <time>2020-09-11T16:27:59.278Z</time>
      </trkpt>
      <trkpt lat="43.23349" lon="6.20561">
        <ele>94.69686126709</ele>
        <time>2020-09-11T16:28:11.555Z</time>
      </trkpt>
      <trkpt lat="43.23337" lon="6.20485">
        <ele>91.25918579102</ele>
        <time>2020-09-11T16:28:23.841Z</time>
      </trkpt>
      <trkpt lat="43.23325" lon="6.20406">
        <ele>89.73138427734</ele>
        <time>2020-09-11T16:28:36.136Z</time>
      </trkpt>
      <trkpt lat="43.2331" lon="6.20327">
        <ele>87.24004364014</ele>
        <time>2020-09-11T16:28:48.441Z</time>
      </trkpt>
      <trkpt lat="43.23294" lon="6.20249">
        <ele>86.73467254639</ele>
        <time>2020-09-11T16:29:00.755Z</time>
      </trkpt>
      <trkpt lat="43.23276" lon="6.20174">
        <ele>86.69987487793</ele>
        <time>2020-09-11T16:29:13.078Z</time>
      </trkpt>
      <trkpt lat="43.2326" lon="6.20099">
        <ele>86.55349731445</ele>
        <time>2020-09-11T16:29:25.410Z</time>
      </trkpt>
      <trkpt lat="43.2326" lon="6.20023">
        <ele>86.08794403076</ele>
        <time>2020-09-11T16:29:37.751Z</time>
      </trkpt>
      <trkpt lat="43.23263" lon="6.19945">
        <ele>85.9871673584</ele>
        <time>2020-09-11T16:29:50.102Z</time>
      </trkpt>
      <trkpt lat="43.23267" lon="6.19865">
        <ele>85.82479858398</ele>
        <time>2020-09-11T16:30:02.462Z</time>
      </trkpt>
      <trkpt lat="43.23281" lon="6.19791">
        <ele>85.59497070312</ele>
        <time>2020-09-11T16:30:14.831Z</time>
      </trkpt>
      <trkpt lat="43.23299" lon="6.19712">
        <ele>85.98638916016</ele>
        <time>2020-09-11T16:30:27.210Z</time>
      </trkpt>
      <trkpt lat="43.2331" lon="6.19669">
        <ele>85.31261444092</ele>
        <time>2020-09-11T16:30:39.594Z</time>
      </trkpt>
      <trkpt lat="43.23318" lon="6.19585">
        <ele>85.16895294189</ele>
        <time>2020-09-11T16:30:51.988Z</time>
      </trkpt>
      <trkpt lat="43.23321" lon="6.195">
        <ele>85.13347625732</ele>
        <time>2020-09-11T16:31:04.392Z</time>
      </trkpt>
      <trkpt lat="43.23313" lon="6.19425">
        <ele>83.91007995605</ele>
        <time>2020-09-11T16:31:16.805Z</time>
      </trkpt>
      <trkpt lat="43.23313" lon="6.19348">
        <ele>82.6205291748</ele>
        <time>2020-09-11T16:31:29.227Z</time>
      </trkpt>
      <trkpt lat="43.23315" lon="6.19271">
        <ele>81.85848236084</ele>
        <time>2020-09-11T16:31:41.658Z</time>
      </trkpt>
      <trkpt lat="43.23329" lon="6.19197">
        <ele>82.20252227783</ele>
        <time>2020-09-11T16:31:54.098Z</time>
      </trkpt>
      <trkpt lat="43.23347" lon="6.19123">
        <ele>81.44813537598</ele>
        <time>2020-09-11T16:32:06.547Z</time>
      </trkpt>
      <trkpt lat="43.23353" lon="6.19038">
        <ele>79.82913970947</ele>
        <time>2020-09-11T16:32:19.006Z</time>
      </trkpt>
      <trkpt lat="43.23354" lon="6.18952">
        <ele>80.21792602539</ele>
        <time>2020-09-11T16:32:31.475Z</time>
      </trkpt>
      <trkpt lat="43.23352" lon="6.18938">
        <ele>80.40509033203</ele>
        <time>2020-09-11T16:32:43.945Z</time>
      </trkpt>
      <trkpt lat="43.23338" lon="6.1886">
        <ele>80.86805725098</ele>
        <time>2020-09-11T16:32:56.425Z</time>
      </trkpt>
      <trkpt lat="43.23322" lon="6.18788">
        <ele>79.42915344238</ele>
        <time>2020-09-11T16:33:08.914Z</time>
      </trkpt>
      <trkpt lat="43.23297" lon="6.18728">
        <ele>78</ele>
        <time>2020-09-11T16:33:21.411Z</time>
      </trkpt>
      <trkpt lat="43.23267" lon="6.18656">
        <ele>78</ele>
        <time>2020-09-11T16:33:33.917Z</time>
      </trkpt>
      <trkpt lat="43.23259" lon="6.18635">
        <ele>78.01203155518</ele>
        <time>2020-09-11T16:33:46.426Z</time>
      </trkpt>
      <trkpt lat="43.23255" lon="6.18625">
        <ele>78.02763366699</ele>
        <time>2020-09-11T16:33:58.936Z</time>
      </trkpt>
      <trkpt lat="43.23233" lon="6.18559">
        <ele>78.02763366699</ele>
        <time>2020-09-11T16:34:11.455Z</time>
      </trkpt>
      <trkpt lat="43.23224" lon="6.18477">
        <ele>77.3617401123</ele>
        <time>2020-09-11T16:34:23.984Z</time>
      </trkpt>
      <trkpt lat="43.23212" lon="6.18396">
        <ele>76.83142852783</ele>
        <time>2020-09-11T16:34:36.522Z</time>
      </trkpt>
      <trkpt lat="43.23193" lon="6.18317">
        <ele>77.49195861816</ele>
        <time>2020-09-11T16:34:49.070Z</time>
      </trkpt>
      <trkpt lat="43.23163" lon="6.18246">
        <ele>77.80263519287</ele>
        <time>2020-09-11T16:35:01.628Z</time>
      </trkpt>
      <trkpt lat="43.23155" lon="6.18211">
        <ele>77.86332702637</ele>
        <time>2020-09-11T16:35:14.190Z</time>
      </trkpt>
      <trkpt lat="43.23154" lon="6.18187">
        <ele>77.50762939453</ele>
        <time>2020-09-11T16:35:26.755Z</time>
      </trkpt>
      <trkpt lat="43.23166" lon="6.18103">
        <ele>76.41244506836</ele>
        <time>2020-09-11T16:35:39.330Z</time>
      </trkpt>
      <trkpt lat="43.23184" lon="6.18032">
        <ele>76.30294036865</ele>
        <time>2020-09-11T16:35:51.914Z</time>
      </trkpt>
      <trkpt lat="43.23206" lon="6.17962">
        <ele>75.974609375</ele>
        <time>2020-09-11T16:36:04.506Z</time>
      </trkpt>
      <trkpt lat="43.2323" lon="6.17895">
        <ele>74.38301849365</ele>
        <time>2020-09-11T16:36:17.107Z</time>
      </trkpt>
      <trkpt lat="43.2324" lon="6.17821">
        <ele>72.2370223999</ele>
        <time>2020-09-11T16:36:29.717Z</time>
      </trkpt>
      <trkpt lat="43.2324" lon="6.17746">
        <ele>72.00569915771</ele>
        <time>2020-09-11T16:36:42.336Z</time>
      </trkpt>
      <trkpt lat="43.2324" lon="6.17663">
        <ele>71.28741455078</ele>
        <time>2020-09-11T16:36:54.964Z</time>
      </trkpt>
      <trkpt lat="43.23247" lon="6.1758">
        <ele>71.33208465576</ele>
        <time>2020-09-11T16:37:07.602Z</time>
      </trkpt>
      <trkpt lat="43.23251" lon="6.17496">
        <ele>70.60666656494</ele>
        <time>2020-09-11T16:37:20.250Z</time>
      </trkpt>
      <trkpt lat="43.23246" lon="6.17415">
        <ele>70.38951873779</ele>
        <time>2020-09-11T16:37:32.908Z</time>
      </trkpt>
      <trkpt lat="43.23235" lon="6.17335">
        <ele>71.36598968506</ele>
        <time>2020-09-11T16:37:45.575Z</time>
      </trkpt>
      <trkpt lat="43.23226" lon="6.17255">
        <ele>73.42682647705</ele>
        <time>2020-09-11T16:37:58.252Z</time>
      </trkpt>
      <trkpt lat="43.23221" lon="6.17212">
        <ele>75.75246429443</ele>
        <time>2020-09-11T16:38:10.934Z</time>
      </trkpt>
      <trkpt lat="43.23222" lon="6.1719">
        <ele>78.05368041992</ele>
        <time>2020-09-11T16:38:23.618Z</time>
      </trkpt>
      <trkpt lat="43.23246" lon="6.17117">
        <ele>81.10723114014</ele>
        <time>2020-09-11T16:38:36.312Z</time>
      </trkpt>
      <trkpt lat="43.23279" lon="6.17051">
        <ele>82.29158782959</ele>
        <time>2020-09-11T16:38:49.015Z</time>
      </trkpt>
      <trkpt lat="43.23321" lon="6.16993">
        <ele>80.83769989014</ele>
        <time>2020-09-11T16:39:01.728Z</time>
      </trkpt>
      <trkpt lat="43.23333" lon="6.16976">
        <ele>78.57789611816</ele>
        <time>2020-09-11T16:39:14.443Z</time>
      </trkpt>
      <trkpt lat="43.23369" lon="6.16907">
        <ele>81.85569000244</ele>
        <time>2020-09-11T16:39:27.168Z</time>
      </trkpt>
      <trkpt lat="43.23395" lon="6.16829">
        <ele>80.4065322876</ele>
        <time>2020-09-11T16:39:39.903Z</time>
      </trkpt>
      <trkpt lat="43.23413" lon="6.16754">
        <ele>77.71891021729</ele>
        <time>2020-09-11T16:39:52.647Z</time>
      </trkpt>
      <trkpt lat="43.23422" lon="6.16679">
        <ele>77.65971374512</ele>
        <time>2020-09-11T16:40:05.400Z</time>
      </trkpt>
      <trkpt lat="43.23423" lon="6.16612">
        <ele>78.06547546387</ele>
        <time>2020-09-11T16:40:18.161Z</time>
      </trkpt>
      <trkpt lat="43.23419" lon="6.16559">
        <ele>78.97784423828</ele>
        <time>2020-09-11T16:40:30.928Z</time>
      </trkpt>
      <trkpt lat="43.23414" lon="6.16523">
        <ele>79.90556335449</ele>
        <time>2020-09-11T16:40:43.700Z</time>
      </trkpt>
      <trkpt lat="43.23411" lon="6.16497">
        <ele>80.94219207764</ele>
        <time>2020-09-11T16:40:56.475Z</time>
      </trkpt>
      <trkpt lat="43.23406" lon="6.16457">
        <ele>81.58447265625</ele>
        <time>2020-09-11T16:41:09.254Z</time>
      </trkpt>
      <trkpt lat="43.23405" lon="6.1645">
        <ele>81.78243255615</ele>
        <time>2020-09-11T16:41:22.034Z</time>
      </trkpt>
      <trkpt lat="43.23395" lon="6.16376">
        <ele>83.95768737793</ele>
        <time>2020-09-11T16:41:34.823Z</time>
      </trkpt>
      <trkpt lat="43.23384" lon="6.16303">
        <ele>83.47855377197</ele>
        <time>2020-09-11T16:41:47.621Z</time>
      </trkpt>
      <trkpt lat="43.23374" lon="6.16227">
        <ele>84.03105163574</ele>
        <time>2020-09-11T16:42:00.428Z</time>
      </trkpt>
      <trkpt lat="43.23361" lon="6.16155">
        <ele>82.74005126953</ele>
        <time>2020-09-11T16:42:13.244Z</time>
      </trkpt>
      <trkpt lat="43.23352" lon="6.1611">
        <ele>82.32731628418</ele>
        <time>2020-09-11T16:42:26.065Z</time>
      </trkpt>
      <trkpt lat="43.23336" lon="6.16035">
        <ele>81.83751678467</ele>
        <time>2020-09-11T16:42:38.895Z</time>
      </trkpt>
      <trkpt lat="43.23332" lon="6.16018">
        <ele>81.60955047607</ele>
        <time>2020-09-11T16:42:51.727Z</time>
      </trkpt>
      <trkpt lat="43.23315" lon="6.15944">
        <ele>80.71694946289</ele>
        <time>2020-09-11T16:43:04.568Z</time>
      </trkpt>
      <trkpt lat="43.23301" lon="6.15898">
        <ele>80.65455627441</ele>
        <time>2020-09-11T16:43:17.415Z</time>
      </trkpt>
      <trkpt lat="43.23294" lon="6.15879">
        <ele>80.48615264893</ele>
        <time>2020-09-11T16:43:30.265Z</time>
      </trkpt>
      <trkpt lat="43.23268" lon="6.15804">
        <ele>79.61963653564</ele>
        <time>2020-09-11T16:43:43.124Z</time>
      </trkpt>
      <trkpt lat="43.23256" lon="6.15759">
        <ele>78.5073928833</ele>
        <time>2020-09-11T16:43:55.989Z</time>
      </trkpt>
      <trkpt lat="43.23247" lon="6.15722">
        <ele>77.88980102539</ele>
        <time>2020-09-11T16:44:08.859Z</time>
      </trkpt>
      <trkpt lat="43.23246" lon="6.15712">
        <ele>78.00378417969</ele>
        <time>2020-09-11T16:44:21.730Z</time>
      </trkpt>
      <trkpt lat="43.23244" lon="6.15701">
        <ele>78.11177062988</ele>
        <time>2020-09-11T16:44:34.602Z</time>
      </trkpt>
      <trkpt lat="43.23237" lon="6.15657">
        <ele>78.52569580078</ele>
        <time>2020-09-11T16:44:47.479Z</time>
      </trkpt>
      <trkpt lat="43.23233" lon="6.15634">
        <ele>78.60254669189</ele>
        <time>2020-09-11T16:45:00.359Z</time>
      </trkpt>
      <trkpt lat="43.23226" lon="6.15562">
        <ele>77.05331420898</ele>
        <time>2020-09-11T16:45:13.248Z</time>
      </trkpt>
      <trkpt lat="43.23224" lon="6.15536">
        <ele>76.5895614624</ele>
        <time>2020-09-11T16:45:26.140Z</time>
      </trkpt>
      <trkpt lat="43.23218" lon="6.15458">
        <ele>76.43274688721</ele>
        <time>2020-09-11T16:45:39.041Z</time>
      </trkpt>
      <trkpt lat="43.23208" lon="6.15384">
        <ele>76.27140808105</ele>
        <time>2020-09-11T16:45:51.951Z</time>
      </trkpt>
      <trkpt lat="43.23201" lon="6.15341">
        <ele>76.69133758545</ele>
        <time>2020-09-11T16:46:04.866Z</time>
      </trkpt>
      <trkpt lat="43.23193" lon="6.15298">
        <ele>76.9792175293</ele>
        <time>2020-09-11T16:46:17.786Z</time>
      </trkpt>
      <trkpt lat="43.23192" lon="6.15288">
        <ele>76.96242523193</ele>
        <time>2020-09-11T16:46:30.707Z</time>
      </trkpt>
      <trkpt lat="43.2319" lon="6.15278">
        <ele>76.95282745361</ele>
        <time>2020-09-11T16:46:43.629Z</time>
      </trkpt>
      <trkpt lat="43.23186" lon="6.15257">
        <ele>76.91203308105</ele>
        <time>2020-09-11T16:46:56.554Z</time>
      </trkpt>
      <trkpt lat="43.23181" lon="6.15229">
        <ele>76.86643981934</ele>
        <time>2020-09-11T16:47:09.482Z</time>
      </trkpt>
      <trkpt lat="43.23168" lon="6.15149">
        <ele>77.91421508789</ele>
        <time>2020-09-11T16:47:22.420Z</time>
      </trkpt>
      <trkpt lat="43.23161" lon="6.15102">
        <ele>78.76469421387</ele>
        <time>2020-09-11T16:47:35.363Z</time>
      </trkpt>
      <trkpt lat="43.23142" lon="6.15028">
        <ele>80.13410186768</ele>
        <time>2020-09-11T16:47:48.316Z</time>
      </trkpt>
      <trkpt lat="43.23133" lon="6.15007">
        <ele>80.96625518799</ele>
        <time>2020-09-11T16:48:01.271Z</time>
      </trkpt>
      <trkpt lat="43.23105" lon="6.14938">
        <ele>82.35620880127</ele>
        <time>2020-09-11T16:48:14.236Z</time>
      </trkpt>
      <trkpt lat="43.23103" lon="6.14932">
        <ele>82.35140991211</ele>
        <time>2020-09-11T16:48:27.201Z</time>
      </trkpt>
      <trkpt lat="43.23095" lon="6.14913">
        <ele>82.6361618042</ele>
        <time>2020-09-11T16:48:40.169Z</time>
      </trkpt>
      <trkpt lat="43.2308" lon="6.14883">
        <ele>85.6325378418</ele>
        <time>2020-09-11T16:48:53.141Z</time>
      </trkpt>
      <trkpt lat="43.23055" lon="6.14825">
        <ele>90.59976959229</ele>
        <time>2020-09-11T16:49:06.121Z</time>
      </trkpt>
      <trkpt lat="43.2305" lon="6.14812">
        <ele>91.64599609375</ele>
        <time>2020-09-11T16:49:19.103Z</time>
      </trkpt>
      <trkpt lat="43.2302" lon="6.14744">
        <ele>96.63809967041</ele>
        <time>2020-09-11T16:49:32.094Z</time>
      </trkpt>
      <trkpt lat="43.2301" lon="6.1472">
        <ele>98.01705169678</ele>
        <time>2020-09-11T16:49:45.088Z</time>
      </trkpt>
      <trkpt lat="43.23007" lon="6.14713">
        <ele>98.56416320801</ele>
        <time>2020-09-11T16:49:58.083Z</time>
      </trkpt>
      <trkpt lat="43.23004" lon="6.14707">
        <ele>98.90970611572</ele>
        <time>2020-09-11T16:50:11.079Z</time>
      </trkpt>
      <trkpt lat="43.23002" lon="6.147">
        <ele>99.13646697998</ele>
        <time>2020-09-11T16:50:24.076Z</time>
      </trkpt>
      <trkpt lat="43.22992" lon="6.14674">
        <ele>100.36026763916</ele>
        <time>2020-09-11T16:50:37.076Z</time>
      </trkpt>
      <trkpt lat="43.22989" lon="6.14668">
        <ele>100.86058044434</ele>
        <time>2020-09-11T16:50:50.077Z</time>
      </trkpt>
      <trkpt lat="43.22986" lon="6.14662">
        <ele>101.10894012451</ele>
        <time>2020-09-11T16:51:03.079Z</time>
      </trkpt>
      <trkpt lat="43.22979" lon="6.14643">
        <ele>101.78566741943</ele>
        <time>2020-09-11T16:51:16.084Z</time>
      </trkpt>
      <trkpt lat="43.22969" lon="6.14626">
        <ele>102.52354431152</ele>
        <time>2020-09-11T16:51:29.091Z</time>
      </trkpt>
      <trkpt lat="43.2295" lon="6.14602">
        <ele>105.4786529541</ele>
        <time>2020-09-11T16:51:42.102Z</time>
      </trkpt>
      <trkpt lat="43.22913" lon="6.14557">
        <ele>108.93106079102</ele>
        <time>2020-09-11T16:51:55.121Z</time>
      </trkpt>
      <trkpt lat="43.22879" lon="6.14496">
        <ele>108.157081604</ele>
        <time>2020-09-11T16:52:08.149Z</time>
      </trkpt>
      <trkpt lat="43.22871" lon="6.1447">
        <ele>105.62754058838</ele>
        <time>2020-09-11T16:52:21.181Z</time>
      </trkpt>
      <trkpt lat="43.22855" lon="6.14414">
        <ele>105.86270141602</ele>
        <time>2020-09-11T16:52:34.220Z</time>
      </trkpt>
      <trkpt lat="43.22835" lon="6.14379">
        <ele>105.76734161377</ele>
        <time>2020-09-11T16:52:47.264Z</time>
      </trkpt>
      <trkpt lat="43.22815" lon="6.14355">
        <ele>104.37437438965</ele>
        <time>2020-09-11T16:53:00.312Z</time>
      </trkpt>
      <trkpt lat="43.228" lon="6.14346">
        <ele>104.78470611572</ele>
        <time>2020-09-11T16:53:13.363Z</time>
      </trkpt>
      <trkpt lat="43.22795" lon="6.14344">
        <ele>105.15544128418</ele>
        <time>2020-09-11T16:53:26.415Z</time>
      </trkpt>
      <trkpt lat="43.22771" lon="6.14336">
        <ele>104.90924072266</ele>
        <time>2020-09-11T16:53:39.471Z</time>
      </trkpt>
      <trkpt lat="43.22768" lon="6.14332">
        <ele>104.77966308594</ele>
        <time>2020-09-11T16:53:52.527Z</time>
      </trkpt>
      <trkpt lat="43.22769" lon="6.14315">
        <ele>103.78407287598</ele>
        <time>2020-09-11T16:54:05.585Z</time>
      </trkpt>
      <trkpt lat="43.22775" lon="6.14298">
        <ele>102.04494476318</ele>
        <time>2020-09-11T16:54:18.645Z</time>
      </trkpt>
      <trkpt lat="43.22775" lon="6.14292">
        <ele>101.96815490723</ele>
        <time>2020-09-11T16:54:31.706Z</time>
      </trkpt>
      <trkpt lat="43.22773" lon="6.14259">
        <ele>101.84457397461</ele>
        <time>2020-09-11T16:54:44.771Z</time>
      </trkpt>
      <trkpt lat="43.22773" lon="6.14253">
        <ele>101.77018737793</ele>
        <time>2020-09-11T16:54:57.837Z</time>
      </trkpt>
      <trkpt lat="43.22773" lon="6.14246">
        <ele>101.66580200195</ele>
        <time>2020-09-11T16:55:10.903Z</time>
      </trkpt>
      <trkpt lat="43.22773" lon="6.1424">
        <ele>101.60821533203</ele>
        <time>2020-09-11T16:55:23.970Z</time>
      </trkpt>
      <trkpt lat="43.2277" lon="6.1422">
        <ele>100.12920379639</ele>
        <time>2020-09-11T16:55:37.040Z</time>
      </trkpt>
      <trkpt lat="43.22769" lon="6.14204">
        <ele>100.720703125</ele>
        <time>2020-09-11T16:55:50.111Z</time>
      </trkpt>
      <trkpt lat="43.22768" lon="6.14201">
        <ele>100.99906158447</ele>
        <time>2020-09-11T16:56:03.183Z</time>
      </trkpt>
      <trkpt lat="43.22768" lon="6.14201">
        <ele>101.06864929199</ele>
        <time>2020-09-11T16:56:16.255Z</time>
      </trkpt>
      <trkpt lat="43.22768" lon="6.14201">
        <ele>100.99906158447</ele>
        <time>2020-09-11T16:56:29.327Z</time>
      </trkpt>
    </trkseg>
  </trk>
</gpx>